# Wetter Temperatur Luftdruck Luftfeuchtigkeit Sichtweite Windgeschwindigkeit Windrichtung Zeit
1 Clear 35 1007 26 10000 3.6 280 08:27 02.10.2022
2 Clear 29 1006 56 10000 2.06 260 05:19 02.10.2022
3 Clear 31 1005 55 10000 1.54 260 00:58 02.10.2022
4 Clear 30 1005 56 10000 1.54 260 00:38 02.10.2022
5 Clear 30 1005 52 10000 1.54 260 23:28 01.10.2022
6 Clear 31 1006 59 10000 1.54 270 21:39 01.10.2022
7 Clear 32 1006 70 10000 2.57 30 18:54 01.10.2022
8 Clear 33 1006 62 10000 2.06 40 17:28 01.10.2022
9 Clear 34 1005 54 10000 4.63 50 15:28 01.10.2022
10 Clear 35 1006 52 10000 5.14 40 13:52 01.10.2022
11 Clear 37 1006 37 10000 4.12 20 12:34 01.10.2022
12 Clear 35 1007 43 10000 4.12 20 11:22 01.10.2022
13 Clear 35 1008 36 10000 3.09 20 10:51 01.10.2022
14 Clear 35 1008 39 10000 3.09 350 10:29 01.10.2022
15 Clear 32 1009 62 10000 4.12 20 09:21 01.10.2022
16 Clear 31 1009 66 10000 3.09 10 08:26 01.10.2022
17 Clear 29 1007 67 10000 2.06 330 03:42 01.10.2022
18 Clear 28 1007 69 10000 2.57 350 03:18 01.10.2022
19 Clear 30 1007 61 10000 2.06 350 23:21 30.09.2022
20 Clear 31 1008 58 10000 2.57 350 22:18 30.09.2022
21 Clear 31 1008 64 10000 4.63 360 20:53 30.09.2022
22 Clear 31 1008 70 10000 4.12 360 20:20 30.09.2022
23 Clear 31 1007 68 10000 4.12 20 18:32 30.09.2022
24 Clear 32 1007 64 10000 4.63 60 16:54 30.09.2022
25 Clouds 34 1006 51 10000 4.12 70 14:24 30.09.2022
26 Clouds 34 1006 48 10000 4.12 40 12:50 30.09.2022
27 Clouds 34 1007 50 10000 4.63 40 11:56 30.09.2022
28 Clear 33 1008 51 10000 3.09 10 09:24 30.09.2022
29 Clear 32 1008 55 10000 3.09 300 07:50 30.09.2022
30 Clear 29 1006 70 10000 2.06 260 03:35 30.09.2022
31 Clear 29 1005 67 10000 2.57 0 01:44 30.09.2022
32 Clear 30 1006 66 10000 3.6 350 21:40 29.09.2022
33 Clear 31 1006 64 10000 4.12 350 21:19 29.09.2022
34 Clear 32 1007 55 10000 5.14 10 19:56 29.09.2022
35 Clear 32 1006 60 10000 4.63 30 17:49 29.09.2022
36 Clouds 32 1005 60 10000 5.14 20 16:29 29.09.2022
37 Clouds 33 1005 57 10000 5.14 60 15:37 29.09.2022
38 Clouds 34 1004 51 10000 5.14 50 14:59 29.09.2022
39 Clear 36 1005 31 10000 4.12 50 12:39 29.09.2022
40 Clear 33 1007 33 10000 4.12 300 08:45 29.09.2022
41 Clear 27 1006 57 10000 2.06 270 04:46 29.09.2022
42 Clear 29 1005 55 10000 2.57 290 02:36 29.09.2022
43 Clear 29 1005 54 10000 1.54 320 23:21 28.09.2022
44 Clear 31 1006 46 10000 4.12 340 21:32 28.09.2022
45 Clear 31 1006 48 10000 4.12 340 20:51 28.09.2022
46 Clear 31 1006 48 10000 4.12 330 19:56 28.09.2022
47 Clear 31 1006 48 10000 4.12 330 19:56 28.09.2022
48 Clear 35 1005 10 10000 4.63 330 16:46 28.09.2022
49 Clear 36 1005 35 10000 7.2 30 13:28 28.09.2022
50 Clear 38 1006 16 10000 7.2 360 11:45 28.09.2022
51 Clear 37 1007 16 10000 5.14 330 09:37 28.09.2022
52 Clear 33 1008 36 10000 5.66 310 07:43 28.09.2022
53 Clear 30 1007 52 10000 4.63 310 05:37 28.09.2022
54 Clear 30 1006 58 10000 3.6 300 01:44 28.09.2022
55 Clear 30 1007 54 10000 4.12 320 00:28 28.09.2022
56 Clear 31 1007 56 10000 3.6 330 22:40 27.09.2022
57 Clear 31 1007 55 10000 5.14 330 21:20 27.09.2022
58 Clear 32 1008 51 10000 6.69 340 20:31 27.09.2022
59 Clear 32 1007 53 10000 6.69 340 19:40 27.09.2022
60 Clear 33 1006 55 10000 8.23 360 17:47 27.09.2022
61 Clear 33 1006 63 10000 7.2 20 16:50 27.09.2022
62 Clear 34 1006 57 10000 7.72 30 15:18 27.09.2022
63 Clear 35 1006 54 10000 7.2 30 13:52 27.09.2022
64 Clear 35 1006 54 10000 7.2 30 12:37 27.09.2022
65 Clear 35 1008 50 10000 6.69 20 10:33 27.09.2022
66 Clear 33 1008 56 9000 5.66 330 07:51 27.09.2022
67 Clear 30 1007 62 10000 4.12 320 04:28 27.09.2022
68 Clear 30 1006 68 10000 5.66 320 01:37 27.09.2022
69 Clear 31 1007 66 10000 7.2 340 23:52 26.09.2022
70 Clear 31 1007 66 10000 7.2 340 23:24 26.09.2022
71 Clear 31 1007 66 10000 7.2 330 21:20 26.09.2022
72 Clear 32 1007 62 10000 7.2 340 19:44 26.09.2022
73 Clear 33 1006 56 10000 7.72 340 18:39 26.09.2022
74 Clear 34 1006 52 10000 8.23 340 17:25 26.09.2022
75 Clear 35 1005 54 9000 9.26 360 15:23 26.09.2022
76 Clear 35 1005 63 8000 8.23 30 12:31 26.09.2022
77 Clear 36 1006 54 10000 6.69 10 10:42 26.09.2022
78 Clear 36 1006 52 10000 7.72 10 10:23 26.09.2022
79 Clear 36 1006 56 9000 6.17 360 09:57 26.09.2022
80 Clear 36 1006 53 8000 5.66 350 09:27 26.09.2022
81 Dust 36 1006 52 6000 6.69 330 08:59 26.09.2022
82 Haze 31 1005 74 5000 3.09 290 05:30 26.09.2022
83 Clear 31 1003 74 10000 4.12 300 02:28 26.09.2022
84 Clear 32 1003 70 10000 3.09 320 23:24 25.09.2022
85 Clear 33 1004 68 10000 3.6 330 21:44 25.09.2022
86 Clear 33 1004 66 10000 4.12 330 20:59 25.09.2022
87 Clear 33 1004 66 10000 4.12 330 20:34 25.09.2022
88 Clear 34 1003 59 10000 6.69 340 18:55 25.09.2022
89 Clear 34 1003 59 10000 6.69 340 18:24 25.09.2022
90 Clear 35 1002 63 10000 6.17 10 17:23 25.09.2022
91 Clear 35 1001 63 10000 6.69 30 16:00 25.09.2022
92 Clear 37 1001 56 10000 5.66 30 14:49 25.09.2022
93 Clear 38 1001 47 10000 7.72 360 14:18 25.09.2022
94 Clear 38 1003 45 10000 5.66 360 10:40 25.09.2022
95 Clear 38 1004 45 9000 6.17 330 09:37 25.09.2022
96 Clear 34 1004 53 10000 4.63 320 07:42 25.09.2022
97 Clear 32 1003 46 10000 4.12 310 05:22 25.09.2022
98 Clear 33 1003 52 10000 4.63 320 23:36 24.09.2022
99 Clear 33 1004 55 10000 5.66 340 21:20 24.09.2022
100 Clear 33 1004 58 10000 5.66 330 19:45 24.09.2022
101 Clear 34 1004 55 10000 5.66 330 19:20 24.09.2022
102 Clear 37 1004 35 10000 7.72 350 16:51 24.09.2022
103 Clear 39 1003 28 10000 7.72 340 15:23 24.09.2022
104 Clear 39 1003 28 10000 7.72 340 15:23 24.09.2022
105 Clear 40 1003 26 10000 7.72 340 14:36 24.09.2022
106 Clear 40 1004 31 8000 9.26 360 13:22 24.09.2022
107 Clear 40 1004 31 6000 8.23 360 12:23 24.09.2022
108 Clear 39 1007 29 10000 6.17 330 09:59 24.09.2022
109 Clear 38 1007 32 10000 6.69 300 08:58 24.09.2022
110 Clear 35 1007 45 10000 4.63 320 07:41 24.09.2022
111 Clear 32 1006 50 10000 3.09 330 04:53 24.09.2022
112 Clear 32 1006 51 10000 3.09 330 04:19 24.09.2022
113 Clear 33 1005 64 10000 1.54 210 22:54 23.09.2022
114 Clear 32 1005 66 10000 1.03 140 21:33 23.09.2022
115 Clear 33 1006 66 10000 1.54 90 20:57 23.09.2022
116 Clear 33 1006 64 10000 1.54 90 20:37 23.09.2022
117 Clear 34 1005 57 10000 1.54 50 19:19 23.09.2022
118 Clear 36 1005 38 10000 3.09 60 16:23 23.09.2022
119 Clouds 40 1005 25 10000 4.12 90 12:39 23.09.2022
120 Clear 39 1007 40 10000 3.09 70 09:36 23.09.2022
121 Clear 35 1007 61 10000 1.03 0 06:51 23.09.2022
122 Clear 33 1005 70 10000 2.06 10 00:44 23.09.2022
123 Clear 33 1005 70 10000 1.54 20 23:28 22.09.2022
124 Clear 33 1005 68 10000 3.09 70 22:27 22.09.2022
125 Clear 34 1006 58 10000 2.57 320 21:23 22.09.2022
126 Clear 33 1006 70 10000 4.63 30 19:58 22.09.2022
127 Clear 34 1005 59 10000 4.63 90 17:41 22.09.2022
128 Clouds 39 1004 26 10000 6.17 120 14:48 22.09.2022
129 Clear 38 1005 44 10000 5.66 130 10:38 22.09.2022
130 Clear 37 1006 50 10000 5.66 120 10:18 22.09.2022
131 Clear 35 1006 59 10000 5.14 110 07:48 22.09.2022
132 Clear 31 1004 77 9000 1.03 0 04:37 22.09.2022
133 Clear 32 1004 72 10000 3.6 90 23:46 21.09.2022
134 Clear 33 1005 68 10000 3.09 50 22:26 21.09.2022
135 Clear 33 1005 63 10000 3.6 60 20:54 21.09.2022
136 Clear 33 1004 73 9000 4.63 80 18:30 21.09.2022
137 Clear 34 1003 70 8000 5.14 70 17:22 21.09.2022
138 Clouds 36 1003 52 6000 5.66 100 15:29 21.09.2022
139 Clouds 37 1003 44 8000 5.14 100 13:38 21.09.2022
140 Clear 37 1004 51 8000 6.17 110 11:34 21.09.2022
141 Clear 37 1005 52 10000 5.14 110 10:50 21.09.2022
142 Clear 37 1005 52 10000 5.14 110 10:50 21.09.2022
143 Clear 36 1006 57 10000 3.6 120 09:38 21.09.2022
144 Clear 35 1006 61 10000 4.63 100 08:23 21.09.2022
145 Clear 32 1004 79 10000 3.6 70 02:52 21.09.2022
146 Clear 32 1004 79 10000 3.6 70 02:33 21.09.2022
147 Clear 32 1003 77 10000 3.09 40 01:49 21.09.2022
148 Clear 32 1004 84 10000 4.12 30 23:50 20.09.2022
149 Clear 32 1005 84 10000 5.14 40 21:34 20.09.2022
150 Clear 33 1005 75 10000 4.63 50 20:26 20.09.2022
151 Clear 33 1004 79 9000 5.14 40 17:53 20.09.2022
152 Clear 34 1003 73 9000 6.69 40 15:18 20.09.2022
153 Clouds 34 1003 71 9000 5.66 40 13:59 20.09.2022
154 Clear 35 1004 65 10000 5.14 60 11:24 20.09.2022
155 Clear 34 1006 62 10000 4.12 40 08:29 20.09.2022
156 Clear 34 1006 62 10000 4.12 40 08:29 20.09.2022
157 Clear 33 1006 66 10000 3.6 40 07:31 20.09.2022
158 Clear 31 1004 70 10000 2.57 70 04:33 20.09.2022
159 Clear 32 1004 70 10000 2.57 80 01:28 20.09.2022
160 Clear 32 1005 66 10000 2.57 60 22:33 19.09.2022
161 Clear 32 1005 66 10000 2.57 70 21:28 19.09.2022
162 Clouds 32 1005 66 10000 3.6 70 20:39 19.09.2022
163 Clear 32 1005 55 10000 3.09 40 18:42 19.09.2022
164 Clouds 33 1004 57 8000 4.12 60 16:29 19.09.2022
165 Clear 34 1004 54 8000 4.63 110 13:45 19.09.2022
166 Clouds 34 1005 46 10000 4.12 90 11:43 19.09.2022
167 Clouds 34 1006 49 10000 4.63 110 09:35 19.09.2022
168 Clouds 33 1006 49 10000 5.14 100 08:20 19.09.2022
169 Clear 31 1003 55 10000 3.09 40 02:46 19.09.2022
170 Clear 32 1004 55 10000 3.09 40 23:39 18.09.2022
171 Clear 32 1004 55 10000 4.12 40 22:29 18.09.2022
172 Clear 32 1004 62 10000 3.6 30 20:41 18.09.2022
173 Clear 32 1004 60 10000 4.12 20 19:26 18.09.2022
174 Clear 33 1003 57 10000 5.14 30 17:49 18.09.2022
175 Clear 33 1003 56 10000 5.66 30 16:43 18.09.2022
176 Clear 34 1003 54 10000 6.17 60 14:39 18.09.2022
177 Clear 35 1003 54 10000 5.14 30 12:56 18.09.2022
178 Clear 36 1003 50 10000 4.12 30 11:51 18.09.2022
179 Clear 32 1004 51 10000 2.57 250 06:57 18.09.2022
180 Clear 31 1002 56 10000 2.57 320 01:37 18.09.2022
181 Clear 31 1002 54 10000 2.57 320 01:18 18.09.2022
182 Clear 32 1002 51 10000 3.09 320 22:54 17.09.2022
183 Clear 32 1002 48 10000 5.66 340 20:50 17.09.2022
184 Clear 34 1002 40 10000 6.17 340 19:30 17.09.2022
185 Clear 35 1001 38 10000 7.72 340 17:21 17.09.2022
186 Clear 39 1000 22 10000 7.2 330 14:18 17.09.2022
187 Clear 40 1000 17 10000 6.69 320 12:33 17.09.2022
188 Clear 39 1001 21 10000 6.69 320 10:47 17.09.2022
189 Clear 34 1002 39 6000 4.12 300 06:31 17.09.2022
190 Clear 32 1001 43 10000 5.66 290 03:55 17.09.2022
191 Clear 34 1002 40 10000 4.63 280 23:23 16.09.2022
192 Clear 35 1002 36 10000 4.12 300 21:46 16.09.2022
193 Clear 35 1002 36 10000 5.14 320 20:41 16.09.2022
194 Clear 36 1002 29 10000 6.69 330 18:28 16.09.2022
195 Clear 38 1001 26 10000 8.23 340 16:21 16.09.2022
196 Clear 40 1001 28 10000 10.29 350 14:44 16.09.2022
197 Clear 40 1001 29 10000 11.32 360 12:35 16.09.2022
198 Clear 40 1004 30 10000 10.29 350 09:37 16.09.2022
199 Clear 36 1004 53 10000 5.66 330 07:22 16.09.2022
200 Clear 34 1004 62 10000 5.66 320 06:47 16.09.2022
201 Clear 33 1004 66 10000 6.17 320 05:43 16.09.2022
202 Clear 33 1003 66 10000 6.17 330 01:30 16.09.2022
203 Clear 35 1004 42 10000 4.12 340 21:24 15.09.2022
204 Clear 36 1004 42 10000 3.09 340 20:28 15.09.2022
205 Clear 36 1004 59 10000 6.17 10 18:57 15.09.2022
206 Clear 36 1003 63 7000 5.66 10 17:38 15.09.2022
207 Clear 36 1003 63 7000 5.66 10 17:18 15.09.2022
208 Clear 37 1003 56 9000 6.17 50 15:22 15.09.2022
209 Clear 40 1004 31 10000 5.14 50 12:49 15.09.2022
210 Clear 40 1005 29 10000 3.09 30 10:42 15.09.2022
211 Clear 39 1005 33 10000 3.09 20 09:43 15.09.2022
212 Clear 32 1004 82 7000 4.12 360 05:22 15.09.2022
213 Clear 32 1003 84 6000 3.09 350 02:57 15.09.2022
214 Mist 33 1003 75 4100 4.63 20 22:44 14.09.2022
215 Clear 34 1004 70 9000 4.63 30 20:24 14.09.2022
216 Clear 34 1004 63 10000 4.63 20 19:32 14.09.2022
217 Clear 35 1003 59 9000 5.14 30 17:28 14.09.2022
218 Clear 37 1002 44 9000 3.6 30 15:58 14.09.2022
219 Clear 38 1002 39 9000 3.6 50 14:46 14.09.2022
220 Clear 38 1003 41 10000 3.6 90 12:24 14.09.2022
221 Clear 37 1004 44 10000 3.09 100 09:49 14.09.2022
222 Clear 36 1004 49 10000 2.57 100 07:47 14.09.2022
223 Clear 34 1004 62 10000 3.09 90 06:48 14.09.2022
224 Clear 31 1003 75 10000 3.09 80 05:22 14.09.2022
225 Clear 31 1002 79 10000 2.06 360 01:53 14.09.2022
226 Clear 31 1002 79 10000 2.06 350 01:30 14.09.2022
227 Clear 31 1002 77 10000 2.06 50 00:52 14.09.2022
228 Clear 32 1002 72 10000 2.57 60 23:54 13.09.2022
229 Clear 32 1002 72 10000 2.57 60 23:36 13.09.2022
230 Clear 32 1002 72 10000 2.57 60 23:18 13.09.2022
231 Clear 32 1002 70 10000 2.57 30 22:22 13.09.2022
232 Clear 33 1003 70 9000 3.09 30 20:29 13.09.2022
233 Clear 34 1002 61 10000 3.09 60 18:37 13.09.2022
234 Clear 36 1001 52 7000 5.66 100 15:58 13.09.2022
235 Clear 37 1001 48 7000 5.14 100 14:50 13.09.2022
236 Clear 37 1001 47 7000 4.12 120 13:25 13.09.2022
237 Clear 36 1003 57 8000 4.63 110 09:49 13.09.2022
238 Clear 35 1002 63 7000 3.09 90 07:31 13.09.2022
239 Clouds 32 1000 72 9000 1.03 0 00:52 13.09.2022
240 Clear 33 1000 66 10000 2.06 150 22:52 12.09.2022
241 Clear 34 1000 64 10000 1.54 220 22:26 12.09.2022
242 Clear 34 1000 59 10000 1.54 130 20:46 12.09.2022
243 Clear 35 1001 59 10000 1.54 120 19:22 12.09.2022
244 Clouds 35 1000 63 8000 3.09 130 17:46 12.09.2022
245 Clouds 38 999 44 8000 4.12 140 15:22 12.09.2022
246 Clear 40 1000 44 6000 4.12 90 11:57 12.09.2022
247 Clear 41 1001 31 6000 2.57 0 10:24 12.09.2022
248 Haze 32 1000 74 3800 2.57 220 05:57 12.09.2022
249 Clear 32 1000 66 6000 3.09 220 04:32 12.09.2022
250 Clear 33 1001 66 7000 1.03 140 23:59 11.09.2022
251 Clear 33 1001 66 7000 1.03 60 22:45 11.09.2022
252 Clear 34 1002 64 9000 2.06 20 21:22 11.09.2022
253 Clear 34 1002 66 9000 2.06 10 20:43 11.09.2022
254 Clouds 35 1002 59 9000 1.54 30 19:27 11.09.2022
255 Clouds 35 1001 59 9000 2.06 30 18:58 11.09.2022
256 Clouds 36 1000 52 8000 3.09 110 16:58 11.09.2022
257 Clouds 37 1000 48 8000 3.6 110 15:44 11.09.2022
258 Clouds 38 1001 46 8000 4.63 110 13:19 11.09.2022
259 Clouds 38 1003 53 7000 3.6 90 10:51 11.09.2022
260 Clouds 35 1005 64 6000 2.57 210 07:49 11.09.2022
261 Clear 32 1003 79 7000 2.06 190 04:36 11.09.2022
262 Clouds 33 1003 75 8000 2.06 160 23:48 10.09.2022
263 Clouds 33 1003 75 8000 2.06 110 22:21 10.09.2022
264 Clouds 34 1004 70 9000 2.57 40 20:24 10.09.2022
265 Clouds 34 1004 73 9000 4.63 10 19:42 10.09.2022
266 Clouds 34 1004 70 9000 4.63 10 19:24 10.09.2022
267 Clouds 35 1003 66 7000 4.63 30 17:19 10.09.2022
268 Clouds 36 1003 59 7000 5.14 60 15:35 10.09.2022
269 Clear 37 1003 61 7000 4.12 70 13:29 10.09.2022
270 Clear 37 1004 59 8000 4.12 60 12:29 10.09.2022
271 Clear 36 1006 56 7000 3.6 90 10:28 10.09.2022
272 Clear 35 1007 61 7000 2.06 90 08:41 10.09.2022
273 Clear 35 1007 61 7000 2.06 90 08:20 10.09.2022
274 Clear 32 1004 74 9000 2.57 220 03:43 10.09.2022
275 Clear 33 1005 70 10000 2.06 140 23:36 09.09.2022
276 Clear 33 1005 70 10000 2.06 90 22:31 09.09.2022
277 Clear 33 1006 68 9000 2.06 90 20:50 09.09.2022
278 Clear 34 1005 66 9000 3.09 60 19:58 09.09.2022
279 Clear 34 1005 68 10000 3.09 60 19:22 09.09.2022
280 Clear 35 1004 66 10000 4.63 50 16:52 09.09.2022
281 Clear 36 1004 58 10000 5.14 70 14:47 09.09.2022
282 Clear 36 1004 63 10000 5.66 60 13:19 09.09.2022
283 Clear 38 1007 51 10000 3.6 90 10:41 09.09.2022
284 Clear 36 1007 52 10000 3.6 200 07:45 09.09.2022
285 Clear 32 1005 66 10000 3.09 140 03:34 09.09.2022
286 Clear 33 1006 73 10000 2.57 120 22:34 08.09.2022
287 Clear 33 1006 73 10000 2.57 110 21:51 08.09.2022
288 Clear 33 1006 75 10000 3.09 100 20:46 08.09.2022
289 Clear 33 1006 75 10000 3.09 100 20:24 08.09.2022
290 Clear 34 1006 72 10000 4.12 60 18:34 08.09.2022
291 Clear 35 1005 70 9000 5.14 60 17:23 08.09.2022
292 Clear 36 1004 64 10000 5.66 70 15:18 08.09.2022
293 Clear 37 1005 56 10000 6.69 70 13:28 08.09.2022
294 Clear 37 1005 53 10000 6.17 60 12:40 08.09.2022
295 Clear 37 1006 51 10000 5.14 50 11:22 08.09.2022
296 Clear 38 1006 41 10000 2.57 80 09:26 08.09.2022
297 Clear 34 1006 68 10000 3.6 190 06:53 08.09.2022
298 Clear 33 1004 77 10000 4.12 130 03:23 08.09.2022
299 Clear 33 1004 77 10000 4.12 150 02:36 08.09.2022
300 Clear 33 1004 77 10000 4.12 150 02:18 08.09.2022
301 Clear 33 1004 84 10000 2.06 130 22:58 07.09.2022
302 Clear 34 1005 75 10000 2.57 110 21:44 07.09.2022
303 Clear 34 1005 75 10000 2.57 110 21:21 07.09.2022
304 Clear 34 1005 75 10000 3.09 90 20:25 07.09.2022
305 Clear 35 1004 71 10000 5.14 100 18:54 07.09.2022
306 Clear 37 1003 48 10000 6.17 100 16:18 07.09.2022
307 Clear 38 1004 45 10000 5.66 140 10:52 07.09.2022
308 Clear 38 1004 45 10000 5.66 140 10:32 07.09.2022
309 Clear 37 1004 53 10000 6.17 120 08:23 07.09.2022
310 Clear 33 1003 73 10000 4.12 110 05:33 07.09.2022
311 Clear 33 1001 82 10000 4.63 160 00:27 07.09.2022
312 Clear 35 1001 66 10000 4.12 120 21:51 06.09.2022
313 Clear 35 1001 64 10000 4.12 120 21:32 06.09.2022
314 Clear 36 1001 57 10000 6.17 110 19:38 06.09.2022
315 Clear 36 1001 57 10000 5.14 100 18:34 06.09.2022
316 Clear 36 1000 59 10000 5.14 90 17:37 06.09.2022
317 Clear 38 1000 47 10000 5.66 110 16:44 06.09.2022
318 Clear 38 1000 42 10000 5.14 100 15:55 06.09.2022
319 Clear 39 1000 43 10000 5.14 100 13:47 06.09.2022
320 Clear 40 1001 43 10000 4.63 120 13:27 06.09.2022
321 Clear 39 1001 44 10000 4.12 130 12:56 06.09.2022
322 Clear 39 1002 41 10000 4.63 150 10:54 06.09.2022
323 Clear 37 1003 49 10000 6.17 140 08:58 06.09.2022
324 Clear 35 1003 65 10000 6.17 130 07:52 06.09.2022
325 Clear 32 1002 79 9000 4.63 100 05:59 06.09.2022
326 Clear 34 1000 59 10000 2.57 160 00:20 06.09.2022
327 Clear 34 1001 59 10000 2.06 160 22:41 05.09.2022
328 Clear 34 1001 61 10000 4.12 150 21:38 05.09.2022
329 Clear 35 1002 59 10000 3.09 130 19:56 05.09.2022
330 Clear 36 1001 52 10000 3.09 100 18:51 05.09.2022
331 Clear 36 1001 54 10000 3.09 100 18:24 05.09.2022
332 Clear 37 1001 49 10000 3.6 100 17:35 05.09.2022
333 Clear 38 1000 40 10000 4.63 120 15:53 05.09.2022
334 Clear 39 1000 37 10000 4.63 90 14:20 05.09.2022
335 Clear 40 1001 34 10000 4.63 110 12:29 05.09.2022
336 Clear 41 1003 27 10000 2.57 200 10:35 05.09.2022
337 Clear 35 1004 66 10000 3.6 200 07:44 05.09.2022
338 Clear 33 1002 68 10000 2.06 180 03:47 05.09.2022
339 Clear 33 1001 70 10000 3.09 160 23:58 04.09.2022
340 Clear 34 1002 55 10000 3.09 160 22:28 04.09.2022
341 Clear 35 1002 47 10000 3.09 140 21:45 04.09.2022
342 Clear 35 1003 49 10000 3.09 50 19:44 04.09.2022
343 Clear 36 1002 49 10000 3.09 60 18:21 04.09.2022
344 Clear 37 1001 41 10000 3.09 90 17:26 04.09.2022
345 Clear 39 1001 30 8000 4.63 130 15:23 04.09.2022
346 Clear 39 1001 36 8000 5.14 130 14:22 04.09.2022
347 Clear 38 1002 46 7000 5.14 120 12:25 04.09.2022
348 Haze 38 1003 56 5000 4.63 130 10:59 04.09.2022
349 Haze 37 1004 54 4500 4.12 140 09:24 04.09.2022
350 Mist 33 1004 77 2000 3.6 140 06:27 04.09.2022
351 Mist 31 1002 82 4000 0.51 0 02:41 04.09.2022
352 Haze 33 1003 75 5000 2.06 160 22:33 03.09.2022
353 Haze 33 1004 73 5000 2.06 120 21:25 03.09.2022
354 Haze 34 1004 70 5000 2.57 100 20:55 03.09.2022
355 Haze 35 1003 63 6000 5.14 80 17:37 03.09.2022
356 Clear 35 1003 59 6000 5.14 90 16:52 03.09.2022
357 Clear 38 1003 36 8000 5.66 90 14:52 03.09.2022
358 Clear 38 1003 35 8000 5.66 90 14:30 03.09.2022
359 Clear 39 1003 40 8000 4.63 80 13:44 03.09.2022
360 Clear 38 1005 47 10000 3.6 90 11:31 03.09.2022
361 Clear 36 1006 53 10000 3.09 120 09:22 03.09.2022
362 Clear 36 1006 52 10000 2.57 100 07:45 03.09.2022
363 Clear 31 1005 72 9000 1.03 90 04:48 03.09.2022
364 Clear 32 1004 64 10000 2.06 340 02:35 03.09.2022
365 Clear 33 1004 64 10000 1.54 140 23:42 02.09.2022
366 Clear 34 1005 59 10000 2.06 100 21:57 02.09.2022
367 Clear 34 1005 56 10000 2.57 100 20:42 02.09.2022
368 Clear 35 1005 54 10000 2.06 90 19:47 02.09.2022
369 Clear 35 1005 49 10000 3.09 70 18:50 02.09.2022
370 Clear 35 1004 49 10000 3.09 70 18:24 02.09.2022
371 Clear 36 1004 46 10000 3.09 80 17:23 02.09.2022
372 Clear 37 1004 42 10000 3.6 70 16:31 02.09.2022
373 Clear 39 1004 39 10000 5.14 100 13:25 02.09.2022
374 Clear 39 1006 35 10000 3.09 50 10:39 02.09.2022
375 Clear 39 1006 32 10000 2.06 0 09:42 02.09.2022
376 Clear 38 1006 37 10000 1.54 0 08:45 02.09.2022
377 Clear 35 1006 55 9000 1.54 300 06:46 02.09.2022
378 Clear 34 1006 59 10000 1.54 300 06:18 02.09.2022
379 Clear 34 1004 52 10000 1.54 170 23:19 01.09.2022
380 Clear 34 1004 52 10000 2.06 130 21:47 01.09.2022
381 Clear 34 1005 49 10000 1.54 110 21:27 01.09.2022
382 Clear 35 1005 48 10000 1.54 80 20:52 01.09.2022
383 Clear 36 1005 44 10000 2.06 60 19:32 01.09.2022
384 Clear 36 1004 49 10000 3.6 70 18:18 01.09.2022
385 Clear 36 1004 59 10000 4.63 70 16:51 01.09.2022
386 Clear 39 1003 41 10000 5.14 130 14:51 01.09.2022
387 Clear 40 1003 38 10000 4.63 110 13:23 01.09.2022
388 Clear 39 1003 44 10000 5.14 120 12:50 01.09.2022
389 Clear 42 1004 26 10000 3.09 350 11:51 01.09.2022
390 Clear 41 1004 26 10000 3.09 230 11:19 01.09.2022
391 Clear 39 1006 32 10000 2.57 240 09:31 01.09.2022
392 Clear 34 1005 64 10000 1.03 160 06:31 01.09.2022
393 Clear 32 1004 72 10000 2.06 90 02:33 01.09.2022
394 Clear 32 1004 72 10000 2.06 100 01:29 01.09.2022
395 Clear 33 1005 68 10000 1.54 50 22:22 31.08.2022
396 Clear 34 1005 61 10000 2.06 50 20:35 31.08.2022
397 Clear 35 1005 53 10000 2.06 60 18:32 31.08.2022
398 Clouds 37 1004 43 10000 4.63 120 16:35 31.08.2022
399 Clouds 38 1004 36 10000 4.63 130 15:18 31.08.2022
400 Clear 38 1005 39 10000 4.63 110 12:37 31.08.2022
401 Clear 38 1005 35 10000 4.63 120 11:48 31.08.2022
402 Clear 36 1007 59 10000 3.6 120 09:31 31.08.2022
403 Clear 34 1007 65 10000 4.12 120 07:31 31.08.2022
404 Clear 32 1004 68 10000 4.12 50 02:25 31.08.2022
405 Clear 33 1006 55 10000 1.03 10 22:18 30.08.2022
406 Clear 33 1006 54 10000 1.54 40 21:27 30.08.2022
407 Clear 34 1006 51 10000 2.57 90 19:51 30.08.2022
408 Clouds 36 1005 48 8000 4.12 100 16:47 30.08.2022
409 Clouds 36 1005 48 8000 4.12 100 16:47 30.08.2022
410 Clear 38 1006 32 8000 5.14 120 13:37 30.08.2022
411 Clear 38 1007 32 8000 4.63 140 11:23 30.08.2022
412 Clear 37 1007 45 7000 4.63 120 10:57 30.08.2022
413 Clouds 36 1008 50 7000 4.12 120 08:51 30.08.2022
414 Clear 32 1005 62 9000 3.6 70 03:57 30.08.2022
415 Clear 32 1004 60 10000 2.57 100 00:30 30.08.2022
416 Clear 33 1004 61 10000 2.06 100 22:36 29.08.2022
417 Clear 33 1004 61 10000 3.09 110 21:48 29.08.2022
418 Clear 34 1005 62 10000 4.12 100 20:34 29.08.2022
419 Clear 34 1004 62 10000 4.63 110 18:58 29.08.2022
420 Clear 35 1004 55 10000 5.14 110 17:32 29.08.2022
421 Clear 35 1003 52 10000 5.66 110 16:57 29.08.2022
422 Clear 37 1003 48 10000 4.63 100 15:18 29.08.2022
423 Clear 37 1004 45 10000 4.63 130 13:42 29.08.2022
424 Clear 38 1004 40 10000 6.17 120 12:20 29.08.2022
425 Clear 38 1005 44 10000 5.14 140 10:42 29.08.2022
426 Clear 36 1006 51 10000 4.12 120 08:53 29.08.2022
427 Clear 35 1005 59 10000 1.54 90 06:29 29.08.2022
428 Clear 32 1003 66 10000 2.06 50 01:58 29.08.2022
429 Clear 33 1003 61 10000 1.03 20 23:33 28.08.2022
430 Clear 33 1003 59 10000 2.06 100 21:47 28.08.2022
431 Clear 34 1003 57 10000 2.06 100 21:25 28.08.2022
432 Clear 34 1003 55 10000 2.57 90 19:59 28.08.2022
433 Clear 35 1002 50 10000 4.12 100 18:22 28.08.2022
434 Clear 36 1002 47 10000 4.12 100 17:50 28.08.2022
435 Clear 37 1002 41 10000 4.12 100 16:42 28.08.2022
436 Clear 39 1002 22 10000 4.12 120 14:46 28.08.2022
437 Clear 39 1002 22 10000 4.12 120 14:46 28.08.2022
438 Clear 40 1002 18 10000 4.63 120 12:56 28.08.2022
439 Clear 40 1003 20 10000 4.63 120 11:24 28.08.2022
440 Clear 38 1004 30 10000 5.66 130 10:19 28.08.2022
441 Clear 36 1004 52 10000 5.14 130 08:42 28.08.2022
442 Clear 35 1004 54 10000 4.63 130 07:50 28.08.2022
443 Clear 32 1003 66 10000 2.06 40 04:55 28.08.2022
444 Clear 33 1002 70 10000 3.09 20 00:34 28.08.2022
445 Clear 33 1003 63 10000 2.06 10 22:50 27.08.2022
446 Clear 33 1003 63 10000 2.06 10 22:19 27.08.2022
447 Clear 34 1003 56 10000 2.57 40 20:34 27.08.2022
448 Clear 34 1003 65 10000 3.6 70 18:50 27.08.2022
449 Clear 36 1002 57 10000 4.12 50 16:26 27.08.2022
450 Clear 37 1002 53 10000 5.14 70 15:30 27.08.2022
451 Clear 39 1002 47 10000 4.12 90 12:55 27.08.2022
452 Clear 38 1002 50 10000 4.12 90 11:56 27.08.2022
453 Clear 38 1003 44 10000 4.12 90 10:26 27.08.2022
454 Clear 39 1003 42 10000 5.14 80 09:25 27.08.2022
455 Clear 34 1002 59 10000 4.63 90 05:24 27.08.2022
456 Clear 35 1001 55 10000 3.6 60 00:51 27.08.2022
457 Clear 34 1000 66 10000 2.57 40 23:35 26.08.2022
458 Clear 34 1001 66 10000 2.57 40 21:45 26.08.2022
459 Clear 35 1001 63 10000 4.12 60 19:50 26.08.2022
460 Clear 35 1000 63 10000 5.14 60 17:49 26.08.2022
461 Clear 37 1000 53 10000 5.66 80 15:40 26.08.2022
462 Clear 38 1000 41 10000 6.17 70 14:56 26.08.2022
463 Clear 39 1001 32 10000 4.12 80 12:56 26.08.2022
464 Clear 38 1001 37 10000 4.12 20 11:43 26.08.2022
465 Clear 38 1001 37 10000 4.12 20 11:21 26.08.2022
466 Clear 36 1001 52 9000 5.14 120 07:56 26.08.2022
467 Clear 34 999 75 10000 4.12 50 02:57 26.08.2022
468 Clear 34 999 70 10000 6.17 360 23:45 25.08.2022
469 Clear 34 1000 70 10000 4.63 360 21:55 25.08.2022
470 Clear 34 999 70 10000 1.54 310 20:53 25.08.2022
471 Clear 34 999 70 10000 1.54 10 19:27 25.08.2022
472 Clear 35 999 66 10000 3.6 50 18:29 25.08.2022
473 Clear 35 998 63 10000 4.63 30 17:31 25.08.2022
474 Clear 36 998 52 10000 3.09 50 16:36 25.08.2022
475 Clear 37 998 49 10000 3.6 70 15:28 25.08.2022
476 Clear 37 999 53 10000 5.14 70 13:20 25.08.2022
477 Clear 38 1000 37 10000 4.12 20 10:49 25.08.2022
478 Clear 38 1001 37 10000 4.12 30 09:46 25.08.2022
479 Clear 36 1001 52 10000 1.03 0 07:35 25.08.2022
480 Clear 35 1000 59 10000 3.6 50 02:41 25.08.2022
481 Clear 35 1000 66 10000 3.09 360 23:30 24.08.2022
482 Clear 35 1000 71 10000 4.12 10 22:54 24.08.2022
483 Clouds 35 1000 71 7000 4.63 360 21:39 24.08.2022
484 Clouds 35 1000 71 7000 4.63 360 21:20 24.08.2022
485 Clouds 35 1000 66 9000 4.63 30 19:43 24.08.2022
486 Clouds 36 999 67 9000 5.66 40 16:50 24.08.2022
487 Clouds 37 999 56 6000 5.66 20 15:52 24.08.2022
488 Clouds 37 999 63 6000 4.63 30 14:58 24.08.2022
489 Clear 38 1000 51 10000 4.63 40 12:28 24.08.2022
490 Clear 38 1001 53 10000 6.17 20 11:18 24.08.2022
491 Clear 38 1001 50 10000 6.69 10 08:38 24.08.2022
492 Clear 34 1000 54 10000 5.14 10 03:54 24.08.2022
493 Clear 36 999 45 10000 4.12 320 00:41 24.08.2022
494 Clear 36 1000 45 10000 6.17 340 22:35 23.08.2022
495 Clear 36 1000 45 10000 5.66 340 21:49 23.08.2022
496 Clear 36 1001 42 10000 6.17 350 20:40 23.08.2022
497 Clear 37 1000 53 10000 6.17 10 18:55 23.08.2022
498 Clear 38 999 51 10000 7.2 10 17:53 23.08.2022
499 Clear 37 999 53 10000 7.2 10 17:21 23.08.2022
500 Haze 38 999 57 6000 6.17 10 15:52 23.08.2022
501 Haze 38 999 60 5000 5.14 20 13:50 23.08.2022
502 Clouds 38 999 61 6000 5.14 50 12:46 23.08.2022
503 Haze 39 1000 47 6000 4.12 20 10:57 23.08.2022
504 Haze 38 1000 51 5000 4.63 10 10:32 23.08.2022
505 Haze 38 1000 51 5000 4.63 10 10:32 23.08.2022
506 Haze 37 1001 58 5000 2.57 90 08:55 23.08.2022
507 Clear 38 1000 49 7000 3.09 340 08:22 23.08.2022
508 Clear 37 1000 48 7000 4.12 310 07:52 23.08.2022
509 Clear 36 999 54 6000 4.12 310 07:22 23.08.2022
510 Clear 34 999 62 6000 4.12 310 06:22 23.08.2022
511 Clear 35 997 60 10000 1.54 270 01:44 23.08.2022
512 Clear 33 997 66 9000 1.03 300 00:26 23.08.2022
513 Clear 34 998 65 9000 2.57 50 23:32 22.08.2022
514 Clear 35 999 63 9000 3.6 40 22:19 22.08.2022
515 Clear 36 999 54 10000 3.09 30 19:56 22.08.2022
516 Clear 36 999 54 10000 3.09 30 19:36 22.08.2022
517 Clear 36 998 56 10000 3.6 10 18:36 22.08.2022
518 Clear 37 998 52 8000 6.69 40 15:45 22.08.2022
519 Clear 38 998 51 8000 6.69 60 14:48 22.08.2022
520 Clear 38 999 60 7000 5.14 60 11:39 22.08.2022
521 Clear 38 1000 55 9000 2.57 0 09:24 22.08.2022
522 Clear 34 999 75 10000 2.06 150 05:44 22.08.2022
523 Clear 34 997 70 10000 1.03 140 00:56 22.08.2022
524 Clear 34 996 68 10000 1.54 130 00:36 22.08.2022
525 Clear 35 996 66 10000 2.06 50 23:21 21.08.2022
526 Clear 35 997 68 10000 3.09 60 21:55 21.08.2022
527 Clear 35 998 71 10000 3.09 60 21:18 21.08.2022
528 Clear 35 997 71 10000 3.6 70 19:42 21.08.2022
529 Clear 36 997 67 10000 4.63 80 18:36 21.08.2022
530 Clear 38 996 58 10000 5.14 100 16:48 21.08.2022
531 Clear 39 996 45 10000 4.63 90 15:52 21.08.2022
532 Clear 40 996 42 10000 4.63 100 14:41 21.08.2022
533 Clear 40 996 42 10000 4.63 110 13:48 21.08.2022
534 Clear 41 997 37 10000 4.63 100 12:55 21.08.2022
535 Clear 39 998 49 10000 3.6 110 10:36 21.08.2022
536 Clear 38 999 50 10000 3.6 130 08:57 21.08.2022
537 Clear 38 999 47 10000 3.6 130 08:39 21.08.2022
538 Clouds 37 999 56 8000 2.57 200 07:53 21.08.2022
539 Haze 34 998 77 5000 2.57 160 05:39 21.08.2022
540 Clear 33 996 70 8000 1.54 80 01:47 21.08.2022
541 Clear 34 996 66 9000 1.54 140 23:32 20.08.2022
542 Clear 34 997 67 10000 2.06 100 21:51 20.08.2022
543 Clear 35 997 59 10000 1.54 70 20:50 20.08.2022
544 Clear 36 997 54 10000 2.57 70 19:42 20.08.2022
545 Clear 36 997 56 9000 3.6 40 18:45 20.08.2022
546 Clear 36 997 56 9000 3.6 40 18:25 20.08.2022
547 Clear 38 996 50 7000 3.6 40 17:20 20.08.2022
548 Clear 39 996 47 7000 5.14 60 15:52 20.08.2022
549 Clear 41 996 36 8000 6.17 70 14:20 20.08.2022
550 Clear 42 997 26 8000 4.63 50 11:56 20.08.2022
551 Clear 41 997 35 8000 4.12 70 11:36 20.08.2022
552 Clear 38 998 58 6000 3.09 120 09:20 20.08.2022
553 Haze 35 998 71 4500 2.57 180 07:18 20.08.2022
554 Clear 33 997 77 5000 2.06 100 04:42 20.08.2022
555 Clouds 34 996 70 8000 1.54 30 00:57 20.08.2022
556 Clouds 35 996 71 9000 1.03 0 23:26 19.08.2022
557 Clouds 35 997 69 9000 2.06 90 22:44 19.08.2022
558 Clouds 36 997 51 9000 3.6 70 20:47 19.08.2022
559 Clouds 36 996 65 8000 3.09 80 18:55 19.08.2022
560 Clouds 38 996 50 6000 5.14 110 15:58 19.08.2022
561 Haze 38 996 62 5000 4.63 120 13:42 19.08.2022
562 Dust 38 996 60 4500 4.63 120 11:50 19.08.2022
563 Clear 38 997 49 6000 5.66 130 10:31 19.08.2022
564 Clear 39 997 38 8000 2.57 170 08:31 19.08.2022
565 Clouds 35 996 57 7000 2.57 100 03:39 19.08.2022
566 Clear 35 995 65 8000 3.09 100 00:38 19.08.2022
567 Clear 35 995 63 8000 3.09 100 00:19 19.08.2022
568 Clear 35 995 64 9000 3.09 80 22:56 18.08.2022
569 Clear 35 996 66 9000 3.09 80 22:23 18.08.2022
570 Clear 35 996 66 9000 4.12 80 21:47 18.08.2022
571 Clear 36 996 63 10000 3.09 90 20:45 18.08.2022
572 Clear 36 996 63 10000 3.09 80 19:34 18.08.2022
573 Clear 36 995 63 10000 3.6 100 18:34 18.08.2022
574 Clouds 37 995 59 9000 4.12 120 17:32 18.08.2022
575 Clear 38 995 47 9000 5.14 120 15:51 18.08.2022
576 Clouds 39 995 46 8000 5.14 130 14:21 18.08.2022
577 Clouds 39 995 46 8000 5.14 130 13:44 18.08.2022
578 Clear 39 996 41 10000 5.14 110 12:28 18.08.2022
579 Clear 39 997 44 10000 4.63 130 11:18 18.08.2022
580 Clear 41 998 27 10000 4.63 120 09:43 18.08.2022
581 Clear 36 998 59 10000 3.09 140 07:27 18.08.2022
582 Clear 35 997 60 8000 3.09 140 06:18 18.08.2022
583 Clouds 35 996 73 8000 2.06 110 01:43 18.08.2022
584 Clouds 35 996 75 9000 4.12 110 22:32 17.08.2022
585 Clear 36 997 68 10000 4.63 100 20:21 17.08.2022
586 Clear 36 997 61 10000 3.6 80 19:55 17.08.2022
587 Clear 36 996 56 9000 3.6 150 18:32 17.08.2022
588 Clouds 37 996 56 8000 5.66 120 16:50 17.08.2022
589 Clouds 38 996 50 9000 5.66 130 15:45 17.08.2022
590 Dust 39 996 39 9000 6.17 130 14:36 17.08.2022
591 Clouds 40 997 35 8000 5.66 120 12:22 17.08.2022
592 Clear 40 997 35 9000 6.17 110 10:59 17.08.2022
593 Clear 38 998 35 10000 3.6 150 08:26 17.08.2022
594 Clear 36 998 48 9000 3.6 110 05:35 17.08.2022
595 Clear 35 997 54 10000 3.6 140 00:49 17.08.2022
596 Clear 35 997 60 10000 3.6 130 23:18 16.08.2022
597 Clear 36 998 52 10000 2.57 120 21:21 16.08.2022
598 Clear 36 998 56 10000 3.6 130 19:56 16.08.2022
599 Clear 36 998 53 10000 3.6 120 19:22 16.08.2022
600 Clouds 37 998 47 9000 3.6 140 17:55 16.08.2022
601 Clouds 38 997 49 8000 4.63 140 16:47 16.08.2022
602 Clouds 39 997 45 9000 6.17 140 15:45 16.08.2022
603 Clear 38 997 47 10000 6.69 140 14:54 16.08.2022
604 Clear 39 997 44 10000 5.66 130 14:36 16.08.2022
605 Clear 41 998 36 10000 5.66 110 12:19 16.08.2022
606 Clear 40 999 36 10000 3.09 130 10:23 16.08.2022
607 Clear 39 999 42 10000 2.57 110 08:53 16.08.2022
608 Clear 38 999 45 10000 2.06 110 08:21 16.08.2022
609 Clear 36 999 57 10000 3.09 350 06:31 16.08.2022
610 Clear 35 997 55 10000 2.06 160 23:56 15.08.2022
611 Clear 36 998 48 10000 2.57 130 22:23 15.08.2022
612 Clear 36 998 49 10000 2.06 150 21:50 15.08.2022
613 Clear 36 998 52 10000 3.09 130 20:32 15.08.2022
614 Clear 36 998 52 10000 4.12 120 19:22 15.08.2022
615 Clear 37 998 47 8000 3.6 90 17:59 15.08.2022
616 Clear 38 997 50 8000 5.14 120 16:25 15.08.2022
617 Clear 40 997 33 8000 5.66 120 15:52 15.08.2022
618 Clear 40 997 33 9000 7.2 120 13:50 15.08.2022
619 Clear 40 998 42 10000 6.17 150 11:24 15.08.2022
620 Clear 38 999 53 10000 6.17 130 09:40 15.08.2022
621 Clear 36 998 48 10000 3.09 140 07:32 15.08.2022
622 Clouds 32 997 64 9000 1.03 120 04:34 15.08.2022
623 Clear 34 997 56 10000 2.06 150 00:33 15.08.2022
624 Clear 34 997 59 10000 1.54 160 22:30 14.08.2022
625 Clear 35 998 55 10000 2.06 130 21:37 14.08.2022
626 Clear 35 998 56 10000 2.57 110 19:47 14.08.2022
627 Clear 35 997 56 10000 3.09 140 18:53 14.08.2022
628 Clear 36 997 54 10000 1.54 130 18:18 14.08.2022
629 Clear 38 996 43 10000 4.63 100 16:50 14.08.2022
630 Clear 38 996 44 10000 5.66 100 15:48 14.08.2022
631 Clear 40 996 37 9000 5.66 100 14:19 14.08.2022
632 Clouds 40 996 36 9000 5.66 110 13:49 14.08.2022
633 Clouds 40 996 37 9000 5.66 110 13:19 14.08.2022
634 Clouds 40 997 37 9000 4.63 120 11:56 14.08.2022
635 Clouds 40 997 31 9000 4.63 130 10:40 14.08.2022
636 Clouds 39 997 36 9000 2.57 140 08:50 14.08.2022
637 Clouds 36 997 56 8000 3.6 40 06:21 14.08.2022
638 Clear 34 995 63 10000 2.06 20 02:47 14.08.2022
639 Clouds 35 995 59 9000 3.6 80 23:49 13.08.2022
640 Clouds 35 995 61 9000 4.12 80 22:52 13.08.2022
641 Clear 35 995 66 9000 2.06 40 20:58 13.08.2022
642 Clear 36 995 63 9000 2.06 20 20:28 13.08.2022
643 Clear 35 995 67 10000 4.12 70 19:24 13.08.2022
644 Clouds 36 994 55 7000 5.14 70 17:40 13.08.2022
645 Dust 38 994 52 4000 6.17 80 15:23 13.08.2022
646 Dust 38 994 53 3500 6.69 110 14:26 13.08.2022
647 Dust 38 994 53 2500 5.66 80 13:38 13.08.2022
648 Dust 39 995 53 5000 5.66 90 11:52 13.08.2022
649 Dust 38 995 50 6000 7.2 90 09:58 13.08.2022
650 Haze 37 995 61 5000 6.17 90 08:23 13.08.2022
651 Haze 37 995 61 5000 6.17 90 08:23 13.08.2022
652 Haze 34 993 81 4000 4.12 20 04:21 13.08.2022
653 Haze 35 993 75 5000 3.09 60 23:47 12.08.2022
654 Haze 35 994 80 4500 4.12 40 21:42 12.08.2022
655 Haze 35 994 79 5000 4.12 10 20:51 12.08.2022
656 Haze 36 994 65 5000 2.57 80 19:39 12.08.2022
657 Haze 36 993 61 5000 3.6 80 18:46 12.08.2022
658 Clouds 40 991 37 6000 3.6 70 16:37 12.08.2022
659 Haze 40 991 36 6000 4.12 70 15:40 12.08.2022
660 Haze 41 992 32 6000 3.6 30 14:29 12.08.2022
661 Dust 41 992 35 8000 3.6 360 12:53 12.08.2022
662 Dust 41 992 35 8000 3.6 360 12:53 12.08.2022
663 Dust 40 993 45 4800 3.09 40 10:35 12.08.2022
664 Dust 37 994 53 4500 2.57 10 07:47 12.08.2022
665 Haze 37 994 46 5000 3.09 340 06:38 12.08.2022
666 Clear 35 992 59 8000 2.57 310 02:33 12.08.2022
667 Clear 35 993 73 10000 1.03 0 00:24 12.08.2022
668 Clear 35 993 73 10000 1.03 290 23:35 11.08.2022
669 Clear 35 994 68 10000 1.03 0 22:26 11.08.2022
670 Clear 35 994 75 10000 2.06 50 21:40 11.08.2022
671 Clouds 35 995 79 9000 2.57 20 20:45 11.08.2022
672 Clouds 35 995 77 9000 2.57 20 20:18 11.08.2022
673 Clear 36 994 67 10000 3.09 360 19:32 11.08.2022
674 Clouds 36 994 71 6000 3.6 360 17:48 11.08.2022
675 Clouds 43 994 47 10000 2.47 17 16:35 11.08.2022
676 Clouds 40 994 37 6000 4.12 70 15:21 11.08.2022
677 Clouds 38 994 56 8000 4.63 90 13:37 11.08.2022
678 Clouds 37 995 69 8000 3.09 360 10:27 11.08.2022
679 Clouds 35 995 75 9000 3.6 340 07:38 11.08.2022
680 Clouds 35 994 61 8000 2.06 310 03:52 11.08.2022
681 Clouds 36 993 62 8000 2.06 240 00:37 11.08.2022
682 Clouds 35 994 73 7000 1.54 260 22:32 10.08.2022
683 Clouds 36 994 67 6000 1.03 110 21:25 10.08.2022
684 Clouds 36 994 71 6000 2.57 30 20:55 10.08.2022
685 Clouds 37 994 63 7000 3.09 40 19:27 10.08.2022
686 Clouds 37 993 59 7000 2.57 50 18:22 10.08.2022
687 Clouds 39 992 47 6000 2.57 100 16:36 10.08.2022
688 Haze 40 993 42 6000 4.63 90 13:36 10.08.2022
689 Haze 39 993 49 5000 6.69 90 12:44 10.08.2022
690 Clouds 40 995 36 6000 2.57 230 09:25 10.08.2022
691 Clouds 40 995 39 6000 3.6 240 08:34 10.08.2022
692 Clouds 37 995 48 6000 2.57 180 07:19 10.08.2022
693 Clouds 35 993 59 8000 2.57 300 03:28 10.08.2022
694 Clouds 36 993 56 8000 2.06 200 23:51 09.08.2022
695 Clouds 37 993 49 8000 1.54 170 23:24 09.08.2022
696 Clouds 35 994 67 8000 1.54 100 21:36 09.08.2022
697 Clouds 36 995 65 8000 2.57 100 20:36 09.08.2022
698 Clouds 36 994 65 7000 2.57 100 18:44 09.08.2022
699 Clouds 37 993 56 6000 3.09 80 17:28 09.08.2022
700 Clouds 39 993 50 6000 3.6 70 16:41 09.08.2022
701 Clouds 39 993 47 6000 5.14 40 15:58 09.08.2022
702 Clouds 42 994 38 9000 3.6 90 13:51 09.08.2022
703 Clear 44 996 22 10000 2.06 0 09:56 09.08.2022
704 Clear 41 996 26 10000 2.06 350 08:50 09.08.2022
705 Clear 40 997 31 10000 2.06 340 07:53 09.08.2022
706 Clouds 33 996 81 8000 1.54 240 04:28 09.08.2022
707 Clear 34 995 70 10000 3.09 10 23:35 08.08.2022
708 Clear 34 995 77 10000 3.09 350 22:56 08.08.2022
709 Clear 34 995 77 10000 3.09 340 22:22 08.08.2022
710 Clear 34 995 75 10000 1.54 10 21:22 08.08.2022
711 Clear 35 996 71 10000 3.09 30 19:51 08.08.2022
712 Clear 35 995 68 10000 4.12 40 18:58 08.08.2022
713 Clear 37 995 57 10000 6.17 30 16:47 08.08.2022
714 Clear 38 995 52 10000 5.66 50 15:40 08.08.2022
715 Clear 38 995 59 10000 6.17 50 14:29 08.08.2022
716 Clear 38 996 56 10000 6.17 50 12:27 08.08.2022
717 Clear 37 997 63 10000 5.14 360 09:48 08.08.2022
718 Clear 35 997 71 8000 4.12 350 06:54 08.08.2022
719 Clear 34 996 71 10000 4.63 140 03:31 08.08.2022
720 Clear 34 995 65 10000 3.09 70 22:42 07.08.2022
721 Clear 35 995 61 10000 2.57 100 21:40 07.08.2022
722 Clear 36 995 56 10000 4.12 110 20:26 07.08.2022
723 Clear 36 995 56 10000 6.17 100 19:57 07.08.2022
724 Clear 36 995 54 10000 6.17 100 19:39 07.08.2022
725 Clear 36 994 58 9000 6.69 90 18:35 07.08.2022
726 Clear 35 993 73 6000 6.69 80 16:54 07.08.2022
727 Clear 36 993 71 6000 6.69 80 16:35 07.08.2022
728 Clear 37 993 67 6000 6.17 80 15:23 07.08.2022
729 Haze 38 993 63 5000 7.2 80 13:34 07.08.2022
730 Clear 40 994 50 7000 4.63 90 11:54 07.08.2022
731 Clear 39 995 55 6000 4.12 120 10:34 07.08.2022
732 Clear 37 995 69 6000 4.12 110 07:38 07.08.2022
733 Clear 34 994 80 8000 4.63 130 03:20 07.08.2022
734 Clear 35 993 75 8000 4.12 130 00:57 07.08.2022
735 Clear 35 994 75 8000 4.63 150 22:25 06.08.2022
736 Clear 36 994 67 9000 4.63 120 20:46 06.08.2022
737 Clear 36 994 65 9000 3.6 80 19:41 06.08.2022
738 Clear 36 994 63 9000 3.6 80 18:30 06.08.2022
739 Clear 37 993 54 7000 4.12 80 17:33 06.08.2022
740 Clear 40 993 43 6000 5.66 110 14:48 06.08.2022
741 Haze 39 994 49 6000 6.69 100 13:49 06.08.2022
742 Clear 38 996 60 6000 7.2 100 11:59 06.08.2022
743 Clear 39 996 58 7000 5.66 100 10:33 06.08.2022
744 Clear 39 998 54 8000 3.6 100 08:40 06.08.2022
745 Clouds 35 996 66 8000 4.12 170 03:53 06.08.2022
746 Clear 35 996 71 8000 4.12 170 23:50 05.08.2022
747 Clear 34 996 79 8000 3.09 150 22:33 05.08.2022
748 Clear 35 997 75 10000 3.6 110 19:59 05.08.2022
749 Clear 35 997 75 10000 3.6 80 18:46 05.08.2022
750 Clear 35 997 75 9000 3.6 80 18:25 05.08.2022
751 Clear 36 996 71 7000 4.12 80 16:49 05.08.2022
752 Clear 38 996 63 8000 5.14 80 15:22 05.08.2022
753 Clear 38 997 58 9000 5.66 90 14:31 05.08.2022
754 Clear 39 997 46 9000 6.17 80 13:24 05.08.2022
755 Clear 41 998 44 7000 5.66 70 12:30 05.08.2022
756 Clear 42 999 32 10000 3.6 0 10:53 05.08.2022
757 Clear 39 1000 39 10000 5.14 210 08:30 05.08.2022
758 Clear 37 1000 51 9000 5.14 210 07:22 05.08.2022
759 Clouds 34 998 79 8000 4.63 180 01:28 05.08.2022
760 Clouds 34 999 79 8000 3.09 70 22:33 04.08.2022
761 Clouds 34 999 75 9000 4.12 40 21:27 04.08.2022
762 Clear 35 999 69 10000 4.63 10 20:45 04.08.2022
763 Clear 35 999 66 10000 4.63 40 19:49 04.08.2022
764 Clouds 35 998 65 9000 4.63 10 18:51 04.08.2022
765 Clouds 36 998 63 9000 4.63 40 18:32 04.08.2022
766 Clouds 39 998 51 9000 8.23 40 14:39 04.08.2022
767 Clear 41 999 40 10000 5.14 90 13:22 04.08.2022
768 Clear 43 1000 27 10000 3.09 340 11:33 04.08.2022
769 Clouds 38 1002 41 8000 3.09 220 07:56 04.08.2022
770 Clouds 37 1002 45 8000 3.09 210 07:26 04.08.2022
771 Clear 35 999 61 10000 2.06 220 02:38 04.08.2022
772 Clear 35 999 59 10000 3.09 50 23:49 03.08.2022
773 Clear 35 999 59 10000 3.09 50 23:27 03.08.2022
774 Clear 36 1000 59 10000 2.57 90 20:57 03.08.2022
775 Clear 37 1000 56 10000 2.57 70 19:56 03.08.2022
776 Clear 37 999 51 9000 3.6 50 18:40 03.08.2022
777 Clear 39 998 38 10000 3.6 50 16:26 03.08.2022
778 Clear 40 998 35 10000 3.6 50 15:47 03.08.2022
779 Clear 40 999 38 10000 5.14 110 13:24 03.08.2022
780 Clear 39 1001 46 10000 3.6 120 09:55 03.08.2022
781 Clouds 36 1000 63 9000 1.54 100 06:46 03.08.2022
782 Clouds 35 999 66 8000 0.51 100 04:22 03.08.2022
783 Clear 35 998 71 10000 1.54 210 02:35 03.08.2022
784 Clear 35 999 66 10000 2.57 30 23:54 02.08.2022
785 Clear 34 999 79 10000 4.12 40 21:59 02.08.2022
786 Clear 34 1000 79 10000 4.12 10 21:41 02.08.2022
787 Clear 35 1000 75 10000 4.12 10 20:25 02.08.2022
788 Clouds 37 998 63 9000 5.14 60 16:51 02.08.2022
789 Clouds 38 998 56 9000 6.17 70 14:33 02.08.2022
790 Clear 37 1000 59 10000 4.63 100 10:44 02.08.2022
791 Clear 38 1000 58 10000 3.09 10 08:36 02.08.2022
792 Clear 36 1000 71 10000 3.6 10 07:51 02.08.2022
793 Clear 34 999 79 10000 2.06 30 04:57 02.08.2022
794 Clear 34 998 73 10000 1.54 130 03:30 02.08.2022
795 Clear 34 999 73 10000 2.57 70 23:26 01.08.2022
796 Clear 34 999 75 10000 4.63 70 21:49 01.08.2022
797 Clear 34 1000 77 10000 4.12 70 20:27 01.08.2022
798 Clear 34 999 73 10000 4.63 0 19:21 01.08.2022
799 Clear 34 998 70 10000 6.17 30 17:22 01.08.2022
800 Clear 35 998 65 10000 6.17 50 16:48 01.08.2022
801 Clear 35 998 64 10000 6.17 60 15:46 01.08.2022
802 Clear 36 998 67 10000 6.17 60 15:19 01.08.2022
803 Clear 36 998 57 10000 7.72 40 13:39 01.08.2022
804 Clear 36 999 63 9000 7.72 20 11:38 01.08.2022
805 Clouds 36 1000 52 10000 6.69 340 09:38 01.08.2022
806 Dust 34 1000 62 7000 5.66 300 08:18 01.08.2022
807 Clear 33 998 75 10000 3.6 110 04:43 01.08.2022
808 Clear 34 997 70 10000 3.09 80 02:31 01.08.2022
809 Clear 34 998 70 10000 4.63 80 22:54 31.07.2022
810 Clear 34 999 70 10000 4.63 80 22:36 31.07.2022
811 Clear 34 998 73 10000 5.66 30 20:46 31.07.2022
812 Clear 34 998 70 10000 6.69 60 18:52 31.07.2022
813 Clear 35 997 66 10000 7.2 60 17:34 31.07.2022
814 Clear 36 997 59 10000 5.66 80 14:57 31.07.2022
815 Clouds 36 998 60 10000 5.14 90 13:21 31.07.2022
816 Clouds 36 999 67 10000 5.14 60 11:44 31.07.2022
817 Clear 36 1000 61 10000 4.12 90 09:18 31.07.2022
818 Clouds 34 1000 73 10000 4.63 110 06:31 31.07.2022
819 Clear 33 999 77 10000 4.12 80 02:31 31.07.2022
820 Clear 33 1000 79 10000 4.63 60 22:50 30.07.2022
821 Clear 34 1001 64 10000 5.14 50 21:55 30.07.2022
822 Clear 34 1000 64 10000 5.14 50 21:37 30.07.2022
823 Clear 34 1000 66 10000 5.14 70 20:38 30.07.2022
824 Clear 34 1000 70 9000 5.14 70 19:57 30.07.2022
825 Clear 34 1000 70 9000 5.14 70 18:23 30.07.2022
826 Clouds 34 1000 65 8000 5.14 20 16:44 30.07.2022
827 Clouds 36 1000 57 9000 4.63 70 15:34 30.07.2022
828 Clouds 37 1000 56 10000 5.14 90 14:26 30.07.2022
829 Clear 37 1001 54 10000 5.66 100 12:33 30.07.2022
830 Clear 36 1001 57 10000 5.66 110 11:55 30.07.2022
831 Clear 36 1002 63 10000 6.17 110 10:20 30.07.2022
832 Clear 35 1002 66 10000 6.69 110 09:42 30.07.2022
833 Clouds 34 1002 75 10000 6.69 110 07:44 30.07.2022
834 Clear 33 1000 70 10000 5.66 100 02:34 30.07.2022
835 Clear 33 1000 70 10000 6.17 100 01:20 30.07.2022
836 Clear 33 1002 75 10000 5.14 50 21:39 29.07.2022
837 Clear 34 1002 66 10000 4.63 50 20:57 29.07.2022
838 Clear 33 1002 71 8000 4.63 70 19:48 29.07.2022
839 Clouds 34 1001 66 8000 5.14 80 17:39 29.07.2022
840 Clouds 36 1001 54 9000 4.63 90 14:53 29.07.2022
841 Clouds 36 1001 52 9000 5.14 100 12:58 29.07.2022
842 Clouds 35 1003 71 10000 5.66 110 09:35 29.07.2022
843 Clouds 35 1003 69 10000 6.69 120 08:46 29.07.2022
844 Clouds 34 1003 68 10000 6.69 90 07:30 29.07.2022
845 Clear 32 1001 77 10000 5.14 90 01:46 29.07.2022
846 Clouds 32 1003 79 10000 5.14 80 21:57 28.07.2022
847 Clear 32 1003 79 9000 5.14 80 20:55 28.07.2022
848 Clear 32 1003 79 9000 5.14 80 20:22 28.07.2022
849 Clear 32 1002 74 10000 5.66 80 19:41 28.07.2022
850 Clear 32 1002 72 10000 5.66 80 18:27 28.07.2022
851 Clouds 33 1002 70 9000 5.66 80 17:43 28.07.2022
852 Clouds 33 1001 66 7000 5.14 90 16:41 28.07.2022
853 Clouds 33 1000 70 8000 6.17 90 14:58 28.07.2022
854 Clouds 33 1001 68 10000 3.6 40 12:49 28.07.2022
855 Thunderstorm 27 1003 97 2600 4.12 30 09:45 28.07.2022
856 Thunderstorm 32 1001 73 10000 5.66 90 06:24 28.07.2022
857 Thunderstorm 31 1001 80 10000 6.17 80 05:26 28.07.2022
858 Clouds 33 999 70 10000 4.63 90 00:45 28.07.2022
859 Clouds 33 1000 70 10000 6.17 80 22:31 27.07.2022
860 Clouds 33 1001 70 10000 6.17 90 20:56 27.07.2022
861 Clouds 33 1000 73 10000 6.17 80 19:34 27.07.2022
862 Clouds 34 999 62 7000 5.14 100 17:23 27.07.2022
863 Clouds 34 998 66 6000 7.2 90 15:52 27.07.2022
864 Haze 34 998 67 5000 7.72 100 14:48 27.07.2022
865 Haze 34 998 65 5000 7.72 80 14:30 27.07.2022
866 Haze 35 998 63 3500 8.75 100 12:49 27.07.2022
867 Rain 35 999 65 7000 7.2 80 07:53 27.07.2022
868 Rain 35 999 65 7000 7.2 80 07:53 27.07.2022
869 Clouds 34 999 66 7000 6.69 80 06:18 27.07.2022
870 Clouds 34 996 72 8000 4.63 350 00:48 27.07.2022
871 Rain 35 997 63 9000 4.12 10 22:25 26.07.2022
872 Clouds 35 998 77 9000 5.14 40 21:20 26.07.2022
873 Clouds 35 998 77 9000 5.14 40 21:20 26.07.2022
874 Rain 36 997 63 9000 4.12 340 19:59 26.07.2022
875 Clouds 35 997 69 9000 2.57 360 18:41 26.07.2022
876 Clouds 36 996 63 8000 2.06 20 17:57 26.07.2022
877 Clouds 36 996 63 8000 3.6 60 15:58 26.07.2022
878 Clouds 37 996 59 6000 4.63 60 14:57 26.07.2022
879 Clear 39 997 37 10000 7.72 30 12:59 26.07.2022
880 Clear 41 997 27 10000 6.69 350 10:59 26.07.2022
881 Clear 35 997 66 10000 2.06 10 08:46 26.07.2022
882 Clear 35 996 55 10000 4.63 50 05:49 26.07.2022
883 Clear 35 995 45 10000 3.6 320 00:28 26.07.2022
884 Clouds 35 996 53 9000 3.09 320 22:53 25.07.2022
885 Clouds 35 996 53 9000 3.09 320 22:22 25.07.2022
886 Clear 35 996 70 9000 3.09 340 21:38 25.07.2022
887 Clear 34 996 75 9000 3.09 340 20:40 25.07.2022
888 Clouds 34 995 73 9000 3.09 10 19:27 25.07.2022
889 Clouds 35 995 66 8000 4.12 10 18:18 25.07.2022
890 Clouds 35 995 63 6000 3.6 10 17:27 25.07.2022
891 Clouds 37 995 56 7000 5.14 40 14:44 25.07.2022
892 Haze 39 996 34 5000 4.12 10 12:21 25.07.2022
893 Clear 36 997 59 10000 3.09 10 09:18 25.07.2022
894 Clouds 32 995 76 8000 1.03 350 03:23 25.07.2022
895 Clear 34 995 55 10000 2.57 330 23:54 24.07.2022
896 Clear 34 995 55 10000 2.06 320 22:56 24.07.2022
897 Clear 34 996 58 10000 2.57 310 22:29 24.07.2022
898 Clear 35 996 55 10000 4.12 330 21:19 24.07.2022
899 Clouds 35 996 66 8000 4.63 360 20:50 24.07.2022
900 Clouds 35 996 68 8000 4.63 360 20:19 24.07.2022
901 Clouds 35 995 66 8000 4.12 10 18:38 24.07.2022
902 Clouds 35 995 64 7000 5.14 10 16:29 24.07.2022
903 Clouds 36 995 59 7000 5.66 360 15:45 24.07.2022
904 Clouds 37 995 52 9000 6.17 10 14:29 24.07.2022
905 Clear 39 995 50 6000 5.66 50 12:54 24.07.2022
906 Clear 39 996 44 7000 4.63 40 11:40 24.07.2022
907 Clear 39 996 44 8000 4.63 20 11:00 24.07.2022
908 Clouds 39 997 31 9000 2.57 330 08:32 24.07.2022
909 Clouds 38 997 41 8000 2.06 360 07:52 24.07.2022
910 Clouds 35 997 57 8000 1.54 10 05:49 24.07.2022
911 Clouds 34 995 56 9000 1.54 210 00:29 24.07.2022
912 Clear 36 996 53 10000 3.09 210 21:37 23.07.2022
913 Clear 35 997 57 10000 0.51 0 20:19 23.07.2022
914 Clouds 36 996 54 9000 3.09 20 18:50 23.07.2022
915 Clouds 37 996 51 7000 4.63 40 17:28 23.07.2022
916 Clouds 38 996 53 7000 4.63 20 16:35 23.07.2022
917 Clouds 41 996 32 8000 4.63 80 15:31 23.07.2022
918 Clouds 41 996 37 9000 4.12 60 14:59 23.07.2022
919 Clouds 41 996 42 9000 4.12 70 14:28 23.07.2022
920 Clear 42 996 30 10000 4.12 40 13:36 23.07.2022
921 Clear 39 998 49 10000 3.09 100 10:49 23.07.2022
922 Clear 39 998 49 10000 3.09 90 10:21 23.07.2022
923 Clear 38 999 53 10000 3.09 100 08:39 23.07.2022
924 Clear 34 998 77 10000 1.54 110 03:39 23.07.2022
925 Clear 34 997 77 9000 1.54 140 01:33 23.07.2022
926 Clear 34 998 79 10000 2.06 70 22:56 22.07.2022
927 Clear 35 998 75 10000 3.6 10 20:56 22.07.2022
928 Clear 35 998 75 10000 4.12 30 19:41 22.07.2022
929 Clouds 36 997 54 10000 3.75 42 18:28 22.07.2022
930 Clear 36 997 69 9000 5.66 50 16:55 22.07.2022
931 Clear 37 997 62 10000 4.12 30 14:54 22.07.2022
932 Clear 39 999 56 10000 4.12 80 11:22 22.07.2022
933 Clear 38 999 51 10000 4.63 110 09:26 22.07.2022
934 Clear 37 999 58 10000 5.14 120 08:32 22.07.2022
935 Clear 34 998 75 10000 4.63 140 05:19 22.07.2022
936 Clear 34 997 73 10000 4.12 120 02:25 22.07.2022
937 Clear 34 997 84 10000 3.09 70 22:43 21.07.2022
938 Clear 34 998 79 10000 3.6 90 21:33 21.07.2022
939 Clear 35 997 75 10000 5.66 90 19:27 21.07.2022
940 Clear 36 996 73 10000 6.17 80 17:41 21.07.2022
941 Clear 36 996 71 10000 6.17 80 17:19 21.07.2022
942 Clear 39 996 50 10000 5.14 100 15:22 21.07.2022
943 Clear 38 996 53 10000 5.66 100 14:37 21.07.2022
944 Clear 39 996 47 10000 5.14 100 12:28 21.07.2022
945 Clear 38 997 47 10000 6.17 110 11:19 21.07.2022
946 Clear 37 998 56 10000 6.69 110 09:33 21.07.2022
947 Clouds 37 998 63 9000 6.17 110 08:50 21.07.2022
948 Clouds 36 998 69 9000 6.17 120 07:50 21.07.2022
949 Clear 35 997 71 8000 4.63 120 05:47 21.07.2022
950 Clear 35 995 63 9000 2.57 100 00:43 21.07.2022
951 Clear 35 996 59 9000 2.06 100 22:22 20.07.2022
952 Clear 36 997 54 9000 2.57 100 20:55 20.07.2022
953 Clear 36 997 56 9000 3.09 110 19:53 20.07.2022
954 Clear 36 997 56 9000 3.09 100 19:24 20.07.2022
955 Clouds 36 996 54 9000 4.12 100 18:51 20.07.2022
956 Clouds 36 996 56 9000 4.12 100 18:22 20.07.2022
957 Clouds 37 996 51 7000 4.63 120 16:45 20.07.2022
958 Clouds 38 996 50 7000 5.66 110 15:32 20.07.2022
959 Clouds 38 996 50 6000 5.66 110 14:20 20.07.2022
960 Clouds 38 996 50 6000 5.66 110 14:20 20.07.2022
961 Clouds 38 996 50 6000 5.66 110 14:20 20.07.2022
962 Haze 37 997 61 5000 5.66 120 11:37 20.07.2022
963 Haze 36 998 71 4500 5.66 90 09:41 20.07.2022
964 Clouds 33 997 77 6000 4.12 160 03:49 20.07.2022
965 Clear 34 996 68 10000 1.03 110 00:51 20.07.2022
966 Clear 34 997 61 10000 1.54 150 23:41 19.07.2022
967 Clear 34 997 61 10000 3.09 140 22:33 19.07.2022
968 Clear 35 997 66 8000 4.12 120 21:35 19.07.2022
969 Clear 35 997 66 7000 5.14 110 20:33 19.07.2022
970 Clouds 35 997 63 6000 4.63 100 19:21 19.07.2022
971 Haze 35 997 66 5000 4.63 100 18:31 19.07.2022
972 Haze 35 996 71 5000 5.14 100 17:46 19.07.2022
973 Haze 36 996 71 5000 6.69 110 14:57 19.07.2022
974 Haze 39 997 53 5000 8.23 60 11:44 19.07.2022
975 Dust 40 997 50 4000 8.23 60 11:18 19.07.2022
976 Dust 43 998 20 5000 4.63 250 09:26 19.07.2022
977 Dust 41 998 23 5000 5.14 250 08:39 19.07.2022
978 Haze 38 998 37 4500 5.14 220 07:19 19.07.2022
979 Clouds 36 998 52 6000 4.12 210 05:48 19.07.2022
980 Clouds 35 998 58 8000 3.09 180 04:56 19.07.2022
981 Clear 34 997 63 10000 2.57 130 01:50 19.07.2022
982 Clear 36 997 46 10000 2.06 150 23:50 18.07.2022
983 Clear 35 997 49 10000 2.06 130 23:19 18.07.2022
984 Clear 35 997 54 10000 2.06 130 22:22 18.07.2022
985 Clear 37 998 45 10000 2.06 90 20:52 18.07.2022
986 Clear 37 998 46 10000 2.06 110 19:33 18.07.2022
987 Clear 38 997 44 9000 3.6 80 17:52 18.07.2022
988 Clear 39 996 47 9000 3.6 40 16:28 18.07.2022
989 Clear 41 996 30 9000 5.14 120 15:19 18.07.2022
990 Clear 42 997 27 10000 4.63 100 13:26 18.07.2022
991 Clear 41 998 31 10000 5.14 150 11:31 18.07.2022
992 Clouds 39 998 47 9000 5.66 160 09:43 18.07.2022
993 Clouds 37 999 47 8000 5.14 150 07:48 18.07.2022
994 Clouds 34 996 70 7000 1.54 130 02:34 18.07.2022
995 Clouds 35 997 68 8000 2.06 40 22:52 17.07.2022
996 Clouds 35 997 68 8000 2.06 30 22:25 17.07.2022
997 Clouds 35 997 68 8000 2.06 40 21:26 17.07.2022
998 Clouds 35 997 63 8000 2.06 70 20:44 17.07.2022
999 Clear 35 997 64 8000 2.06 40 19:49 17.07.2022
1000 Clear 35 997 64 8000 2.06 50 19:19 17.07.2022
1001 Clear 36 996 63 6000 4.12 100 17:39 17.07.2022
1002 Clear 36 996 59 6000 5.14 100 16:51 17.07.2022
1003 Clear 37 996 55 6000 5.14 100 16:27 17.07.2022
1004 Clear 38 996 51 6000 4.12 100 15:34 17.07.2022
1005 Clouds 39 996 47 6000 4.63 80 13:47 17.07.2022
1006 Clouds 39 997 44 6000 4.12 90 12:32 17.07.2022
1007 Clear 38 997 54 6000 2.57 70 09:31 17.07.2022
1008 Haze 36 997 59 5000 3.6 10 06:58 17.07.2022
1009 Clouds 34 996 72 6000 5.14 20 02:34 17.07.2022
1010 Clouds 34 996 79 7000 1.54 340 23:23 16.07.2022
1011 Clouds 34 997 75 7000 2.06 30 21:57 16.07.2022
1012 Clouds 34 997 79 8000 3.6 120 20:28 16.07.2022
1013 Clouds 34 996 79 7000 3.6 70 18:43 16.07.2022
1014 Haze 36 995 63 6000 4.12 30 17:24 16.07.2022
1015 Clouds 37 995 58 6000 4.63 50 15:41 16.07.2022
1016 Clouds 40 996 36 6000 4.63 70 11:55 16.07.2022
1017 Clouds 39 997 42 8000 3.6 110 09:41 16.07.2022
1018 Clouds 39 997 42 8000 3.6 110 09:22 16.07.2022
1019 Clear 37 997 47 10000 4.12 120 08:35 16.07.2022
1020 Clear 36 996 52 10000 3.6 90 06:47 16.07.2022
1021 Clouds 33 996 84 6000 3.09 60 03:31 16.07.2022
1022 Clouds 33 996 79 8000 3.6 50 23:54 15.07.2022
1023 Clouds 33 996 75 9000 3.09 10 22:46 15.07.2022
1024 Clouds 34 996 66 9000 2.57 40 21:52 15.07.2022
1025 Clouds 34 996 68 8000 3.6 40 20:35 15.07.2022
1026 Clouds 35 995 57 8000 2.57 40 18:46 15.07.2022
1027 Dust 35 995 62 5000 3.09 70 17:51 15.07.2022
1028 Clouds 36 995 57 7000 4.12 70 16:23 15.07.2022
1029 Clouds 38 995 45 7000 4.63 80 13:48 15.07.2022
1030 Clouds 40 995 37 7000 4.63 90 12:22 15.07.2022
1031 Clouds 40 995 37 6000 3.09 90 10:52 15.07.2022
1032 Haze 36 995 53 5000 3.09 130 07:47 15.07.2022
1033 Clouds 33 993 84 7000 3.6 120 02:47 15.07.2022
1034 Clouds 33 993 73 9000 1.03 0 00:39 15.07.2022
1035 Clouds 33 993 73 9000 1.03 0 00:39 15.07.2022
1036 Clouds 33 993 84 9000 1.54 90 22:56 14.07.2022
1037 Clouds 34 993 70 9000 2.06 70 21:59 14.07.2022
1038 Clouds 34 993 70 9000 2.06 90 21:37 14.07.2022
1039 Clouds 34 993 70 9000 2.06 90 21:18 14.07.2022
1040 Clouds 34 993 70 9000 1.03 0 20:41 14.07.2022
1041 Clouds 34 993 70 9000 1.03 0 20:18 14.07.2022
1042 Clouds 37 992 44 6000 2.57 100 17:25 14.07.2022
1043 Dust 37 992 53 5000 3.09 90 16:18 14.07.2022
1044 Dust 37 992 59 4500 6.69 110 14:55 14.07.2022
1045 Dust 38 993 46 5000 5.66 80 13:51 14.07.2022
1046 Dust 40 993 39 5000 5.14 70 12:34 14.07.2022
1047 Dust 40 994 39 5000 4.12 70 11:26 14.07.2022
1048 Dust 40 994 38 6000 3.6 20 10:51 14.07.2022
1049 Dust 38 995 42 5000 3.09 320 08:45 14.07.2022
1050 Clear 32 995 84 6000 3.6 140 04:44 14.07.2022
1051 Clouds 32 995 79 6000 2.06 10 01:18 14.07.2022
1052 Clouds 32 995 77 6000 2.06 350 00:50 14.07.2022
1053 Clouds 33 996 75 6000 4.12 360 22:30 13.07.2022
1054 Clouds 34 996 66 6000 4.12 350 21:38 13.07.2022
1055 Clouds 34 996 60 8000 4.63 350 20:38 13.07.2022
1056 Haze 35 995 60 5000 2.06 20 18:26 13.07.2022
1057 Haze 36 995 49 5000 3.6 20 17:22 13.07.2022
1058 Clouds 37 994 53 6000 4.63 50 16:18 13.07.2022
1059 Dust 39 995 39 6000 3.6 60 13:57 13.07.2022
1060 Dust 41 996 30 5000 3.09 30 11:33 13.07.2022
1061 Dust 41 996 23 5000 3.6 10 10:44 13.07.2022
1062 Dust 41 997 24 5000 3.6 300 09:30 13.07.2022
1063 Dust 40 997 26 5000 5.14 290 08:24 13.07.2022
1064 Clear 35 998 53 10000 4.12 230 05:21 13.07.2022
1065 Clear 34 998 61 10000 2.57 150 00:49 13.07.2022
1066 Clear 35 998 66 10000 3.09 120 22:48 12.07.2022
1067 Clear 35 999 65 10000 3.09 120 21:49 12.07.2022
1068 Clear 35 999 59 10000 2.57 100 20:54 12.07.2022
1069 Clear 36 999 56 10000 1.03 0 20:21 12.07.2022
1070 Clear 35 999 64 10000 3.6 140 18:51 12.07.2022
1071 Clear 35 999 63 10000 5.14 120 17:23 12.07.2022
1072 Clear 36 998 56 10000 5.14 100 15:32 12.07.2022
1073 Clear 37 999 55 10000 5.14 90 13:43 12.07.2022
1074 Clouds 37 1000 54 10000 5.14 130 11:55 12.07.2022
1075 Clouds 36 1001 56 10000 5.66 110 10:45 12.07.2022
1076 Clouds 35 1001 65 10000 4.63 100 09:18 12.07.2022
1077 Clouds 35 1001 66 10000 4.12 150 07:55 12.07.2022
1078 Clouds 34 1001 68 10000 3.6 140 05:53 12.07.2022
1079 Clouds 34 1001 68 10000 3.6 140 05:34 12.07.2022
1080 Clear 33 998 75 10000 3.6 100 01:33 12.07.2022
1081 Clear 33 1000 68 10000 4.12 90 22:50 11.07.2022
1082 Clear 33 1000 68 10000 3.6 70 21:37 11.07.2022
1083 Clear 34 999 64 10000 2.57 30 20:33 11.07.2022
1084 Clear 34 999 62 10000 3.09 70 19:28 11.07.2022
1085 Clear 34 998 62 10000 3.09 70 18:30 11.07.2022
1086 Clear 34 998 60 10000 3.09 70 17:31 11.07.2022
1087 Clouds 35 997 57 9000 3.6 80 15:34 11.07.2022
1088 Clouds 35 998 58 9000 5.14 110 13:37 11.07.2022
1089 Clear 36 998 52 10000 4.12 100 11:33 11.07.2022
1090 Clear 37 998 48 10000 5.14 120 10:18 11.07.2022
1091 Clouds 36 998 54 9000 5.66 120 09:40 11.07.2022
1092 Clouds 36 998 63 10000 4.12 90 08:33 11.07.2022
1093 Clear 33 995 79 10000 2.57 30 03:23 11.07.2022
1094 Rain 32 995 82 10000 4.63 80 00:20 11.07.2022
1095 Clouds 33 995 70 8000 3.09 50 22:55 10.07.2022
1096 Clouds 33 995 72 9000 4.12 70 21:39 10.07.2022
1097 Clear 34 995 68 10000 3.6 70 20:47 10.07.2022
1098 Clear 34 995 64 10000 3.09 40 19:50 10.07.2022
1099 Clouds 34 994 68 9000 3.6 60 18:48 10.07.2022
1100 Clouds 35 994 57 8000 3.09 60 17:37 10.07.2022
1101 Clouds 35 993 52 8000 4.12 90 16:45 10.07.2022
1102 Clouds 37 993 41 7000 4.63 90 15:25 10.07.2022
1103 Clouds 38 993 28 7000 5.14 100 14:21 10.07.2022
1104 Clouds 37 993 39 9000 4.63 90 12:28 10.07.2022
1105 Clear 39 994 32 10000 4.12 70 10:20 10.07.2022
1106 Clear 39 994 23 10000 2.06 40 08:45 10.07.2022
1107 Clear 39 994 23 10000 2.06 40 08:45 10.07.2022
1108 Clear 39 994 18 10000 2.06 330 07:30 10.07.2022
1109 Clear 36 993 33 10000 2.06 250 01:33 10.07.2022
1110 Clear 35 994 59 10000 2.06 210 22:51 09.07.2022
1111 Clear 36 994 57 10000 2.57 210 22:24 09.07.2022
1112 Clear 36 995 61 10000 2.06 170 20:50 09.07.2022
1113 Clear 34 994 66 10000 0.51 0 18:38 09.07.2022
1114 Clear 34 994 66 10000 2.06 90 17:45 09.07.2022
1115 Clear 34 994 67 10000 3.09 100 16:44 09.07.2022
1116 Clear 35 994 65 10000 3.6 90 15:41 09.07.2022
1117 Clear 36 994 60 10000 4.63 100 14:43 09.07.2022
1118 Clear 37 994 53 10000 4.63 100 13:50 09.07.2022
1119 Clear 36 995 60 10000 5.66 90 12:47 09.07.2022
1120 Clear 37 996 49 10000 5.66 90 11:31 09.07.2022
1121 Clear 37 996 49 10000 3.6 80 10:23 09.07.2022
1122 Clear 36 997 55 10000 2.06 80 07:54 09.07.2022
1123 Clear 33 997 72 10000 1.03 320 05:24 09.07.2022
1124 Clear 33 996 75 10000 1.54 130 03:29 09.07.2022
1125 Clear 33 997 75 10000 3.6 160 22:59 08.07.2022
1126 Clear 33 997 75 10000 3.6 140 21:59 08.07.2022
1127 Clear 33 997 73 10000 3.6 140 20:55 08.07.2022
1128 Clear 33 997 73 10000 3.6 120 20:24 08.07.2022
1129 Clear 34 997 70 10000 3.6 100 18:29 08.07.2022
1130 Clear 34 997 70 10000 3.6 100 18:29 08.07.2022
1131 Clear 35 997 59 10000 3.09 110 17:21 08.07.2022
1132 Clear 35 997 59 10000 3.09 110 17:21 08.07.2022
1133 Clear 36 997 56 10000 5.14 110 14:54 08.07.2022
1134 Clear 36 998 55 10000 5.66 110 13:56 08.07.2022
1135 Clear 37 998 42 10000 5.66 120 12:28 08.07.2022
1136 Clear 38 999 45 10000 5.66 110 10:37 08.07.2022
1137 Clear 36 1000 64 10000 5.14 110 08:44 08.07.2022
1138 Clear 35 999 68 10000 4.12 150 06:54 08.07.2022
1139 Clouds 33 998 84 8000 3.09 30 02:53 08.07.2022
1140 Clouds 33 998 79 8000 1.54 90 23:41 07.07.2022
1141 Clouds 33 998 84 7000 1.54 80 22:40 07.07.2022
1142 Clouds 33 999 84 7000 2.06 80 20:56 07.07.2022
1143 Clouds 34 998 77 8000 3.09 80 18:37 07.07.2022
1144 Dust 34 998 75 5000 4.63 90 17:19 07.07.2022
1145 Dust 36 997 59 5000 4.63 90 15:18 07.07.2022
1146 Clouds 39 998 38 7000 3.09 80 13:25 07.07.2022
1147 Clouds 38 998 38 7000 4.12 60 12:39 07.07.2022
1148 Clouds 39 998 34 7000 4.12 80 12:19 07.07.2022
1149 Clouds 38 999 45 8000 3.09 50 11:30 07.07.2022
1150 Clouds 37 999 45 9000 3.09 50 10:43 07.07.2022
1151 Clouds 37 999 46 9000 3.6 20 10:25 07.07.2022
1152 Clouds 36 999 52 9000 2.06 360 07:40 07.07.2022
1153 Clouds 34 998 49 10000 1.68 335 04:18 07.07.2022
1154 Clouds 33 996 60 10000 0.85 310 23:37 06.07.2022
1155 Clear 35 997 46 10000 1.54 120 23:19 06.07.2022
1156 Clear 35 997 46 10000 1.54 120 22:56 06.07.2022
1157 Clear 35 997 53 10000 1.54 120 22:38 06.07.2022
1158 Clear 34 998 57 10000 1.03 110 21:30 06.07.2022
1159 Clear 35 997 55 10000 1.03 0 19:38 06.07.2022
1160 Clouds 35 997 50 8000 2.06 100 18:21 06.07.2022
1161 Clouds 38 996 39 8000 3.09 40 16:19 06.07.2022
1162 Clouds 37 995 42 9000 6.17 90 14:54 06.07.2022
1163 Clear 41 995 22 10000 4.63 20 12:40 06.07.2022
1164 Clear 42 995 19 10000 3.6 360 11:49 06.07.2022
1165 Clear 39 996 27 10000 3.6 10 10:18 06.07.2022
1166 Clouds 37 997 36 8000 2.06 10 07:46 06.07.2022
1167 Clouds 37 996 37 7000 1.03 0 07:23 06.07.2022
1168 Clouds 37 996 37 7000 1.03 0 07:23 06.07.2022
1169 Clouds 33 994 42 7000 2.57 250 03:24 06.07.2022
1170 Clouds 33 995 56 8000 3.09 60 22:45 05.07.2022
1171 Clouds 33 995 64 8000 2.06 90 21:39 05.07.2022
1172 Clouds 34 996 57 8000 2.06 30 20:38 05.07.2022
1173 Clouds 34 995 60 7000 2.06 20 19:41 05.07.2022
1174 Clouds 34 995 60 7000 2.06 20 19:22 05.07.2022
1175 Clouds 35 994 49 6000 4.63 40 17:47 05.07.2022
1176 Clouds 36 994 46 7000 5.66 40 16:44 05.07.2022
1177 Clear 37 993 42 6000 6.69 40 15:25 05.07.2022
1178 Clouds 37 994 39 6000 6.17 360 13:59 05.07.2022
1179 Clouds 38 994 27 6000 6.69 40 12:42 05.07.2022
1180 Clouds 39 995 24 6000 5.66 30 11:32 05.07.2022
1181 Clouds 39 995 22 6000 5.14 350 10:34 05.07.2022
1182 Clouds 37 996 23 6000 3.09 350 08:26 05.07.2022
1183 Clouds 36 996 29 6000 2.06 350 07:31 05.07.2022
1184 Haze 31 996 73 5000 1.54 70 04:49 05.07.2022
1185 Clouds 31 996 73 6000 1.54 70 04:21 05.07.2022
1186 Clear 33 994 58 7000 2.06 220 23:45 04.07.2022
1187 Clear 33 994 57 7000 2.57 220 23:25 04.07.2022
1188 Clear 33 995 64 8000 1.03 0 22:21 04.07.2022
1189 Clear 33 995 64 8000 1.03 40 21:30 04.07.2022
1190 Clear 34 995 57 8000 3.09 10 20:52 04.07.2022
1191 Clear 34 995 53 9000 3.09 10 20:33 04.07.2022
1192 Clear 34 994 57 8000 2.57 350 19:52 04.07.2022
1193 Clear 34 994 55 8000 2.57 330 19:33 04.07.2022
1194 Clear 34 994 59 7000 5.14 350 17:57 04.07.2022
1195 Clear 36 994 44 6000 5.14 10 15:50 04.07.2022
1196 Clear 37 994 42 7000 5.14 20 14:54 04.07.2022
1197 Clouds 37 995 41 7000 7.2 40 13:29 04.07.2022
1198 Clouds 40 995 23 6000 6.17 20 12:20 04.07.2022
1199 Clouds 41 995 20 6000 5.14 360 10:33 04.07.2022
1200 Clouds 41 996 18 8000 4.12 310 09:40 04.07.2022
1201 Clear 37 995 23 10000 5.14 290 06:53 04.07.2022
1202 Clear 34 994 29 10000 3.6 280 03:30 04.07.2022
1203 Clear 35 994 23 10000 3.6 280 00:30 04.07.2022
1204 Clear 36 994 21 10000 3.09 310 22:58 03.07.2022
1205 Clear 36 995 21 10000 5.14 330 20:47 03.07.2022
1206 Clear 36 995 21 10000 4.12 330 20:25 03.07.2022
1207 Clear 36 995 28 10000 5.66 330 19:26 03.07.2022
1208 Clear 37 994 27 10000 6.17 350 18:32 03.07.2022
1209 Clear 37 994 31 10000 7.72 340 17:43 03.07.2022
1210 Clear 41 993 16 10000 9.77 350 15:29 03.07.2022
1211 Clear 41 993 18 10000 10.29 330 14:58 03.07.2022
1212 Clear 43 993 11 10000 10.8 330 13:59 03.07.2022
1213 Clear 42 993 15 10000 10.8 330 13:33 03.07.2022
1214 Clear 41 994 22 10000 11.83 340 12:32 03.07.2022
1215 Clear 42 994 19 9000 11.32 340 11:18 03.07.2022
1216 Clouds 42 994 19 7000 10.8 330 10:38 03.07.2022
1217 Clouds 42 994 14 7000 9.77 340 08:59 03.07.2022
1218 Clouds 39 994 22 7000 9.77 340 07:34 03.07.2022
1219 Dust 37 994 31 5000 7.2 320 01:42 03.07.2022
1220 Clouds 38 994 22 8000 5.66 310 23:50 02.07.2022
1221 Clear 39 994 19 8000 6.17 300 22:33 02.07.2022
1222 Clear 38 994 19 10000 5.14 320 20:37 02.07.2022
1223 Clear 38 994 21 10000 5.14 330 19:51 02.07.2022
1224 Clear 38 994 19 10000 6.17 330 19:19 02.07.2022
1225 Clear 39 994 20 7000 7.72 330 17:41 02.07.2022
1226 Clear 40 994 23 6000 9.26 340 16:49 02.07.2022
1227 Dust 42 994 16 5000 12.35 340 13:52 02.07.2022
1228 Dust 41 995 24 5000 11.83 340 12:19 02.07.2022
1229 Clear 39 995 30 8000 9.77 340 11:26 02.07.2022
1230 Clear 39 996 34 10000 8.23 350 10:37 02.07.2022
1231 Clear 37 996 39 10000 9.26 340 08:55 02.07.2022
1232 Clear 38 995 37 10000 9.77 340 08:20 02.07.2022
1233 Clear 37 995 34 10000 9.77 340 06:59 02.07.2022
1234 Clear 34 994 32 10000 1.54 270 01:44 02.07.2022
1235 Clear 34 994 25 10000 2.06 320 23:37 01.07.2022
1236 Clear 34 995 29 10000 1.54 320 22:40 01.07.2022
1237 Clear 35 995 25 10000 3.09 340 21:47 01.07.2022
1238 Clear 35 995 24 10000 3.6 330 21:27 01.07.2022
1239 Clear 36 995 21 10000 4.63 330 20:38 01.07.2022
1240 Clear 37 995 25 10000 5.14 340 19:42 01.07.2022
1241 Clear 38 994 29 10000 6.69 340 17:53 01.07.2022
1242 Clear 40 994 28 10000 8.23 350 15:50 01.07.2022
1243 Clear 38 994 41 10000 8.23 350 13:54 01.07.2022
1244 Clouds 37 995 46 8000 6.17 360 11:56 01.07.2022
1245 Clouds 37 996 45 9000 7.2 360 10:20 01.07.2022
1246 Clouds 37 996 45 9000 7.2 360 10:20 01.07.2022
1247 Clear 38 995 43 10000 7.2 350 09:31 01.07.2022
1248 Clear 34 994 33 10000 3.09 290 03:42 01.07.2022
1249 Clear 35 994 22 10000 2.57 270 00:26 01.07.2022
1250 Clear 35 994 28 10000 2.06 230 22:59 30.06.2022
1251 Clear 35 994 32 10000 2.06 220 22:41 30.06.2022
1252 Clear 35 994 32 10000 2.06 220 22:22 30.06.2022
1253 Clear 34 994 56 10000 1.54 150 21:41 30.06.2022
1254 Clear 33 994 62 10000 1.03 10 20:30 30.06.2022
1255 Clear 34 994 62 10000 2.06 350 19:54 30.06.2022
1256 Clear 34 994 60 10000 2.06 350 19:24 30.06.2022
1257 Clear 35 994 62 10000 3.6 10 18:42 30.06.2022
1258 Clear 35 994 62 10000 4.63 10 17:44 30.06.2022
1259 Clouds 35 994 62 9000 5.14 20 16:55 30.06.2022
1260 Clouds 36 993 52 9000 4.63 360 15:39 30.06.2022
1261 Clear 38 994 43 10000 5.66 20 13:34 30.06.2022
1262 Clear 39 995 43 10000 5.14 40 12:35 30.06.2022
1263 Clear 40 995 36 10000 5.14 10 11:43 30.06.2022
1264 Clear 40 996 29 10000 4.63 340 09:55 30.06.2022
1265 Clear 40 996 29 10000 4.63 320 09:35 30.06.2022
1266 Clear 38 995 28 10000 5.14 320 08:19 30.06.2022
1267 Clear 37 995 26 10000 3.6 310 07:23 30.06.2022
1268 Clear 33 994 29 10000 1.54 270 01:47 30.06.2022
1269 Clear 34 994 29 10000 1.54 260 23:34 29.06.2022
1270 Clear 33 995 31 10000 1.03 0 22:40 29.06.2022
1271 Clear 34 995 37 10000 1.03 360 21:43 29.06.2022
1272 Clear 35 996 25 10000 3.09 330 20:34 29.06.2022
1273 Clear 36 996 25 10000 4.12 330 19:48 29.06.2022
1274 Clear 35 996 54 9000 4.12 10 17:54 29.06.2022
1275 Clear 35 996 58 9000 4.63 340 16:51 29.06.2022
1276 Clear 35 996 56 9000 4.63 350 15:32 29.06.2022
1277 Clear 37 996 46 10000 6.17 30 13:20 29.06.2022
1278 Clear 37 997 41 10000 6.69 30 11:57 29.06.2022
1279 Clear 37 998 38 10000 7.72 350 09:43 29.06.2022
1280 Clear 37 998 38 10000 6.69 340 09:21 29.06.2022
1281 Clear 34 998 50 10000 5.14 330 06:27 29.06.2022
1282 Clear 32 997 45 10000 3.6 300 02:21 29.06.2022
1283 Clear 33 997 44 10000 4.12 300 00:38 29.06.2022
1284 Clear 33 997 44 10000 3.6 300 23:55 28.06.2022
1285 Clear 33 998 39 10000 4.12 330 22:48 28.06.2022
1286 Clear 34 998 34 10000 5.14 340 21:55 28.06.2022
1287 Clear 34 998 33 10000 5.14 340 21:33 28.06.2022
1288 Clear 34 999 33 10000 6.17 340 20:55 28.06.2022
1289 Clear 35 999 33 10000 6.69 340 19:50 28.06.2022
1290 Clear 35 998 34 10000 6.69 340 19:24 28.06.2022
1291 Clear 36 998 33 10000 7.2 350 18:37 28.06.2022
1292 Clear 38 997 30 10000 9.26 340 16:35 28.06.2022
1293 Clear 38 997 31 10000 9.77 340 15:54 28.06.2022
1294 Clouds 38 998 33 8000 10.8 350 14:22 28.06.2022
1295 Clouds 39 998 33 8000 7.72 360 13:55 28.06.2022
1296 Clouds 40 998 26 8000 9.77 340 13:32 28.06.2022
1297 Clouds 40 998 29 8000 7.72 360 11:58 28.06.2022
1298 Clouds 39 999 26 8000 7.72 340 09:50 28.06.2022
1299 Clear 38 999 30 8000 7.72 350 08:53 28.06.2022
1300 Clouds 37 999 32 9000 6.69 330 07:58 28.06.2022
1301 Clouds 36 999 36 7000 6.69 330 07:19 28.06.2022
1302 Dust 33 998 43 4500 6.17 300 02:25 28.06.2022
1303 Dust 34 999 34 4500 6.69 320 23:48 27.06.2022
1304 Dust 34 999 31 4500 5.66 310 22:56 27.06.2022
1305 Clouds 34 1000 35 7000 6.17 330 21:39 27.06.2022
1306 Clouds 34 1000 35 7000 6.17 330 21:18 27.06.2022
1307 Clear 34 1000 32 8000 8.23 330 19:48 27.06.2022
1308 Clear 35 999 26 10000 7.72 320 18:40 27.06.2022
1309 Clear 37 999 25 10000 8.75 340 17:24 27.06.2022
1310 Clear 39 998 18 10000 11.83 330 15:43 27.06.2022
1311 Clear 41 998 18 8000 11.83 340 13:44 27.06.2022
1312 Clear 43 998 14 8000 12.35 350 12:57 27.06.2022
1313 Clear 40 1000 25 8000 12.86 340 10:51 27.06.2022
1314 Clear 39 1000 28 8000 12.35 340 09:43 27.06.2022
1315 Clear 39 1000 31 8000 11.83 340 08:38 27.06.2022
1316 Clouds 38 999 33 8000 11.32 340 07:39 27.06.2022
1317 Dust 36 998 32 4500 11.32 340 04:40 27.06.2022
1318 Dust 37 997 30 3500 9.77 340 01:20 27.06.2022
1319 Clear 37 998 35 8000 7.72 340 22:47 26.06.2022
1320 Clear 37 998 35 10000 7.2 340 21:23 26.06.2022
1321 Clear 39 997 22 10000 5.66 330 19:59 26.06.2022
1322 Clear 41 996 19 10000 5.14 330 18:33 26.06.2022
1323 Clear 42 996 18 10000 7.2 340 17:37 26.06.2022
1324 Clear 42 996 29 10000 8.23 350 15:31 26.06.2022
1325 Clear 43 996 23 10000 7.72 350 13:59 26.06.2022
1326 Clear 42 996 29 10000 6.17 360 13:23 26.06.2022
1327 Clear 42 997 33 10000 5.66 10 11:39 26.06.2022
1328 Clear 44 998 24 10000 3.6 360 10:30 26.06.2022
1329 Clear 43 998 22 10000 4.63 360 09:55 26.06.2022
1330 Clear 41 998 21 10000 4.12 320 07:47 26.06.2022
1331 Clear 36 996 35 10000 3.09 300 04:29 26.06.2022
1332 Clear 35 996 25 10000 1.54 300 00:36 26.06.2022
1333 Clear 35 996 25 10000 1.54 300 00:18 26.06.2022
1334 Clear 37 996 21 10000 1.54 340 23:25 25.06.2022
1335 Clear 38 997 21 10000 3.09 310 22:29 25.06.2022
1336 Clear 39 998 19 10000 3.09 310 21:52 25.06.2022
1337 Clear 39 998 19 10000 3.6 310 21:20 25.06.2022
1338 Clear 39 998 23 10000 3.09 320 20:32 25.06.2022
1339 Clear 39 998 22 10000 3.09 320 19:55 25.06.2022
1340 Clear 39 997 25 10000 4.63 340 18:22 25.06.2022
1341 Clear 41 997 28 10000 5.66 330 17:26 25.06.2022
1342 Clear 41 997 32 10000 6.17 340 16:25 25.06.2022
1343 Clear 42 997 32 10000 6.17 350 14:28 25.06.2022
1344 Clear 40 998 35 10000 6.69 360 12:43 25.06.2022
1345 Clear 41 999 36 10000 5.14 350 11:39 25.06.2022
1346 Clear 42 1000 25 10000 6.17 360 09:24 25.06.2022
1347 Clear 40 1000 27 10000 6.69 340 08:49 25.06.2022
1348 Clear 39 1000 31 10000 6.69 330 08:20 25.06.2022
1349 Clear 36 1000 40 10000 4.12 300 06:26 25.06.2022
1350 Clear 32 1000 67 10000 1.54 310 00:44 25.06.2022
1351 Clear 32 1000 67 10000 1.54 310 00:44 25.06.2022
1352 Clear 32 1000 72 10000 4.12 350 23:46 24.06.2022
1353 Clear 33 1001 70 10000 5.14 350 22:22 24.06.2022
1354 Clear 34 1001 68 10000 4.63 350 21:22 24.06.2022
1355 Clear 34 1001 72 10000 3.6 350 20:23 24.06.2022
1356 Clear 34 1001 77 10000 2.57 350 19:24 24.06.2022
1357 Clear 34 1001 77 10000 3.09 350 18:50 24.06.2022
1358 Clear 34 1001 79 9000 3.09 350 18:31 24.06.2022
1359 Clear 34 1000 79 7000 3.09 350 17:46 24.06.2022
1360 Clear 34 1000 76 6000 4.12 360 16:32 24.06.2022
1361 Clear 35 1001 73 6000 4.63 360 14:29 24.06.2022
1362 Clear 36 1001 67 6000 4.12 20 13:55 24.06.2022
1363 Clear 36 1002 64 8000 4.12 60 12:28 24.06.2022
1364 Clear 36 1002 62 8000 5.66 80 11:40 24.06.2022
1365 Clear 36 1003 61 8000 5.66 70 10:26 24.06.2022
1366 Clear 35 1003 63 8000 5.66 60 09:41 24.06.2022
1367 Clear 35 1003 64 7000 5.66 50 08:53 24.06.2022
1368 Clear 34 1003 70 7000 6.69 10 07:33 24.06.2022
1369 Clear 33 1003 74 7000 6.17 10 06:42 24.06.2022
1370 Clear 33 1003 74 7000 6.17 10 06:18 24.06.2022
1371 Clear 32 1002 74 7000 4.63 10 03:33 24.06.2022
1372 Clear 32 1002 84 6000 4.12 10 22:59 23.06.2022
1373 Clear 32 1002 81 7000 4.12 10 22:40 23.06.2022
1374 Clear 32 1002 79 9000 3.6 10 20:58 23.06.2022
1375 Clear 32 1002 82 9000 3.09 360 20:35 23.06.2022
1376 Clear 32 1001 84 7000 3.6 360 19:34 23.06.2022
1377 Haze 33 1001 79 4000 4.12 60 17:52 23.06.2022
1378 Haze 34 1000 77 4000 4.12 60 17:23 23.06.2022
1379 Haze 35 1000 66 4000 5.66 50 15:50 23.06.2022
1380 Haze 35 1000 62 5000 5.14 60 15:24 23.06.2022
1381 Haze 35 1000 58 5000 7.2 40 13:40 23.06.2022
1382 Haze 35 1001 57 5000 5.66 350 11:27 23.06.2022
1383 Clear 36 1002 49 6000 4.63 360 10:37 23.06.2022
1384 Clear 35 1001 57 7000 5.14 90 09:18 23.06.2022
1385 Clear 31 997 82 10000 2.57 150 03:39 23.06.2022
1386 Clear 32 997 63 10000 1.54 330 00:26 23.06.2022
1387 Clear 33 997 60 10000 2.06 340 23:41 22.06.2022
1388 Clear 33 998 62 10000 3.09 30 22:41 22.06.2022
1389 Clear 33 998 73 10000 3.6 30 21:22 22.06.2022
1390 Clear 33 998 73 10000 3.6 30 21:22 22.06.2022
1391 Clear 33 998 75 10000 3.09 30 20:43 22.06.2022
1392 Clear 33 998 75 10000 3.09 10 19:56 22.06.2022
1393 Clear 34 997 70 10000 3.09 10 18:47 22.06.2022
1394 Clear 34 997 70 10000 3.09 10 18:47 22.06.2022
1395 Clear 35 996 62 7000 3.09 10 17:28 22.06.2022
1396 Clear 36 996 52 7000 4.12 10 16:29 22.06.2022
1397 Clear 39 996 37 9000 4.12 20 15:26 22.06.2022
1398 Clear 41 995 27 8000 3.09 50 14:20 22.06.2022
1399 Clear 39 996 42 7000 3.09 90 13:39 22.06.2022
1400 Clear 39 996 42 7000 3.09 90 13:21 22.06.2022
1401 Clear 38 996 47 8000 4.63 80 11:49 22.06.2022
1402 Clear 42 996 23 9000 4.12 30 10:55 22.06.2022
1403 Clear 43 996 18 10000 5.66 360 10:19 22.06.2022
1404 Clear 43 996 15 10000 4.12 310 08:27 22.06.2022
1405 Clear 35 994 25 8000 2.06 260 03:50 22.06.2022
1406 Clear 36 993 28 10000 2.06 220 01:23 22.06.2022
1407 Clear 36 993 36 10000 1.54 200 00:24 22.06.2022
1408 Clear 36 994 46 10000 1.03 0 22:18 21.06.2022
1409 Clear 36 994 41 10000 1.03 0 19:56 21.06.2022
1410 Clear 37 994 43 10000 2.06 70 18:35 21.06.2022
1411 Clear 38 993 39 10000 3.09 100 17:39 21.06.2022
1412 Clouds 45 994 11 10000 6.17 150 13:54 21.06.2022
1413 Clear 44 995 14 9000 4.63 100 11:37 21.06.2022
1414 Clear 44 996 9 9000 6.17 200 10:18 21.06.2022
1415 Clear 40 996 22 7000 6.17 190 08:48 21.06.2022
1416 Clear 36 997 45 9000 2.06 120 06:36 21.06.2022
1417 Clear 34 995 37 10000 1.54 200 01:31 21.06.2022
1418 Clear 34 997 37 10000 1.03 0 23:24 20.06.2022
1419 Clear 34 997 39 10000 0.51 0 21:54 20.06.2022
1420 Clear 34 998 43 10000 1.54 120 20:53 20.06.2022
1421 Clear 35 998 39 10000 2.06 130 19:40 20.06.2022
1422 Clear 35 998 40 10000 2.57 60 18:48 20.06.2022
1423 Clear 37 998 34 10000 2.57 60 18:20 20.06.2022
1424 Clear 37 998 37 10000 3.6 50 17:35 20.06.2022
1425 Clear 39 997 27 10000 5.14 70 15:57 20.06.2022
1426 Clear 44 998 12 8000 3.6 360 12:56 20.06.2022
1427 Clear 43 999 29 10000 3.6 100 11:18 20.06.2022
1428 Clear 41 1000 30 10000 2.06 150 09:47 20.06.2022
1429 Clear 38 1000 33 10000 3.6 170 08:44 20.06.2022
1430 Clear 36 1000 46 9000 0.51 0 06:37 20.06.2022
1431 Clear 30 999 70 10000 1.54 80 02:56 20.06.2022
1432 Clear 32 998 74 8000 5.66 70 00:32 20.06.2022
1433 Clear 31 998 76 8000 1.54 230 23:24 19.06.2022
1434 Clear 32 999 74 8000 2.06 10 21:59 19.06.2022
1435 Clear 32 999 76 8000 2.06 10 21:40 19.06.2022
1436 Clear 32 999 74 9000 2.57 360 20:46 19.06.2022
1437 Clear 33 999 74 9000 3.09 360 19:48 19.06.2022
1438 Clear 33 999 74 10000 2.57 10 19:23 19.06.2022
1439 Clear 34 999 59 9000 1.54 30 18:31 19.06.2022
1440 Clear 34 999 54 9000 3.09 20 17:34 19.06.2022
1441 Clear 37 999 43 10000 3.6 30 16:38 19.06.2022
1442 Clear 40 998 19 10000 3.09 30 15:44 19.06.2022
1443 Clear 40 998 19 10000 3.09 30 15:25 19.06.2022
1444 Clear 40 999 28 10000 3.09 30 14:30 19.06.2022
1445 Clear 39 999 39 10000 4.12 80 13:43 19.06.2022
1446 Clear 44 999 6 10000 4.12 30 11:53 19.06.2022
1447 Clear 44 1000 5 10000 2.06 90 10:51 19.06.2022
1448 Clear 39 1000 15 10000 3.6 160 08:55 19.06.2022
1449 Clear 39 1001 17 10000 3.6 160 08:30 19.06.2022
1450 Clear 32 1001 62 10000 1.54 150 06:48 19.06.2022
1451 Clear 30 998 74 10000 1.03 0 03:37 19.06.2022
1452 Clear 30 997 79 10000 1.54 40 00:28 19.06.2022
1453 Clear 31 997 81 10000 1.54 360 23:52 18.06.2022
1454 Clear 31 998 81 10000 1.54 20 23:34 18.06.2022
1455 Clear 32 998 58 10000 1.03 0 21:54 18.06.2022
1456 Clear 32 998 64 10000 1.54 40 20:51 18.06.2022
1457 Clear 33 998 58 10000 2.06 360 20:18 18.06.2022
1458 Clear 34 998 48 10000 2.06 160 18:55 18.06.2022
1459 Clear 34 997 47 10000 2.06 130 18:30 18.06.2022
1460 Clear 35 997 34 10000 2.57 110 17:29 18.06.2022
1461 Clear 37 997 28 10000 2.57 100 15:46 18.06.2022
1462 Clear 37 997 28 10000 3.6 110 14:50 18.06.2022
1463 Clear 38 998 27 10000 4.12 90 13:58 18.06.2022
1464 Clear 38 998 24 10000 4.63 100 12:28 18.06.2022
1465 Clear 40 999 11 10000 3.6 20 10:59 18.06.2022
1466 Clear 38 999 15 10000 4.63 360 09:39 18.06.2022
1467 Clear 38 999 16 10000 3.6 360 08:40 18.06.2022
1468 Clear 36 999 22 10000 3.09 310 07:34 18.06.2022
1469 Clear 33 997 26 10000 5.14 260 05:20 18.06.2022
1470 Clear 31 997 27 10000 2.06 250 01:50 18.06.2022
1471 Clear 31 997 27 10000 2.06 230 01:21 18.06.2022
1472 Clear 32 997 25 10000 2.06 250 00:23 18.06.2022
1473 Clear 32 997 25 10000 2.06 250 00:23 18.06.2022
1474 Clear 31 998 25 10000 1.03 100 23:36 17.06.2022
1475 Clear 33 998 23 10000 1.54 250 22:27 17.06.2022
1476 Clear 35 998 20 10000 2.57 320 20:29 17.06.2022
1477 Clear 35 998 23 10000 3.6 330 19:24 17.06.2022
1478 Clear 35 998 23 10000 3.6 330 19:24 17.06.2022
1479 Clear 37 998 19 10000 5.66 340 17:56 17.06.2022
1480 Clear 40 998 14 10000 7.2 330 16:44 17.06.2022
1481 Clear 40 997 13 10000 6.69 320 16:25 17.06.2022
1482 Clear 41 997 9 10000 9.26 340 15:40 17.06.2022
1483 Clear 42 997 10 10000 8.75 330 14:23 17.06.2022
1484 Clear 44 997 7 10000 7.2 310 13:58 17.06.2022
1485 Clear 43 997 9 10000 7.2 310 13:38 17.06.2022
1486 Clear 43 998 10 10000 7.72 330 12:24 17.06.2022
1487 Clear 42 998 12 10000 7.72 330 11:55 17.06.2022
1488 Clear 42 999 13 10000 7.72 330 11:33 17.06.2022
1489 Clear 40 1000 15 10000 8.23 310 08:58 17.06.2022
1490 Clear 39 1000 21 10000 8.23 330 08:25 17.06.2022
1491 Clear 36 1000 28 10000 9.77 320 06:44 17.06.2022
1492 Clear 35 999 34 10000 7.72 320 03:45 17.06.2022
1493 Clear 36 998 28 10000 6.69 310 01:56 17.06.2022
1494 Clear 37 999 23 10000 5.14 300 23:35 16.06.2022
1495 Clear 37 999 24 10000 7.2 320 22:42 16.06.2022
1496 Clear 38 1000 22 10000 7.2 320 21:22 16.06.2022
1497 Clear 38 1000 22 10000 6.17 320 20:52 16.06.2022
1498 Clear 38 1000 22 10000 6.17 310 20:32 16.06.2022
1499 Clear 39 1000 16 10000 7.72 340 19:32 16.06.2022
1500 Clear 39 999 19 10000 6.17 320 18:24 16.06.2022
1501 Clear 40 999 15 10000 7.2 330 17:35 16.06.2022
1502 Clear 41 999 16 10000 8.23 330 16:33 16.06.2022
1503 Clear 43 999 18 10000 8.75 340 15:22 16.06.2022
1504 Clear 41 999 26 10000 8.23 360 14:30 16.06.2022
1505 Clear 41 1000 26 10000 8.75 350 13:19 16.06.2022
1506 Clear 42 1000 24 10000 8.75 350 12:35 16.06.2022
1507 Clear 40 1000 29 10000 7.72 360 11:49 16.06.2022
1508 Clear 43 1000 16 10000 9.26 340 10:54 16.06.2022
1509 Clear 42 1001 18 10000 9.26 340 09:43 16.06.2022
1510 Clear 41 1001 20 10000 7.72 340 09:20 16.06.2022
1511 Clear 39 1001 25 10000 6.17 330 07:57 16.06.2022
1512 Clear 37 1000 32 10000 6.17 320 07:24 16.06.2022
1513 Clear 32 1000 43 8000 4.12 280 04:42 16.06.2022
1514 Clear 32 1000 36 8000 2.06 260 02:19 16.06.2022
1515 Clear 32 999 37 8000 2.06 230 01:35 16.06.2022
1516 Clear 32 1000 44 8000 1.03 0 00:39 16.06.2022
1517 Clear 33 1001 44 8000 1.54 220 23:33 15.06.2022
1518 Clear 32 1001 58 9000 1.54 310 22:35 15.06.2022
1519 Clear 33 1002 53 10000 2.57 350 21:21 15.06.2022
1520 Clear 32 1001 56 10000 2.06 360 20:42 15.06.2022
1521 Clear 32 1001 56 10000 2.06 360 20:23 15.06.2022
1522 Clear 33 1001 68 10000 2.57 40 19:20 15.06.2022
1523 Clear 35 1000 52 10000 3.6 10 17:56 15.06.2022
1524 Clear 35 1000 48 10000 5.66 20 16:55 15.06.2022
1525 Clear 39 1000 29 10000 3.6 120 15:36 15.06.2022
1526 Clear 38 1001 29 10000 4.63 110 13:44 15.06.2022
1527 Clear 39 1001 27 10000 4.63 100 12:54 15.06.2022
1528 Clear 39 1002 29 10000 4.63 90 11:53 15.06.2022
1529 Clear 37 1003 43 10000 3.09 60 10:24 15.06.2022
1530 Clear 37 1003 43 10000 3.6 60 09:42 15.06.2022
1531 Clear 36 1003 52 8000 3.09 10 08:37 15.06.2022
1532 Clear 34 1002 56 9000 1.54 220 06:34 15.06.2022
1533 Clear 32 1002 70 9000 2.06 170 04:34 15.06.2022
1534 Clear 31 1001 76 10000 3.09 10 01:54 15.06.2022
1535 Clear 31 1001 74 10000 3.09 10 00:50 15.06.2022
1536 Clear 31 1002 74 10000 4.63 20 23:39 14.06.2022
1537 Clear 31 1002 74 10000 4.63 20 23:19 14.06.2022
1538 Clear 31 1002 74 10000 6.17 20 22:21 14.06.2022
1539 Clear 31 1003 76 10000 7.72 10 21:36 14.06.2022
1540 Clouds 31 1002 81 9000 8.23 350 20:54 14.06.2022
1541 Clouds 31 1002 84 9000 7.72 10 20:28 14.06.2022
1542 Clear 31 1002 79 9000 6.17 10 18:56 14.06.2022
1543 Clear 32 1001 74 8000 5.66 40 17:54 14.06.2022
1544 Clear 32 1001 70 9000 6.17 40 16:43 14.06.2022
1545 Clear 33 1001 68 9000 6.17 40 15:50 14.06.2022
1546 Clear 34 1001 66 9000 6.17 40 15:24 14.06.2022
1547 Clear 34 1002 66 9000 6.17 30 14:32 14.06.2022
1548 Clear 34 1002 66 9000 6.17 30 13:42 14.06.2022
1549 Clear 34 1002 58 8000 5.66 30 12:44 14.06.2022
1550 Clear 34 1003 60 8000 5.66 20 11:32 14.06.2022
1551 Clear 34 1003 56 7000 5.14 10 10:47 14.06.2022
1552 Clear 34 1003 63 8000 5.66 40 09:48 14.06.2022
1553 Clear 33 1003 67 8000 5.14 10 08:47 14.06.2022
1554 Clear 32 1003 74 8000 4.12 10 07:33 14.06.2022
1555 Clear 31 1002 74 8000 1.54 340 05:21 14.06.2022
1556 Clear 30 1001 79 10000 2.06 90 02:57 14.06.2022
1557 Clear 30 1001 81 9000 2.57 40 00:32 14.06.2022
1558 Clear 30 1001 86 8000 3.09 20 23:39 13.06.2022
1559 Clear 31 1001 81 9000 4.12 30 22:26 13.06.2022
1560 Clear 31 1001 79 9000 4.12 30 21:50 13.06.2022
1561 Clear 32 1001 74 8000 3.6 50 20:42 13.06.2022
1562 Clear 32 1001 72 8000 2.57 10 19:34 13.06.2022
1563 Clear 33 1000 66 8000 2.57 10 18:28 13.06.2022
1564 Clear 33 1000 62 8000 3.09 40 17:47 13.06.2022
1565 Clear 34 1000 58 8000 4.12 80 16:52 13.06.2022
1566 Clear 34 1000 57 8000 4.63 50 15:39 13.06.2022
1567 Clear 35 1001 55 8000 4.63 80 14:47 13.06.2022
1568 Clear 35 1001 53 9000 5.14 90 13:54 13.06.2022
1569 Clear 35 1001 52 10000 5.14 90 12:48 13.06.2022
1570 Clear 35 1001 50 10000 4.63 50 11:34 13.06.2022
1571 Clear 35 1002 49 10000 4.12 20 10:27 13.06.2022
1572 Clear 34 1002 50 10000 2.57 10 09:39 13.06.2022
1573 Clear 32 1002 53 10000 2.57 100 07:53 13.06.2022
1574 Clear 31 1001 63 10000 2.06 10 06:28 13.06.2022
1575 Clear 28 1000 78 10000 0.51 270 03:18 13.06.2022
1576 Clear 29 999 72 10000 2.57 50 01:38 13.06.2022
1577 Clear 29 999 70 10000 3.09 10 00:22 13.06.2022
1578 Clear 30 999 54 10000 2.57 360 23:29 12.06.2022
1579 Clear 30 999 59 10000 2.57 340 22:23 12.06.2022
1580 Clear 31 999 62 10000 3.6 340 21:28 12.06.2022
1581 Clear 31 999 64 10000 4.12 20 20:34 12.06.2022
1582 Clear 32 999 64 10000 4.12 360 19:36 12.06.2022
1583 Clear 33 998 55 10000 5.14 360 18:39 12.06.2022
1584 Clear 34 998 50 10000 4.63 350 16:42 12.06.2022
1585 Clear 34 998 48 10000 6.69 350 15:24 12.06.2022
1586 Clear 35 998 47 10000 7.72 30 14:31 12.06.2022
1587 Clear 36 998 42 10000 8.75 30 13:55 12.06.2022
1588 Clear 36 998 38 10000 7.72 20 12:58 12.06.2022
1589 Clear 37 998 34 10000 8.75 20 11:47 12.06.2022
1590 Clear 39 999 28 10000 8.75 360 10:45 12.06.2022
1591 Clear 38 999 22 10000 10.8 340 09:25 12.06.2022
1592 Clear 38 999 26 10000 10.29 340 08:48 12.06.2022
1593 Clear 37 999 27 10000 6.17 320 07:39 12.06.2022
1594 Clear 35 998 26 10000 9.77 340 05:38 12.06.2022
1595 Clear 34 997 33 8000 8.23 320 03:38 12.06.2022
1596 Clear 35 996 31 10000 7.72 300 01:43 12.06.2022
1597 Clear 35 997 29 10000 8.23 300 00:59 12.06.2022
1598 Clear 35 997 27 10000 7.72 300 00:26 12.06.2022
1599 Clear 36 997 25 10000 7.72 310 23:53 11.06.2022
1600 Clear 36 998 26 10000 7.2 320 22:40 11.06.2022
1601 Clear 36 998 26 10000 7.2 320 22:21 11.06.2022
1602 Clear 37 999 18 10000 7.72 310 20:55 11.06.2022
1603 Clear 37 999 17 10000 7.72 320 20:24 11.06.2022
1604 Clear 38 999 13 10000 7.72 330 19:26 11.06.2022
1605 Clear 38 998 13 10000 8.23 330 18:36 11.06.2022
1606 Dust 39 998 14 9000 8.75 330 17:52 11.06.2022
1607 Dust 39 998 14 8000 8.75 330 17:29 11.06.2022
1608 Dust 39 998 11 7000 9.77 340 16:59 11.06.2022
1609 Dust 40 998 12 7000 9.77 340 16:38 11.06.2022
1610 Dust 40 998 13 5000 11.83 330 15:45 11.06.2022
1611 Dust 40 998 13 5000 11.83 330 15:45 11.06.2022
1612 Dust 41 999 12 5000 10.29 340 13:54 11.06.2022
1613 Dust 41 999 12 5000 10.29 340 13:25 11.06.2022
1614 Dust 41 1000 12 5000 10.29 320 10:58 11.06.2022
1615 Clear 41 1000 12 6000 10.29 340 10:20 11.06.2022
1616 Clear 41 1000 12 8000 8.23 340 09:38 11.06.2022
1617 Clear 38 1001 19 8000 10.29 340 07:52 11.06.2022
1618 Clear 36 1000 22 10000 8.75 330 06:31 11.06.2022
1619 Clear 35 1000 27 10000 8.75 320 05:21 11.06.2022
1620 Clear 36 999 24 10000 7.72 320 01:53 11.06.2022
1621 Clear 36 999 22 10000 8.23 310 01:33 11.06.2022
1622 Clear 37 999 20 10000 7.2 320 00:22 11.06.2022
1623 Clear 37 1000 20 10000 6.69 320 22:35 10.06.2022
1624 Clear 38 1000 19 10000 6.17 330 21:54 10.06.2022
1625 Clear 38 1000 15 10000 9.26 340 20:43 10.06.2022
1626 Clear 38 1000 15 10000 9.26 340 20:23 10.06.2022
1627 Clear 39 1000 13 10000 11.32 340 19:48 10.06.2022
1628 Clear 39 1000 13 10000 11.32 340 19:18 10.06.2022
1629 Clear 39 999 15 10000 11.83 340 18:19 10.06.2022
1630 Clear 41 999 17 10000 10.8 330 17:36 10.06.2022
1631 Clear 43 999 11 10000 9.77 340 16:58 10.06.2022
1632 Clear 43 999 18 10000 11.83 330 15:50 10.06.2022
1633 Clear 43 999 20 10000 10.29 340 15:30 10.06.2022
1634 Clear 46 999 12 10000 12.35 340 13:49 10.06.2022
1635 Clear 46 999 11 8000 12.86 340 12:35 10.06.2022
1636 Clear 46 1000 11 9000 11.32 330 11:40 10.06.2022
1637 Clear 46 1000 12 10000 10.8 330 10:43 10.06.2022
1638 Clear 46 1000 13 10000 8.23 340 09:44 10.06.2022
1639 Clear 43 1000 17 10000 6.17 320 08:28 10.06.2022
1640 Clear 39 1000 24 10000 6.17 300 06:53 10.06.2022
1641 Clear 39 1000 24 10000 6.17 300 06:32 10.06.2022
1642 Clear 38 1000 24 10000 5.14 320 05:48 10.06.2022
1643 Clear 38 999 22 10000 6.17 320 03:50 10.06.2022
1644 Clear 39 999 14 10000 5.66 320 01:38 10.06.2022
1645 Clear 40 999 12 10000 6.17 320 00:27 10.06.2022
1646 Clear 40 999 13 10000 5.66 320 23:28 09.06.2022
1647 Clear 40 1000 12 10000 6.17 320 21:48 09.06.2022
1648 Clear 40 1000 13 10000 6.17 320 21:29 09.06.2022
1649 Clear 40 1000 13 10000 5.14 320 20:54 09.06.2022
1650 Clear 40 1000 13 10000 5.14 320 20:54 09.06.2022
1651 Clear 41 1000 13 10000 4.63 300 19:59 09.06.2022
1652 Clear 41 1000 11 10000 4.63 320 18:54 09.06.2022
1653 Clear 41 999 11 10000 4.63 320 18:21 09.06.2022
1654 Clear 43 999 17 10000 6.69 350 16:48 09.06.2022
1655 Clear 43 999 27 9000 6.69 330 15:48 09.06.2022
1656 Clear 41 999 32 9000 5.66 30 14:35 09.06.2022
1657 Clear 46 1000 14 10000 6.69 340 13:48 09.06.2022
1658 Clear 48 1000 6 10000 6.69 340 13:27 09.06.2022
1659 Clear 46 1001 7 10000 4.63 290 11:54 09.06.2022
1660 Clear 46 1001 7 9000 3.6 280 11:18 09.06.2022
1661 Dust 43 1002 10 8000 4.63 280 09:43 09.06.2022
1662 Dust 43 1002 10 8000 4.63 280 09:23 09.06.2022
1663 Dust 38 1002 16 7000 4.63 230 07:44 09.06.2022
1664 Clear 34 1002 22 7000 4.12 210 05:48 09.06.2022
1665 Clear 32 1000 33 10000 2.06 190 02:38 09.06.2022
1666 Clear 33 1001 34 10000 1.03 0 23:36 08.06.2022
1667 Clear 35 1001 23 10000 1.03 0 22:58 08.06.2022
1668 Clear 33 1002 41 10000 1.03 140 22:26 08.06.2022
1669 Clear 32 1002 49 10000 1.03 0 21:52 08.06.2022
1670 Clear 32 1003 48 9000 0.51 60 20:59 08.06.2022
1671 Clear 34 1002 47 9000 1.54 40 19:55 08.06.2022
1672 Clear 34 1002 46 9000 1.54 20 19:27 08.06.2022
1673 Clear 35 1002 39 9000 2.06 50 18:42 08.06.2022
1674 Clear 37 1001 35 7000 3.6 40 16:54 08.06.2022
1675 Clear 36 1001 42 7000 4.12 70 15:44 08.06.2022
1676 Clear 39 1001 29 8000 5.14 70 13:44 08.06.2022
1677 Clear 43 1002 18 7000 3.6 350 11:52 08.06.2022
1678 Clear 43 1002 18 7000 3.6 340 11:29 08.06.2022
1679 Clear 40 1003 24 8000 3.09 230 09:55 08.06.2022
1680 Clear 40 1003 27 8000 3.09 230 09:21 08.06.2022
1681 Clear 37 1003 33 7000 3.6 200 08:22 08.06.2022
1682 Clear 32 1002 58 7000 3.09 150 05:51 08.06.2022
1683 Haze 30 1001 66 5000 1.54 150 03:52 08.06.2022
1684 Haze 30 1001 63 7000 1.03 310 00:29 08.06.2022
1685 Haze 31 1001 62 6000 1.54 100 23:27 07.06.2022
1686 Haze 32 1001 60 6000 2.06 130 22:44 07.06.2022
1687 Haze 31 1001 60 6000 2.06 130 22:22 07.06.2022
1688 Haze 32 1002 66 6000 1.54 110 21:28 07.06.2022
1689 Clear 32 1002 66 7000 3.09 110 20:53 07.06.2022
1690 Clear 32 1001 66 7000 3.09 110 20:31 07.06.2022
1691 Clear 32 1001 68 7000 3.6 80 19:27 07.06.2022
1692 Clear 35 1001 48 10000 4.63 100 18:19 07.06.2022
1693 Clear 39 1000 18 10000 2.57 90 17:25 07.06.2022
1694 Clear 40 1000 13 10000 3.09 70 16:42 07.06.2022
1695 Clear 41 1000 12 10000 4.12 100 15:44 07.06.2022
1696 Clear 41 1000 12 10000 4.12 70 15:24 07.06.2022
1697 Clear 41 1000 11 10000 4.63 80 14:46 07.06.2022
1698 Clear 42 1000 11 10000 4.63 110 14:27 07.06.2022
1699 Clear 43 1000 9 10000 4.63 90 13:30 07.06.2022
1700 Clear 43 1001 10 10000 5.66 150 12:45 07.06.2022
1701 Clear 43 1001 10 10000 5.14 150 11:32 07.06.2022
1702 Clear 41 1002 12 9000 5.66 140 10:26 07.06.2022
1703 Clear 37 1002 31 8000 6.17 160 08:49 07.06.2022
1704 Clear 37 1002 31 8000 6.17 160 08:49 07.06.2022
1705 Clear 37 1002 31 8000 6.17 160 08:49 07.06.2022
1706 Clear 37 1002 31 8000 6.17 160 08:49 07.06.2022
1707 Clear 37 1002 31 8000 6.17 160 08:49 07.06.2022
1708 Haze 34 1002 45 7000 5.14 150 07:32 07.06.2022
1709 Dust 32 1001 55 5000 4.12 130 05:56 07.06.2022
1710 Clear 30 1000 63 7000 2.57 90 03:22 07.06.2022
1711 Clear 31 1000 51 8000 0.51 80 00:44 07.06.2022
1712 Clear 32 1000 39 8000 1.03 150 23:35 06.06.2022
1713 Clear 32 1001 37 8000 1.03 130 22:47 06.06.2022
1714 Clear 32 1001 53 8000 1.54 40 21:49 06.06.2022
1715 Clear 32 1001 60 7000 1.54 40 20:21 06.06.2022
1716 Clear 33 1001 55 7000 2.57 10 19:23 06.06.2022
1717 Clear 34 1001 48 9000 2.57 20 18:46 06.06.2022
1718 Clear 37 1000 16 9000 2.06 60 17:52 06.06.2022
1719 Clear 38 1000 14 9000 3.09 70 16:48 06.06.2022
1720 Clear 38 1000 19 7000 4.12 100 15:40 06.06.2022
1721 Clear 38 1001 19 7000 5.14 140 14:57 06.06.2022
1722 Clear 38 1001 30 6000 5.66 100 13:37 06.06.2022
1723 Clear 38 1001 30 6000 6.17 110 12:59 06.06.2022
1724 Clear 38 1001 30 6000 6.69 100 12:26 06.06.2022
1725 Clear 40 1002 29 6000 5.66 140 11:45 06.06.2022
1726 Clear 40 1003 22 7000 4.63 150 09:46 06.06.2022
1727 Clear 37 1003 33 7000 3.09 190 08:36 06.06.2022
1728 Clear 36 1003 37 7000 2.06 160 07:43 06.06.2022
1729 Clear 33 1002 47 7000 3.09 140 06:43 06.06.2022
1730 Clear 29 1001 61 7000 1.03 140 04:28 06.06.2022
1731 Clear 30 1001 64 8000 1.54 70 01:30 06.06.2022
1732 Clear 30 1001 68 8000 2.57 70 00:47 06.06.2022
1733 Clear 30 1001 70 8000 2.57 70 00:28 06.06.2022
1734 Clear 33 1001 29 10000 1.03 0 22:58 05.06.2022
1735 Clear 36 1002 24 10000 1.54 230 21:59 05.06.2022
1736 Clear 33 1002 42 10000 0.51 0 20:23 05.06.2022
1737 Clear 33 1002 40 8000 1.54 130 18:51 05.06.2022
1738 Clear 35 1002 31 8000 1.54 90 17:59 05.06.2022
1739 Clear 35 1001 33 8000 1.54 30 17:38 05.06.2022
1740 Clear 35 1001 33 8000 1.54 30 17:20 05.06.2022
1741 Clear 36 1002 29 8000 3.09 60 16:47 05.06.2022
1742 Clear 36 1002 42 8000 3.6 70 15:22 05.06.2022
1743 Clear 36 1002 36 8000 4.12 80 14:18 05.06.2022
1744 Clear 40 1003 29 9000 4.63 80 11:58 05.06.2022
1745 Clear 42 1003 8 9000 3.09 230 10:45 05.06.2022
1746 Clear 42 1003 8 9000 3.09 230 10:24 05.06.2022
1747 Clear 40 1004 12 8000 4.12 230 09:29 05.06.2022
1748 Clear 38 1004 18 7000 3.6 250 08:23 05.06.2022
1749 Clear 33 1004 42 7000 2.06 200 06:23 05.06.2022
1750 Clear 31 1003 51 7000 1.54 200 05:19 05.06.2022
1751 Clear 28 1002 67 8000 1.03 120 02:43 05.06.2022
1752 Clear 29 1002 63 10000 1.54 350 01:23 05.06.2022
1753 Clear 29 1002 63 10000 1.54 350 01:23 05.06.2022
1754 Clear 31 1004 38 10000 3.09 360 22:51 04.06.2022
1755 Clear 32 1004 35 10000 3.6 50 21:30 04.06.2022
1756 Clear 33 1003 44 9000 1.54 160 19:27 04.06.2022
1757 Clear 37 1003 21 9000 3.6 130 16:48 04.06.2022
1758 Clear 38 1003 16 10000 3.6 130 16:20 04.06.2022
1759 Clear 38 1003 18 10000 3.6 90 15:39 04.06.2022
1760 Clear 39 1003 19 10000 4.12 130 13:59 04.06.2022
1761 Clear 37 1005 28 10000 6.17 110 11:41 04.06.2022
1762 Clear 40 1005 14 10000 3.6 360 10:54 04.06.2022
1763 Clear 41 1006 9 10000 4.12 10 09:59 04.06.2022
1764 Clear 39 1006 17 10000 4.12 10 09:38 04.06.2022
1765 Clear 39 1005 13 10000 2.57 230 08:39 04.06.2022
1766 Clear 34 1005 20 10000 3.09 240 06:59 04.06.2022
1767 Clear 30 1004 37 10000 2.06 230 03:57 04.06.2022
1768 Clear 30 1004 37 10000 1.03 0 00:24 04.06.2022
1769 Clear 30 1004 42 10000 1.03 320 23:19 03.06.2022
1770 Clear 30 1005 53 10000 3.09 360 21:54 03.06.2022
1771 Clear 31 1005 54 10000 3.09 360 20:40 03.06.2022
1772 Clear 31 1005 48 10000 4.12 10 19:49 03.06.2022
1773 Clear 34 1004 31 10000 4.63 60 16:59 03.06.2022
1774 Clear 35 1004 34 10000 4.63 40 16:30 03.06.2022
1775 Clear 37 1004 24 10000 4.12 90 14:47 03.06.2022
1776 Clear 38 1005 25 10000 2.57 110 12:26 03.06.2022
1777 Clear 39 1007 25 10000 3.6 150 09:58 03.06.2022
1778 Clear 38 1007 28 10000 3.6 150 09:29 03.06.2022
1779 Clear 36 1006 35 8000 2.57 200 07:53 03.06.2022
1780 Clear 35 1006 40 8000 2.57 180 07:19 03.06.2022
1781 Clear 31 1006 58 8000 2.06 130 06:30 03.06.2022
1782 Clear 28 1005 80 6000 1.54 150 04:40 03.06.2022
1783 Clear 29 1005 67 10000 3.6 30 00:22 03.06.2022
1784 Clear 32 1005 56 10000 1.54 210 22:35 02.06.2022
1785 Clear 30 1006 76 10000 0.51 0 21:29 02.06.2022
1786 Clear 30 1006 79 10000 2.57 30 20:00 02.06.2022
1787 Clear 31 1006 76 10000 2.57 20 19:41 02.06.2022
1788 Clear 31 1006 76 10000 2.57 20 19:18 02.06.2022
1789 Clear 33 1005 57 10000 3.6 30 16:46 02.06.2022
1790 Clear 34 1005 52 10000 3.6 50 16:20 02.06.2022
1791 Clear 39 1005 23 10000 3.09 100 13:47 02.06.2022
1792 Clear 38 1005 22 10000 3.6 100 13:26 02.06.2022
1793 Clear 38 1006 22 10000 3.6 110 11:18 02.06.2022
1794 Clear 37 1006 25 10000 4.12 100 10:19 02.06.2022
1795 Clear 37 1006 25 10000 3.6 90 09:27 02.06.2022
1796 Clear 36 1007 22 10000 3.6 60 08:25 02.06.2022
1797 Clear 33 1006 43 10000 3.6 30 06:50 02.06.2022
1798 Clear 29 1004 59 10000 2.06 330 04:40 02.06.2022
1799 Clear 29 1004 70 10000 2.57 70 02:30 02.06.2022
1800 Clear 28 1004 81 9000 4.12 10 23:43 01.06.2022
1801 Clear 28 1004 81 9000 4.12 10 23:43 01.06.2022
1802 Clear 28 1004 81 9000 4.12 10 23:43 01.06.2022
1803 Clear 29 1004 81 10000 4.12 340 22:23 01.06.2022
1804 Clear 30 1004 59 10000 3.09 360 21:32 01.06.2022
1805 Clear 29 1004 76 8000 3.09 340 20:40 01.06.2022
1806 Clear 29 1004 81 7000 2.57 330 19:53 01.06.2022
1807 Clear 29 1004 74 6000 2.57 360 18:58 01.06.2022
1808 Clear 31 1003 62 7000 4.63 50 17:40 01.06.2022
1809 Clear 33 1003 44 7000 3.09 20 16:33 01.06.2022
1810 Clear 33 1003 47 7000 5.14 70 14:52 01.06.2022
1811 Clear 33 1003 50 8000 5.66 50 13:45 01.06.2022
1812 Clear 34 1003 43 10000 5.66 50 12:25 01.06.2022
1813 Clear 34 1004 34 10000 2.57 360 09:40 01.06.2022
1814 Clear 34 1004 31 10000 2.57 40 08:38 01.06.2022
1815 Clear 31 1003 41 10000 3.09 10 07:22 01.06.2022
1816 Clear 30 1002 33 10000 2.06 330 05:22 01.06.2022
1817 Clear 28 1001 50 10000 2.57 220 00:20 01.06.2022
1818 Clear 27 1001 62 10000 1.54 270 23:26 31.05.2022
1819 Clear 28 1002 65 10000 1.03 30 22:36 31.05.2022
1820 Clear 28 1002 63 10000 0.51 0 21:45 31.05.2022
1821 Clear 29 1002 61 10000 1.54 30 20:45 31.05.2022
1822 Clear 29 1002 59 10000 2.06 340 20:45 31.05.2022
1823 Clear 29 1002 61 10000 1.54 30 20:45 31.05.2022
1824 Clear 30 1002 59 10000 2.57 350 19:53 31.05.2022
1825 Clear 30 1001 54 10000 3.09 360 18:50 31.05.2022
1826 Clear 31 1001 51 9000 3.6 10 17:49 31.05.2022
1827 Clear 33 1001 39 10000 6.17 40 16:53 31.05.2022
1828 Clear 35 1001 32 10000 7.72 30 15:40 31.05.2022
1829 Clear 37 1001 29 10000 6.17 40 13:45 31.05.2022
1830 Clear 38 1002 27 10000 7.72 30 12:20 31.05.2022
1831 Clear 40 1002 16 10000 6.17 350 10:52 31.05.2022
1832 Clear 39 1003 12 10000 7.2 330 08:41 31.05.2022
1833 Clear 37 1003 18 10000 5.66 320 07:21 31.05.2022
1834 Clear 34 1002 13 10000 5.66 290 04:53 31.05.2022
1835 Clear 34 1002 13 10000 3.6 280 00:26 31.05.2022
1836 Clear 36 1002 7 10000 3.6 270 23:26 30.05.2022
1837 Clear 36 1002 8 10000 3.6 280 22:48 30.05.2022
1838 Clear 37 1003 7 10000 3.6 280 21:52 30.05.2022
1839 Clear 37 1003 7 10000 3.6 280 21:32 30.05.2022
1840 Clear 38 1003 5 10000 2.06 0 19:57 30.05.2022
1841 Clear 38 1002 8 10000 3.6 310 18:39 30.05.2022
1842 Clear 39 1002 8 10000 4.12 310 17:24 30.05.2022
1843 Clear 40 1002 6 10000 5.66 310 16:40 30.05.2022
1844 Clear 42 1002 5 10000 7.2 330 14:23 30.05.2022
1845 Clear 43 1003 6 10000 7.2 330 12:21 30.05.2022
1846 Clear 41 1004 7 10000 6.69 320 10:40 30.05.2022
1847 Clear 40 1004 9 10000 6.17 300 09:19 30.05.2022
1848 Clear 35 1004 12 10000 4.63 280 06:40 30.05.2022
1849 Clear 34 1004 13 10000 4.12 290 05:48 30.05.2022
1850 Clear 33 1003 15 10000 3.6 290 01:33 30.05.2022
1851 Clear 33 1004 18 10000 3.09 310 22:54 29.05.2022
1852 Clear 33 1005 19 10000 3.6 310 22:36 29.05.2022
1853 Clear 34 1005 16 10000 6.17 340 20:54 29.05.2022
1854 Clear 34 1005 19 10000 5.66 330 19:32 29.05.2022
1855 Clear 34 1004 24 10000 5.14 330 18:44 29.05.2022
1856 Clear 36 1004 19 10000 6.17 330 17:31 29.05.2022
1857 Clear 37 1004 24 10000 8.23 340 15:48 29.05.2022
1858 Clear 38 1004 17 10000 8.75 340 14:57 29.05.2022
1859 Clear 37 1004 25 10000 9.77 350 13:52 29.05.2022
1860 Clear 38 1005 21 10000 8.75 340 11:41 29.05.2022
1861 Clear 38 1006 17 10000 9.77 340 10:38 29.05.2022
1862 Clear 37 1006 17 10000 9.26 330 08:51 29.05.2022
1863 Clear 32 1005 30 10000 6.69 330 05:54 29.05.2022
1864 Clear 31 1004 29 10000 6.69 340 04:44 29.05.2022
1865 Clear 31 1004 31 10000 5.66 330 03:47 29.05.2022
1866 Clear 32 1004 26 10000 4.63 310 23:50 28.05.2022
1867 Clear 32 1004 26 10000 4.63 310 23:26 28.05.2022
1868 Clear 33 1005 22 10000 4.12 310 22:35 28.05.2022
1869 Clear 33 1005 19 10000 5.14 310 21:38 28.05.2022
1870 Clear 34 1005 15 10000 4.63 320 19:49 28.05.2022
1871 Clear 35 1004 15 10000 5.66 320 18:50 28.05.2022
1872 Clear 35 1004 20 10000 6.17 330 17:37 28.05.2022
1873 Clear 36 1003 24 10000 6.69 350 16:38 28.05.2022
1874 Clear 36 1003 25 10000 7.72 340 15:43 28.05.2022
1875 Clear 36 1003 26 10000 8.23 350 14:26 28.05.2022
1876 Clear 37 1004 20 10000 9.26 350 12:51 28.05.2022
1877 Clear 37 1004 21 10000 8.23 340 12:33 28.05.2022
1878 Clear 38 1005 18 10000 7.72 350 11:21 28.05.2022
1879 Clear 38 1005 11 10000 7.72 340 09:58 28.05.2022
1880 Clear 36 1005 16 10000 7.72 330 08:45 28.05.2022
1881 Clear 34 1005 17 10000 7.2 330 07:23 28.05.2022
1882 Clear 32 1004 18 10000 5.14 320 05:36 28.05.2022
1883 Clear 31 1004 23 10000 5.66 320 02:44 28.05.2022
1884 Clear 31 1004 19 10000 5.14 320 00:32 28.05.2022
1885 Clear 32 1005 23 10000 5.14 300 22:53 27.05.2022
1886 Clear 32 1005 26 10000 5.14 310 21:44 27.05.2022
1887 Clear 32 1005 24 10000 4.12 300 20:50 27.05.2022
1888 Clear 32 1005 25 10000 4.12 300 20:25 27.05.2022
1889 Clear 33 1005 20 10000 4.63 290 19:42 27.05.2022
1890 Clear 33 1005 20 10000 4.63 300 19:24 27.05.2022
1891 Clear 35 1005 17 10000 4.63 340 17:54 27.05.2022
1892 Clear 37 1004 17 10000 5.66 330 16:39 27.05.2022
1893 Clear 39 1004 13 10000 6.69 340 15:22 27.05.2022
1894 Clear 37 1004 25 10000 7.2 350 14:25 27.05.2022
1895 Clear 37 1005 23 10000 8.23 10 12:43 27.05.2022
1896 Clear 37 1006 20 10000 9.26 360 11:34 27.05.2022
1897 Clear 37 1006 22 10000 8.23 340 10:55 27.05.2022
1898 Clear 37 1006 22 10000 8.75 340 10:29 27.05.2022
1899 Clear 36 1007 20 10000 7.72 340 09:34 27.05.2022
1900 Clear 35 1007 20 10000 5.14 330 07:50 27.05.2022
1901 Clear 32 1006 26 10000 6.17 330 05:39 27.05.2022
1902 Clear 33 1005 16 10000 6.17 320 02:26 27.05.2022
1903 Clear 33 1005 20 10000 6.17 320 00:26 27.05.2022
1904 Clear 33 1006 23 10000 6.17 320 22:35 26.05.2022
1905 Clear 33 1007 22 10000 6.17 310 21:37 26.05.2022
1906 Clear 33 1007 22 10000 6.17 330 20:30 26.05.2022
1907 Clear 34 1006 18 10000 6.69 330 19:19 26.05.2022
1908 Clear 36 1006 14 10000 8.23 340 17:51 26.05.2022
1909 Clear 36 1005 16 10000 8.23 330 16:36 26.05.2022
1910 Clear 37 1005 16 10000 8.75 330 15:45 26.05.2022
1911 Clear 38 1006 14 10000 10.29 340 14:28 26.05.2022
1912 Clear 37 1007 20 10000 9.77 350 12:37 26.05.2022
1913 Clear 38 1008 15 10000 9.26 340 11:23 26.05.2022
1914 Clear 36 1008 20 10000 8.75 340 09:41 26.05.2022
1915 Clear 36 1008 22 10000 7.72 340 09:23 26.05.2022
1916 Clear 35 1008 20 10000 8.23 330 07:57 26.05.2022
1917 Clear 31 1007 31 10000 5.66 320 03:53 26.05.2022
1918 Clear 31 1007 26 10000 5.14 290 00:38 26.05.2022
1919 Clear 32 1007 22 10000 5.14 300 23:40 25.05.2022
1920 Clear 32 1008 23 10000 5.14 300 21:56 25.05.2022
1921 Clear 32 1008 26 10000 4.63 300 21:31 25.05.2022
1922 Clear 32 1008 25 10000 4.63 300 20:35 25.05.2022
1923 Clear 32 1008 25 10000 4.63 300 20:35 25.05.2022
1924 Clear 32 1008 24 10000 4.63 300 19:21 25.05.2022
1925 Clear 34 1007 20 10000 5.14 320 17:43 25.05.2022
1926 Clear 35 1006 17 10000 6.17 330 16:38 25.05.2022
1927 Clear 36 1006 17 10000 7.72 350 15:54 25.05.2022
1928 Clear 37 1006 17 6000 8.75 350 14:51 25.05.2022
1929 Clear 37 1006 16 6000 9.26 330 14:33 25.05.2022
1930 Dust 36 1007 25 5000 9.26 340 13:45 25.05.2022
1931 Dust 36 1007 24 5000 9.77 340 12:38 25.05.2022
1932 Dust 35 1008 24 5000 11.32 340 10:43 25.05.2022
1933 Dust 35 1008 25 4500 10.8 340 09:54 25.05.2022
1934 Clear 36 1008 22 10000 10.85 350 08:37 25.05.2022
1935 Clear 33 1008 29 10000 11.73 350 07:23 25.05.2022
1936 Dust 30 1005 35 5000 8.23 330 03:34 25.05.2022
1937 Dust 29 1005 40 4500 6.17 320 00:19 25.05.2022
1938 Dust 29 1005 40 4500 5.66 320 23:43 24.05.2022
1939 Dust 29 1005 41 4600 6.17 320 22:32 24.05.2022
1940 Dust 29 1006 40 4600 5.66 320 21:40 24.05.2022
1941 Dust 29 1006 40 4700 5.66 310 21:20 24.05.2022
1942 Dust 30 1005 35 5000 6.17 330 19:48 24.05.2022
1943 Dust 31 1005 34 5000 7.2 330 18:54 24.05.2022
1944 Dust 33 1004 28 5000 8.23 340 16:45 24.05.2022
1945 Dust 34 1003 26 4500 8.23 340 16:23 24.05.2022
1946 Dust 36 1003 20 2500 10.8 330 14:58 24.05.2022
1947 Dust 35 1003 23 2500 10.29 350 14:21 24.05.2022
1948 Dust 36 1003 24 2500 10.8 330 12:50 24.05.2022
1949 Dust 36 1003 24 2000 10.29 330 11:33 24.05.2022
1950 Dust 35 1004 28 1500 10.29 350 09:45 24.05.2022
1951 Dust 33 1004 35 1000 9.26 350 08:50 24.05.2022
1952 Dust 31 1003 42 600 7.2 330 06:57 24.05.2022
1953 Dust 31 1001 39 600 8.75 340 04:20 24.05.2022
1954 Dust 31 1000 33 1500 10.29 340 02:37 24.05.2022
1955 Clear 31 1000 33 7000 6.17 330 01:42 24.05.2022
1956 Clear 28 999 69 10000 2.06 20 23:33 23.05.2022
1957 Clear 28 1000 73 10000 2.57 360 21:57 23.05.2022
1958 Clear 28 1000 76 10000 3.09 10 21:39 23.05.2022
1959 Clear 29 1000 69 10000 3.6 360 20:41 23.05.2022
1960 Clear 29 999 72 10000 2.57 360 19:33 23.05.2022
1961 Clear 29 999 70 10000 3.09 360 18:59 23.05.2022
1962 Clear 30 999 67 10000 3.09 350 18:35 23.05.2022
1963 Clear 30 999 72 10000 4.63 350 17:38 23.05.2022
1964 Clear 31 998 67 10000 4.63 20 15:37 23.05.2022
1965 Clear 32 998 58 10000 4.63 360 13:32 23.05.2022
1966 Clear 34 999 38 10000 7.72 360 11:36 23.05.2022
1967 Clear 37 999 26 10000 8.23 360 10:43 23.05.2022
1968 Clear 39 1000 15 10000 8.75 330 09:40 23.05.2022
1969 Clear 38 1000 18 10000 7.72 350 08:38 23.05.2022
1970 Clear 35 999 23 10000 6.69 320 06:47 23.05.2022
1971 Clear 34 999 25 10000 6.69 320 06:23 23.05.2022
1972 Clear 32 998 28 10000 7.72 320 02:35 23.05.2022
1973 Clear 32 998 24 10000 6.69 330 01:46 23.05.2022
1974 Clear 32 998 23 10000 6.69 330 01:19 23.05.2022
1975 Clear 34 999 14 10000 7.2 320 22:47 22.05.2022
1976 Clear 34 999 15 10000 7.2 310 22:18 22.05.2022
1977 Clear 33 999 19 10000 7.2 310 21:49 22.05.2022
1978 Clear 34 1000 16 10000 8.23 300 20:40 22.05.2022
1979 Clear 34 1000 16 10000 8.23 300 20:19 22.05.2022
1980 Clear 34 1000 14 10000 6.69 310 18:58 22.05.2022
1981 Clear 34 1000 18 10000 7.72 300 18:31 22.05.2022
1982 Clear 35 1000 17 10000 6.69 310 17:55 22.05.2022
1983 Clear 37 1000 15 10000 8.23 330 16:51 22.05.2022
1984 Clear 39 999 11 10000 8.75 310 15:22 22.05.2022
1985 Clear 40 1000 9 10000 9.77 330 14:36 22.05.2022
1986 Clear 40 1001 10 10000 9.77 310 12:54 22.05.2022
1987 Clear 40 1001 11 10000 8.75 330 12:24 22.05.2022
1988 Clear 40 1002 12 10000 8.23 330 10:38 22.05.2022
1989 Clear 39 1002 13 10000 10.29 330 09:27 22.05.2022
1990 Clear 35 1002 23 10000 7.2 310 07:44 22.05.2022
1991 Clear 33 1002 25 10000 7.2 320 06:41 22.05.2022
1992 Clear 33 1001 25 10000 7.72 330 03:53 22.05.2022
1993 Clear 33 1001 26 9000 8.75 320 00:49 22.05.2022
1994 Clear 34 1002 24 9000 8.23 320 23:56 21.05.2022
1995 Clear 34 1002 27 9000 8.23 320 23:29 21.05.2022
1996 Clear 36 1003 20 9000 6.69 310 21:59 21.05.2022
1997 Clear 35 1004 23 10000 6.69 320 21:37 21.05.2022
1998 Clear 36 1004 20 10000 5.66 320 20:41 21.05.2022
1999 Clear 36 1003 18 10000 7.72 320 19:55 21.05.2022
2000 Clear 37 1003 15 10000 7.72 320 19:20 21.05.2022
2001 Clear 39 1002 16 10000 7.72 320 17:23 21.05.2022
2002 Clear 40 1002 18 8000 8.23 350 14:51 21.05.2022
2003 Clear 40 1002 18 8000 8.23 350 14:19 21.05.2022
2004 Clear 41 1003 19 8000 9.77 340 13:25 21.05.2022
2005 Clear 43 1003 13 9000 10.29 330 12:39 21.05.2022
2006 Clear 42 1004 16 7000 9.26 350 11:38 21.05.2022
2007 Clear 42 1004 17 8000 8.75 340 10:21 21.05.2022
2008 Clear 42 1004 14 10000 6.17 330 08:59 21.05.2022
2009 Clear 41 1003 17 10000 6.17 330 08:38 21.05.2022
2010 Clear 34 1004 28 10000 7.29 319 06:20 21.05.2022
2011 Clear 34 1001 24 10000 5.66 320 01:42 21.05.2022
2012 Clear 34 1002 24 10000 6.69 320 23:36 20.05.2022
2013 Clear 35 1002 20 10000 7.2 320 22:40 20.05.2022
2014 Clear 37 1003 12 10000 7.2 310 21:58 20.05.2022
2015 Clear 36 1003 17 10000 6.17 330 21:19 20.05.2022
2016 Clear 36 1003 16 10000 7.2 320 20:47 20.05.2022
2017 Clear 38 1003 11 10000 7.2 310 19:47 20.05.2022
2018 Clear 38 1003 10 10000 7.2 310 18:53 20.05.2022
2019 Clear 39 1002 9 10000 7.2 310 18:18 20.05.2022
2020 Clear 41 1002 10 10000 7.2 330 16:23 20.05.2022
2021 Clear 42 1002 10 10000 7.72 340 15:54 20.05.2022
2022 Clear 42 1002 12 10000 8.23 320 14:44 20.05.2022
2023 Clear 42 1003 12 10000 8.75 340 14:26 20.05.2022
2024 Clear 43 1003 10 10000 9.77 330 12:37 20.05.2022
2025 Clear 42 1004 10 10000 7.2 320 10:47 20.05.2022
2026 Clear 41 1005 12 10000 7.2 320 09:27 20.05.2022
2027 Clear 39 1005 13 10000 6.69 330 08:24 20.05.2022
2028 Clear 35 1005 21 10000 7.2 320 06:42 20.05.2022
2029 Clear 33 1004 24 10000 7.2 320 05:40 20.05.2022
2030 Clear 33 1003 24 10000 7.72 320 02:41 20.05.2022
2031 Clear 34 1004 22 10000 7.2 320 23:47 19.05.2022
2032 Clear 35 1004 20 10000 6.69 320 22:36 19.05.2022
2033 Clear 35 1005 18 10000 5.66 320 21:50 19.05.2022
2034 Clear 35 1005 18 10000 5.66 320 21:24 19.05.2022
2035 Clear 35 1005 17 10000 5.14 310 20:52 19.05.2022
2036 Clear 36 1005 15 10000 5.14 330 19:54 19.05.2022
2037 Clear 36 1005 15 10000 5.14 310 19:18 19.05.2022
2038 Clear 37 1004 14 10000 6.69 340 17:46 19.05.2022
2039 Clear 40 1004 12 10000 8.75 350 15:58 19.05.2022
2040 Clear 40 1004 12 9000 9.77 340 14:49 19.05.2022
2041 Clear 41 1004 11 9000 9.77 340 14:20 19.05.2022
2042 Clear 40 1006 19 9000 9.77 340 11:55 19.05.2022
2043 Clear 39 1006 19 10000 8.75 340 10:31 19.05.2022
2044 Clear 39 1006 15 10000 7.2 330 08:46 19.05.2022
2045 Clear 35 1006 25 10000 5.14 330 07:24 19.05.2022
2046 Clear 32 1005 34 10000 6.17 320 04:23 19.05.2022
2047 Clear 33 1004 24 10000 6.69 320 01:28 19.05.2022
2048 Clear 34 1004 18 10000 6.69 320 23:43 18.05.2022
2049 Clear 35 1005 18 10000 6.17 310 22:44 18.05.2022
2050 Clear 35 1005 18 10000 6.69 330 21:45 18.05.2022
2051 Clear 35 1005 18 10000 6.69 330 21:23 18.05.2022
2052 Clear 35 1005 19 10000 5.66 330 20:22 18.05.2022
2053 Clear 35 1004 19 10000 6.17 310 19:18 18.05.2022
2054 Clear 36 1004 18 10000 5.66 320 18:18 18.05.2022
2055 Clear 37 1004 19 10000 5.66 320 17:40 18.05.2022
2056 Clear 37 1004 19 9000 6.17 320 17:22 18.05.2022
2057 Clear 40 1003 13 7000 9.26 330 15:58 18.05.2022
2058 Clear 39 1003 19 6000 9.26 340 15:37 18.05.2022
2059 Clear 42 1003 13 6000 8.75 330 14:25 18.05.2022
2060 Dust 42 1004 13 5000 9.77 340 12:58 18.05.2022
2061 Dust 41 1004 16 4000 8.75 340 12:25 18.05.2022
2062 Dust 40 1004 18 2500 8.75 350 11:33 18.05.2022
2063 Dust 40 1004 18 2500 8.23 330 10:49 18.05.2022
2064 Dust 36 1005 25 2000 7.2 310 08:27 18.05.2022
2065 Dust 33 1005 32 2000 8.23 320 07:28 18.05.2022
2066 Dust 29 1004 39 2000 8.23 320 04:26 18.05.2022
2067 Dust 30 1003 35 3000 8.23 320 00:52 18.05.2022
2068 Dust 30 1004 35 3000 8.23 320 23:41 17.05.2022
2069 Dust 30 1005 35 3000 8.23 320 21:23 17.05.2022
2070 Dust 30 1005 35 3100 6.69 310 20:44 17.05.2022
2071 Dust 29 1005 38 3500 7.2 320 19:45 17.05.2022
2072 Dust 30 1005 35 3500 7.2 320 19:25 17.05.2022
2073 Dust 31 1004 32 1400 7.2 310 17:49 17.05.2022
2074 Dust 33 1004 21 2000 7.72 310 16:58 17.05.2022
2075 Dust 35 1004 21 2000 7.72 330 16:24 17.05.2022
2076 Dust 36 1004 21 2000 7.2 320 15:18 17.05.2022
2077 Dust 37 1004 18 1500 7.2 310 14:29 17.05.2022
2078 Dust 38 1004 17 1500 7.72 340 13:31 17.05.2022
2079 Dust 37 1006 26 800 7.72 330 10:50 17.05.2022
2080 Dust 33 1006 34 500 7.2 330 08:55 17.05.2022
2081 Dust 31 1007 42 500 7.2 320 07:57 17.05.2022
2082 Dust 30 1006 45 500 7.2 310 06:27 17.05.2022
2083 Clear 30 1004 17 10000 1.03 200 01:59 17.05.2022
2084 Clear 29 1005 26 10000 1.54 220 00:28 17.05.2022
2085 Clear 28 1005 52 10000 2.06 330 22:41 16.05.2022
2086 Clear 28 1006 65 10000 1.03 350 21:33 16.05.2022
2087 Clear 28 1007 63 10000 1.54 360 20:44 16.05.2022
2088 Clear 29 1006 61 10000 2.06 360 19:19 16.05.2022
2089 Clear 30 1006 51 10000 4.63 350 17:58 16.05.2022
2090 Clear 33 1005 37 10000 6.17 40 15:42 16.05.2022
2091 Clear 37 1006 23 10000 5.14 40 13:48 16.05.2022
2092 Clear 38 1006 19 10000 5.14 30 12:50 16.05.2022
2093 Clear 40 1008 10 10000 5.14 340 10:52 16.05.2022
2094 Clear 36 1009 18 10000 4.12 300 08:55 16.05.2022
2095 Clear 30 1008 34 10000 3.09 340 06:33 16.05.2022
2096 Clear 28 1007 49 10000 4.12 350 02:38 16.05.2022
2097 Clear 30 1007 35 8000 2.57 310 23:19 15.05.2022
2098 Clear 29 1008 49 8000 2.06 270 22:29 15.05.2022
2099 Clear 28 1008 59 9000 2.57 350 21:39 15.05.2022
2100 Clear 28 1008 65 10000 3.6 350 20:53 15.05.2022
2101 Clear 29 1007 52 9000 2.06 340 19:24 15.05.2022
2102 Clear 31 1007 35 6000 2.06 20 17:48 15.05.2022
2103 Clear 34 1006 28 6000 4.12 70 15:44 15.05.2022
2104 Clear 33 1006 39 8000 4.12 40 13:49 15.05.2022
2105 Clear 33 1007 50 9000 4.12 20 12:23 15.05.2022
2106 Clear 32 1007 51 9000 4.12 20 11:38 15.05.2022
2107 Clear 32 1007 51 9000 4.12 20 11:38 15.05.2022
2108 Clear 32 1007 51 9000 4.12 20 11:38 15.05.2022
2109 Clear 32 1008 47 10000 6.17 30 10:23 15.05.2022
2110 Clear 29 1007 57 10000 7.2 350 07:46 15.05.2022
2111 Clear 28 1006 57 10000 7.2 350 06:57 15.05.2022
2112 Clear 28 1004 50 10000 5.14 320 04:44 15.05.2022
2113 Clear 30 1003 29 10000 7.2 310 00:49 15.05.2022
2114 Clear 30 1003 27 10000 7.2 320 23:38 14.05.2022
2115 Clear 30 1003 25 10000 7.72 320 22:45 14.05.2022
2116 Clear 31 1004 22 10000 9.26 320 21:28 14.05.2022
2117 Clear 31 1004 22 10000 8.23 320 20:44 14.05.2022
2118 Clear 30 1004 24 10000 6.69 300 19:37 14.05.2022
2119 Clear 30 1004 24 10000 6.69 300 19:19 14.05.2022
2120 Clear 30 1004 23 10000 7.72 320 18:41 14.05.2022
2121 Dust 32 1004 21 7000 7.2 300 16:38 14.05.2022
2122 Dust 34 1004 16 4000 9.77 320 15:23 14.05.2022
2123 Dust 34 1004 17 4000 9.26 320 14:33 14.05.2022
2124 Dust 34 1005 15 5000 9.77 310 12:23 14.05.2022
2125 Dust 33 1006 12 4000 9.77 320 10:54 14.05.2022
2126 Dust 33 1006 12 4000 9.77 330 10:20 14.05.2022
2127 Dust 32 1006 15 4000 10.8 310 09:53 14.05.2022
2128 Clear 32 1007 18 7000 10.8 310 08:49 14.05.2022
2129 Dust 28 1007 38 7000 6.69 300 05:47 14.05.2022
2130 Clear 28 1006 36 7000 7.2 320 02:32 14.05.2022
2131 Clear 30 1006 27 6000 8.75 320 23:36 13.05.2022
2132 Clear 30 1006 24 7000 8.75 320 22:58 13.05.2022
2133 Clear 30 1006 26 7000 8.75 320 22:25 13.05.2022
2134 Clear 30 1006 24 7000 8.23 320 21:39 13.05.2022
2135 Clear 30 1006 24 7000 9.26 330 20:45 13.05.2022
2136 Clear 30 1006 24 7000 9.26 330 20:27 13.05.2022
2137 Clear 31 1006 20 8000 10.8 330 19:28 13.05.2022
2138 Clear 31 1006 18 8000 10.8 330 17:50 13.05.2022
2139 Clear 31 1006 19 8000 10.8 330 17:28 13.05.2022
2140 Dust 32 1006 15 7000 12.35 330 16:20 13.05.2022
2141 Dust 34 1006 15 6000 13.89 340 15:28 13.05.2022
2142 Clear 36 1006 11 6000 11.32 330 13:41 13.05.2022
2143 Clear 37 1006 12 6000 12.86 340 12:28 13.05.2022
2144 Clear 37 1007 12 7000 12.35 340 11:22 13.05.2022
2145 Clear 36 1008 12 8000 10.29 340 09:34 13.05.2022
2146 Clear 36 1008 14 7000 11.32 340 08:44 13.05.2022
2147 Clear 33 1008 24 10000 7.72 320 07:48 13.05.2022
2148 Clear 31 1008 26 10000 8.23 320 06:33 13.05.2022
2149 Clear 31 1008 26 10000 8.23 320 06:33 13.05.2022
2150 Clear 31 1006 22 10000 8.75 320 03:29 13.05.2022
2151 Clear 32 1006 15 10000 8.75 320 00:24 13.05.2022
2152 Clear 32 1006 19 10000 8.23 330 22:45 12.05.2022
2153 Clear 32 1007 19 10000 8.23 310 21:56 12.05.2022
2154 Clear 32 1007 18 10000 9.26 320 20:29 12.05.2022
2155 Clear 33 1006 15 8000 9.26 330 18:51 12.05.2022
2156 Clear 34 1006 10 7000 8.75 310 17:23 12.05.2022
2157 Dust 36 1006 13 5000 11.83 340 15:55 12.05.2022
2158 Dust 37 1007 11 5000 12.86 330 14:40 12.05.2022
2159 Dust 37 1007 11 5000 12.35 340 13:38 12.05.2022
2160 Clear 38 1008 11 8000 11.32 330 10:46 12.05.2022
2161 Clear 37 1009 14 10000 8.75 330 09:28 12.05.2022
2162 Clear 37 1009 14 10000 8.75 330 09:28 12.05.2022
2163 Clear 35 1009 17 10000 9.26 340 08:51 12.05.2022
2164 Clear 33 1009 26 10000 9.26 330 07:40 12.05.2022
2165 Clear 33 1009 26 10000 9.26 330 07:40 12.05.2022
2166 Clear 31 1008 28 10000 8.23 330 05:46 12.05.2022
2167 Clear 31 1007 22 10000 7.72 330 02:56 12.05.2022
2168 Clear 30 1006 28 10000 7.2 340 00:35 12.05.2022
2169 Clear 31 1007 22 10000 4.12 310 22:35 11.05.2022
2170 Clear 31 1008 20 10000 4.12 330 21:46 11.05.2022
2171 Clear 31 1008 19 10000 3.6 330 21:21 11.05.2022
2172 Clear 34 1008 15 10000 5.14 330 18:34 11.05.2022
2173 Clear 37 1007 12 10000 7.2 340 16:55 11.05.2022
2174 Clear 38 1007 14 10000 8.23 340 15:31 11.05.2022
2175 Clear 38 1007 14 10000 8.23 340 15:31 11.05.2022
2176 Clear 38 1007 14 10000 8.23 340 15:31 11.05.2022
2177 Clear 38 1007 14 10000 8.23 340 15:31 11.05.2022
2178 Clear 38 1007 14 10000 8.23 340 15:31 11.05.2022
2179 Clear 38 1007 14 10000 8.23 340 15:31 11.05.2022
2180 Clear 37 1007 19 10000 8.75 340 14:39 11.05.2022
2181 Clear 38 1007 17 10000 8.75 350 14:18 11.05.2022
2182 Clear 39 1008 10 10000 8.23 350 11:54 11.05.2022
2183 Clear 39 1009 8 10000 7.2 330 10:44 11.05.2022
2184 Clear 36 1009 14 10000 5.66 300 08:40 11.05.2022
2185 Clear 28 1008 31 10000 5.14 290 05:28 11.05.2022
2186 Clear 28 1007 34 10000 4.63 310 00:43 11.05.2022
2187 Clear 29 1008 28 10000 5.66 330 22:32 10.05.2022
2188 Clear 29 1008 22 10000 5.14 320 21:57 10.05.2022
2189 Clear 30 1008 14 10000 5.66 320 20:57 10.05.2022
2190 Clear 30 1008 17 10000 5.14 330 19:37 10.05.2022
2191 Clear 33 1008 12 10000 5.66 340 17:59 10.05.2022
2192 Clear 33 1008 17 10000 5.66 340 17:29 10.05.2022
2193 Clear 35 1007 9 10000 7.72 330 15:31 10.05.2022
2194 Clear 36 1008 10 10000 8.23 330 12:45 10.05.2022
2195 Clear 36 1008 12 10000 7.72 330 11:51 10.05.2022
2196 Clear 36 1008 13 10000 8.23 320 11:21 10.05.2022
2197 Clear 35 1009 12 10000 7.72 320 10:53 10.05.2022
2198 Clear 34 1010 18 10000 7.2 330 09:26 10.05.2022
2199 Clear 31 1010 22 10000 5.66 310 07:26 10.05.2022
2200 Clear 26 1009 32 10000 5.14 280 04:32 10.05.2022
2201 Clear 26 1008 36 10000 5.14 290 01:18 10.05.2022
2202 Clear 28 1009 30 10000 3.6 290 22:57 09.05.2022
2203 Clear 28 1010 24 10000 4.12 310 21:58 09.05.2022
2204 Clear 29 1010 22 10000 4.63 300 21:18 09.05.2022
2205 Clear 29 1010 17 10000 5.14 320 19:29 09.05.2022
2206 Clear 30 1009 16 10000 9.77 350 17:52 09.05.2022
2207 Clear 31 1008 22 10000 10.29 360 16:38 09.05.2022
2208 Clear 32 1008 20 10000 11.32 360 15:52 09.05.2022
2209 Clear 33 1008 19 10000 11.32 340 15:27 09.05.2022
2210 Clear 33 1008 21 9000 12.35 340 14:31 09.05.2022
2211 Clear 33 1008 24 10000 11.83 350 13:50 09.05.2022
2212 Clear 34 1009 20 10000 12.35 350 12:26 09.05.2022
2213 Clear 34 1009 21 10000 11.83 350 11:37 09.05.2022
2214 Clear 34 1010 20 10000 10.8 350 10:43 09.05.2022
2215 Clear 32 1011 22 10000 10.8 340 08:51 09.05.2022
2216 Clear 31 1010 29 10000 9.77 340 07:54 09.05.2022
2217 Clear 27 1008 37 10000 9.26 340 03:36 09.05.2022
2218 Clear 29 1008 32 10000 7.72 330 00:20 09.05.2022
2219 Clear 29 1008 28 10000 10.29 340 22:56 08.05.2022
2220 Clear 30 1009 21 10000 9.26 340 21:56 08.05.2022
2221 Clear 30 1009 28 10000 9.26 340 20:37 08.05.2022
2222 Clear 30 1008 29 10000 9.26 340 19:45 08.05.2022
2223 Clear 30 1008 31 10000 8.75 350 18:54 08.05.2022
2224 Clear 30 1008 32 9000 8.75 350 18:19 08.05.2022
2225 Dust 32 1007 27 8000 10.29 350 16:56 08.05.2022
2226 Dust 32 1007 32 5000 10.8 360 15:40 08.05.2022
2227 Dust 33 1007 24 5000 11.32 340 14:57 08.05.2022
2228 Dust 34 1008 33 5000 9.77 350 12:33 08.05.2022
2229 Clouds 34 1009 39 9000 8.23 350 10:32 08.05.2022
2230 Clear 34 1009 36 10000 8.75 340 09:58 08.05.2022
2231 Clear 34 1009 36 10000 8.75 340 09:58 08.05.2022
2232 Clear 32 1009 45 10000 7.72 340 08:57 08.05.2022
2233 Clear 31 1008 46 10000 7.2 330 07:31 08.05.2022
2234 Clear 30 1006 57 10000 5.14 80 03:55 08.05.2022
2235 Clear 30 1006 58 10000 4.12 40 02:47 08.05.2022
2236 Rain 30 1007 66 9000 8.75 320 00:28 08.05.2022
2237 Clouds 30 1007 58 9000 4.12 290 23:51 07.05.2022
2238 Rain 30 1006 64 9000 4.63 20 22:48 07.05.2022
2239 Clouds 31 1006 51 9000 5.14 10 21:59 07.05.2022
2240 Clouds 31 1006 56 9000 5.14 10 21:34 07.05.2022
2241 Clouds 30 1006 60 8000 6.69 70 20:34 07.05.2022
2242 Clouds 30 1005 66 7000 7.2 10 19:57 07.05.2022
2243 Haze 29 1003 76 5000 8.23 100 17:43 07.05.2022
2244 Haze 31 1003 66 5000 7.72 80 15:47 07.05.2022
2245 Dust 32 1004 60 5000 7.72 80 14:19 07.05.2022
2246 Clouds 34 1006 49 7000 4.63 100 10:56 07.05.2022
2247 Clouds 34 1006 44 8000 5.14 140 09:20 07.05.2022
2248 Clouds 32 1006 49 8000 4.63 100 07:51 07.05.2022
2249 Clouds 31 1005 56 8000 5.14 120 06:43 07.05.2022
2250 Clouds 30 1005 52 8000 4.63 110 04:56 07.05.2022
2251 Clear 31 1004 44 10000 4.63 90 01:24 07.05.2022
2252 Clear 32 1004 42 10000 5.66 260 23:38 06.05.2022
2253 Clear 32 1004 47 10000 7.2 110 22:28 06.05.2022
2254 Clear 32 1004 41 10000 6.69 100 21:43 06.05.2022
2255 Clear 33 1003 34 10000 8.23 100 20:34 06.05.2022
2256 Clear 32 1003 38 10000 8.75 90 19:30 06.05.2022
2257 Clear 32 1003 35 10000 6.69 70 18:59 06.05.2022
2258 Clear 31 1003 46 10000 6.69 80 18:18 06.05.2022
2259 Clouds 31 1003 60 7000 7.2 80 16:39 06.05.2022
2260 Clouds 31 1003 60 8000 8.23 90 15:39 06.05.2022
2261 Clouds 32 1003 48 8000 7.72 100 14:46 06.05.2022
2262 Clouds 36 1004 30 9000 6.17 90 12:54 06.05.2022
2263 Clouds 36 1005 30 9000 6.17 90 12:33 06.05.2022
2264 Clouds 35 1005 36 8000 6.17 100 11:42 06.05.2022
2265 Clouds 34 1006 39 8000 6.69 90 10:27 06.05.2022
2266 Clouds 34 1006 31 8000 6.17 50 09:45 06.05.2022
2267 Clouds 38 1006 8 8000 3.09 190 08:27 06.05.2022
2268 Clouds 34 1005 14 8000 2.06 150 06:42 06.05.2022
2269 Clear 32 1004 27 10000 3.09 180 04:51 06.05.2022
2270 Clear 32 1003 40 10000 3.09 200 02:43 06.05.2022
2271 Clear 32 1003 42 10000 4.63 140 23:45 05.05.2022
2272 Clear 32 1004 44 10000 4.63 140 21:53 05.05.2022
2273 Clear 32 1004 45 10000 5.14 140 21:19 05.05.2022
2274 Clear 32 1004 36 10000 5.14 130 19:49 05.05.2022
2275 Clear 32 1004 38 10000 4.63 130 18:26 05.05.2022
2276 Clear 35 1004 27 10000 6.17 120 16:20 05.05.2022
2277 Clear 36 1004 23 10000 5.66 110 14:43 05.05.2022
2278 Clear 37 1005 22 10000 6.17 110 13:21 05.05.2022
2279 Clear 36 1006 24 10000 6.69 150 12:24 05.05.2022
2280 Clear 35 1008 29 10000 5.66 110 10:33 05.05.2022
2281 Clear 35 1008 35 10000 4.63 110 09:39 05.05.2022
2282 Clear 34 1008 35 10000 2.06 160 07:24 05.05.2022
2283 Clear 31 1005 22 10000 1.54 240 02:59 05.05.2022
2284 Clear 30 1005 25 10000 1.03 220 01:48 05.05.2022
2285 Clear 30 1006 25 10000 1.54 220 01:22 05.05.2022
2286 Clear 31 1006 24 10000 1.03 0 23:31 04.05.2022
2287 Clear 32 1007 22 10000 1.03 160 22:25 04.05.2022
2288 Clear 32 1008 22 10000 1.03 0 21:49 04.05.2022
2289 Clear 32 1008 22 10000 1.03 240 21:26 04.05.2022
2290 Clear 32 1008 22 10000 1.03 240 21:26 04.05.2022
2291 Clear 32 1008 25 10000 0.51 0 20:22 04.05.2022
2292 Clear 34 1008 23 10000 2.06 290 19:51 04.05.2022
2293 Clear 35 1007 16 10000 3.09 290 18:51 04.05.2022
2294 Clear 35 1007 15 10000 2.57 300 18:21 04.05.2022
2295 Clear 35 1007 17 10000 3.6 330 17:29 04.05.2022
2296 Clear 39 1007 13 10000 5.14 330 15:38 04.05.2022
2297 Clear 39 1007 14 10000 5.14 330 15:20 04.05.2022
2298 Clear 40 1007 12 10000 6.17 320 14:20 04.05.2022
2299 Clear 40 1007 11 10000 6.17 330 13:20 04.05.2022
2300 Clear 40 1007 11 10000 6.17 330 12:29 04.05.2022
2301 Clear 38 1009 15 10000 7.72 330 10:40 04.05.2022
2302 Clear 38 1009 15 10000 7.72 330 10:40 04.05.2022
2303 Clear 36 1009 19 10000 6.69 310 09:40 04.05.2022
2304 Clear 34 1010 22 10000 6.69 330 08:34 04.05.2022
2305 Clear 30 1009 33 10000 4.12 300 05:53 04.05.2022
2306 Clear 29 1008 38 10000 5.66 320 02:53 04.05.2022
2307 Clear 29 1007 32 10000 6.17 320 23:58 03.05.2022
2308 Clear 30 1008 31 10000 5.66 310 22:30 03.05.2022
2309 Clear 30 1008 30 10000 5.14 320 21:36 03.05.2022
2310 Clear 30 1008 30 10000 5.66 330 20:53 03.05.2022
2311 Clear 30 1008 28 10000 6.69 330 19:49 03.05.2022
2312 Clear 30 1007 28 10000 6.69 340 18:52 03.05.2022
2313 Clear 31 1007 27 10000 6.69 340 18:20 03.05.2022
2314 Clear 33 1007 19 10000 7.2 330 16:37 03.05.2022
2315 Dust 35 1007 18 5000 9.26 340 15:35 03.05.2022
2316 Dust 35 1008 20 4700 8.23 360 12:47 03.05.2022
2317 Dust 35 1008 21 4700 8.23 360 12:27 03.05.2022
2318 Dust 34 1009 26 5000 7.2 20 10:57 03.05.2022
2319 Dust 33 1009 28 2000 7.2 350 09:29 03.05.2022
2320 Dust 29 1008 40 2700 7.72 340 06:46 03.05.2022
2321 Dust 29 1008 37 3300 7.72 340 05:58 03.05.2022
2322 Dust 28 1006 36 5000 5.14 330 00:32 03.05.2022
2323 Dust 29 1007 34 6000 3.6 320 22:36 02.05.2022
2324 Dust 30 1007 34 6000 4.12 330 21:52 02.05.2022
2325 Dust 30 1007 30 6000 5.66 340 20:51 02.05.2022
2326 Dust 31 1007 26 5000 5.66 340 18:40 02.05.2022
2327 Dust 32 1006 24 5000 5.66 320 18:21 02.05.2022
2328 Dust 32 1006 32 3000 6.69 360 17:37 02.05.2022
2329 Dust 32 1005 44 5000 6.69 350 16:22 02.05.2022
2330 Clear 31 1005 54 8000 7.72 20 15:30 02.05.2022
2331 Clear 31 1005 54 8000 7.72 20 15:30 02.05.2022
2332 Clear 31 1005 51 10000 7.2 10 13:51 02.05.2022
2333 Clear 36 1005 26 10000 3.6 20 12:19 02.05.2022
2334 Clear 34 1006 28 10000 3.6 30 10:47 02.05.2022
2335 Clear 32 1007 48 10000 5.14 10 09:20 02.05.2022
2336 Clear 31 1006 51 10000 1.54 30 07:51 02.05.2022
2337 Clear 27 1004 78 10000 2.57 330 03:53 02.05.2022
2338 Clear 28 1004 65 10000 3.09 160 00:24 02.05.2022
2339 Clear 27 1004 65 10000 3.09 140 23:48 01.05.2022
2340 Clear 28 1005 65 10000 3.6 130 22:25 01.05.2022
2341 Clear 28 1005 61 10000 4.12 130 21:19 01.05.2022
2342 Clear 28 1005 63 10000 4.63 100 19:51 01.05.2022
2343 Clear 28 1005 65 10000 4.63 80 18:57 01.05.2022
2344 Clear 29 1005 63 10000 4.63 80 18:28 01.05.2022
2345 Clear 29 1005 56 10000 4.63 80 17:29 01.05.2022
2346 Clear 31 1005 51 10000 4.63 100 16:23 01.05.2022
2347 Clear 31 1005 51 10000 5.14 90 15:25 01.05.2022
2348 Clear 32 1006 42 10000 5.14 120 13:42 01.05.2022
2349 Clear 33 1007 39 10000 4.63 110 11:23 01.05.2022
2350 Clear 33 1009 34 10000 2.06 260 08:53 01.05.2022
2351 Clear 32 1009 35 10000 2.06 240 08:34 01.05.2022
2352 Clear 26 1008 59 10000 2.06 340 03:35 01.05.2022
2353 Clear 27 1008 59 10000 1.54 210 00:18 01.05.2022
2354 Clear 27 1008 61 10000 3.09 150 21:49 30.04.2022
2355 Clear 27 1009 57 10000 2.57 130 20:59 30.04.2022
2356 Clear 27 1009 59 10000 2.57 130 19:42 30.04.2022
2357 Clear 27 1008 61 10000 4.12 110 18:21 30.04.2022
2358 Clear 28 1008 54 10000 4.63 80 16:44 30.04.2022
2359 Clear 29 1008 49 10000 4.63 80 15:47 30.04.2022
2360 Clear 30 1009 45 10000 4.63 50 14:48 30.04.2022
2361 Clear 31 1010 41 10000 4.63 360 12:55 30.04.2022
2362 Clear 32 1011 42 10000 4.12 30 11:34 30.04.2022
2363 Clear 31 1011 45 10000 4.63 30 10:45 30.04.2022
2364 Clear 29 1012 54 10000 5.14 20 09:41 30.04.2022
2365 Clear 26 1012 66 10000 3.6 320 06:43 30.04.2022
2366 Clear 25 1009 63 10000 3.09 330 02:36 30.04.2022
2367 Clear 25 1009 59 10000 3.6 350 23:37 29.04.2022
2368 Clear 26 1010 55 10000 7.2 350 22:31 29.04.2022
2369 Clear 26 1010 57 10000 7.72 340 21:53 29.04.2022
2370 Clear 26 1011 53 10000 9.77 340 20:49 29.04.2022
2371 Clear 27 1011 50 10000 10.8 350 19:47 29.04.2022
2372 Clear 28 1011 44 10000 10.29 340 17:59 29.04.2022
2373 Clear 29 1010 43 10000 10.29 340 17:25 29.04.2022
2374 Clouds 30 1009 46 9000 10.8 10 15:50 29.04.2022
2375 Clouds 32 1008 42 9000 12.86 350 14:22 29.04.2022
2376 Clear 33 1009 36 10000 10.8 340 13:21 29.04.2022
2377 Clouds 33 1010 28 10000 11.83 340 11:50 29.04.2022
2378 Clouds 30 1013 34 9000 6.69 320 08:53 29.04.2022
2379 Haze 29 1012 43 5000 7.2 310 07:28 29.04.2022
2380 Haze 28 1011 55 4000 7.72 290 06:45 29.04.2022
2381 Clouds 27 1010 65 7000 4.12 350 04:53 29.04.2022
2382 Clouds 27 1009 55 7000 5.66 350 00:45 29.04.2022
2383 Clouds 27 1009 65 7000 6.69 350 23:28 28.04.2022
2384 Clouds 27 1009 67 7000 6.69 340 22:44 28.04.2022
2385 Clouds 27 1010 67 7000 6.69 360 21:47 28.04.2022
2386 Clouds 27 1010 67 7000 6.69 20 21:21 28.04.2022
2387 Clouds 28 1010 59 8000 6.69 360 20:35 28.04.2022
2388 Clouds 28 1010 59 7000 6.17 20 19:45 28.04.2022
2389 Clouds 28 1010 59 7000 6.17 20 19:45 28.04.2022
2390 Clouds 29 1009 57 7000 6.17 20 19:22 28.04.2022
2391 Clouds 29 1009 57 7000 7.2 10 18:36 28.04.2022
2392 Clouds 30 1009 55 6000 7.72 20 17:24 28.04.2022
2393 Clouds 30 1009 48 6000 7.72 30 16:40 28.04.2022
2394 Clouds 31 1008 44 6000 7.72 30 16:18 28.04.2022
2395 Clear 32 1008 33 10000 6.17 10 15:28 28.04.2022
2396 Clear 34 1008 22 10000 4.63 30 14:19 28.04.2022
2397 Clear 35 1009 20 10000 4.12 20 12:44 28.04.2022
2398 Clear 35 1009 17 10000 4.12 20 11:59 28.04.2022
2399 Clear 34 1010 25 10000 3.09 110 10:46 28.04.2022
2400 Clear 32 1010 29 10000 4.12 110 09:56 28.04.2022
2401 Clear 30 1010 42 10000 3.6 90 08:31 28.04.2022
2402 Clear 30 1009 52 10000 4.12 100 07:36 28.04.2022
2403 Clear 27 1009 74 9000 5.66 30 05:56 28.04.2022
2404 Clear 27 1009 74 9000 5.66 30 05:38 28.04.2022
2405 Clear 27 1007 66 10000 3.6 360 04:40 28.04.2022
2406 Clear 26 1007 65 10000 1.54 10 00:30 28.04.2022
2407 Clear 27 1008 63 10000 1.54 360 22:40 27.04.2022
2408 Clear 28 1009 57 10000 2.06 350 21:55 27.04.2022
2409 Clear 28 1009 55 10000 1.54 10 21:26 27.04.2022
2410 Clear 28 1009 55 10000 3.09 10 20:37 27.04.2022
2411 Clear 29 1009 51 10000 3.6 20 19:38 27.04.2022
2412 Clear 29 1008 45 10000 3.6 20 19:18 27.04.2022
2413 Clear 30 1008 43 10000 3.6 360 18:22 27.04.2022
2414 Clear 30 1008 43 10000 3.6 360 18:22 27.04.2022
2415 Clear 30 1008 43 10000 3.6 360 18:22 27.04.2022
2416 Clear 31 1008 36 10000 4.12 40 17:24 27.04.2022
2417 Clear 33 1008 29 10000 4.12 20 15:21 27.04.2022
2418 Clear 33 1009 29 10000 4.12 50 12:25 27.04.2022
2419 Clear 33 1009 30 10000 4.12 20 11:20 27.04.2022
2420 Clear 31 1010 33 10000 4.63 20 09:45 27.04.2022
2421 Clear 28 1010 57 10000 3.09 350 07:19 27.04.2022
2422 Clear 26 1009 63 10000 2.06 50 05:37 27.04.2022
2423 Clear 25 1007 58 10000 2.06 330 01:35 27.04.2022
2424 Clear 25 1008 62 10000 0.51 0 00:38 27.04.2022
2425 Clear 25 1008 60 10000 1.54 310 23:40 26.04.2022
2426 Clear 26 1008 58 10000 1.54 310 23:22 26.04.2022
2427 Clear 26 1008 61 10000 1.03 0 22:41 26.04.2022
2428 Clear 25 1009 67 10000 1.54 330 21:48 26.04.2022
2429 Clear 26 1009 61 10000 2.06 60 20:53 26.04.2022
2430 Clear 27 1009 59 10000 2.06 60 20:33 26.04.2022
2431 Clear 27 1008 59 10000 3.6 60 19:32 26.04.2022
2432 Clear 27 1008 59 10000 4.63 10 18:45 26.04.2022
2433 Clear 27 1008 59 10000 4.63 10 18:18 26.04.2022
2434 Clouds 28 1007 50 10000 6.17 10 17:22 26.04.2022
2435 Clouds 31 1008 38 8000 4.63 10 14:28 26.04.2022
2436 Rain 31 1009 31 8000 5.14 320 13:33 26.04.2022
2437 Rain 32 1009 30 7000 4.63 320 12:22 26.04.2022
2438 Dust 31 1010 35 5000 6.17 310 10:44 26.04.2022
2439 Dust 30 1011 41 5000 7.2 290 09:36 26.04.2022
2440 Dust 29 1011 45 4000 4.63 320 07:54 26.04.2022
2441 Haze 27 1008 61 5000 3.6 360 04:33 26.04.2022
2442 Dust 27 1007 57 4500 6.69 10 01:54 26.04.2022
2443 Dust 28 1007 53 4000 5.14 350 00:26 26.04.2022
2444 Dust 28 1008 42 5000 7.72 350 22:46 25.04.2022
2445 Dust 29 1008 42 6000 8.75 350 21:43 25.04.2022
2446 Dust 29 1009 42 5000 8.23 330 20:40 25.04.2022
2447 Dust 30 1009 34 2000 8.75 330 18:58 25.04.2022
2448 Dust 31 1008 33 1800 9.26 360 17:54 25.04.2022
2449 Dust 31 1008 33 3000 9.26 340 17:23 25.04.2022
2450 Clouds 31 1008 31 7000 7.2 360 15:29 25.04.2022
2451 Clear 31 1008 33 10000 8.75 30 14:46 25.04.2022
2452 Clear 32 1007 37 10000 8.23 30 13:35 25.04.2022
2453 Clear 35 1008 23 10000 7.72 350 11:43 25.04.2022
2454 Clear 35 1009 23 10000 5.66 340 10:26 25.04.2022
2455 Clear 34 1010 18 10000 4.63 290 08:46 25.04.2022
2456 Clouds 29 1009 46 8000 6.17 280 06:46 25.04.2022
2457 Clear 26 1007 63 10000 3.6 130 04:33 25.04.2022
2458 Clear 27 1006 57 10000 4.12 360 00:58 25.04.2022
2459 Clear 27 1006 71 10000 3.6 350 23:51 24.04.2022
2460 Clear 28 1007 67 10000 4.12 10 22:49 24.04.2022
2461 Clear 27 1007 71 10000 4.12 10 22:29 24.04.2022
2462 Clear 28 1008 52 10000 2.57 10 21:41 24.04.2022
2463 Clear 28 1008 52 10000 2.57 10 21:18 24.04.2022
2464 Clear 29 1008 41 10000 3.09 360 20:35 24.04.2022
2465 Clear 29 1008 46 10000 3.6 60 19:48 24.04.2022
2466 Clear 30 1007 39 10000 2.57 20 18:20 24.04.2022
2467 Clear 31 1007 29 10000 4.12 40 17:29 24.04.2022
2468 Clear 32 1007 14 10000 5.14 10 16:59 24.04.2022
2469 Clear 33 1007 9 10000 5.66 10 16:35 24.04.2022
2470 Clear 35 1007 7 10000 4.63 10 15:55 24.04.2022
2471 Clear 35 1007 6 10000 5.14 20 15:31 24.04.2022
2472 Clear 35 1007 6 10000 5.14 20 15:31 24.04.2022
2473 Clear 35 1008 6 10000 4.63 10 13:57 24.04.2022
2474 Clear 35 1008 8 10000 4.63 40 13:25 24.04.2022
2475 Clear 34 1009 16 10000 2.57 30 12:30 24.04.2022
2476 Clear 33 1009 23 10000 3.6 160 11:32 24.04.2022
2477 Clear 32 1009 27 10000 4.12 120 10:25 24.04.2022
2478 Clear 30 1010 47 10000 4.63 110 09:26 24.04.2022
2479 Clear 29 1009 43 10000 3.09 50 06:45 24.04.2022
2480 Clear 25 1008 48 10000 4.12 10 03:55 24.04.2022
2481 Clear 25 1007 50 10000 1.54 330 01:38 24.04.2022
2482 Clear 25 1008 58 10000 1.03 0 00:24 24.04.2022
2483 Clear 25 1008 60 10000 1.54 340 23:44 23.04.2022
2484 Clear 26 1008 61 10000 1.54 340 23:21 23.04.2022
2485 Clear 26 1008 51 10000 1.54 70 21:51 23.04.2022
2486 Clear 27 1008 53 10000 1.54 40 21:32 23.04.2022
2487 Clear 28 1008 50 10000 3.09 20 20:45 23.04.2022
2488 Clear 28 1009 49 10000 3.6 350 19:46 23.04.2022
2489 Clear 29 1009 49 10000 3.6 350 19:19 23.04.2022
2490 Clear 29 1009 42 10000 3.6 10 18:49 23.04.2022
2491 Clear 30 1009 39 10000 4.63 350 17:50 23.04.2022
2492 Clear 31 1008 23 10000 6.17 30 16:56 23.04.2022
2493 Clear 31 1008 29 10000 6.17 30 16:23 23.04.2022
2494 Clear 33 1008 24 10000 6.17 360 14:47 23.04.2022
2495 Clear 33 1009 24 10000 6.17 360 12:35 23.04.2022
2496 Clouds 33 1010 24 9000 7.2 330 10:41 23.04.2022
2497 Clear 32 1010 19 10000 8.23 340 08:55 23.04.2022
2498 Clear 27 1009 32 10000 5.14 340 05:47 23.04.2022
2499 Clear 27 1008 36 10000 4.12 340 03:54 23.04.2022
2500 Clear 26 1007 50 10000 4.63 350 00:53 23.04.2022
2501 Clear 28 1008 44 10000 4.63 360 23:29 22.04.2022
2502 Clear 29 1008 39 10000 3.6 360 22:19 22.04.2022
2503 Clear 29 1009 39 10000 2.06 280 21:41 22.04.2022
2504 Clear 29 1009 45 10000 5.14 340 20:45 22.04.2022
2505 Clear 29 1009 47 10000 5.66 330 20:25 22.04.2022
2506 Clear 30 1009 43 10000 3.6 340 19:18 22.04.2022
2507 Clear 31 1008 21 10000 1.54 10 18:35 22.04.2022
2508 Clear 32 1008 20 10000 1.03 0 17:37 22.04.2022
2509 Clear 32 1008 17 10000 1.54 180 16:32 22.04.2022
2510 Clear 32 1008 19 10000 1.54 70 15:32 22.04.2022
2511 Clear 32 1008 19 10000 2.06 110 14:43 22.04.2022
2512 Clear 32 1009 18 10000 3.09 100 13:43 22.04.2022
2513 Clear 31 1009 20 10000 4.63 90 12:57 22.04.2022
2514 Clear 32 1009 23 10000 4.63 110 11:43 22.04.2022
2515 Clear 32 1010 25 10000 4.63 110 11:20 22.04.2022
2516 Clear 32 1009 23 10000 3.6 90 10:47 22.04.2022
2517 Clear 33 1010 23 10000 3.6 100 10:27 22.04.2022
2518 Clear 33 1010 22 10000 3.09 100 09:42 22.04.2022
2519 Clouds 33 1010 16 9000 1.03 0 08:49 22.04.2022
2520 Clouds 31 1010 19 7000 2.57 300 06:56 22.04.2022
2521 Clear 25 1006 58 10000 2.06 100 01:49 22.04.2022
2522 Clear 25 1007 64 10000 0.51 90 23:53 21.04.2022
2523 Clear 27 1007 54 10000 1.54 120 22:59 21.04.2022
2524 Clear 26 1008 57 10000 2.06 150 21:56 21.04.2022
2525 Clear 27 1008 59 10000 2.06 120 20:34 21.04.2022
2526 Clear 27 1008 51 10000 2.57 130 19:53 21.04.2022
2527 Clear 28 1008 46 10000 2.57 160 18:35 21.04.2022
2528 Clear 28 1007 50 10000 3.09 130 17:49 21.04.2022
2529 Clear 29 1007 46 10000 4.12 120 16:28 21.04.2022
2530 Clear 30 1007 39 10000 4.12 120 15:20 21.04.2022
2531 Clear 31 1007 27 10000 4.12 110 14:38 21.04.2022
2532 Clear 31 1008 31 10000 4.63 100 13:23 21.04.2022
2533 Clear 31 1008 36 10000 5.14 100 12:42 21.04.2022
2534 Clear 31 1009 31 10000 4.63 110 10:45 21.04.2022
2535 Clear 29 1009 39 10000 3.6 110 08:54 21.04.2022
2536 Clear 27 1009 57 10000 3.09 110 06:55 21.04.2022
2537 Clear 27 1009 57 10000 3.09 110 06:55 21.04.2022
2538 Clear 21 1008 78 10000 0 0 04:36 21.04.2022
2539 Clear 23 1007 75 10000 1.54 120 03:26 21.04.2022
2540 Clear 24 1007 69 10000 1.54 120 02:46 21.04.2022
2541 Clear 24 1007 69 10000 1.54 120 02:46 21.04.2022
2542 Clear 24 1008 60 10000 3.6 120 00:43 21.04.2022
2543 Clear 24 1008 55 10000 2.57 110 23:49 20.04.2022
2544 Clear 25 1008 51 10000 2.57 110 23:21 20.04.2022
2545 Clear 24 1009 55 10000 1.54 110 22:45 20.04.2022
2546 Clear 25 1009 53 10000 1.54 110 22:26 20.04.2022
2547 Clear 25 1009 44 10000 2.06 110 21:27 20.04.2022
2548 Clear 25 1010 43 10000 1.54 80 20:23 20.04.2022
2549 Clear 26 1010 43 10000 1.03 0 19:51 20.04.2022
2550 Clear 26 1009 45 10000 1.03 130 19:18 20.04.2022
2551 Clear 26 1009 40 10000 3.6 160 17:55 20.04.2022
2552 Clear 27 1009 33 10000 4.12 120 16:40 20.04.2022
2553 Clear 27 1009 33 10000 4.12 120 16:18 20.04.2022
2554 Clear 29 1009 38 10000 4.63 90 13:50 20.04.2022
2555 Clear 29 1011 44 10000 4.12 80 11:47 20.04.2022
2556 Clear 28 1012 44 10000 3.6 80 10:56 20.04.2022
2557 Clear 28 1012 44 10000 3.09 80 09:58 20.04.2022
2558 Clear 28 1012 43 10000 2.57 100 09:24 20.04.2022
2559 Clear 27 1012 49 10000 1.54 120 08:20 20.04.2022
2560 Clear 26 1011 58 10000 1.54 140 07:32 20.04.2022
2561 Clear 22 1009 66 10000 2.06 160 03:34 20.04.2022
2562 Clear 23 1010 62 10000 1.03 130 00:22 20.04.2022
2563 Clear 23 1011 60 10000 1.03 130 23:37 19.04.2022
2564 Clear 24 1011 57 10000 1.54 110 22:25 19.04.2022
2565 Clear 24 1011 57 10000 2.06 130 21:56 19.04.2022
2566 Clear 24 1011 55 10000 2.06 130 21:23 19.04.2022
2567 Clear 25 1011 53 10000 1.54 110 20:41 19.04.2022
2568 Clear 26 1011 45 10000 2.57 60 19:56 19.04.2022
2569 Clear 27 1011 43 10000 4.12 70 18:47 19.04.2022
2570 Clear 28 1010 40 10000 4.63 70 17:40 19.04.2022
2571 Clear 28 1010 35 10000 4.63 60 16:43 19.04.2022
2572 Clear 29 1010 31 10000 4.63 30 16:23 19.04.2022
2573 Clear 31 1010 21 10000 5.66 30 14:50 19.04.2022
2574 Clear 32 1010 15 10000 5.66 20 13:54 19.04.2022
2575 Clear 34 1011 9 10000 4.63 10 12:50 19.04.2022
2576 Clear 34 1011 9 10000 4.63 360 12:20 19.04.2022
2577 Clear 33 1012 9 10000 4.12 330 10:46 19.04.2022
2578 Clear 32 1012 10 10000 3.6 300 09:19 19.04.2022
2579 Clear 25 1011 31 10000 2.57 250 05:56 19.04.2022
2580 Clear 23 1010 36 10000 2.57 240 03:26 19.04.2022
2581 Clear 24 1010 29 10000 2.06 220 00:55 19.04.2022
2582 Clear 27 1010 20 10000 2.57 290 23:31 18.04.2022
2583 Clear 27 1010 20 10000 4.12 310 21:30 18.04.2022
2584 Clear 27 1010 18 10000 5.14 330 20:56 18.04.2022
2585 Clear 27 1010 18 10000 5.14 330 20:32 18.04.2022
2586 Clear 28 1010 15 10000 5.66 330 19:51 18.04.2022
2587 Clear 29 1009 13 10000 5.14 330 18:57 18.04.2022
2588 Clear 29 1009 13 10000 5.66 310 17:58 18.04.2022
2589 Clear 30 1009 13 10000 6.17 310 17:34 18.04.2022
2590 Clear 31 1008 9 10000 7.2 320 16:59 18.04.2022
2591 Clear 31 1008 9 10000 7.2 320 16:32 18.04.2022
2592 Clear 32 1008 9 10000 9.26 330 14:59 18.04.2022
2593 Clear 33 1008 10 10000 9.77 330 13:39 18.04.2022
2594 Clear 33 1009 10 8000 9.77 330 12:32 18.04.2022
2595 Clear 33 1009 11 10000 9.77 330 11:35 18.04.2022
2596 Clear 33 1010 10 10000 8.23 330 10:32 18.04.2022
2597 Clear 31 1011 12 10000 9.26 330 09:31 18.04.2022
2598 Clear 30 1011 19 10000 6.69 310 08:18 18.04.2022
2599 Clear 26 1010 22 10000 4.12 300 05:45 18.04.2022
2600 Clear 26 1009 23 10000 5.14 300 01:34 18.04.2022
2601 Clear 27 1010 20 10000 5.14 320 22:43 17.04.2022
2602 Clear 27 1010 27 10000 5.66 320 21:50 17.04.2022
2603 Clear 27 1010 30 10000 5.66 320 21:27 17.04.2022
2604 Clear 27 1009 29 10000 5.66 310 20:50 17.04.2022
2605 Clear 29 1009 19 10000 6.69 340 19:52 17.04.2022
2606 Clear 30 1008 19 10000 8.23 350 18:24 17.04.2022
2607 Clear 32 1007 17 10000 8.23 340 16:32 17.04.2022
2608 Clear 33 1007 17 10000 9.77 350 15:28 17.04.2022
2609 Clouds 34 1007 17 8000 11.32 350 14:27 17.04.2022
2610 Clouds 33 1007 18 8000 11.83 350 13:20 17.04.2022
2611 Clear 35 1008 16 7000 11.83 340 12:28 17.04.2022
2612 Clear 34 1008 22 10000 9.26 340 10:47 17.04.2022
2613 Clear 33 1008 23 10000 8.23 350 10:28 17.04.2022
2614 Clear 32 1008 20 10000 7.72 340 09:37 17.04.2022
2615 Clear 31 1008 23 10000 7.72 330 08:54 17.04.2022
2616 Clear 31 1007 24 10000 6.69 350 08:26 17.04.2022
2617 Clear 27 1006 41 10000 4.63 330 04:52 17.04.2022
2618 Clear 27 1005 44 10000 5.14 330 01:39 17.04.2022
2619 Clouds 28 1006 42 8000 6.17 340 23:59 16.04.2022
2620 Clouds 28 1006 53 8000 4.63 360 22:50 16.04.2022
2621 Clouds 30 1006 46 8000 3.6 350 21:42 16.04.2022
2622 Clouds 30 1006 49 9000 2.57 10 20:45 16.04.2022
2623 Clear 31 1006 47 9000 2.57 10 19:20 16.04.2022
2624 Clear 31 1005 41 9000 3.09 330 18:33 16.04.2022
2625 Clouds 34 1005 29 7000 3.6 360 16:42 16.04.2022
2626 Clouds 35 1005 25 7000 3.6 20 15:46 16.04.2022
2627 Clouds 35 1005 20 6000 5.14 20 14:57 16.04.2022
2628 Dust 35 1006 20 7000 4.12 360 13:58 16.04.2022
2629 Dust 35 1006 22 7000 4.12 360 13:40 16.04.2022
2630 Dust 36 1006 22 6000 4.12 360 12:35 16.04.2022
2631 Clouds 35 1007 26 6000 5.14 350 11:24 16.04.2022
2632 Clouds 36 1009 20 8000 4.63 310 09:59 16.04.2022
2633 Clouds 34 1009 26 8000 4.12 320 09:19 16.04.2022
2634 Clear 31 1008 35 10000 3.09 350 08:41 16.04.2022
2635 Clear 31 1007 30 10000 2.57 320 06:59 16.04.2022
2636 Clear 27 1007 40 10000 2.06 190 04:36 16.04.2022
2637 Clear 30 1006 27 10000 3.09 360 00:38 16.04.2022
2638 Clear 30 1006 43 10000 3.09 320 23:35 15.04.2022
2639 Clear 31 1006 42 10000 4.63 360 22:38 15.04.2022
2640 Clear 31 1007 30 10000 4.12 340 21:59 15.04.2022
2641 Clear 31 1007 35 10000 3.09 340 21:18 15.04.2022
2642 Clear 31 1007 41 10000 3.6 10 20:31 15.04.2022
2643 Clear 31 1007 45 10000 4.12 350 19:41 15.04.2022
2644 Clear 31 1006 43 10000 5.66 340 18:55 15.04.2022
2645 Clear 31 1006 41 10000 5.66 340 18:26 15.04.2022
2646 Clear 31 1006 45 10000 5.66 340 17:49 15.04.2022
2647 Clear 31 1006 46 10000 5.66 350 17:22 15.04.2022
2648 Clear 32 1006 40 10000 6.17 360 16:24 15.04.2022
2649 Clear 32 1005 41 10000 8.23 350 15:37 15.04.2022
2650 Clear 33 1006 35 10000 8.75 360 13:55 15.04.2022
2651 Clear 33 1007 33 10000 9.26 350 12:48 15.04.2022
2652 Clear 35 1008 26 10000 8.23 350 11:59 15.04.2022
2653 Clear 34 1008 34 10000 8.23 350 11:40 15.04.2022
2654 Clear 34 1008 34 10000 6.69 360 10:45 15.04.2022
2655 Clear 35 1009 26 10000 9.77 350 09:57 15.04.2022
2656 Clear 34 1009 29 10000 8.23 340 09:22 15.04.2022
2657 Clear 33 1009 29 10000 8.75 340 08:37 15.04.2022
2658 Clear 32 1008 30 10000 6.17 330 06:47 15.04.2022
2659 Clear 32 1008 30 10000 6.17 330 06:47 15.04.2022
2660 Clear 29 1007 41 10000 6.69 340 04:42 15.04.2022
2661 Clear 29 1006 52 10000 2.57 10 00:32 15.04.2022
2662 Clear 29 1006 57 10000 3.6 360 23:20 14.04.2022
2663 Clear 29 1006 59 10000 3.6 360 22:44 14.04.2022
2664 Clear 29 1006 59 10000 3.6 360 22:25 14.04.2022
2665 Clear 29 1006 57 10000 4.63 360 21:39 14.04.2022
2666 Clear 29 1006 61 10000 5.66 350 19:24 14.04.2022
2667 Clear 29 1006 61 10000 6.17 350 18:38 14.04.2022
2668 Clouds 29 1006 61 9000 7.2 350 17:45 14.04.2022
2669 Clouds 30 1006 52 9000 5.66 350 16:49 14.04.2022
2670 Clouds 32 1005 38 9000 5.66 40 15:50 14.04.2022
2671 Clouds 33 1006 42 8000 6.17 20 13:53 14.04.2022
2672 Clouds 35 1006 28 8000 5.14 50 13:20 14.04.2022
2673 Clouds 36 1007 22 8000 5.14 10 12:32 14.04.2022
2674 Clouds 36 1007 23 8000 3.6 10 11:37 14.04.2022
2675 Clouds 36 1008 21 8000 3.6 350 10:58 14.04.2022
2676 Clouds 33 1008 33 8000 4.12 340 10:31 14.04.2022
2677 Clouds 32 1008 41 7000 4.12 350 09:30 14.04.2022
2678 Haze 31 1008 48 7000 4.12 330 08:23 14.04.2022
2679 Clouds 28 1007 47 7000 3.09 340 05:52 14.04.2022
2680 Clear 27 1005 71 10000 3.6 340 00:29 14.04.2022
2681 Clear 28 1006 65 10000 4.63 340 22:37 13.04.2022
2682 Clear 29 1006 55 10000 5.14 350 21:42 13.04.2022
2683 Clear 29 1006 59 10000 5.14 350 20:41 13.04.2022
2684 Clear 31 1006 34 10000 3.6 350 19:49 13.04.2022
2685 Clear 32 1005 25 10000 3.6 60 18:37 13.04.2022
2686 Clear 33 1005 20 10000 5.14 40 17:25 13.04.2022
2687 Clear 34 1004 18 10000 4.12 20 16:52 13.04.2022
2688 Clear 35 1004 14 10000 4.12 10 15:47 13.04.2022
2689 Clear 35 1005 14 10000 4.12 10 15:27 13.04.2022
2690 Clear 35 1005 14 10000 4.12 40 14:40 13.04.2022
2691 Clear 35 1005 12 10000 4.63 40 13:38 13.04.2022
2692 Clear 35 1006 13 10000 5.14 40 12:51 13.04.2022
2693 Clear 35 1006 13 10000 4.12 80 11:47 13.04.2022
2694 Clear 35 1007 15 10000 4.63 80 10:31 13.04.2022
2695 Clear 33 1007 23 10000 3.09 30 08:45 13.04.2022
2696 Clear 32 1007 34 10000 4.12 330 07:57 13.04.2022
2697 Clear 31 1005 25 10000 5.14 340 06:48 13.04.2022
2698 Clouds 30 1005 28 9000 3.6 170 06:24 13.04.2022
2699 Clear 28 1004 30 10000 2.57 150 01:51 13.04.2022
2700 Clear 28 1005 34 10000 1.03 0 00:19 13.04.2022
2701 Clear 29 1005 29 10000 2.57 160 22:33 12.04.2022
2702 Clear 29 1005 29 10000 3.09 140 21:54 12.04.2022
2703 Clear 29 1006 43 10000 2.57 120 20:48 12.04.2022
2704 Clear 28 1006 50 10000 2.57 120 20:20 12.04.2022
2705 Clear 30 1006 38 10000 2.06 100 19:40 12.04.2022
2706 Clear 31 1005 16 10000 2.57 140 18:56 12.04.2022
2707 Clear 32 1005 21 10000 3.6 140 17:39 12.04.2022
2708 Clear 33 1005 19 10000 2.57 140 16:46 12.04.2022
2709 Clear 35 1005 14 10000 2.57 80 15:34 12.04.2022
2710 Clear 35 1005 13 10000 3.6 30 14:48 12.04.2022
2711 Clear 36 1006 6 10000 3.6 30 13:50 12.04.2022
2712 Clear 36 1006 10 10000 3.6 60 13:25 12.04.2022
2713 Clouds 34 1007 16 9000 4.63 60 12:18 12.04.2022
2714 Clouds 34 1008 18 8000 4.12 50 11:35 12.04.2022
2715 Clouds 35 1008 19 9000 4.63 20 09:47 12.04.2022
2716 Clouds 35 1008 20 8000 2.06 360 08:49 12.04.2022
2717 Clear 28 1008 39 8000 1.54 330 06:47 12.04.2022
2718 Clear 24 1007 46 9000 0 0 05:40 12.04.2022
2719 Clear 25 1007 40 10000 1.54 300 02:37 12.04.2022
2720 Clear 26 1008 35 10000 2.06 330 23:24 11.04.2022
2721 Clouds 27 1009 30 9000 2.57 290 22:32 11.04.2022
2722 Clouds 28 1009 24 8000 2.57 300 21:22 11.04.2022
2723 Clear 28 1009 27 10000 3.6 340 20:35 11.04.2022
2724 Clear 28 1009 24 10000 3.09 320 19:59 11.04.2022
2725 Clear 28 1009 44 10000 3.09 340 19:26 11.04.2022
2726 Clear 28 1008 46 10000 3.6 350 18:53 11.04.2022
2727 Clear 29 1008 30 10000 5.14 350 17:58 11.04.2022
2728 Clear 29 1007 45 7000 5.14 350 17:38 11.04.2022
2729 Dust 29 1007 47 7000 5.66 350 16:33 11.04.2022
2730 Dust 31 1008 42 4500 5.66 10 14:49 11.04.2022
2731 Dust 32 1008 37 4500 4.63 360 13:34 11.04.2022
2732 Dust 33 1008 35 3500 5.14 360 12:38 11.04.2022
2733 Dust 33 1008 31 3500 5.14 350 12:19 11.04.2022
2734 Dust 33 1009 23 4000 4.12 20 10:37 11.04.2022
2735 Dust 32 1009 22 4000 4.12 330 09:49 11.04.2022
2736 Dust 29 1010 24 5000 4.63 340 07:58 11.04.2022
2737 Clear 23 1008 52 7000 4.12 330 04:18 11.04.2022
2738 Clouds 25 1009 45 7000 4.12 330 23:27 10.04.2022
2739 Clouds 26 1010 41 7000 6.17 330 22:26 10.04.2022
2740 Clouds 26 1010 42 7000 6.69 330 21:43 10.04.2022
2741 Clouds 27 1010 40 8000 4.12 320 20:50 10.04.2022
2742 Clouds 27 1010 40 8000 4.12 320 20:50 10.04.2022
2743 Clear 28 1010 39 10000 5.14 330 19:54 10.04.2022
2744 Clear 28 1010 39 10000 5.14 330 19:33 10.04.2022
2745 Clear 28 1009 42 10000 5.14 330 18:46 10.04.2022
2746 Clear 29 1009 43 10000 6.17 330 18:20 10.04.2022
2747 Clear 28 1008 59 8000 6.17 360 17:41 10.04.2022
2748 Clear 29 1008 48 9000 6.69 30 16:47 10.04.2022
2749 Clear 30 1008 43 10000 7.2 360 15:38 10.04.2022
2750 Clear 32 1008 27 10000 6.17 360 14:37 10.04.2022
2751 Clear 34 1008 26 9000 3.6 60 12:50 10.04.2022
2752 Clear 33 1009 28 9000 3.6 50 12:26 10.04.2022
2753 Clear 33 1009 28 9000 3.6 50 12:26 10.04.2022
2754 Clear 33 1009 25 9000 3.6 50 11:29 10.04.2022
2755 Clear 33 1010 26 9000 3.09 60 10:57 10.04.2022
2756 Clear 33 1010 25 9000 3.09 60 10:22 10.04.2022
2757 Clear 33 1010 26 8000 3.09 10 09:40 10.04.2022
2758 Clouds 31 1011 28 8000 2.57 320 08:25 10.04.2022
2759 Clouds 30 1011 31 7000 4.12 330 07:47 10.04.2022
2760 Clouds 28 1009 43 7000 5.66 310 06:19 10.04.2022
2761 Clear 27 1007 35 10000 2.06 170 02:48 10.04.2022
2762 Clear 26 1007 46 10000 2.06 150 00:51 10.04.2022
2763 Clear 26 1007 44 10000 1.54 170 23:50 09.04.2022
2764 Clear 26 1008 48 10000 1.54 120 22:50 09.04.2022
2765 Clear 27 1008 44 10000 1.54 120 21:48 09.04.2022
2766 Clear 27 1009 44 10000 2.57 110 20:57 09.04.2022
2767 Clear 28 1009 46 10000 2.57 110 20:26 09.04.2022
2768 Clear 28 1008 41 10000 2.06 110 19:42 09.04.2022
2769 Clear 28 1008 41 10000 2.06 110 19:18 09.04.2022
2770 Clear 28 1008 41 10000 2.06 110 19:18 09.04.2022
2771 Clear 28 1008 36 10000 2.06 70 18:21 09.04.2022
2772 Clouds 29 1008 35 7000 4.12 80 17:39 09.04.2022
2773 Clouds 30 1008 29 7000 3.6 80 16:53 09.04.2022
2774 Clouds 32 1008 16 7000 3.6 100 15:59 09.04.2022
2775 Clouds 32 1008 16 7000 3.6 100 15:41 09.04.2022
2776 Clouds 32 1008 16 7000 4.12 140 14:44 09.04.2022
2777 Clouds 33 1008 17 7000 4.63 100 14:23 09.04.2022
2778 Dust 33 1008 15 8000 4.12 100 13:20 09.04.2022
2779 Dust 33 1008 18 7000 4.63 110 12:50 09.04.2022
2780 Dust 33 1010 20 7000 4.63 110 11:40 09.04.2022
2781 Dust 33 1010 15 7000 4.12 100 10:21 09.04.2022
2782 Dust 32 1011 19 7000 3.09 110 09:47 09.04.2022
2783 Clouds 31 1011 15 7000 2.57 80 08:56 09.04.2022
2784 Clouds 28 1010 27 8000 1.54 10 07:29 09.04.2022
2785 Clouds 24 1009 41 9000 1.54 320 02:58 09.04.2022
2786 Clear 26 1010 36 10000 3.6 330 00:25 09.04.2022
2787 Clear 26 1010 44 10000 4.12 330 22:57 08.04.2022
2788 Clear 26 1011 57 10000 5.14 360 21:32 08.04.2022
2789 Clear 27 1011 57 10000 5.66 360 20:40 08.04.2022
2790 Clear 27 1011 65 10000 5.14 360 19:39 08.04.2022
2791 Clear 28 1010 61 10000 4.12 340 18:31 08.04.2022
2792 Clear 29 1010 51 10000 5.14 30 17:53 08.04.2022
2793 Clear 29 1010 52 10000 6.17 350 17:26 08.04.2022
2794 Clear 33 1010 27 10000 3.09 10 16:51 08.04.2022
2795 Clear 33 1009 30 10000 1.54 80 16:20 08.04.2022
2796 Clear 34 1009 30 10000 4.12 140 15:27 08.04.2022
2797 Clear 35 1009 27 10000 4.12 140 14:40 08.04.2022
2798 Clear 35 1010 27 10000 5.14 90 13:55 08.04.2022
2799 Clear 36 1010 24 10000 4.12 60 13:29 08.04.2022
2800 Clear 38 1011 14 10000 4.12 130 12:32 08.04.2022
2801 Clear 36 1012 12 10000 3.6 200 10:38 08.04.2022
2802 Clear 33 1013 21 10000 3.09 240 09:39 08.04.2022
2803 Clear 33 1013 24 10000 3.6 320 08:58 08.04.2022
2804 Clear 29 1013 45 8000 2.57 0 07:38 08.04.2022
2805 Clear 27 1012 51 7000 3.6 210 06:38 08.04.2022
2806 Clear 24 1010 75 9000 3.09 150 02:27 08.04.2022
2807 Clear 23 1011 75 9000 1.03 0 00:26 08.04.2022
2808 Clear 24 1011 73 10000 1.54 130 23:38 07.04.2022
2809 Clear 25 1012 73 10000 1.54 40 22:40 07.04.2022
2810 Clear 25 1012 73 10000 1.54 40 22:22 07.04.2022
2811 Clear 25 1012 73 10000 2.06 360 21:56 07.04.2022
2812 Clear 25 1013 69 10000 2.06 350 21:19 07.04.2022
2813 Clear 26 1012 61 10000 2.06 360 20:41 07.04.2022
2814 Clear 27 1012 57 10000 2.06 80 18:54 07.04.2022
2815 Clear 29 1011 46 9000 2.06 80 17:27 07.04.2022
2816 Clear 31 1011 41 10000 2.57 80 16:45 07.04.2022
2817 Clear 31 1011 39 10000 3.09 80 16:25 07.04.2022
2818 Clear 34 1011 23 10000 3.09 100 15:37 07.04.2022
2819 Clear 34 1011 20 10000 5.14 160 13:51 07.04.2022
2820 Clear 34 1011 18 10000 5.66 120 13:23 07.04.2022
2821 Clear 36 1012 14 10000 6.17 150 11:49 07.04.2022
2822 Clear 34 1013 18 10000 5.66 160 10:30 07.04.2022
2823 Clear 32 1014 27 10000 5.66 150 08:40 07.04.2022
2824 Clear 28 1013 28 7000 3.6 150 06:58 07.04.2022
2825 Clear 24 1012 27 10000 3.09 190 04:26 07.04.2022
2826 Clear 25 1011 42 10000 1.03 360 02:32 07.04.2022
2827 Clear 25 1011 41 10000 3.09 330 00:42 07.04.2022
2828 Clear 24 1012 53 10000 1.54 360 23:21 06.04.2022
2829 Clear 25 1012 57 10000 1.54 340 22:44 06.04.2022
2830 Clear 26 1013 57 10000 2.57 350 21:47 06.04.2022
2831 Clear 26 1013 50 10000 3.09 350 20:43 06.04.2022
2832 Clear 27 1013 44 10000 3.09 340 19:59 06.04.2022
2833 Clear 27 1013 54 10000 2.57 350 19:19 06.04.2022
2834 Clear 27 1013 54 10000 3.09 10 18:47 06.04.2022
2835 Clear 28 1012 53 10000 4.12 340 17:36 06.04.2022
2836 Clear 31 1012 25 10000 2.57 20 16:39 06.04.2022
2837 Clear 32 1011 16 10000 2.57 100 16:19 06.04.2022
2838 Clear 33 1011 14 10000 3.09 110 15:40 06.04.2022
2839 Clear 34 1012 16 10000 3.6 100 13:34 06.04.2022
2840 Clear 33 1013 21 10000 3.6 100 12:29 06.04.2022
2841 Clear 34 1014 14 10000 3.09 10 10:57 06.04.2022
2842 Clear 33 1014 16 9000 2.57 10 10:33 06.04.2022
2843 Clear 33 1014 15 8000 2.57 360 09:46 06.04.2022
2844 Clear 34 1014 14 9000 1.03 0 08:51 06.04.2022
2845 Clear 33 1014 13 7000 1.03 0 07:58 06.04.2022
2846 Clear 24 1013 33 8000 1.54 250 05:23 06.04.2022
2847 Clear 25 1012 42 10000 3.09 350 00:20 06.04.2022
2848 Clear 24 1012 48 10000 2.57 350 23:47 05.04.2022
2849 Clear 25 1013 44 10000 3.09 340 21:50 05.04.2022
2850 Clear 26 1013 38 10000 3.6 350 20:59 05.04.2022
2851 Clear 26 1013 45 10000 3.6 350 20:23 05.04.2022
2852 Clear 26 1012 63 10000 4.63 350 18:31 05.04.2022
2853 Clouds 26 1012 62 8000 5.14 360 17:21 05.04.2022
2854 Clouds 28 1012 50 8000 3.6 10 16:42 05.04.2022
2855 Clear 31 1011 24 8000 4.12 80 15:51 05.04.2022
2856 Clear 31 1011 26 8000 4.12 80 15:30 05.04.2022
2857 Clouds 34 1011 14 8000 3.09 50 13:46 05.04.2022
2858 Clear 34 1012 16 8000 3.09 90 12:29 05.04.2022
2859 Clear 33 1012 19 8000 2.57 100 11:43 05.04.2022
2860 Clear 33 1012 20 8000 3.09 100 11:24 05.04.2022
2861 Clear 33 1013 13 8000 1.03 0 09:31 05.04.2022
2862 Clear 30 1013 21 7000 2.06 350 08:27 05.04.2022
2863 Clear 21 1010 42 10000 1.03 230 03:50 05.04.2022
2864 Clear 22 1010 46 10000 1.03 140 23:42 04.04.2022
2865 Clear 22 1010 54 10000 0.51 0 22:37 04.04.2022
2866 Clear 23 1011 56 10000 2.06 340 21:48 04.04.2022
2867 Clear 23 1011 56 10000 2.06 340 21:19 04.04.2022
2868 Clear 24 1011 56 10000 2.57 350 20:47 04.04.2022
2869 Clear 24 1010 56 10000 4.12 340 19:28 04.04.2022
2870 Clear 25 1010 54 10000 3.6 340 18:43 04.04.2022
2871 Clear 26 1009 45 10000 4.63 350 17:21 04.04.2022
2872 Clear 27 1009 37 10000 5.66 40 16:34 04.04.2022
2873 Clear 29 1009 30 10000 6.69 30 15:34 04.04.2022
2874 Clear 29 1009 28 10000 6.69 360 14:46 04.04.2022
2875 Clear 29 1009 30 10000 6.69 10 14:28 04.04.2022
2876 Clear 31 1010 27 10000 5.14 20 12:59 04.04.2022
2877 Clear 33 1011 16 10000 4.63 340 11:29 04.04.2022
2878 Clear 34 1011 11 10000 4.12 330 10:29 04.04.2022
2879 Clear 26 1010 31 10000 2.57 290 06:58 04.04.2022
2880 Clear 22 1009 31 10000 2.06 250 03:18 04.04.2022
2881 Clear 24 1009 30 10000 2.57 320 23:47 03.04.2022
2882 Clear 24 1010 28 10000 2.06 330 22:24 03.04.2022
2883 Clear 26 1010 24 10000 2.57 310 21:32 03.04.2022
2884 Clear 26 1010 21 10000 2.57 320 20:35 03.04.2022
2885 Clear 28 1010 20 10000 3.09 310 19:29 03.04.2022
2886 Clear 26 1009 49 10000 2.06 340 18:26 03.04.2022
2887 Clear 27 1009 52 10000 3.6 20 17:41 03.04.2022
2888 Clear 28 1009 48 10000 3.6 20 16:50 03.04.2022
2889 Clear 30 1009 30 10000 4.63 360 15:59 03.04.2022
2890 Clear 32 1009 24 10000 5.66 30 14:28 03.04.2022
2891 Clear 33 1009 19 10000 5.14 10 13:38 03.04.2022
2892 Clouds 34 1010 13 9000 5.66 30 12:19 03.04.2022
2893 Clear 34 1011 12 10000 4.63 330 10:32 03.04.2022
2894 Clear 32 1011 15 10000 5.14 320 09:23 03.04.2022
2895 Clear 28 1011 19 10000 4.12 310 07:24 03.04.2022
2896 Clear 23 1010 38 10000 4.12 280 03:46 03.04.2022
2897 Clear 25 1011 26 10000 2.57 280 00:36 03.04.2022
2898 Clear 25 1011 32 10000 2.57 320 22:54 02.04.2022
2899 Clear 27 1012 18 10000 3.09 320 21:57 02.04.2022
2900 Clear 27 1012 25 10000 3.09 310 21:33 02.04.2022
2901 Clear 27 1012 24 10000 2.57 320 20:51 02.04.2022
2902 Clear 28 1011 20 10000 3.6 330 19:28 02.04.2022
2903 Clear 29 1011 23 10000 4.12 340 18:21 02.04.2022
2904 Clear 29 1011 26 10000 4.12 360 17:47 02.04.2022
2905 Clear 31 1011 27 10000 5.14 350 16:22 02.04.2022
2906 Clear 31 1011 33 10000 5.14 20 15:21 02.04.2022
2907 Clear 32 1011 29 10000 5.14 20 14:43 02.04.2022
2908 Clear 36 1011 8 10000 6.69 320 13:34 02.04.2022
2909 Clear 36 1012 10 10000 6.17 320 12:37 02.04.2022
2910 Clear 35 1013 10 10000 5.14 320 10:58 02.04.2022
2911 Clear 31 1014 17 10000 4.63 300 08:49 02.04.2022
2912 Clear 27 1014 22 10000 5.66 320 06:49 02.04.2022
2913 Clear 25 1012 27 10000 4.63 290 03:45 02.04.2022
2914 Clear 28 1012 14 10000 4.63 290 23:56 01.04.2022
2915 Clear 27 1012 18 10000 3.09 290 23:18 01.04.2022
2916 Clear 29 1013 14 10000 4.12 330 21:33 01.04.2022
2917 Clear 28 1013 16 10000 4.12 330 20:51 01.04.2022
2918 Clear 29 1013 13 10000 4.12 330 19:57 01.04.2022
2919 Clear 28 1013 16 10000 4.12 330 19:31 01.04.2022
2920 Clear 30 1012 15 10000 3.6 320 18:45 01.04.2022
2921 Clear 31 1012 17 10000 3.6 350 17:46 01.04.2022
2922 Clear 32 1012 23 10000 4.63 10 16:48 01.04.2022
2923 Clear 33 1012 21 10000 5.66 350 15:36 01.04.2022
2924 Clear 33 1012 18 10000 5.66 350 14:20 01.04.2022
2925 Clear 35 1012 12 10000 5.14 350 13:33 01.04.2022
2926 Clear 35 1013 14 10000 6.17 360 12:32 01.04.2022
2927 Clear 34 1014 11 10000 5.14 330 11:37 01.04.2022
2928 Clear 34 1014 11 10000 5.66 340 10:18 01.04.2022
2929 Clear 29 1015 19 10000 4.12 320 08:30 01.04.2022
2930 Clear 24 1014 34 10000 2.06 290 06:39 01.04.2022
2931 Clear 21 1013 34 10000 2.06 270 04:47 01.04.2022
2932 Clear 20 1013 35 10000 1.54 260 04:28 01.04.2022
2933 Clear 21 1012 43 10000 2.06 310 01:55 01.04.2022
2934 Clear 23 1014 33 10000 2.57 330 22:58 31.03.2022
2935 Clear 23 1014 34 10000 2.57 330 21:50 31.03.2022
2936 Clear 23 1014 35 10000 2.57 330 21:31 31.03.2022
2937 Clear 23 1015 47 10000 3.09 320 20:29 31.03.2022
2938 Clear 23 1014 68 10000 3.09 10 19:48 31.03.2022
2939 Clear 23 1014 64 10000 2.06 330 18:43 31.03.2022
2940 Clear 24 1014 62 10000 3.09 350 17:49 31.03.2022
2941 Clear 24 1013 53 10000 3.6 10 16:37 31.03.2022
2942 Clear 26 1013 44 10000 5.66 30 15:37 31.03.2022
2943 Clear 26 1013 38 10000 5.66 10 15:19 31.03.2022
2944 Clear 29 1013 23 10000 3.6 40 14:35 31.03.2022
2945 Clear 29 1014 22 10000 3.6 360 11:43 31.03.2022
2946 Clear 28 1015 25 10000 3.6 10 10:55 31.03.2022
2947 Clear 27 1016 22 10000 3.6 360 09:44 31.03.2022
2948 Clear 24 1015 33 10000 3.09 320 07:55 31.03.2022
2949 Clear 19 1014 47 10000 3.09 310 04:46 31.03.2022
2950 Clear 21 1014 47 10000 3.6 320 23:37 30.03.2022
2951 Clear 21 1014 43 10000 4.12 330 22:27 30.03.2022
2952 Clear 22 1015 41 10000 4.12 330 21:38 30.03.2022
2953 Clear 23 1015 39 10000 4.12 320 20:44 30.03.2022
2954 Clear 23 1015 33 10000 3.6 320 19:59 30.03.2022
2955 Clear 25 1014 23 10000 4.63 330 18:59 30.03.2022
2956 Clear 24 1014 41 10000 4.63 360 18:18 30.03.2022
2957 Clear 24 1014 38 10000 4.63 350 17:44 30.03.2022
2958 Clear 26 1014 32 10000 6.69 350 16:54 30.03.2022
2959 Clear 26 1013 34 10000 7.2 350 16:31 30.03.2022
2960 Clear 28 1013 23 10000 9.26 350 14:56 30.03.2022
2961 Clear 27 1014 30 10000 9.77 350 13:34 30.03.2022
2962 Clear 28 1014 30 10000 7.72 10 12:41 30.03.2022
2963 Clear 28 1016 22 10000 8.23 340 10:55 30.03.2022
2964 Clear 27 1016 29 10000 8.23 340 09:58 30.03.2022
2965 Clear 26 1016 22 10000 6.17 330 08:57 30.03.2022
2966 Clear 23 1016 36 10000 5.66 320 07:31 30.03.2022
2967 Clear 20 1015 38 10000 6.69 320 05:40 30.03.2022
2968 Clear 20 1014 38 10000 6.17 320 03:21 30.03.2022
2969 Clear 20 1016 34 10000 5.66 330 23:32 29.03.2022
2970 Clear 20 1016 37 10000 5.14 310 22:18 29.03.2022
2971 Clear 20 1017 37 10000 5.66 330 21:40 29.03.2022
2972 Clear 20 1017 39 10000 6.17 320 20:40 29.03.2022
2973 Clear 21 1017 41 10000 5.14 320 19:45 29.03.2022
2974 Clear 21 1017 40 10000 6.69 330 18:54 29.03.2022
2975 Clear 21 1016 40 10000 6.69 330 18:18 29.03.2022
2976 Clear 22 1016 38 10000 6.69 330 17:20 29.03.2022
2977 Clear 23 1016 36 10000 6.69 320 16:54 29.03.2022
2978 Clear 24 1016 34 10000 7.2 320 15:47 29.03.2022
2979 Clear 25 1015 28 10000 9.26 330 14:43 29.03.2022
2980 Clear 26 1016 27 10000 9.26 330 13:41 29.03.2022
2981 Clear 26 1016 25 10000 9.26 340 12:40 29.03.2022
2982 Clear 26 1017 27 10000 9.26 330 11:27 29.03.2022
2983 Clear 25 1018 30 10000 11.32 340 10:23 29.03.2022
2984 Clear 24 1018 33 10000 9.77 330 08:57 29.03.2022
2985 Clear 21 1018 42 10000 9.77 330 06:53 29.03.2022
2986 Clear 19 1017 48 10000 7.2 330 02:55 29.03.2022
2987 Clear 20 1018 48 10000 7.72 320 23:40 28.03.2022
2988 Clear 20 1019 42 10000 7.2 320 22:58 28.03.2022
2989 Clear 20 1019 42 10000 7.2 320 22:58 28.03.2022
2990 Clear 20 1019 46 10000 7.2 310 22:35 28.03.2022
2991 Clear 20 1019 48 10000 7.2 310 21:47 28.03.2022
2992 Clear 20 1019 47 10000 8.23 330 20:37 28.03.2022
2993 Clear 20 1019 47 10000 8.23 330 19:57 28.03.2022
2994 Clear 20 1019 47 10000 8.23 330 19:38 28.03.2022
2995 Clear 20 1019 43 10000 8.75 330 18:51 28.03.2022
2996 Clear 21 1018 37 10000 10.8 330 17:41 28.03.2022
2997 Clear 22 1018 34 10000 10.29 330 16:58 28.03.2022
2998 Clear 24 1017 30 10000 10.29 340 15:35 28.03.2022
2999 Clear 25 1017 27 10000 10.29 340 14:24 28.03.2022
3000 Clear 25 1018 27 10000 11.83 350 13:19 28.03.2022
3001 Clear 26 1019 25 10000 9.77 340 11:52 28.03.2022
3002 Clear 25 1020 25 10000 10.8 330 09:58 28.03.2022
3003 Clear 24 1021 29 10000 10.8 330 09:21 28.03.2022
3004 Clear 23 1021 31 10000 10.29 340 08:40 28.03.2022
3005 Clear 23 1021 32 10000 10.29 340 08:20 28.03.2022
3006 Clear 21 1020 36 10000 8.23 330 06:55 28.03.2022
3007 Clear 19 1018 46 10000 9.26 330 02:20 28.03.2022
3008 Clear 19 1019 46 10000 8.75 320 22:38 27.03.2022
3009 Clear 19 1019 42 10000 7.72 300 21:47 27.03.2022
3010 Clear 19 1019 43 10000 7.72 300 21:26 27.03.2022
3011 Clear 19 1020 50 10000 6.69 300 20:41 27.03.2022
3012 Clear 19 1020 51 10000 7.2 320 19:37 27.03.2022
3013 Clear 20 1019 45 10000 8.75 330 18:44 27.03.2022
3014 Clear 20 1019 42 10000 8.75 330 18:23 27.03.2022
3015 Clear 20 1019 42 10000 8.75 330 18:23 27.03.2022
3016 Clear 21 1019 38 10000 8.23 330 17:36 27.03.2022
3017 Clear 23 1018 34 10000 9.26 340 15:51 27.03.2022
3018 Clear 26 1018 27 10000 10.29 340 13:58 27.03.2022
3019 Clear 25 1018 31 10000 10.8 330 13:21 27.03.2022
3020 Clear 25 1019 31 10000 11.32 360 11:35 27.03.2022
3021 Clear 24 1020 34 10000 10.8 350 09:37 27.03.2022
3022 Clear 22 1019 40 10000 11.83 340 07:31 27.03.2022
3023 Clear 20 1018 45 10000 11.83 340 04:24 27.03.2022
3024 Clear 20 1017 42 10000 8.23 330 00:26 27.03.2022
3025 Clear 21 1017 38 10000 9.26 330 22:52 26.03.2022
3026 Clear 21 1017 35 10000 7.2 310 21:57 26.03.2022
3027 Clear 21 1017 39 10000 7.2 330 21:30 26.03.2022
3028 Clear 21 1018 46 10000 8.23 330 19:32 26.03.2022
3029 Clear 22 1018 44 10000 7.72 330 18:44 26.03.2022
3030 Clear 22 1017 41 10000 8.75 330 17:36 26.03.2022
3031 Clear 24 1016 31 10000 8.23 340 16:40 26.03.2022
3032 Clear 25 1016 31 9000 9.77 340 15:42 26.03.2022
3033 Clear 28 1015 23 9000 10.29 330 13:56 26.03.2022
3034 Clear 28 1014 25 10000 10.29 340 13:36 26.03.2022
3035 Clear 29 1015 20 10000 10.8 340 11:50 26.03.2022
3036 Clear 30 1016 19 10000 9.77 340 10:48 26.03.2022
3037 Clear 28 1016 22 10000 8.75 340 08:50 26.03.2022
3038 Clear 24 1016 39 10000 7.72 340 06:39 26.03.2022
3039 Clear 23 1014 47 10000 7.2 330 05:31 26.03.2022
3040 Clear 21 1012 52 10000 10.29 340 02:24 26.03.2022
3041 Clear 21 1012 54 10000 6.69 320 22:30 25.03.2022
3042 Clear 21 1012 56 10000 6.17 310 20:58 25.03.2022
3043 Clear 21 1012 58 10000 5.66 300 20:26 25.03.2022
3044 Clear 22 1012 50 10000 5.66 320 19:19 25.03.2022
3045 Clear 22 1012 49 10000 5.66 330 18:35 25.03.2022
3046 Clear 24 1011 40 10000 6.17 340 17:30 25.03.2022
3047 Clear 24 1010 42 10000 6.69 340 16:27 25.03.2022
3048 Clear 25 1010 41 10000 8.75 360 15:34 25.03.2022
3049 Clear 26 1009 52 10000 9.26 350 13:29 25.03.2022
3050 Clear 27 1010 44 8000 7.72 20 11:21 25.03.2022
3051 Clear 27 1011 47 8000 9.77 360 09:31 25.03.2022
3052 Clear 26 1011 48 8000 8.23 340 08:49 25.03.2022
3053 Clear 25 1011 53 8000 8.23 350 07:42 25.03.2022
3054 Clear 25 1011 50 7000 8.75 340 06:59 25.03.2022
3055 Clear 25 1007 37 10000 1.54 340 02:37 25.03.2022
3056 Clear 27 1007 44 10000 5.14 130 22:59 24.03.2022
3057 Clear 27 1006 46 10000 5.14 130 22:19 24.03.2022
3058 Clear 27 1007 46 10000 5.14 150 20:52 24.03.2022
3059 Clear 27 1008 41 10000 5.66 140 19:49 24.03.2022
3060 Clear 26 1008 49 10000 4.63 130 18:44 24.03.2022
3061 Clear 27 1008 44 10000 5.66 110 17:34 24.03.2022
3062 Clear 29 1008 38 10000 5.66 110 16:28 24.03.2022
3063 Clear 30 1007 31 10000 5.14 120 14:51 24.03.2022
3064 Clear 31 1007 29 10000 5.14 120 14:22 24.03.2022
3065 Clear 32 1007 25 10000 4.63 110 13:33 24.03.2022
3066 Clear 32 1008 27 10000 4.12 110 12:24 24.03.2022
3067 Clear 32 1009 30 10000 4.12 140 10:48 24.03.2022
3068 Clear 30 1010 32 10000 4.12 140 09:24 24.03.2022
3069 Clear 30 1011 28 10000 5.66 130 08:32 24.03.2022
3070 Clouds 23 1009 58 9000 2.57 160 04:52 24.03.2022
3071 Clear 24 1009 53 10000 2.06 150 23:41 23.03.2022
3072 Clear 25 1010 44 10000 2.57 110 22:18 23.03.2022
3073 Clear 24 1010 53 10000 1.54 140 21:21 23.03.2022
3074 Clear 25 1011 51 9000 2.06 100 19:51 23.03.2022
3075 Clear 24 1011 60 9000 2.06 100 19:25 23.03.2022
3076 Clear 26 1011 50 10000 3.09 100 17:48 23.03.2022
3077 Clear 26 1011 47 10000 3.09 100 17:18 23.03.2022
3078 Clear 29 1010 27 9000 3.6 130 15:25 23.03.2022
3079 Clear 30 1010 33 9000 3.6 120 14:47 23.03.2022
3080 Clear 30 1010 29 8000 3.6 120 13:30 23.03.2022
3081 Clear 32 1011 17 8000 4.63 110 10:50 23.03.2022
3082 Clouds 31 1012 21 7000 4.12 150 08:21 23.03.2022
3083 Clear 24 1012 72 6000 3.09 140 05:50 23.03.2022
3084 Clear 23 1009 53 10000 2.57 70 01:59 23.03.2022
3085 Clear 22 1010 64 10000 1.03 150 00:25 23.03.2022
3086 Clear 22 1010 64 10000 1.03 150 00:25 23.03.2022
3087 Clear 23 1010 51 10000 2.06 20 21:36 22.03.2022
3088 Clear 23 1011 40 10000 1.54 360 20:57 22.03.2022
3089 Clear 25 1011 31 9000 0.51 0 19:59 22.03.2022
3090 Clear 24 1011 36 10000 0.51 130 19:25 22.03.2022
3091 Clear 25 1011 37 10000 1.54 170 18:45 22.03.2022
3092 Clear 25 1010 43 10000 1.54 140 17:43 22.03.2022
3093 Clear 26 1009 43 8000 2.57 110 16:37 22.03.2022
3094 Clear 26 1009 35 7000 3.09 130 15:40 22.03.2022
3095 Clear 27 1009 36 7000 3.09 110 15:19 22.03.2022
3096 Clear 28 1009 32 7000 4.12 120 14:42 22.03.2022
3097 Clear 31 1009 19 7000 4.12 100 13:42 22.03.2022
3098 Clear 30 1009 16 7000 3.6 90 11:52 22.03.2022
3099 Clear 32 1010 8 8000 2.57 20 10:53 22.03.2022
3100 Clear 29 1012 10 8000 3.6 10 08:43 22.03.2022
3101 Clear 29 1011 11 8000 1.54 60 07:30 22.03.2022
3102 Clear 20 1010 45 8000 1.54 230 03:55 22.03.2022
3103 Clear 21 1009 49 10000 2.57 330 00:46 22.03.2022
3104 Clear 22 1009 39 10000 3.09 340 22:46 21.03.2022
3105 Clear 23 1010 32 10000 2.06 20 21:25 21.03.2022
3106 Clear 24 1010 27 10000 3.09 340 20:43 21.03.2022
3107 Clear 24 1010 27 10000 3.09 340 20:23 21.03.2022
3108 Clear 25 1011 23 10000 5.14 330 19:35 21.03.2022
3109 Clear 25 1011 23 10000 5.14 330 19:35 21.03.2022
3110 Clear 25 1011 23 10000 5.14 330 19:35 21.03.2022
3111 Clear 26 1011 19 10000 3.09 300 18:47 21.03.2022
3112 Clear 27 1010 17 10000 3.09 320 17:35 21.03.2022
3113 Clear 27 1010 22 10000 3.6 360 16:59 21.03.2022
3114 Clouds 26 1010 30 9000 3.6 360 16:26 21.03.2022
3115 Clear 27 1010 31 9000 4.12 340 15:37 21.03.2022
3116 Clear 27 1009 33 10000 5.66 350 14:36 21.03.2022
3117 Clear 29 1009 21 10000 5.14 10 13:20 21.03.2022
3118 Clear 30 1010 14 10000 6.69 360 11:58 21.03.2022
3119 Clear 30 1011 19 9000 6.17 350 11:20 21.03.2022
3120 Clouds 30 1012 14 9000 6.17 310 09:42 21.03.2022
3121 Clear 28 1012 13 10000 3.09 300 07:33 21.03.2022
3122 Clear 22 1012 35 10000 3.6 280 05:56 21.03.2022
3123 Clear 20 1009 37 10000 1.54 290 01:39 21.03.2022
3124 Clear 23 1010 28 10000 3.6 300 22:57 20.03.2022
3125 Clear 22 1010 33 10000 3.6 290 22:23 20.03.2022
3126 Clear 23 1010 31 10000 3.6 300 21:37 20.03.2022
3127 Clear 23 1011 30 10000 4.12 300 20:55 20.03.2022
3128 Clear 23 1011 30 10000 4.12 300 20:29 20.03.2022
3129 Clear 23 1011 28 10000 4.63 320 19:49 20.03.2022
3130 Clear 24 1011 27 10000 4.63 320 19:19 20.03.2022
3131 Clear 25 1011 23 10000 4.63 330 17:44 20.03.2022
3132 Clear 25 1011 23 10000 4.63 320 17:24 20.03.2022
3133 Clear 27 1011 14 10000 7.2 330 15:58 20.03.2022
3134 Clear 28 1011 18 10000 6.69 340 14:42 20.03.2022
3135 Clear 31 1010 12 10000 6.69 330 13:38 20.03.2022
3136 Clear 31 1011 12 10000 5.66 330 12:19 20.03.2022
3137 Clear 29 1012 16 10000 6.17 320 09:59 20.03.2022
3138 Clear 26 1013 25 10000 4.12 320 08:20 20.03.2022
3139 Clear 19 1013 48 10000 4.12 290 05:49 20.03.2022
3140 Clear 16 1013 61 10000 3.09 270 03:18 20.03.2022
3141 Clear 18 1013 63 10000 4.12 290 00:53 20.03.2022
3142 Clear 18 1013 63 10000 4.12 290 00:28 20.03.2022
3143 Clear 19 1013 59 10000 4.12 300 22:25 19.03.2022
3144 Clear 19 1014 57 10000 4.63 290 21:26 19.03.2022
3145 Clear 19 1014 57 10000 4.63 290 21:26 19.03.2022
3146 Clear 20 1015 48 10000 4.63 290 19:22 19.03.2022
3147 Clear 20 1015 42 10000 5.14 310 18:38 19.03.2022
3148 Clear 21 1014 32 10000 5.66 320 17:49 19.03.2022
3149 Clear 22 1014 28 10000 5.66 320 16:46 19.03.2022
3150 Clear 24 1014 23 10000 5.66 310 15:26 19.03.2022
3151 Clear 26 1014 23 10000 8.23 330 13:45 19.03.2022
3152 Clear 27 1014 21 10000 7.72 330 12:43 19.03.2022
3153 Clear 27 1014 21 10000 7.72 320 12:20 19.03.2022
3154 Clear 27 1014 22 10000 7.2 310 11:45 19.03.2022
3155 Clear 25 1016 29 10000 7.2 330 09:22 19.03.2022
3156 Clear 17 1017 57 10000 5.14 290 04:53 19.03.2022
3157 Clear 16 1016 56 10000 4.63 290 02:33 19.03.2022
3158 Clear 16 1016 53 10000 4.12 300 23:51 18.03.2022
3159 Clear 16 1017 55 10000 3.6 310 22:58 18.03.2022
3160 Clear 17 1017 55 10000 3.6 290 22:21 18.03.2022
3161 Clear 17 1018 57 10000 5.14 310 20:25 18.03.2022
3162 Clear 17 1018 55 10000 6.17 320 19:24 18.03.2022
3163 Clear 17 1018 53 10000 6.17 320 18:43 18.03.2022
3164 Clear 19 1017 43 10000 6.69 330 16:54 18.03.2022
3165 Clear 19 1017 39 10000 6.69 330 16:23 18.03.2022
3166 Clear 22 1016 32 10000 7.2 330 14:27 18.03.2022
3167 Clear 23 1016 31 10000 8.23 340 13:39 18.03.2022
3168 Clear 24 1016 27 10000 8.23 330 11:35 18.03.2022
3169 Clear 23 1017 28 10000 7.72 330 10:21 18.03.2022
3170 Clear 21 1018 36 10000 8.75 330 08:46 18.03.2022
3171 Clear 19 1019 42 10000 8.23 330 06:59 18.03.2022
3172 Clear 16 1018 57 10000 6.69 320 04:55 18.03.2022
3173 Clear 16 1017 51 10000 9.77 330 01:38 18.03.2022
3174 Clear 16 1017 49 10000 8.23 320 23:52 17.03.2022
3175 Clear 16 1017 47 10000 8.75 320 22:45 17.03.2022
3176 Clear 16 1017 47 10000 8.75 320 22:19 17.03.2022
3177 Clear 16 1018 53 10000 8.75 320 21:27 17.03.2022
3178 Clear 16 1018 53 10000 9.77 320 20:53 17.03.2022
3179 Clear 16 1018 55 10000 9.77 320 20:19 17.03.2022
3180 Clear 16 1018 57 10000 8.75 330 19:38 17.03.2022
3181 Clear 16 1018 55 10000 9.77 330 18:52 17.03.2022
3182 Clear 17 1017 49 10000 9.77 320 17:29 17.03.2022
3183 Clear 18 1017 45 10000 10.29 330 16:20 17.03.2022
3184 Clear 18 1017 42 10000 9.77 330 15:43 17.03.2022
3185 Clear 19 1016 37 10000 10.29 330 14:59 17.03.2022
3186 Clear 21 1016 30 10000 10.29 330 13:35 17.03.2022
3187 Clear 21 1016 32 8000 10.8 340 12:44 17.03.2022
3188 Dust 22 1017 30 5000 10.8 340 11:33 17.03.2022
3189 Dust 21 1017 32 5000 11.32 340 10:43 17.03.2022
3190 Dust 21 1018 36 4500 11.83 330 09:36 17.03.2022
3191 Dust 20 1018 39 3000 12.35 340 08:19 17.03.2022
3192 Dust 18 1017 49 1000 13.38 340 05:49 17.03.2022
3193 Dust 17 1016 57 3000 14.92 340 04:30 17.03.2022
3194 Clear 19 1014 51 9000 12.86 340 00:25 17.03.2022
3195 Clear 19 1013 48 8000 10.8 330 22:52 16.03.2022
3196 Clear 19 1013 48 8000 10.8 330 22:34 16.03.2022
3197 Clear 19 1013 48 7000 10.29 320 21:56 16.03.2022
3198 Clear 19 1013 51 8000 11.32 330 20:40 16.03.2022
3199 Clear 20 1013 55 10000 11.32 330 19:23 16.03.2022
3200 Clear 20 1012 55 8000 10.29 330 18:42 16.03.2022
3201 Clear 20 1012 52 7000 11.32 330 17:49 16.03.2022
3202 Clear 20 1011 52 7000 11.32 330 17:31 16.03.2022
3203 Clear 21 1010 52 6000 11.32 340 16:21 16.03.2022
3204 Clear 24 1009 46 6000 10.8 340 14:50 16.03.2022
3205 Dust 26 1009 45 5000 10.8 350 13:36 16.03.2022
3206 Clear 27 1009 43 6000 10.8 350 12:43 16.03.2022
3207 Clear 28 1010 43 7000 9.26 350 11:23 16.03.2022
3208 Clear 28 1010 44 7000 9.77 350 10:30 16.03.2022
3209 Clear 28 1010 42 7000 8.75 350 09:56 16.03.2022
3210 Clear 26 1011 59 7000 6.69 330 07:23 16.03.2022
3211 Clear 26 1008 52 10000 4.12 250 02:45 16.03.2022
3212 Clear 25 1008 52 10000 3.6 150 22:55 15.03.2022
3213 Clear 26 1008 52 10000 4.12 150 22:35 15.03.2022
3214 Clear 26 1009 53 10000 3.09 150 20:55 15.03.2022
3215 Clear 26 1009 52 10000 4.63 140 19:37 15.03.2022
3216 Clear 28 1008 43 10000 5.14 110 17:42 15.03.2022
3217 Clear 29 1008 40 10000 2.57 120 16:38 15.03.2022
3218 Clear 29 1008 39 10000 2.57 120 15:38 15.03.2022
3219 Clear 30 1008 42 10000 3.6 110 14:52 15.03.2022
3220 Clear 29 1008 44 10000 4.63 140 13:56 15.03.2022
3221 Clear 29 1008 45 10000 4.63 120 13:21 15.03.2022
3222 Clear 31 1010 31 10000 6.69 140 11:32 15.03.2022
3223 Clear 31 1011 35 10000 6.17 130 10:22 15.03.2022
3224 Clear 31 1012 38 10000 5.14 140 09:20 15.03.2022
3225 Clear 29 1012 47 8000 4.12 130 08:21 15.03.2022
3226 Clear 27 1013 57 8000 5.66 140 07:36 15.03.2022
3227 Clear 24 1012 80 8000 2.06 140 05:55 15.03.2022
3228 Clear 21 1011 80 9000 1.03 330 00:25 15.03.2022
3229 Clear 21 1011 80 9000 1.54 310 23:28 14.03.2022
3230 Clear 23 1011 75 9000 1.03 140 22:49 14.03.2022
3231 Clear 23 1012 73 10000 1.54 130 21:51 14.03.2022
3232 Clear 23 1012 73 10000 2.06 80 20:55 14.03.2022
3233 Clear 24 1012 68 10000 2.06 80 20:24 14.03.2022
3234 Clear 24 1012 69 10000 3.09 70 19:24 14.03.2022
3235 Clear 24 1012 78 9000 3.6 10 17:57 14.03.2022
3236 Clear 24 1012 78 9000 3.6 10 17:39 14.03.2022
3237 Clear 25 1012 73 6000 4.12 60 16:28 14.03.2022
3238 Clear 27 1012 61 7000 3.6 70 14:47 14.03.2022
3239 Clear 28 1011 50 7000 3.09 70 13:29 14.03.2022
3240 Clear 28 1013 54 7000 3.6 60 11:26 14.03.2022
3241 Clear 27 1014 54 7000 5.14 20 09:57 14.03.2022
3242 Clear 26 1014 61 7000 5.14 20 09:34 14.03.2022
3243 Clear 27 1015 54 6000 4.63 10 08:57 14.03.2022
3244 Clear 26 1015 62 6000 4.63 10 08:26 14.03.2022
3245 Clear 23 1015 73 6000 2.57 340 06:19 14.03.2022
3246 Haze 21 1012 83 5000 3.09 340 02:58 14.03.2022
3247 Mist 21 1012 88 5000 3.09 330 01:39 14.03.2022
3248 Clouds 22 1012 91 6000 3.6 10 23:41 13.03.2022
3249 Clouds 23 1013 88 7000 4.63 10 21:46 13.03.2022
3250 Clouds 23 1013 85 8000 4.63 10 21:21 13.03.2022
3251 Clouds 23 1013 88 8000 7.2 360 20:46 13.03.2022
3252 Clouds 23 1013 85 8000 7.2 340 20:21 13.03.2022
3253 Clouds 23 1013 88 9000 5.66 350 19:41 13.03.2022
3254 Clear 23 1013 88 9000 5.66 20 19:21 13.03.2022
3255 Clear 23 1013 88 9000 4.63 10 18:41 13.03.2022
3256 Clear 23 1013 88 9000 4.63 10 18:22 13.03.2022
3257 Clear 23 1012 85 9000 5.66 10 17:36 13.03.2022
3258 Clear 23 1012 83 10000 5.14 360 16:44 13.03.2022
3259 Clear 24 1012 80 8000 4.63 30 16:21 13.03.2022
3260 Clear 24 1012 80 8000 6.17 30 15:36 13.03.2022
3261 Clear 25 1011 73 8000 5.14 10 14:20 13.03.2022
3262 Clear 27 1011 61 8000 5.14 60 13:27 13.03.2022
3263 Clear 27 1011 59 8000 4.63 50 12:21 13.03.2022
3264 Clear 28 1012 55 8000 4.12 40 11:36 13.03.2022
3265 Clear 27 1012 55 8000 4.12 360 10:49 13.03.2022
3266 Clear 28 1012 52 8000 3.6 20 10:25 13.03.2022
3267 Clear 26 1013 58 8000 4.12 10 09:41 13.03.2022
3268 Clear 25 1014 66 8000 3.6 20 08:49 13.03.2022
3269 Clear 25 1014 66 8000 3.6 20 08:21 13.03.2022
3270 Clear 22 1013 68 10000 3.6 340 05:59 13.03.2022
3271 Clear 20 1012 73 10000 3.09 330 03:56 13.03.2022
3272 Clear 21 1010 78 10000 4.12 330 00:48 13.03.2022
3273 Clear 22 1011 75 10000 2.06 320 22:48 12.03.2022
3274 Clear 23 1012 73 10000 5.14 360 20:59 12.03.2022
3275 Clear 23 1011 75 10000 5.14 360 20:18 12.03.2022
3276 Clear 23 1011 75 10000 5.66 360 19:43 12.03.2022
3277 Clear 24 1011 75 10000 6.69 360 18:34 12.03.2022
3278 Clear 24 1011 80 10000 6.69 350 17:46 12.03.2022
3279 Clear 24 1010 80 7000 5.66 10 16:25 12.03.2022
3280 Clear 25 1010 77 6000 4.12 10 15:25 12.03.2022
3281 Haze 26 1010 69 5000 4.12 50 14:52 12.03.2022
3282 Haze 27 1010 67 5000 4.12 30 13:53 12.03.2022
3283 Clouds 29 1010 59 6000 4.63 50 12:25 12.03.2022
3284 Clouds 30 1010 47 7000 4.63 20 11:51 12.03.2022
3285 Clouds 30 1010 47 7000 4.63 20 11:20 12.03.2022
3286 Clouds 32 1011 35 7000 3.6 10 09:59 12.03.2022
3287 Clouds 30 1011 47 7000 3.6 10 09:40 12.03.2022
3288 Clouds 26 1012 62 6000 3.09 320 07:51 12.03.2022
3289 Clouds 24 1012 73 6000 3.09 310 05:44 12.03.2022
3290 Clear 26 1009 42 10000 2.06 160 00:24 12.03.2022
3291 Clear 25 1009 45 10000 2.06 160 23:37 11.03.2022
3292 Clouds 27 1009 49 9000 3.6 160 21:55 11.03.2022
3293 Clear 27 1009 55 9000 5.14 150 20:59 11.03.2022
3294 Clear 27 1009 55 9000 5.14 150 20:40 11.03.2022
3295 Clouds 26 1009 61 8000 6.17 140 19:54 11.03.2022
3296 Clouds 26 1009 63 8000 3.6 160 19:28 11.03.2022
3297 Dust 26 1009 53 5000 3.09 160 17:38 11.03.2022
3298 Dust 26 1008 56 4500 3.09 160 17:19 11.03.2022
3299 Dust 29 1008 45 3500 4.12 120 15:57 11.03.2022
3300 Dust 30 1007 38 4000 4.63 120 14:22 11.03.2022
3301 Dust 31 1007 37 5000 6.17 110 13:21 11.03.2022
3302 Dust 37 1007 16 4000 7.72 180 12:22 11.03.2022
3303 Dust 39 1008 9 4000 6.69 200 11:56 11.03.2022
3304 Dust 37 1009 10 4000 7.2 230 10:18 11.03.2022
3305 Dust 35 1010 12 5000 7.2 200 09:27 11.03.2022
3306 Dust 32 1010 18 4000 8.75 170 08:24 11.03.2022
3307 Dust 31 1010 20 5000 11.32 170 07:46 11.03.2022
3308 Clouds 29 1009 24 8000 6.69 160 05:49 11.03.2022
3309 Clear 26 1009 31 10000 5.66 170 04:22 11.03.2022
3310 Clear 25 1008 67 10000 6.17 130 23:49 10.03.2022
3311 Clear 25 1008 69 10000 7.2 130 22:31 10.03.2022
3312 Clear 25 1008 65 10000 7.2 120 21:48 10.03.2022
3313 Clear 25 1008 65 10000 7.2 120 21:20 10.03.2022
3314 Clear 25 1008 67 10000 6.17 130 19:51 10.03.2022
3315 Clear 25 1008 65 10000 7.72 100 18:56 10.03.2022
3316 Clear 26 1008 61 10000 8.23 100 17:36 10.03.2022
3317 Clear 26 1007 65 10000 6.17 100 16:31 10.03.2022
3318 Clear 26 1007 65 10000 6.17 100 15:26 10.03.2022
3319 Clear 30 1007 42 10000 5.66 110 13:30 10.03.2022
3320 Clear 29 1008 39 10000 5.66 120 12:34 10.03.2022
3321 Clear 31 1008 33 10000 6.17 110 11:20 10.03.2022
3322 Clear 32 1010 29 10000 7.72 180 09:22 10.03.2022
3323 Clear 30 1011 39 10000 6.17 170 07:41 10.03.2022
3324 Clear 22 1010 75 10000 4.12 140 04:44 10.03.2022
3325 Clear 22 1009 86 10000 3.6 130 01:50 10.03.2022
3326 Clear 22 1009 86 10000 3.6 130 23:28 09.03.2022
3327 Clear 22 1010 81 10000 2.06 150 21:51 09.03.2022
3328 Clear 22 1010 81 10000 2.06 130 21:32 09.03.2022
3329 Clear 22 1010 78 10000 2.06 170 19:50 09.03.2022
3330 Clouds 23 1011 78 9000 2.06 150 18:34 09.03.2022
3331 Clouds 23 1010 78 8000 2.57 130 17:27 09.03.2022
3332 Clouds 23 1010 78 6000 3.6 110 16:31 09.03.2022
3333 Clouds 25 1010 66 7000 3.6 110 15:28 09.03.2022
3334 Clouds 25 1009 67 6000 4.12 90 13:54 09.03.2022
3335 Clouds 26 1009 61 6000 4.12 70 12:47 09.03.2022
3336 Clouds 27 1010 53 7000 4.12 50 11:54 09.03.2022
3337 Clouds 27 1010 53 7000 4.12 50 11:35 09.03.2022
3338 Clouds 27 1010 48 8000 4.12 50 10:34 09.03.2022
3339 Clouds 28 1012 44 7000 2.57 350 08:57 09.03.2022
3340 Clouds 24 1012 56 6000 3.6 330 07:54 09.03.2022
3341 Clear 21 1010 68 10000 4.12 330 02:57 09.03.2022
3342 Clear 21 1009 75 10000 4.12 330 00:43 09.03.2022
3343 Clear 22 1009 78 10000 4.63 350 22:48 08.03.2022
3344 Clear 22 1010 78 10000 4.63 350 22:27 08.03.2022
3345 Clear 22 1010 75 10000 4.12 330 21:23 08.03.2022
3346 Clear 23 1010 75 10000 4.12 340 20:42 08.03.2022
3347 Clear 23 1010 77 10000 4.63 340 19:42 08.03.2022
3348 Clear 23 1010 83 10000 5.14 20 18:44 08.03.2022
3349 Clear 24 1009 77 10000 5.66 20 17:32 08.03.2022
3350 Clouds 25 1008 65 9000 6.17 360 15:56 08.03.2022
3351 Clouds 30 1007 34 6000 2.57 70 14:19 08.03.2022
3352 Clouds 34 1007 18 9000 4.63 250 12:43 08.03.2022
3353 Clear 34 1007 14 10000 6.17 230 11:45 08.03.2022
3354 Clear 33 1008 12 10000 7.2 230 10:48 08.03.2022
3355 Clouds 33 1009 12 10000 8.23 230 09:51 08.03.2022
3356 Clear 29 1010 18 10000 4.63 210 06:59 08.03.2022
3357 Clear 25 1009 42 10000 3.09 220 05:43 08.03.2022
3358 Clouds 22 1007 75 9000 4.63 170 23:51 07.03.2022
3359 Clouds 22 1008 73 9000 4.63 160 21:57 07.03.2022
3360 Clouds 22 1008 78 9000 4.63 160 21:32 07.03.2022
3361 Clear 22 1008 73 10000 4.63 150 20:46 07.03.2022
3362 Clear 23 1008 70 10000 4.63 150 20:20 07.03.2022
3363 Clouds 23 1008 73 9000 4.63 140 19:31 07.03.2022
3364 Clear 23 1008 78 8000 4.12 130 18:42 07.03.2022
3365 Clear 23 1008 78 8000 4.12 130 17:48 07.03.2022
3366 Clear 23 1007 75 8000 3.09 110 16:55 07.03.2022
3367 Dust 24 1007 73 6000 5.66 90 15:35 07.03.2022
3368 Clear 25 1006 61 6000 5.66 70 13:51 07.03.2022
3369 Clear 27 1007 50 6000 5.66 130 12:27 07.03.2022
3370 Dust 28 1008 36 4500 8.23 140 10:38 07.03.2022
3371 Dust 28 1008 36 4500 8.23 140 10:38 07.03.2022
3372 Dust 26 1010 36 4500 7.72 170 08:57 07.03.2022
3373 Clear 21 1010 69 10000 3.6 130 03:49 07.03.2022
3374 Clear 21 1010 75 10000 1.54 40 00:22 07.03.2022
3375 Clear 21 1011 72 10000 2.06 10 23:35 06.03.2022
3376 Clear 21 1012 70 10000 2.06 340 22:40 06.03.2022
3377 Clear 21 1012 70 10000 1.03 0 21:47 06.03.2022
3378 Clear 21 1012 73 10000 2.06 10 20:38 06.03.2022
3379 Clear 21 1013 73 10000 2.06 10 20:20 06.03.2022
3380 Clear 22 1012 68 10000 2.57 20 18:52 06.03.2022
3381 Clear 22 1012 53 10000 1.54 360 17:57 06.03.2022
3382 Clear 22 1012 54 10000 1.54 60 17:21 06.03.2022
3383 Clear 23 1012 47 10000 2.57 40 16:41 06.03.2022
3384 Clouds 23 1012 46 9000 3.6 60 15:45 06.03.2022
3385 Clouds 25 1012 48 9000 3.6 60 14:49 06.03.2022
3386 Clouds 25 1011 50 9000 3.6 60 14:30 06.03.2022
3387 Clouds 28 1012 24 9000 2.57 360 12:50 06.03.2022
3388 Clouds 27 1012 27 9000 3.09 360 11:56 06.03.2022
3389 Clouds 25 1013 30 9000 4.12 10 10:52 06.03.2022
3390 Clouds 25 1014 34 7000 3.6 360 09:54 06.03.2022
3391 Clouds 25 1015 45 7000 3.09 10 08:29 06.03.2022
3392 Clouds 23 1015 54 7000 4.12 330 07:34 06.03.2022
3393 Haze 19 1014 74 4000 4.12 310 04:46 06.03.2022
3394 Clouds 20 1013 80 6000 6.17 340 00:44 06.03.2022
3395 Clouds 20 1013 83 7000 6.17 340 00:25 06.03.2022
3396 Clouds 20 1013 83 8000 7.72 340 23:20 05.03.2022
3397 Clouds 20 1013 83 8000 7.72 350 22:43 05.03.2022
3398 Clouds 20 1014 83 7000 8.23 350 21:45 05.03.2022
3399 Clouds 20 1014 83 7000 8.23 350 21:19 05.03.2022
3400 Dust 21 1014 80 6000 7.72 340 19:24 05.03.2022
3401 Dust 21 1014 75 5000 7.72 360 18:51 05.03.2022
3402 Dust 21 1014 78 4000 8.75 350 17:43 05.03.2022
3403 Dust 22 1013 80 2500 8.75 360 16:26 05.03.2022
3404 Dust 23 1013 73 2000 7.72 360 15:30 05.03.2022
3405 Dust 23 1013 73 1800 6.17 10 14:44 05.03.2022
3406 Dust 23 1013 73 1500 6.17 10 14:24 05.03.2022
3407 Clear 25 1013 61 10000 4.12 20 12:59 05.03.2022
3408 Clouds 25 1013 59 9000 5.66 90 11:46 05.03.2022
3409 Clouds 26 1014 57 9000 6.17 90 11:18 05.03.2022
3410 Haze 26 1015 53 7000 6.69 40 09:58 05.03.2022
3411 Haze 25 1015 53 5000 7.2 40 08:57 05.03.2022
3412 Haze 24 1016 68 2500 7.2 10 07:37 05.03.2022
3413 Haze 22 1016 76 4000 7.72 360 05:42 05.03.2022
3414 Clouds 22 1013 85 6000 3.09 340 01:30 05.03.2022
3415 Clouds 22 1013 85 8000 5.66 50 23:35 04.03.2022
3416 Clear 22 1013 78 9000 3.09 30 22:41 04.03.2022
3417 Clouds 22 1014 70 9000 3.09 350 21:47 04.03.2022
3418 Clouds 23 1013 70 9000 3.09 340 20:51 04.03.2022
3419 Clouds 23 1014 68 9000 4.12 340 20:21 04.03.2022
3420 Clear 24 1014 58 10000 2.57 340 19:35 04.03.2022
3421 Clear 24 1013 55 10000 2.57 0 18:37 04.03.2022
3422 Clear 23 1012 70 10000 4.12 130 17:30 04.03.2022
3423 Clear 23 1011 68 10000 4.12 130 16:43 04.03.2022
3424 Clear 24 1011 62 10000 3.6 110 15:28 04.03.2022
3425 Clear 25 1011 55 10000 5.66 120 14:19 04.03.2022
3426 Clear 26 1011 50 10000 4.63 120 13:24 04.03.2022
3427 Clear 26 1012 44 10000 5.66 140 11:40 04.03.2022
3428 Clear 27 1013 45 10000 5.66 110 10:42 04.03.2022
3429 Clear 26 1015 50 10000 4.63 110 09:28 04.03.2022
3430 Clear 26 1016 45 10000 4.12 150 08:34 04.03.2022
3431 Clear 25 1015 54 10000 5.14 120 07:23 04.03.2022
3432 Clear 20 1013 75 10000 3.09 160 03:43 04.03.2022
3433 Clear 21 1013 52 10000 2.06 150 00:22 04.03.2022
3434 Clear 22 1014 52 10000 3.6 160 22:21 03.03.2022
3435 Clear 21 1014 64 10000 3.6 150 21:40 03.03.2022
3436 Clear 21 1014 64 10000 3.09 140 21:18 03.03.2022
3437 Clear 21 1015 73 10000 4.12 140 19:48 03.03.2022
3438 Clear 21 1015 74 10000 4.12 130 18:51 03.03.2022
3439 Clear 22 1015 71 10000 4.12 130 18:22 03.03.2022
3440 Clear 21 1015 83 10000 5.14 110 17:27 03.03.2022
3441 Clear 22 1014 76 10000 5.66 110 15:48 03.03.2022
3442 Clear 22 1014 73 10000 5.66 110 15:20 03.03.2022
3443 Clear 23 1014 70 10000 5.14 110 14:42 03.03.2022
3444 Clear 25 1014 53 10000 5.66 110 13:18 03.03.2022
3445 Clear 25 1014 53 10000 5.66 110 13:18 03.03.2022
3446 Clear 26 1014 39 10000 4.63 120 11:50 03.03.2022
3447 Clear 26 1015 43 10000 5.14 110 10:41 03.03.2022
3448 Clear 26 1017 33 10000 2.06 190 08:52 03.03.2022
3449 Clear 23 1018 44 10000 2.57 180 07:25 03.03.2022
3450 Clear 21 1017 54 10000 2.06 190 06:34 03.03.2022
3451 Clear 19 1015 59 10000 1.54 230 01:45 03.03.2022
3452 Clear 19 1016 72 10000 1.54 230 23:29 02.03.2022
3453 Clear 20 1016 72 10000 1.54 190 22:50 02.03.2022
3454 Clear 20 1017 70 10000 1.54 130 21:30 02.03.2022
3455 Clear 20 1017 75 10000 1.03 110 20:45 02.03.2022
3456 Clear 20 1017 75 10000 1.54 20 20:22 02.03.2022
3457 Clear 20 1017 71 10000 1.03 30 19:35 02.03.2022
3458 Clear 21 1017 66 10000 1.54 30 18:44 02.03.2022
3459 Clear 21 1017 64 10000 3.6 20 17:59 02.03.2022
3460 Clear 21 1017 64 10000 3.6 20 17:28 02.03.2022
3461 Clear 21 1016 66 10000 5.14 30 16:45 02.03.2022
3462 Clear 23 1016 46 10000 5.14 20 14:45 02.03.2022
3463 Clear 25 1016 40 10000 7.2 60 13:24 02.03.2022
3464 Clear 25 1017 40 10000 5.66 40 12:43 02.03.2022
3465 Clear 27 1017 25 10000 4.12 10 11:47 02.03.2022
3466 Clear 27 1017 26 10000 4.12 360 11:24 02.03.2022
3467 Clear 26 1018 26 10000 4.12 320 09:46 02.03.2022
3468 Clear 26 1019 25 10000 2.57 310 08:59 02.03.2022
3469 Clear 23 1020 39 10000 3.09 300 07:39 02.03.2022
3470 Clear 21 1019 54 10000 3.09 300 06:51 02.03.2022
3471 Clear 16 1017 72 10000 3.6 290 02:54 02.03.2022
3472 Clear 18 1017 63 10000 3.09 300 00:29 02.03.2022
3473 Clear 19 1018 55 10000 4.63 330 22:48 01.03.2022
3474 Clear 19 1018 53 10000 4.63 330 22:21 01.03.2022
3475 Clear 20 1018 48 10000 4.12 330 21:25 01.03.2022
3476 Clear 20 1018 40 10000 4.12 330 20:32 01.03.2022
3477 Clear 20 1018 44 10000 4.63 340 19:44 01.03.2022
3478 Clear 21 1018 37 10000 4.12 330 18:50 01.03.2022
3479 Clear 21 1018 37 10000 6.17 340 18:21 01.03.2022
3480 Clear 22 1018 32 10000 8.23 340 17:30 01.03.2022
3481 Clear 23 1017 29 10000 7.2 350 16:34 01.03.2022
3482 Clear 24 1017 23 10000 6.69 330 15:41 01.03.2022
3483 Clear 26 1017 25 10000 8.23 360 14:40 01.03.2022
3484 Clear 27 1016 22 10000 8.23 340 13:58 01.03.2022
3485 Clear 27 1016 25 10000 7.72 360 13:25 01.03.2022
3486 Clear 27 1017 21 10000 7.72 360 12:33 01.03.2022
3487 Clear 26 1018 27 10000 7.72 350 10:37 01.03.2022
3488 Clear 26 1018 27 10000 7.72 350 10:37 01.03.2022
3489 Clear 24 1020 31 10000 7.2 340 08:45 01.03.2022
3490 Clear 23 1020 38 10000 6.17 330 07:54 01.03.2022
3491 Clear 21 1019 50 10000 5.14 320 06:26 01.03.2022
3492 Clear 19 1018 55 10000 6.17 330 02:44 01.03.2022
3493 Clear 19 1017 50 10000 5.14 320 00:36 01.03.2022
3494 Clear 19 1018 51 10000 4.63 330 23:31 28.02.2022
3495 Clear 19 1018 53 10000 4.12 330 22:18 28.02.2022
3496 Clear 19 1018 53 10000 4.63 330 21:39 28.02.2022
3497 Clear 20 1018 52 10000 7.2 350 19:59 28.02.2022
3498 Clear 20 1018 54 10000 7.2 350 19:40 28.02.2022
3499 Clear 20 1018 48 10000 6.17 330 18:49 28.02.2022
3500 Clear 22 1018 40 10000 6.17 340 17:33 28.02.2022
3501 Clear 22 1017 35 10000 6.17 330 16:43 28.02.2022
3502 Clear 23 1017 44 10000 8.23 10 15:31 28.02.2022
3503 Clear 24 1016 39 10000 9.26 10 14:32 28.02.2022
3504 Clear 24 1016 54 10000 8.23 20 13:48 28.02.2022
3505 Clear 24 1016 49 10000 6.69 10 12:50 28.02.2022
3506 Clear 25 1017 38 10000 6.17 10 11:58 28.02.2022
3507 Clear 25 1017 45 10000 6.17 30 11:18 28.02.2022
3508 Clear 25 1018 38 10000 6.17 350 10:21 28.02.2022
3509 Clear 24 1018 40 10000 7.2 350 09:41 28.02.2022
3510 Clear 24 1019 45 10000 7.2 350 08:48 28.02.2022
3511 Clear 23 1019 46 10000 5.66 330 07:43 28.02.2022
3512 Clear 20 1018 57 10000 4.12 320 05:52 28.02.2022
3513 Clear 19 1017 61 10000 4.63 330 04:30 28.02.2022
3514 Clear 19 1017 61 10000 4.63 330 04:30 28.02.2022
3515 Clear 21 1016 45 10000 5.14 320 00:34 28.02.2022
3516 Clear 21 1016 38 10000 7.72 340 22:38 27.02.2022
3517 Clear 21 1017 43 10000 8.23 340 21:55 27.02.2022
3518 Clear 21 1017 43 10000 8.23 340 21:35 27.02.2022
3519 Clouds 21 1017 50 10000 7.2 340 20:40 27.02.2022
3520 Clouds 21 1017 50 10000 7.2 340 20:18 27.02.2022
3521 Clouds 21 1017 54 10000 7.2 340 19:28 27.02.2022
3522 Clear 21 1017 49 10000 6.69 340 18:56 27.02.2022
3523 Clear 21 1017 52 10000 7.2 350 17:57 27.02.2022
3524 Clear 22 1017 56 10000 7.2 330 17:26 27.02.2022
3525 Clear 23 1016 56 10000 7.72 340 16:22 27.02.2022
3526 Clear 25 1015 60 9000 8.23 360 13:49 27.02.2022
3527 Haze 25 1015 69 5000 8.75 20 12:35 27.02.2022
3528 Haze 25 1015 69 5000 7.72 350 11:36 27.02.2022
3529 Haze 24 1015 71 5000 8.23 350 10:36 27.02.2022
3530 Clouds 24 1017 73 6000 6.69 350 09:52 27.02.2022
3531 Clouds 24 1017 71 7000 7.72 340 09:21 27.02.2022
3532 Clouds 24 1017 68 8000 6.69 340 08:38 27.02.2022
3533 Clear 22 1016 60 10000 2.57 310 05:43 27.02.2022
3534 Clear 21 1014 60 10000 4.12 330 02:57 27.02.2022
3535 Clear 23 1012 56 10000 4.12 150 23:51 26.02.2022
3536 Clear 22 1013 62 10000 2.57 150 22:42 26.02.2022
3537 Clear 23 1013 58 10000 3.09 130 21:26 26.02.2022
3538 Clear 23 1013 60 10000 4.12 120 20:37 26.02.2022
3539 Clear 23 1013 60 10000 4.12 120 20:37 26.02.2022
3540 Clear 23 1013 58 10000 3.09 110 19:54 26.02.2022
3541 Clear 23 1013 60 10000 2.57 120 19:33 26.02.2022
3542 Clear 23 1013 58 10000 2.57 120 18:31 26.02.2022
3543 Clear 23 1012 64 10000 3.09 110 17:31 26.02.2022
3544 Clear 23 1012 68 10000 5.14 110 16:38 26.02.2022
3545 Clear 23 1012 68 9000 5.14 100 15:28 26.02.2022
3546 Clear 24 1012 64 7000 5.14 90 14:59 26.02.2022
3547 Clear 24 1011 68 7000 5.14 90 14:41 26.02.2022
3548 Haze 24 1011 68 7000 4.63 80 13:46 26.02.2022
3549 Clouds 25 1011 58 7000 5.14 110 12:53 26.02.2022
3550 Clouds 25 1012 60 8000 5.14 100 11:45 26.02.2022
3551 Clouds 25 1012 65 6000 5.14 100 11:24 26.02.2022
3552 Haze 24 1014 66 8000 3.6 80 09:28 26.02.2022
3553 Clouds 24 1015 64 9000 4.12 90 08:21 26.02.2022
3554 Mist 18 1012 91 4000 2.57 190 04:22 26.02.2022
3555 Mist 18 1012 94 5000 1.03 360 23:50 25.02.2022
3556 Mist 19 1013 91 5000 2.06 220 22:31 25.02.2022
3557 Mist 18 1013 94 5000 2.57 150 21:30 25.02.2022
3558 Mist 19 1014 91 5000 3.6 130 20:34 25.02.2022
3559 Mist 19 1014 91 5000 3.6 130 19:56 25.02.2022
3560 Mist 20 1014 91 5000 4.63 120 17:54 25.02.2022
3561 Clear 21 1014 81 6000 3.6 140 16:48 25.02.2022
3562 Clear 21 1013 69 8000 4.12 110 15:50 25.02.2022
3563 Clear 22 1013 62 8000 4.12 110 15:23 25.02.2022
3564 Clear 23 1013 58 8000 4.12 110 14:55 25.02.2022
3565 Clear 23 1014 58 8000 3.6 100 14:19 25.02.2022
3566 Clear 24 1014 53 10000 2.06 110 13:30 25.02.2022
3567 Clear 25 1014 46 10000 3.6 90 11:56 25.02.2022
3568 Clear 25 1015 46 10000 3.09 50 11:21 25.02.2022
3569 Clear 25 1016 44 10000 2.06 100 10:23 25.02.2022
3570 Clear 25 1017 48 10000 2.57 130 09:42 25.02.2022
3571 Clear 22 1017 72 9000 3.6 130 07:53 25.02.2022
3572 Haze 20 1017 83 8000 2.57 160 06:56 25.02.2022
3573 Haze 19 1017 85 4500 2.06 140 05:41 25.02.2022
3574 Clear 16 1015 88 7000 0 0 02:43 25.02.2022
3575 Clear 18 1016 79 9000 0.51 0 22:37 24.02.2022
3576 Clear 18 1016 80 9000 1.54 160 21:50 24.02.2022
3577 Clear 19 1016 77 9000 1.54 140 21:30 24.02.2022
3578 Clear 19 1016 79 9000 2.06 130 20:47 24.02.2022
3579 Clear 19 1017 80 9000 1.54 100 19:32 24.02.2022
3580 Clear 20 1016 75 9000 2.06 120 18:21 24.02.2022
3581 Clear 20 1016 73 9000 2.06 110 17:58 24.02.2022
3582 Clear 20 1016 75 9000 2.06 110 17:21 24.02.2022
3583 Clear 21 1016 66 8000 2.57 80 16:28 24.02.2022
3584 Clear 21 1016 60 8000 2.57 80 15:44 24.02.2022
3585 Clear 23 1016 59 8000 3.09 100 14:48 24.02.2022
3586 Clear 22 1015 60 7000 3.6 90 13:59 24.02.2022
3587 Clear 22 1015 57 7000 3.6 90 13:38 24.02.2022
3588 Clear 23 1016 58 10000 4.12 90 11:41 24.02.2022
3589 Clear 24 1017 53 10000 3.09 70 10:34 24.02.2022
3590 Clear 23 1019 53 10000 1.03 0 08:43 24.02.2022
3591 Clear 21 1019 68 10000 1.03 0 07:26 24.02.2022
3592 Haze 18 1018 80 5000 1.03 300 05:43 24.02.2022
3593 Clear 16 1017 79 8000 1.54 280 00:32 24.02.2022
3594 Clear 18 1017 72 8000 2.57 340 22:25 23.02.2022
3595 Clear 19 1018 69 10000 2.57 340 20:51 23.02.2022
3596 Clear 19 1017 69 10000 2.57 340 20:30 23.02.2022
3597 Clear 19 1017 67 10000 3.6 350 19:36 23.02.2022
3598 Clear 20 1017 70 9000 3.6 30 18:31 23.02.2022
3599 Clear 21 1016 64 9000 4.12 30 16:43 23.02.2022
3600 Clear 23 1015 53 6000 6.17 30 14:33 23.02.2022
3601 Clear 24 1015 46 6000 6.17 10 12:37 23.02.2022
3602 Clear 24 1016 46 6000 6.17 10 11:23 23.02.2022
3603 Clear 24 1017 49 6000 5.66 350 10:25 23.02.2022
3604 Clear 23 1018 43 6000 4.63 330 08:56 23.02.2022
3605 Clear 22 1018 49 6000 4.12 310 07:57 23.02.2022
3606 Clear 16 1016 77 9000 3.09 300 03:47 23.02.2022
3607 Clear 17 1015 74 10000 4.12 320 00:19 23.02.2022
3608 Clear 17 1015 72 10000 3.09 310 23:34 22.02.2022
3609 Clear 18 1016 68 10000 4.63 320 22:31 22.02.2022
3610 Clear 18 1016 65 10000 3.6 310 21:48 22.02.2022
3611 Clear 18 1016 65 10000 3.6 310 21:25 22.02.2022
3612 Clear 19 1016 63 10000 3.6 310 20:49 22.02.2022
3613 Clear 19 1016 63 10000 3.6 310 20:29 22.02.2022
3614 Clear 19 1016 59 10000 3.6 310 19:36 22.02.2022
3615 Clear 19 1016 59 10000 3.6 310 19:18 22.02.2022
3616 Clear 20 1016 54 10000 5.66 320 17:40 22.02.2022
3617 Clear 20 1016 54 10000 5.66 320 17:19 22.02.2022
3618 Clear 21 1015 44 10000 6.17 330 16:36 22.02.2022
3619 Clear 23 1015 40 10000 6.69 340 15:38 22.02.2022
3620 Clear 23 1015 40 10000 6.69 330 14:43 22.02.2022
3621 Clear 25 1014 38 10000 6.17 340 11:54 22.02.2022
3622 Clear 24 1016 42 10000 6.69 330 10:28 22.02.2022
3623 Clear 21 1017 60 10000 6.17 310 07:48 22.02.2022
3624 Clear 20 1017 62 10000 5.14 310 07:25 22.02.2022
3625 Clear 17 1015 69 10000 4.63 290 02:52 22.02.2022
3626 Clear 17 1015 69 10000 3.09 280 00:49 22.02.2022
3627 Clear 18 1016 65 10000 4.63 300 22:41 21.02.2022
3628 Clear 18 1016 63 10000 5.66 330 21:30 21.02.2022
3629 Clear 18 1016 61 10000 4.12 310 20:34 21.02.2022
3630 Clear 18 1016 61 10000 4.12 310 20:34 21.02.2022
3631 Clear 19 1016 53 10000 4.12 320 18:42 21.02.2022
3632 Clear 20 1015 45 10000 5.14 330 16:50 21.02.2022
3633 Clear 22 1014 37 10000 7.72 330 14:52 21.02.2022
3634 Clear 23 1014 36 10000 7.72 330 14:21 21.02.2022
3635 Clear 24 1014 31 8000 8.23 330 12:59 21.02.2022
3636 Clear 24 1014 30 9000 8.23 330 12:23 21.02.2022
3637 Dust 24 1015 29 4000 7.72 320 10:45 21.02.2022
3638 Dust 23 1017 31 4500 7.72 290 09:30 21.02.2022
3639 Dust 23 1017 31 4500 7.72 290 09:30 21.02.2022
3640 Clouds 21 1014 37 9000 8.23 330 02:58 21.02.2022
3641 Clouds 22 1013 54 6000 5.14 320 23:29 20.02.2022
3642 Clouds 22 1013 60 8000 5.66 320 22:19 20.02.2022
3643 Clear 23 1013 52 10000 5.66 330 21:41 20.02.2022
3644 Clear 23 1013 54 10000 5.66 310 20:52 20.02.2022
3645 Clear 23 1013 54 10000 1.54 290 20:22 20.02.2022
3646 Clear 22 1012 60 10000 2.57 60 19:30 20.02.2022
3647 Clear 22 1012 58 10000 2.06 360 18:49 20.02.2022
3648 Clear 23 1012 56 10000 2.06 50 18:31 20.02.2022
3649 Clear 23 1012 54 10000 2.06 0 17:34 20.02.2022
3650 Clear 26 1011 37 10000 3.09 120 15:31 20.02.2022
3651 Clear 27 1011 38 10000 3.6 120 14:41 20.02.2022
3652 Clear 28 1010 31 10000 6.17 130 13:23 20.02.2022
3653 Clear 27 1011 46 10000 5.14 120 12:20 20.02.2022
3654 Clear 27 1013 48 10000 3.09 140 10:21 20.02.2022
3655 Clear 26 1013 55 10000 3.6 110 09:53 20.02.2022
3656 Clear 22 1014 76 10000 4.63 120 06:46 20.02.2022
3657 Clear 20 1012 70 10000 3.6 140 00:54 20.02.2022
3658 Clear 20 1012 71 10000 3.6 140 00:29 20.02.2022
3659 Clear 20 1013 64 10000 2.06 90 22:25 19.02.2022
3660 Clear 20 1014 64 10000 4.12 100 21:57 19.02.2022
3661 Clear 20 1014 66 10000 4.63 110 20:48 19.02.2022
3662 Clear 20 1014 73 10000 5.14 100 19:41 19.02.2022
3663 Clear 20 1014 73 10000 5.14 100 19:20 19.02.2022
3664 Clear 21 1015 72 10000 4.12 90 18:29 19.02.2022
3665 Clear 20 1015 80 10000 4.12 90 17:33 19.02.2022
3666 Clear 21 1014 73 10000 3.09 100 16:21 19.02.2022
3667 Clear 22 1014 53 10000 5.14 110 14:56 19.02.2022
3668 Clear 23 1013 56 10000 5.66 110 13:59 19.02.2022
3669 Clear 24 1014 38 10000 6.17 110 11:59 19.02.2022
3670 Clear 24 1014 39 10000 5.66 110 11:36 19.02.2022
3671 Clear 25 1016 43 10000 4.12 120 09:34 19.02.2022
3672 Clear 22 1016 68 10000 2.57 110 06:52 19.02.2022
3673 Clear 18 1013 83 10000 3.09 100 01:39 19.02.2022
3674 Clear 17 1013 83 10000 2.06 100 23:28 18.02.2022
3675 Clear 17 1014 80 10000 1.54 130 21:30 18.02.2022
3676 Clear 18 1014 77 10000 1.54 130 20:33 18.02.2022
3677 Clear 19 1014 70 10000 2.06 120 19:51 18.02.2022
3678 Clear 19 1014 70 10000 2.06 110 18:49 18.02.2022
3679 Clear 19 1014 70 10000 2.06 110 18:19 18.02.2022
3680 Clear 20 1014 64 10000 2.57 120 17:21 18.02.2022
3681 Clear 22 1013 47 10000 4.12 70 14:47 18.02.2022
3682 Clear 23 1013 40 10000 4.63 30 13:54 18.02.2022
3683 Clear 23 1013 40 10000 4.63 30 12:51 18.02.2022
3684 Clear 23 1013 40 10000 4.63 30 11:58 18.02.2022
3685 Clear 23 1014 39 10000 4.63 20 11:21 18.02.2022
3686 Clear 22 1015 41 10000 4.63 10 09:30 18.02.2022
3687 Clear 19 1015 55 10000 3.6 350 06:50 18.02.2022
3688 Clear 18 1015 57 10000 2.57 310 05:37 18.02.2022
3689 Clear 18 1013 53 10000 3.6 320 22:46 17.02.2022
3690 Clear 18 1013 51 10000 4.12 330 21:42 17.02.2022
3691 Clear 19 1013 48 10000 5.66 340 20:52 17.02.2022
3692 Clear 18 1013 52 10000 5.66 330 20:33 17.02.2022
3693 Clear 19 1013 48 10000 5.66 330 19:43 17.02.2022
3694 Clear 19 1013 48 10000 5.14 330 18:34 17.02.2022
3695 Clear 20 1013 42 10000 6.17 350 17:47 17.02.2022
3696 Clear 21 1012 40 10000 6.69 340 16:20 17.02.2022
3697 Clear 23 1012 44 10000 7.2 360 14:39 17.02.2022
3698 Clear 23 1012 43 10000 7.2 10 13:47 17.02.2022
3699 Clear 24 1012 31 10000 6.17 10 11:57 17.02.2022
3700 Clear 24 1012 33 10000 6.17 20 11:21 17.02.2022
3701 Clear 22 1015 45 10000 4.63 330 08:37 17.02.2022
3702 Clear 16 1012 36 10000 2.06 250 00:20 17.02.2022
3703 Clear 17 1012 40 10000 1.54 230 22:38 16.02.2022
3704 Clear 19 1013 40 10000 1.03 0 20:39 16.02.2022
3705 Clear 19 1013 46 10000 2.06 340 19:32 16.02.2022
3706 Clear 19 1013 47 10000 3.6 350 18:35 16.02.2022
3707 Clear 20 1012 60 10000 3.09 30 17:34 16.02.2022
3708 Clear 21 1012 49 10000 5.14 40 15:26 16.02.2022
3709 Clear 22 1012 47 10000 5.66 40 14:46 16.02.2022
3710 Clear 25 1012 19 10000 4.12 10 12:32 16.02.2022
3711 Clear 25 1013 19 10000 4.63 20 11:51 16.02.2022
3712 Clear 25 1014 21 10000 3.6 20 10:52 16.02.2022
3713 Clear 25 1014 22 10000 3.6 20 10:29 16.02.2022
3714 Clear 22 1015 26 10000 2.06 320 06:56 16.02.2022
3715 Clear 14 1014 76 10000 1.54 310 03:46 16.02.2022
3716 Clear 18 1015 79 8000 3.09 330 22:35 15.02.2022
3717 Clear 18 1015 72 8000 3.09 330 21:59 15.02.2022
3718 Clear 18 1015 72 8000 3.09 330 21:59 15.02.2022
3719 Clear 18 1015 74 8000 3.09 330 21:39 15.02.2022
3720 Clear 19 1015 72 9000 3.09 340 21:21 15.02.2022
3721 Clear 19 1016 74 10000 2.57 340 20:48 15.02.2022
3722 Clear 19 1016 74 10000 3.09 360 19:48 15.02.2022
3723 Clear 20 1016 70 10000 3.09 350 18:41 15.02.2022
3724 Clear 20 1016 75 10000 3.09 340 18:18 15.02.2022
3725 Clear 20 1016 70 10000 4.12 20 17:46 15.02.2022
3726 Clear 21 1015 68 10000 4.12 360 16:20 15.02.2022
3727 Clear 23 1014 46 10000 5.66 40 14:35 15.02.2022
3728 Clear 24 1014 37 10000 5.14 10 13:26 15.02.2022
3729 Clear 25 1015 33 10000 5.14 10 11:52 15.02.2022
3730 Clear 24 1016 39 10000 4.12 360 10:39 15.02.2022
3731 Clear 24 1017 37 10000 4.63 350 09:23 15.02.2022
3732 Clear 20 1018 56 9000 3.6 330 06:47 15.02.2022
3733 Clear 18 1015 72 9000 3.6 330 00:26 15.02.2022
3734 Clear 18 1016 68 10000 3.6 330 21:59 14.02.2022
3735 Clear 19 1016 70 10000 3.6 330 21:19 14.02.2022
3736 Clear 20 1016 59 10000 3.09 300 20:19 14.02.2022
3737 Clear 20 1016 70 10000 3.09 330 19:30 14.02.2022
3738 Clear 20 1016 77 10000 3.6 340 18:24 14.02.2022
3739 Clear 20 1016 82 10000 3.09 340 17:37 14.02.2022
3740 Clear 20 1015 77 10000 3.09 360 17:18 14.02.2022
3741 Clear 21 1015 66 10000 4.63 30 15:52 14.02.2022
3742 Clouds 23 1014 60 10000 5.14 360 13:37 14.02.2022
3743 Clouds 23 1014 60 10000 5.14 360 13:18 14.02.2022
3744 Clouds 23 1014 60 10000 6.17 10 12:32 14.02.2022
3745 Clouds 23 1014 58 10000 6.17 10 11:43 14.02.2022
3746 Clear 23 1015 60 10000 6.17 350 10:22 14.02.2022
3747 Clear 22 1017 56 10000 5.66 330 08:32 14.02.2022
3748 Clear 20 1017 64 10000 5.66 320 07:26 14.02.2022
3749 Clear 17 1013 61 10000 3.6 290 23:37 13.02.2022
3750 Clear 17 1014 59 10000 3.09 290 22:41 13.02.2022
3751 Clear 17 1014 59 10000 3.09 290 22:23 13.02.2022
3752 Clear 17 1014 61 10000 3.6 330 21:27 13.02.2022
3753 Clear 18 1014 59 10000 4.12 320 20:30 13.02.2022
3754 Clear 18 1015 55 10000 2.57 290 19:24 13.02.2022
3755 Clear 18 1015 55 10000 3.6 310 18:42 13.02.2022
3756 Clear 19 1014 48 10000 4.63 320 17:52 13.02.2022
3757 Clear 19 1013 47 10000 5.66 320 15:54 13.02.2022
3758 Clear 19 1013 47 10000 5.66 320 15:54 13.02.2022
3759 Clouds 20 1013 45 10000 6.69 330 14:57 13.02.2022
3760 Clouds 21 1013 37 10000 6.17 310 13:59 13.02.2022
3761 Clouds 21 1013 33 10000 6.69 300 12:49 13.02.2022
3762 Clouds 21 1013 29 10000 7.72 290 11:24 13.02.2022
3763 Clouds 21 1015 31 10000 6.69 310 10:28 13.02.2022
3764 Clouds 21 1015 32 10000 6.17 290 09:36 13.02.2022
3765 Clear 17 1016 49 10000 6.69 300 06:22 13.02.2022
3766 Clear 17 1015 51 10000 7.72 310 00:35 13.02.2022
3767 Clouds 18 1016 48 10000 6.69 320 22:59 12.02.2022
3768 Clouds 18 1016 51 10000 6.69 320 22:33 12.02.2022
3769 Clouds 18 1016 68 10000 8.23 320 21:19 12.02.2022
3770 Clouds 19 1016 70 10000 7.72 330 20:32 12.02.2022
3771 Clouds 19 1016 74 10000 8.23 330 19:21 12.02.2022
3772 Clear 19 1016 77 10000 9.26 330 18:50 12.02.2022
3773 Clear 19 1016 77 10000 9.26 330 18:32 12.02.2022
3774 Clear 20 1015 68 10000 6.69 320 16:56 12.02.2022
3775 Clear 20 1015 70 10000 6.69 310 16:25 12.02.2022
3776 Clear 21 1015 66 10000 7.2 330 15:50 12.02.2022
3777 Clear 24 1014 54 10000 7.72 330 14:31 12.02.2022
3778 Clear 27 1013 34 10000 4.12 30 12:58 12.02.2022
3779 Clear 26 1015 39 10000 4.12 320 10:40 12.02.2022
3780 Clear 25 1016 45 10000 3.09 260 09:39 12.02.2022
3781 Clear 24 1017 53 10000 2.06 0 08:50 12.02.2022
3782 Clear 23 1017 56 10000 4.63 270 08:18 12.02.2022
3783 Clear 19 1015 77 10000 3.09 160 05:33 12.02.2022
3784 Clear 18 1014 82 10000 3.6 150 04:27 12.02.2022
3785 Clear 18 1014 82 10000 3.09 150 02:18 12.02.2022
3786 Clear 19 1015 75 10000 2.57 150 22:29 11.02.2022
3787 Clear 19 1015 75 10000 3.09 130 21:55 11.02.2022
3788 Clear 20 1015 73 10000 4.63 120 20:41 11.02.2022
3789 Clear 20 1015 71 10000 5.66 110 19:46 11.02.2022
3790 Clear 20 1016 71 10000 5.66 110 19:27 11.02.2022
3791 Clear 20 1016 73 10000 5.14 100 17:55 11.02.2022
3792 Clear 20 1015 73 10000 5.14 100 17:25 11.02.2022
3793 Clear 20 1015 73 10000 5.14 100 16:23 11.02.2022
3794 Clear 21 1014 69 10000 5.66 100 14:43 11.02.2022
3795 Clear 21 1014 66 10000 5.66 100 14:21 11.02.2022
3796 Clear 22 1014 60 10000 5.66 110 13:59 11.02.2022
3797 Clear 22 1014 64 10000 5.66 110 13:39 11.02.2022
3798 Clear 23 1015 62 10000 6.17 140 11:42 11.02.2022
3799 Clear 23 1017 60 10000 6.17 140 09:59 11.02.2022
3800 Clear 22 1018 72 10000 7.2 140 08:49 11.02.2022
3801 Clear 22 1018 72 10000 7.2 140 08:27 11.02.2022
3802 Clear 21 1018 68 10000 5.66 140 07:18 11.02.2022
3803 Clear 17 1016 83 10000 3.09 130 02:39 11.02.2022
3804 Clear 16 1016 83 10000 3.09 130 02:18 11.02.2022
3805 Clear 17 1017 80 10000 2.57 100 22:53 10.02.2022
3806 Clear 16 1017 82 10000 2.06 90 21:50 10.02.2022
3807 Clear 17 1017 79 10000 2.06 90 21:18 10.02.2022
3808 Clear 17 1017 79 10000 2.06 100 20:38 10.02.2022
3809 Clear 17 1018 77 10000 2.06 100 19:26 10.02.2022
3810 Clear 18 1018 72 10000 1.03 0 18:47 10.02.2022
3811 Clear 18 1017 72 10000 3.09 130 17:27 10.02.2022
3812 Clear 18 1017 72 10000 3.6 140 16:55 10.02.2022
3813 Clear 19 1017 70 10000 3.6 110 15:51 10.02.2022
3814 Clear 19 1017 68 10000 3.6 110 15:31 10.02.2022
3815 Clear 19 1017 66 10000 4.12 100 14:48 10.02.2022
3816 Clear 20 1017 64 10000 4.12 100 14:24 10.02.2022
3817 Clear 20 1017 62 10000 3.6 90 13:29 10.02.2022
3818 Clear 21 1017 58 10000 4.12 110 12:50 10.02.2022
3819 Clear 21 1017 56 10000 4.63 100 11:34 10.02.2022
3820 Clear 21 1019 54 10000 4.12 120 10:55 10.02.2022
3821 Clear 20 1019 56 10000 4.12 90 10:18 10.02.2022
3822 Clear 21 1020 56 10000 4.12 90 09:25 10.02.2022
3823 Clear 19 1020 59 10000 2.57 340 07:36 10.02.2022
3824 Clear 14 1019 77 10000 1.54 250 04:58 10.02.2022
3825 Clear 14 1017 74 10000 1.03 0 01:52 10.02.2022
3826 Clear 15 1018 69 10000 1.54 290 00:50 10.02.2022
3827 Clear 16 1018 67 10000 1.54 290 00:28 10.02.2022
3828 Clear 16 1018 67 10000 2.06 310 23:24 09.02.2022
3829 Clear 16 1018 65 10000 2.57 320 22:36 09.02.2022
3830 Clear 16 1018 65 10000 2.57 330 21:52 09.02.2022
3831 Clear 17 1018 63 10000 2.57 330 21:29 09.02.2022
3832 Clear 18 1019 59 10000 3.09 340 20:48 09.02.2022
3833 Clear 18 1019 59 10000 3.09 340 20:29 09.02.2022
3834 Clear 17 1019 61 10000 4.12 350 19:54 09.02.2022
3835 Clear 18 1019 59 10000 4.12 330 19:31 09.02.2022
3836 Clear 18 1019 63 10000 4.63 340 17:37 09.02.2022
3837 Clear 18 1018 68 10000 4.63 20 16:48 09.02.2022
3838 Clear 19 1018 63 10000 6.17 30 15:50 09.02.2022
3839 Clear 21 1018 56 10000 6.69 30 14:35 09.02.2022
3840 Clear 22 1018 46 10000 7.72 10 12:28 09.02.2022
3841 Clear 22 1019 47 10000 7.72 350 10:54 09.02.2022
3842 Clear 22 1019 44 10000 7.72 350 10:26 09.02.2022
3843 Clear 22 1019 43 10000 8.23 360 09:40 09.02.2022
3844 Clear 22 1019 43 10000 8.23 360 09:40 09.02.2022
3845 Clear 22 1020 44 10000 8.23 360 09:19 09.02.2022
3846 Clear 19 1021 55 10000 5.14 300 07:53 09.02.2022
3847 Clear 16 1020 67 10000 4.63 320 05:30 09.02.2022
3848 Clear 16 1020 67 10000 4.63 320 05:30 09.02.2022
3849 Clear 15 1019 75 10000 5.14 320 03:50 09.02.2022
3850 Clear 16 1019 72 10000 5.66 330 00:44 09.02.2022
3851 Clear 16 1019 72 10000 4.63 310 23:32 08.02.2022
3852 Clear 16 1019 72 10000 4.63 310 23:32 08.02.2022
3853 Clear 16 1019 72 10000 4.63 310 23:32 08.02.2022
3854 Clear 16 1019 72 10000 4.63 310 23:32 08.02.2022
3855 Clear 16 1019 72 10000 5.14 300 22:46 08.02.2022
3856 Clear 16 1020 69 10000 4.12 300 22:21 08.02.2022
3857 Clear 16 1020 69 10000 5.66 310 21:39 08.02.2022
3858 Clear 17 1020 67 10000 5.66 310 21:20 08.02.2022
3859 Clear 17 1020 67 10000 5.66 290 20:43 08.02.2022
3860 Clear 17 1020 67 10000 5.14 300 19:46 08.02.2022
3861 Clear 17 1020 65 10000 5.66 300 18:38 08.02.2022
3862 Clear 18 1020 59 10000 5.66 320 17:40 08.02.2022
3863 Clear 19 1019 52 10000 7.72 330 16:29 08.02.2022
3864 Clear 20 1019 43 10000 6.69 330 15:29 08.02.2022
3865 Clear 22 1018 37 10000 7.72 340 14:26 08.02.2022
3866 Clear 23 1018 38 10000 7.72 340 13:20 08.02.2022
3867 Clear 23 1019 36 10000 7.72 330 11:33 08.02.2022
3868 Clear 22 1020 37 10000 8.23 330 10:18 08.02.2022
3869 Clear 22 1020 43 10000 7.2 310 09:41 08.02.2022
3870 Clear 19 1021 53 10000 5.66 300 07:46 08.02.2022
3871 Clear 16 1021 63 10000 6.69 310 05:37 08.02.2022
3872 Clear 15 1020 65 10000 6.17 310 04:39 08.02.2022
3873 Clear 15 1020 65 10000 6.17 300 04:21 08.02.2022
3874 Clear 16 1019 63 10000 6.17 300 03:36 08.02.2022
3875 Clear 16 1019 63 10000 6.17 310 03:18 08.02.2022
3876 Clear 16 1019 63 10000 6.17 310 02:58 08.02.2022
3877 Clear 16 1019 63 10000 6.17 310 02:36 08.02.2022
3878 Clear 16 1019 63 10000 6.17 300 02:18 08.02.2022
3879 Clear 16 1019 63 10000 4.63 290 01:43 08.02.2022
3880 Clear 16 1019 63 10000 4.63 290 01:24 08.02.2022
3881 Clear 16 1019 59 10000 4.63 300 00:49 08.02.2022
3882 Clear 16 1019 55 10000 5.66 300 23:54 07.02.2022
3883 Clear 16 1019 55 10000 5.66 300 23:36 07.02.2022
3884 Clear 16 1020 55 10000 5.14 310 23:18 07.02.2022
3885 Clear 16 1020 53 10000 5.14 310 22:19 07.02.2022
3886 Clear 17 1020 51 10000 5.66 320 21:52 07.02.2022
3887 Clear 17 1020 51 10000 5.66 320 21:29 07.02.2022
3888 Clear 17 1020 51 10000 5.66 320 21:29 07.02.2022
3889 Clear 17 1020 48 10000 5.14 330 20:56 07.02.2022
3890 Clear 17 1020 51 10000 5.14 330 20:38 07.02.2022
3891 Clear 17 1020 49 10000 6.17 320 19:49 07.02.2022
3892 Clear 17 1020 49 10000 6.17 310 19:31 07.02.2022
3893 Clear 17 1020 59 10000 7.2 330 17:41 07.02.2022
3894 Clouds 18 1019 53 10000 7.72 330 16:52 07.02.2022
3895 Clouds 18 1019 50 10000 8.75 330 15:49 07.02.2022
3896 Clouds 21 1018 39 10000 8.75 330 14:44 07.02.2022
3897 Clouds 21 1018 34 10000 8.75 340 13:28 07.02.2022
3898 Clouds 21 1018 33 10000 7.72 310 12:38 07.02.2022
3899 Clear 22 1018 29 10000 7.2 310 11:55 07.02.2022
3900 Clear 22 1019 29 10000 7.72 320 11:33 07.02.2022
3901 Clear 22 1019 30 10000 7.72 320 10:47 07.02.2022
3902 Clear 22 1020 31 10000 6.69 310 10:28 07.02.2022
3903 Clear 21 1020 36 10000 7.2 310 09:52 07.02.2022
3904 Clear 21 1020 39 10000 6.17 310 09:18 07.02.2022
3905 Clear 19 1021 45 10000 6.69 300 08:24 07.02.2022
3906 Clear 17 1021 51 10000 6.17 290 06:52 07.02.2022
3907 Clear 17 1021 51 10000 6.17 290 06:33 07.02.2022
3908 Clear 15 1019 63 10000 5.66 290 02:56 07.02.2022
3909 Clear 15 1019 65 10000 5.66 310 00:42 07.02.2022
3910 Clear 15 1019 67 10000 6.17 310 23:42 06.02.2022
3911 Clear 16 1019 63 10000 5.14 310 22:47 06.02.2022
3912 Clear 16 1019 65 10000 6.17 310 21:52 06.02.2022
3913 Clear 16 1019 65 10000 6.17 310 21:30 06.02.2022
3914 Clear 16 1019 63 10000 5.66 310 20:52 06.02.2022
3915 Clear 16 1019 63 10000 5.66 310 20:28 06.02.2022
3916 Clear 17 1020 59 10000 5.66 310 19:32 06.02.2022
3917 Clear 17 1020 59 10000 5.14 310 18:38 06.02.2022
3918 Clear 17 1019 59 10000 6.17 310 17:55 06.02.2022
3919 Clear 18 1019 52 10000 6.17 300 16:56 06.02.2022
3920 Clear 18 1019 52 10000 6.17 300 16:38 06.02.2022
3921 Clear 19 1018 45 10000 6.17 310 15:47 06.02.2022
3922 Clear 19 1018 45 10000 7.2 310 15:26 06.02.2022
3923 Clear 21 1017 39 10000 8.23 330 14:33 06.02.2022
3924 Clear 22 1017 38 10000 7.72 320 13:25 06.02.2022
3925 Clear 22 1017 36 10000 6.69 320 12:49 06.02.2022
3926 Clear 23 1017 34 10000 6.69 300 11:23 06.02.2022
3927 Clear 21 1018 40 10000 8.23 320 09:56 06.02.2022
3928 Clear 21 1019 44 10000 6.69 320 08:47 06.02.2022
3929 Clear 20 1019 48 10000 6.17 310 07:36 06.02.2022
3930 Clear 17 1018 55 10000 4.63 300 05:29 06.02.2022
3931 Clear 17 1016 46 10000 5.14 310 02:26 06.02.2022
3932 Clear 17 1016 46 10000 5.14 310 01:32 06.02.2022
3933 Clear 17 1016 48 10000 6.17 310 00:24 06.02.2022
3934 Clear 17 1016 53 10000 5.66 310 22:19 05.02.2022
3935 Clear 18 1016 48 10000 5.66 310 20:59 05.02.2022
3936 Clear 18 1015 50 10000 5.66 320 20:24 05.02.2022
3937 Clear 19 1015 50 10000 6.17 320 19:45 05.02.2022
3938 Clear 19 1015 53 10000 6.69 320 18:52 05.02.2022
3939 Clear 19 1014 57 10000 6.17 320 17:38 05.02.2022
3940 Clear 20 1012 60 10000 8.75 330 16:48 05.02.2022
3941 Clear 21 1012 49 9000 9.77 330 15:33 05.02.2022
3942 Clouds 22 1011 49 7000 10.8 330 14:47 05.02.2022
3943 Clouds 24 1010 58 7000 7.2 310 12:46 05.02.2022
3944 Clouds 25 1010 56 8000 7.2 310 11:49 05.02.2022
3945 Clouds 24 1010 54 6000 7.72 310 10:46 05.02.2022
3946 Clear 25 1011 44 10000 5.66 310 09:52 05.02.2022
3947 Clear 25 1011 38 10000 4.12 300 09:25 05.02.2022
3948 Clear 22 1011 43 10000 3.09 0 07:38 05.02.2022
3949 Clear 20 1011 57 10000 2.57 250 06:56 05.02.2022
3950 Clear 19 1009 82 9000 4.12 180 03:55 05.02.2022
3951 Clear 18 1009 82 9000 2.57 150 01:19 05.02.2022
3952 Clear 19 1009 82 8000 3.09 160 00:42 05.02.2022
3953 Clear 18 1009 88 8000 3.6 140 23:38 04.02.2022
3954 Clear 19 1009 85 8000 3.09 130 23:20 04.02.2022
3955 Clear 18 1010 82 9000 3.09 150 21:36 04.02.2022
3956 Clear 18 1010 82 10000 2.57 140 21:18 04.02.2022
3957 Clear 19 1011 78 10000 2.57 140 20:46 04.02.2022
3958 Clear 19 1011 70 10000 1.54 120 19:30 04.02.2022
3959 Clear 20 1011 73 10000 3.09 120 17:27 04.02.2022
3960 Clear 20 1011 69 9000 4.12 120 15:38 04.02.2022
3961 Clear 22 1011 60 10000 5.14 120 14:51 04.02.2022
3962 Clear 24 1011 48 10000 5.14 160 12:43 04.02.2022
3963 Clear 25 1012 41 10000 4.12 190 11:46 04.02.2022
3964 Clear 25 1013 41 10000 4.12 190 11:18 04.02.2022
3965 Clear 24 1014 57 9000 4.12 190 10:30 04.02.2022
3966 Clear 22 1015 64 9000 3.09 160 08:33 04.02.2022
3967 Clear 16 1015 88 6000 0 0 04:53 04.02.2022
3968 Clear 16 1014 88 10000 1.03 230 02:39 04.02.2022
3969 Clear 16 1015 88 10000 0.51 110 00:26 04.02.2022
3970 Clear 17 1016 82 10000 0 0 22:55 03.02.2022
3971 Clear 17 1016 88 10000 0 0 22:22 03.02.2022
3972 Clear 18 1017 82 10000 1.54 340 21:41 03.02.2022
3973 Clear 18 1017 82 10000 2.06 340 20:22 03.02.2022
3974 Clear 18 1017 77 10000 1.54 340 19:57 03.02.2022
3975 Clear 19 1018 68 10000 2.57 350 19:23 03.02.2022
3976 Clear 19 1018 77 10000 3.09 330 18:24 03.02.2022
3977 Clear 19 1018 82 10000 2.57 350 17:26 03.02.2022
3978 Clear 21 1017 60 10000 2.57 20 15:44 03.02.2022
3979 Clear 22 1017 49 10000 3.6 360 14:22 03.02.2022
3980 Clear 23 1018 56 10000 4.12 360 12:32 03.02.2022
3981 Clear 20 1021 68 10000 5.14 340 08:59 03.02.2022
3982 Clear 20 1021 64 10000 4.12 330 08:19 03.02.2022
3983 Clear 16 1019 72 10000 4.12 320 02:56 03.02.2022
3984 Clear 16 1020 72 10000 4.12 310 00:29 03.02.2022
3985 Clear 17 1020 67 10000 5.14 320 22:41 02.02.2022
3986 Clear 17 1020 67 10000 5.66 320 21:52 02.02.2022
3987 Clear 17 1021 67 10000 4.63 320 21:29 02.02.2022
3988 Clear 17 1021 67 10000 7.2 320 20:27 02.02.2022
3989 Clear 17 1021 67 10000 7.2 320 19:48 02.02.2022
3990 Clear 17 1021 67 10000 6.17 320 19:00 02.02.2022
3991 Clear 18 1021 59 10000 5.66 320 18:25 02.02.2022
3992 Clear 18 1020 63 10000 6.69 320 17:22 02.02.2022
3993 Clear 18 1020 63 10000 7.2 330 16:58 02.02.2022
3994 Clear 20 1019 53 10000 5.66 320 15:29 02.02.2022
3995 Clear 23 1018 40 10000 7.72 320 12:47 02.02.2022
3996 Clear 23 1018 43 10000 7.2 320 11:51 02.02.2022
3997 Clear 23 1019 43 10000 7.72 320 11:30 02.02.2022
3998 Clear 22 1020 44 9000 6.69 320 09:18 02.02.2022
3999 Clear 17 1019 72 8000 8.75 310 04:57 02.02.2022
4000 Clear 18 1018 79 10000 7.2 310 22:34 01.02.2022
4001 Clear 19 1018 77 10000 6.69 310 20:55 01.02.2022
4002 Clear 19 1018 72 10000 6.69 300 19:29 01.02.2022
4003 Clear 20 1018 64 10000 6.17 310 17:37 01.02.2022
4004 Clear 21 1016 52 10000 6.17 320 16:31 01.02.2022
4005 Clear 26 1014 35 10000 6.17 290 13:27 01.02.2022
4006 Clear 28 1014 26 10000 6.17 260 12:28 01.02.2022
4007 Clear 23 1016 58 10000 4.63 170 08:52 01.02.2022
4008 Clear 16 1012 94 9000 2.06 160 02:21 01.02.2022
4009 Clear 17 1013 91 10000 1.03 110 23:39 31.01.2022
4010 Clear 18 1013 88 10000 0.51 180 22:42 31.01.2022
4011 Clear 17 1013 91 10000 2.57 140 21:36 31.01.2022
4012 Clear 18 1014 85 10000 2.57 130 20:35 31.01.2022
4013 Clear 18 1015 82 10000 2.57 140 19:59 31.01.2022
4014 Clear 19 1014 77 10000 2.06 120 18:47 31.01.2022
4015 Clear 19 1014 77 10000 1.54 120 18:18 31.01.2022
4016 Clear 19 1014 77 10000 2.06 100 17:24 31.01.2022
4017 Clear 19 1014 72 10000 2.57 90 16:25 31.01.2022
4018 Clear 21 1014 54 10000 3.6 60 14:53 31.01.2022
4019 Clear 22 1014 45 10000 4.63 30 13:35 31.01.2022
4020 Clear 23 1014 49 10000 4.12 30 12:38 31.01.2022
4021 Clear 22 1015 49 10000 2.57 10 11:31 31.01.2022
4022 Clear 22 1016 50 10000 2.57 360 10:48 31.01.2022
4023 Clear 21 1017 56 10000 4.12 360 09:38 31.01.2022
4024 Clear 21 1018 52 10000 4.63 340 08:56 31.01.2022
4025 Clear 21 1018 56 10000 4.12 330 08:20 31.01.2022
4026 Clear 20 1018 63 10000 3.09 330 07:43 31.01.2022
4027 Clear 18 1018 72 10000 3.6 300 06:18 31.01.2022
4028 Clear 17 1016 63 10000 3.09 300 00:43 31.01.2022
4029 Clear 17 1017 65 10000 2.57 320 22:34 30.01.2022
4030 Clear 18 1017 63 10000 2.06 330 21:47 30.01.2022
4031 Clear 18 1018 63 10000 3.09 320 21:26 30.01.2022
4032 Clear 18 1018 61 10000 3.09 330 20:54 30.01.2022
4033 Clear 18 1018 61 10000 3.09 330 20:31 30.01.2022
4034 Clear 18 1018 55 10000 3.6 330 19:58 30.01.2022
4035 Clear 18 1018 57 10000 4.12 330 18:52 30.01.2022
4036 Clear 18 1018 55 10000 4.12 330 18:26 30.01.2022
4037 Clear 19 1018 50 10000 5.14 330 17:31 30.01.2022
4038 Clear 19 1018 51 10000 4.63 330 16:44 30.01.2022
4039 Clear 20 1017 49 10000 4.63 320 16:23 30.01.2022
4040 Clear 20 1017 48 10000 5.14 330 15:55 30.01.2022
4041 Clear 21 1017 45 10000 5.14 320 15:37 30.01.2022
4042 Clear 21 1017 45 10000 5.14 320 15:19 30.01.2022
4043 Clear 22 1016 40 10000 4.63 320 14:44 30.01.2022
4044 Clear 22 1016 41 10000 4.63 310 12:46 30.01.2022
4045 Clouds 22 1017 41 10000 4.12 310 11:49 30.01.2022
4046 Clear 22 1018 46 10000 4.63 310 10:26 30.01.2022
4047 Clear 22 1018 46 10000 4.63 310 10:26 30.01.2022
4048 Clear 20 1019 52 10000 3.6 320 09:41 30.01.2022
4049 Clear 19 1019 57 10000 4.12 310 08:44 30.01.2022
4050 Clear 15 1018 72 10000 3.6 300 02:58 30.01.2022
4051 Clear 16 1018 69 10000 4.12 300 01:54 30.01.2022
4052 Clear 16 1019 67 10000 4.12 310 23:50 29.01.2022
4053 Clear 16 1019 63 10000 3.6 310 22:58 29.01.2022
4054 Clear 16 1019 65 10000 4.63 310 21:44 29.01.2022
4055 Clear 16 1020 65 10000 3.6 310 21:20 29.01.2022
4056 Clear 17 1020 61 10000 3.09 310 20:21 29.01.2022
4057 Clear 17 1020 61 10000 3.6 320 19:33 29.01.2022
4058 Clear 17 1021 63 10000 3.09 320 18:51 29.01.2022
4059 Clear 17 1020 63 10000 3.6 330 18:18 29.01.2022
4060 Clear 18 1020 61 10000 5.14 330 17:27 29.01.2022
4061 Dust 19 1019 57 6000 7.2 350 15:42 29.01.2022
4062 Dust 21 1018 47 5000 7.72 350 13:58 29.01.2022
4063 Dust 21 1018 47 5000 8.23 350 13:37 29.01.2022
4064 Dust 21 1018 47 5000 8.23 350 13:18 29.01.2022
4065 Dust 21 1019 49 5000 7.2 350 11:40 29.01.2022
4066 Dust 21 1019 49 5000 7.2 350 11:40 29.01.2022
4067 Dust 21 1020 47 3500 5.14 340 10:38 29.01.2022
4068 Dust 19 1022 53 3000 4.63 320 08:36 29.01.2022
4069 Dust 15 1020 65 4000 4.12 310 03:25 29.01.2022
4070 Dust 16 1019 63 3000 4.12 310 00:32 29.01.2022
4071 Dust 16 1019 61 3000 4.12 310 23:43 28.01.2022
4072 Dust 16 1020 59 3000 4.63 310 22:48 28.01.2022
4073 Dust 16 1020 59 3000 4.63 320 22:20 28.01.2022
4074 Dust 17 1021 57 3000 5.14 320 20:41 28.01.2022
4075 Dust 17 1021 55 3000 5.66 320 19:59 28.01.2022
4076 Dust 17 1021 55 3000 4.63 320 19:18 28.01.2022
4077 Dust 17 1021 57 3000 5.66 330 18:35 28.01.2022
4078 Dust 17 1020 54 3500 7.2 330 16:37 28.01.2022
4079 Dust 19 1019 45 2500 9.26 330 14:58 28.01.2022
4080 Dust 21 1019 39 2000 7.72 330 13:23 28.01.2022
4081 Dust 22 1019 40 3000 7.2 320 11:52 28.01.2022
4082 Dust 21 1020 44 4000 9.77 330 10:32 28.01.2022
4083 Dust 21 1021 47 4000 6.69 320 09:47 28.01.2022
4084 Dust 19 1021 57 5000 6.17 320 07:43 28.01.2022
4085 Clear 18 1021 61 6000 7.2 320 06:30 28.01.2022
4086 Clear 18 1018 65 10000 7.2 320 03:51 28.01.2022
4087 Clear 18 1017 65 10000 6.17 320 02:28 28.01.2022
4088 Clear 18 1017 68 10000 6.69 320 01:57 28.01.2022
4089 Clear 19 1017 65 10000 5.66 320 01:29 28.01.2022
4090 Clear 19 1017 72 9000 4.12 320 22:39 27.01.2022
4091 Clear 19 1017 72 8000 5.14 320 21:40 27.01.2022
4092 Clear 19 1017 63 9000 4.63 310 20:59 27.01.2022
4093 Clear 20 1016 65 10000 1.54 280 19:47 27.01.2022
4094 Clear 19 1015 83 6000 2.06 130 18:22 27.01.2022
4095 Clear 20 1015 77 7000 2.57 110 16:59 27.01.2022
4096 Clear 22 1015 64 7000 4.12 110 14:23 27.01.2022
4097 Clear 23 1014 61 6000 5.66 120 12:53 27.01.2022
4098 Clear 23 1015 64 10000 6.17 100 12:18 27.01.2022
4099 Clear 23 1017 64 10000 4.63 140 09:49 27.01.2022
4100 Mist 21 1018 82 500 5.14 140 08:40 27.01.2022
4101 Clouds 21 1017 83 6000 5.66 140 07:53 27.01.2022
4102 Clear 17 1015 94 6000 1.54 110 03:34 27.01.2022
4103 Clear 17 1015 91 7000 0 0 00:24 27.01.2022
4104 Clear 18 1016 89 8000 1.54 120 22:28 26.01.2022
4105 Clear 18 1016 91 8000 1.54 110 21:44 26.01.2022
4106 Clear 18 1016 88 10000 2.06 110 20:57 26.01.2022
4107 Clear 19 1016 83 10000 2.06 110 20:33 26.01.2022
4108 Clear 19 1017 82 10000 2.06 120 19:49 26.01.2022
4109 Clear 19 1017 69 10000 1.54 100 18:52 26.01.2022
4110 Clear 20 1017 70 10000 1.54 110 18:24 26.01.2022
4111 Clear 20 1017 54 10000 2.06 130 17:34 26.01.2022
4112 Clear 20 1016 56 10000 2.57 140 16:56 26.01.2022
4113 Clear 20 1016 61 10000 2.57 140 16:23 26.01.2022
4114 Clear 22 1016 51 10000 3.6 120 14:54 26.01.2022
4115 Clear 23 1016 50 10000 4.63 110 12:22 26.01.2022
4116 Clear 23 1016 52 10000 4.12 120 10:52 26.01.2022
4117 Clear 22 1018 56 10000 3.6 110 09:55 26.01.2022
4118 Clear 22 1018 58 9000 3.6 110 09:36 26.01.2022
4119 Clear 20 1019 75 8000 2.06 10 07:28 26.01.2022
4120 Clear 16 1018 67 10000 0.51 0 00:26 26.01.2022
4121 Clear 17 1018 63 10000 0.51 0 23:43 25.01.2022
4122 Clear 16 1018 65 10000 1.54 330 22:49 25.01.2022
4123 Clear 16 1018 67 10000 1.54 350 22:19 25.01.2022
4124 Clear 17 1018 74 10000 1.03 350 21:34 25.01.2022
4125 Clear 18 1018 74 10000 1.54 340 20:45 25.01.2022
4126 Clear 20 1018 45 10000 1.03 250 19:58 25.01.2022
4127 Clear 20 1018 45 10000 1.03 270 19:32 25.01.2022
4128 Clear 19 1018 68 10000 0.51 0 17:56 25.01.2022
4129 Clear 19 1018 68 10000 0.51 0 17:37 25.01.2022
4130 Clear 20 1017 68 10000 2.06 130 16:35 25.01.2022
4131 Clear 20 1017 60 10000 2.57 110 15:39 25.01.2022
4132 Clear 20 1017 60 10000 2.06 80 15:20 25.01.2022
4133 Clear 22 1017 35 10000 3.09 100 14:56 25.01.2022
4134 Clear 23 1016 48 10000 4.12 90 12:23 25.01.2022
4135 Clear 25 1018 15 10000 1.54 0 09:39 25.01.2022
4136 Clear 22 1019 20 10000 2.57 240 08:21 25.01.2022
4137 Clear 21 1020 25 10000 1.54 230 07:27 25.01.2022
4138 Clear 16 1019 57 10000 1.03 0 05:54 25.01.2022
4139 Clear 15 1017 63 10000 1.54 220 00:57 25.01.2022
4140 Clear 15 1018 77 10000 0 0 23:36 24.01.2022
4141 Clear 15 1018 77 10000 0 0 23:18 24.01.2022
4142 Clear 16 1018 75 10000 1.03 0 22:53 24.01.2022
4143 Clear 16 1018 75 10000 1.03 0 22:35 24.01.2022
4144 Clear 16 1018 63 10000 1.54 140 21:42 24.01.2022
4145 Clear 16 1018 63 10000 1.54 140 21:24 24.01.2022
4146 Clear 16 1018 55 10000 0 0 20:28 24.01.2022
4147 Clear 17 1019 50 10000 1.03 90 19:38 24.01.2022
4148 Clear 17 1019 53 10000 0.51 0 18:50 24.01.2022
4149 Clear 18 1019 53 10000 0.51 80 17:42 24.01.2022
4150 Clear 19 1019 53 10000 1.54 150 17:22 24.01.2022
4151 Clear 19 1019 53 10000 1.54 150 17:22 24.01.2022
4152 Clear 19 1018 50 10000 2.06 140 16:31 24.01.2022
4153 Clear 19 1018 47 10000 2.57 130 15:51 24.01.2022
4154 Clear 21 1017 43 10000 3.6 100 14:19 24.01.2022
4155 Clear 22 1017 31 10000 3.09 90 12:35 24.01.2022
4156 Clear 23 1018 28 10000 3.09 110 11:42 24.01.2022
4157 Clear 23 1019 21 10000 2.57 290 10:23 24.01.2022
4158 Clear 22 1020 20 10000 2.57 290 09:46 24.01.2022
4159 Clear 20 1021 27 10000 2.06 290 08:18 24.01.2022
4160 Clear 13 1018 62 10000 1.03 0 02:29 24.01.2022
4161 Clear 13 1018 62 10000 0.51 270 01:26 24.01.2022
4162 Clear 13 1018 62 10000 0.51 270 01:26 24.01.2022
4163 Clear 13 1018 58 10000 1.03 270 00:31 24.01.2022
4164 Clear 14 1019 56 10000 1.54 250 23:40 23.01.2022
4165 Clear 14 1019 54 10000 1.54 260 22:21 23.01.2022
4166 Clear 15 1019 53 10000 1.54 290 21:41 23.01.2022
4167 Clear 15 1019 53 10000 1.54 290 21:23 23.01.2022
4168 Clear 15 1020 49 10000 2.57 300 20:23 23.01.2022
4169 Clear 16 1020 51 10000 2.06 310 18:56 23.01.2022
4170 Clear 16 1020 53 10000 2.57 320 18:24 23.01.2022
4171 Clear 17 1020 50 10000 3.09 310 17:19 23.01.2022
4172 Clear 18 1019 34 10000 3.09 310 16:18 23.01.2022
4173 Clear 19 1019 33 10000 4.12 320 14:52 23.01.2022
4174 Clear 20 1019 33 10000 4.12 310 14:19 23.01.2022
4175 Clear 21 1019 34 10000 4.63 300 12:46 23.01.2022
4176 Clear 21 1019 34 10000 4.63 290 12:21 23.01.2022
4177 Clear 21 1019 37 10000 3.6 300 11:27 23.01.2022
4178 Clear 20 1020 37 10000 4.63 300 10:59 23.01.2022
4179 Clear 19 1020 47 10000 4.12 300 10:25 23.01.2022
4180 Clear 19 1021 45 10000 3.6 290 09:33 23.01.2022
4181 Clear 17 1021 51 10000 5.66 300 08:50 23.01.2022
4182 Clear 12 1020 66 10000 4.12 290 04:41 23.01.2022
4183 Clear 12 1019 69 10000 4.63 280 01:40 23.01.2022
4184 Clear 12 1020 71 10000 4.63 280 00:56 23.01.2022
4185 Clear 12 1020 71 10000 4.12 280 00:22 23.01.2022
4186 Clear 12 1020 76 10000 3.6 280 23:18 22.01.2022
4187 Clear 12 1020 76 10000 2.06 280 22:33 22.01.2022
4188 Clear 13 1021 69 10000 3.6 290 20:47 22.01.2022
4189 Clear 14 1021 67 10000 3.6 300 19:46 22.01.2022
4190 Clear 14 1021 67 10000 4.63 300 18:43 22.01.2022
4191 Clear 14 1021 67 10000 5.66 310 17:56 22.01.2022
4192 Clear 14 1021 67 10000 5.66 310 17:35 22.01.2022
4193 Clouds 15 1021 63 10000 5.66 300 16:55 22.01.2022
4194 Clouds 15 1021 59 10000 6.17 310 15:49 22.01.2022
4195 Clouds 16 1020 55 10000 6.69 310 14:57 22.01.2022
4196 Clouds 18 1020 48 10000 6.17 310 13:36 22.01.2022
4197 Clouds 18 1020 48 10000 6.17 310 12:47 22.01.2022
4198 Clouds 18 1020 46 10000 7.2 310 12:24 22.01.2022
4199 Clouds 18 1021 48 10000 6.17 300 10:55 22.01.2022
4200 Clouds 17 1022 50 10000 6.69 310 10:28 22.01.2022
4201 Clear 17 1022 51 10000 6.69 320 09:46 22.01.2022
4202 Clear 16 1023 55 10000 5.14 310 08:51 22.01.2022
4203 Clear 14 1023 58 10000 6.69 290 07:28 22.01.2022
4204 Clear 11 1022 56 10000 5.66 290 04:52 22.01.2022
4205 Clear 11 1022 56 10000 6.69 290 01:32 22.01.2022
4206 Clear 11 1023 60 10000 4.63 290 23:30 21.01.2022
4207 Clear 11 1023 62 10000 3.6 280 22:19 21.01.2022
4208 Clear 13 1024 54 10000 6.17 300 19:56 21.01.2022
4209 Clear 13 1024 52 10000 7.2 300 18:23 21.01.2022
4210 Clouds 13 1024 52 9000 6.69 300 17:25 21.01.2022
4211 Clouds 14 1023 49 9000 8.75 310 15:28 21.01.2022
4212 Clouds 15 1023 44 8000 8.75 310 13:18 21.01.2022
4213 Clouds 15 1023 43 7000 9.26 310 12:28 21.01.2022
4214 Clear 16 1023 41 7000 8.75 310 11:27 21.01.2022
4215 Clear 16 1024 41 9000 9.26 310 09:46 21.01.2022
4216 Clear 15 1025 40 9000 8.75 300 08:23 21.01.2022
4217 Clear 13 1024 44 6000 6.69 310 04:49 21.01.2022
4218 Clear 17 1021 57 10000 6.17 310 23:27 20.01.2022
4219 Clear 17 1021 61 10000 5.66 310 21:50 20.01.2022
4220 Clear 17 1021 61 10000 5.14 310 21:32 20.01.2022
4221 Clear 17 1021 65 10000 5.66 300 20:40 20.01.2022
4222 Clear 18 1020 63 10000 5.14 310 19:19 20.01.2022
4223 Clear 18 1019 61 10000 4.63 320 18:23 20.01.2022
4224 Clear 19 1019 57 10000 5.66 320 16:53 20.01.2022
4225 Clear 20 1018 54 10000 5.14 320 15:40 20.01.2022
4226 Clear 21 1017 49 10000 4.63 320 14:40 20.01.2022
4227 Clear 22 1017 46 10000 4.12 310 13:33 20.01.2022
4228 Clear 22 1017 50 10000 5.66 330 12:32 20.01.2022
4229 Clear 22 1018 49 10000 5.14 310 11:49 20.01.2022
4230 Clear 21 1018 54 10000 5.66 320 10:38 20.01.2022
4231 Clear 21 1019 56 10000 4.63 310 09:34 20.01.2022
4232 Clear 19 1020 61 10000 3.6 310 07:33 20.01.2022
4233 Clear 18 1018 59 10000 3.09 310 00:44 20.01.2022
4234 Clear 18 1018 63 10000 2.57 310 22:54 19.01.2022
4235 Clear 18 1019 63 10000 3.6 320 21:48 19.01.2022
4236 Clear 18 1019 63 10000 3.09 320 21:23 19.01.2022
4237 Clear 18 1019 63 10000 3.6 320 20:46 19.01.2022
4238 Clear 18 1019 63 10000 4.12 320 19:42 19.01.2022
4239 Clear 18 1019 63 10000 5.14 330 17:55 19.01.2022
4240 Clear 18 1019 63 10000 5.14 330 17:35 19.01.2022
4241 Clear 19 1019 59 10000 6.17 340 16:46 19.01.2022
4242 Clear 20 1018 54 10000 7.2 350 14:42 19.01.2022
4243 Clear 21 1018 54 10000 6.69 350 12:41 19.01.2022
4244 Clear 22 1018 53 10000 6.69 340 11:39 19.01.2022
4245 Clear 21 1019 56 10000 7.72 340 10:20 19.01.2022
4246 Clouds 21 1020 56 10000 7.72 340 09:34 19.01.2022
4247 Clouds 18 1021 66 10000 6.17 320 06:35 19.01.2022
4248 Clouds 17 1018 73 10000 4.63 320 02:38 19.01.2022
4249 Clouds 18 1019 70 10000 4.63 320 23:19 18.01.2022
4250 Clouds 18 1019 70 10000 4.12 320 22:19 18.01.2022
4251 Clear 18 1019 75 10000 5.14 330 20:55 18.01.2022
4252 Clear 18 1019 75 10000 5.14 330 19:54 18.01.2022
4253 Clear 18 1019 75 10000 5.14 330 19:36 18.01.2022
4254 Clouds 18 1019 73 10000 5.66 330 18:38 18.01.2022
4255 Clouds 19 1019 70 10000 5.14 320 17:57 18.01.2022
4256 Clouds 19 1019 66 10000 6.69 330 16:40 18.01.2022
4257 Clouds 19 1018 70 10000 8.23 340 15:40 18.01.2022
4258 Clouds 19 1018 72 10000 8.23 340 15:21 18.01.2022
4259 Clouds 19 1018 72 10000 8.23 340 15:21 18.01.2022
4260 Clouds 20 1017 62 10000 11.83 340 12:30 18.01.2022
4261 Clouds 20 1017 68 9000 12.35 340 10:46 18.01.2022
4262 Clouds 21 1018 68 10000 10.8 340 08:49 18.01.2022
4263 Clouds 21 1018 70 9000 10.29 340 07:49 18.01.2022
4264 Clear 21 1014 86 10000 2.57 340 02:33 18.01.2022
4265 Clear 21 1014 86 10000 2.57 340 02:33 18.01.2022
4266 Clouds 21 1015 86 10000 1.54 20 23:38 17.01.2022
4267 Clouds 21 1015 86 10000 2.06 60 22:26 17.01.2022
4268 Clouds 21 1015 86 10000 1.54 30 21:33 17.01.2022
4269 Clouds 22 1016 75 10000 2.06 30 19:57 17.01.2022
4270 Clear 22 1015 76 10000 2.06 60 18:29 17.01.2022
4271 Clouds 22 1015 71 10000 1.54 40 17:25 17.01.2022
4272 Clouds 22 1014 74 10000 2.06 90 16:35 17.01.2022
4273 Clear 23 1014 68 10000 2.06 70 15:18 17.01.2022
4274 Clear 23 1014 68 10000 2.06 80 14:43 17.01.2022
4275 Clouds 23 1014 76 10000 2.06 70 13:20 17.01.2022
4276 Clouds 24 1014 71 10000 2.06 80 12:55 17.01.2022
4277 Clouds 24 1013 71 10000 4.12 60 11:48 17.01.2022
4278 Clouds 24 1014 71 10000 4.12 70 10:21 17.01.2022
4279 Clear 24 1015 67 10000 4.63 50 09:34 17.01.2022
4280 Clear 23 1016 71 10000 4.12 70 07:23 17.01.2022
4281 Clear 19 1013 86 10000 2.06 360 02:55 17.01.2022
4282 Clear 19 1013 89 10000 2.57 10 00:55 17.01.2022
4283 Clear 19 1013 85 8000 3.6 350 22:18 16.01.2022
4284 Clear 20 1013 80 8000 3.09 330 20:34 16.01.2022
4285 Clear 20 1013 77 10000 3.09 340 18:51 16.01.2022
4286 Clear 21 1012 73 10000 3.09 340 17:59 16.01.2022
4287 Clouds 22 1012 68 10000 2.57 300 16:59 16.01.2022
4288 Clouds 22 1011 69 10000 2.06 300 16:31 16.01.2022
4289 Clouds 23 1010 64 10000 3.6 210 14:31 16.01.2022
4290 Clouds 23 1010 66 10000 5.14 200 13:45 16.01.2022
4291 Clouds 23 1010 62 10000 5.66 200 12:44 16.01.2022
4292 Clouds 23 1010 64 10000 7.2 200 11:40 16.01.2022
4293 Clouds 22 1011 73 10000 6.17 200 10:46 16.01.2022
4294 Thunderstorm 21 1012 69 10000 7.2 200 09:59 16.01.2022
4295 Thunderstorm 21 1012 69 10000 7.2 200 09:40 16.01.2022
4296 Clouds 21 1012 72 10000 4.63 190 09:22 16.01.2022
4297 Clouds 20 1013 75 10000 4.63 180 07:25 16.01.2022
4298 Clouds 21 1008 79 10000 7.2 100 00:38 16.01.2022
4299 Clouds 22 1010 76 10000 5.66 90 23:34 15.01.2022
4300 Clouds 21 1010 78 10000 6.17 70 21:23 15.01.2022
4301 Clouds 21 1011 78 9000 3.6 50 20:56 15.01.2022
4302 Rain 21 1011 76 9000 3.6 50 20:36 15.01.2022
4303 Clouds 21 1011 76 10000 8.23 90 19:28 15.01.2022
4304 Clouds 21 1010 76 6000 6.17 60 18:28 15.01.2022
4305 Rain 21 1011 76 8000 4.12 40 16:52 15.01.2022
4306 Dust 22 1010 68 5000 2.06 40 15:38 15.01.2022
4307 Dust 23 1011 60 3000 2.57 60 13:35 15.01.2022
4308 Dust 24 1010 47 3500 7.2 160 11:46 15.01.2022
4309 Rain 24 1012 46 10000 4.63 170 09:49 15.01.2022
4310 Clear 21 1013 76 10000 6.69 150 05:26 15.01.2022
4311 Rain 22 1013 76 10000 6.17 110 23:44 14.01.2022
4312 Clear 21 1015 81 10000 2.06 70 21:29 14.01.2022
4313 Clear 21 1015 79 10000 2.06 20 20:37 14.01.2022
4314 Clear 21 1015 76 10000 1.54 40 19:56 14.01.2022
4315 Clear 21 1014 76 10000 2.57 60 18:43 14.01.2022
4316 Clear 21 1013 81 10000 1.54 50 17:53 14.01.2022
4317 Clear 21 1013 81 10000 2.06 40 16:47 14.01.2022
4318 Clear 21 1013 81 10000 2.57 40 15:33 14.01.2022
4319 Clear 22 1012 71 10000 4.12 110 14:29 14.01.2022
4320 Clear 23 1012 68 10000 6.69 130 12:59 14.01.2022
4321 Clear 23 1012 68 10000 6.17 130 11:59 14.01.2022
4322 Clear 23 1013 68 10000 6.69 130 10:40 14.01.2022
4323 Clouds 22 1015 72 8000 7.72 130 08:53 14.01.2022
4324 Clouds 22 1016 75 7000 6.69 140 07:35 14.01.2022
4325 Clear 18 1015 89 6000 2.06 150 02:28 14.01.2022
4326 Clear 19 1015 83 6000 2.57 150 00:35 14.01.2022
4327 Clear 19 1016 78 9000 2.06 120 21:55 13.01.2022
4328 Clear 20 1016 73 9000 2.06 140 21:30 13.01.2022
4329 Clear 19 1016 82 10000 2.57 160 20:27 13.01.2022
4330 Clear 20 1016 73 10000 2.57 130 19:30 13.01.2022
4331 Clear 20 1016 73 10000 3.09 130 18:50 13.01.2022
4332 Clear 20 1016 88 7000 3.6 110 16:58 13.01.2022
4333 Clear 21 1016 76 7000 3.09 110 15:49 13.01.2022
4334 Clear 21 1016 76 8000 4.12 110 15:26 13.01.2022
4335 Clear 24 1015 50 10000 4.12 120 13:36 13.01.2022
4336 Clear 25 1015 41 10000 4.12 100 11:38 13.01.2022
4337 Clear 26 1018 37 8000 0.51 0 09:37 13.01.2022
4338 Clear 25 1019 42 8000 1.03 0 08:52 13.01.2022
4339 Clear 24 1019 45 8000 1.54 190 08:18 13.01.2022
4340 Clear 22 1019 60 7000 1.54 0 07:20 13.01.2022
4341 Haze 17 1019 80 5000 1.54 240 05:21 13.01.2022
4342 Haze 17 1019 75 5000 3.09 230 04:55 13.01.2022
4343 Clear 16 1017 77 10000 1.54 190 01:46 13.01.2022
4344 Clear 17 1018 77 10000 1.54 220 23:54 12.01.2022
4345 Clear 17 1018 77 10000 1.54 220 23:34 12.01.2022
4346 Clear 18 1018 72 10000 1.03 210 22:49 12.01.2022
4347 Clear 18 1018 68 10000 1.03 220 21:54 12.01.2022
4348 Clear 18 1018 68 10000 1.03 220 21:21 12.01.2022
4349 Clear 19 1019 68 10000 1.03 180 20:53 12.01.2022
4350 Clear 19 1019 66 10000 1.03 140 19:24 12.01.2022
4351 Clear 20 1019 64 10000 1.03 130 18:27 12.01.2022
4352 Clear 21 1018 60 10000 2.06 120 16:59 12.01.2022
4353 Clear 21 1018 60 10000 2.57 140 15:53 12.01.2022
4354 Clear 22 1017 49 10000 3.09 100 14:46 12.01.2022
4355 Clear 23 1017 49 10000 2.57 90 12:58 12.01.2022
4356 Clouds 24 1019 38 9000 2.06 30 09:58 12.01.2022
4357 Haze 21 1021 66 5000 1.03 0 07:59 12.01.2022
4358 Mist 21 1021 68 4500 1.03 0 07:33 12.01.2022
4359 Clear 17 1020 83 10000 0 0 05:30 12.01.2022
4360 Clear 16 1019 77 10000 0.51 0 23:29 11.01.2022
4361 Clear 17 1019 77 10000 0.51 0 22:41 11.01.2022
4362 Clear 17 1019 77 10000 0.51 0 22:20 11.01.2022
4363 Clear 19 1020 75 10000 2.06 140 20:40 11.01.2022
4364 Clear 19 1020 75 10000 1.54 140 19:41 11.01.2022
4365 Clear 19 1020 73 10000 2.06 130 18:22 11.01.2022
4366 Clear 20 1020 68 10000 2.06 130 16:59 11.01.2022
4367 Clear 20 1019 64 10000 2.57 120 16:35 11.01.2022
4368 Clear 21 1019 56 10000 2.06 70 14:57 11.01.2022
4369 Clear 21 1019 53 10000 2.06 70 14:39 11.01.2022
4370 Clear 22 1019 51 10000 3.6 90 13:53 11.01.2022
4371 Clear 22 1019 53 10000 3.6 90 13:31 11.01.2022
4372 Clear 22 1018 53 10000 4.12 110 12:37 11.01.2022
4373 Clear 23 1019 45 10000 3.6 110 10:52 11.01.2022
4374 Clear 22 1022 53 10000 2.06 140 08:53 11.01.2022
4375 Clear 18 1022 65 7000 1.54 250 06:22 11.01.2022
4376 Clear 15 1019 75 10000 1.03 230 00:28 11.01.2022
4377 Clear 15 1019 72 10000 1.03 180 23:40 10.01.2022
4378 Clear 15 1019 73 10000 1.03 90 22:43 10.01.2022
4379 Clear 15 1019 73 10000 1.03 90 22:18 10.01.2022
4380 Clear 15 1019 72 10000 1.03 90 21:42 10.01.2022
4381 Clear 15 1019 75 10000 0 0 21:18 10.01.2022
4382 Clear 15 1020 67 10000 0 0 20:55 10.01.2022
4383 Clear 15 1020 67 10000 0.51 100 20:24 10.01.2022
4384 Clear 17 1020 66 10000 0.51 0 19:41 10.01.2022
4385 Clear 16 1020 63 10000 0 0 19:19 10.01.2022
4386 Clear 16 1020 61 10000 1.03 120 18:48 10.01.2022
4387 Clear 18 1019 59 10000 1.54 120 16:59 10.01.2022
4388 Clear 19 1019 54 10000 1.54 140 16:41 10.01.2022
4389 Clear 20 1018 41 10000 2.57 110 15:20 10.01.2022
4390 Clear 21 1017 43 10000 3.6 100 13:39 10.01.2022
4391 Clear 21 1018 43 10000 3.09 90 11:57 10.01.2022
4392 Clear 21 1018 40 10000 3.6 90 11:24 10.01.2022
4393 Clear 21 1019 42 10000 1.54 90 09:46 10.01.2022
4394 Clear 17 1020 51 9000 0.51 0 06:22 10.01.2022
4395 Clear 16 1019 58 9000 0 0 05:49 10.01.2022
4396 Clear 14 1018 64 10000 1.54 250 01:26 10.01.2022
4397 Clear 15 1019 65 10000 1.03 240 00:23 10.01.2022
4398 Clear 15 1019 65 10000 0.51 0 23:28 09.01.2022
4399 Clear 16 1019 59 10000 0 0 22:33 09.01.2022
4400 Clear 15 1019 62 10000 0 0 21:42 09.01.2022
4401 Clear 16 1020 59 10000 1.03 330 21:23 09.01.2022
4402 Clear 16 1020 59 10000 1.03 330 21:23 09.01.2022
4403 Clear 16 1020 59 10000 1.03 330 21:23 09.01.2022
4404 Clear 16 1020 61 10000 1.03 310 20:50 09.01.2022
4405 Clear 17 1020 59 10000 1.54 310 20:29 09.01.2022
4406 Clear 17 1020 59 10000 2.57 340 19:44 09.01.2022
4407 Clear 17 1020 59 10000 2.57 340 19:23 09.01.2022
4408 Clear 18 1019 63 10000 3.6 10 18:49 09.01.2022
4409 Clear 18 1019 63 10000 3.6 10 18:30 09.01.2022
4410 Clear 18 1019 68 10000 3.09 10 17:30 09.01.2022
4411 Clear 19 1019 63 10000 1.54 30 16:51 09.01.2022
4412 Clear 20 1018 52 10000 2.57 50 15:57 09.01.2022
4413 Clear 20 1018 52 10000 2.57 50 15:34 09.01.2022
4414 Clear 21 1018 49 10000 3.6 40 14:40 09.01.2022
4415 Clear 20 1017 56 10000 4.63 20 13:50 09.01.2022
4416 Clear 21 1018 49 10000 2.57 30 12:48 09.01.2022
4417 Clear 21 1018 49 10000 3.09 30 11:48 09.01.2022
4418 Clear 21 1019 48 10000 2.06 330 10:49 09.01.2022
4419 Clear 21 1020 46 10000 1.03 0 09:42 09.01.2022
4420 Clear 20 1021 53 10000 2.06 290 08:34 09.01.2022
4421 Clear 15 1020 80 8000 1.54 270 03:55 09.01.2022
4422 Clear 15 1019 70 8000 2.57 280 01:23 09.01.2022
4423 Clear 16 1019 65 10000 2.57 310 23:39 08.01.2022
4424 Clear 17 1020 67 8000 2.06 300 22:59 08.01.2022
4425 Clear 17 1020 67 8000 2.06 300 22:19 08.01.2022
4426 Clear 17 1020 70 8000 2.06 310 21:25 08.01.2022
4427 Clear 17 1020 70 8000 1.54 310 20:41 08.01.2022
4428 Clear 17 1020 70 8000 2.06 330 20:19 08.01.2022
4429 Clear 18 1021 68 9000 3.6 330 18:34 08.01.2022
4430 Clouds 19 1020 66 10000 3.6 340 17:22 08.01.2022
4431 Clouds 20 1019 60 10000 4.63 360 15:51 08.01.2022
4432 Clouds 21 1019 52 10000 3.6 360 14:43 08.01.2022
4433 Clouds 21 1018 51 10000 4.12 360 13:25 08.01.2022
4434 Clear 21 1019 53 10000 3.09 360 11:24 08.01.2022
4435 Clear 21 1020 58 10000 1.54 0 10:25 08.01.2022
4436 Clear 21 1020 52 10000 2.06 310 09:47 08.01.2022
4437 Clear 18 1022 67 10000 2.06 300 07:21 08.01.2022
4438 Clear 16 1019 80 7000 2.57 300 02:45 08.01.2022
4439 Clear 16 1019 75 7000 3.09 300 00:41 08.01.2022
4440 Clear 17 1020 77 7000 2.57 310 22:47 07.01.2022
4441 Clear 17 1020 72 7000 2.57 310 20:58 07.01.2022
4442 Clear 17 1020 72 7000 3.6 310 20:19 07.01.2022
4443 Clouds 18 1020 68 8000 3.09 310 19:18 07.01.2022
4444 Clear 18 1020 68 10000 3.09 310 18:44 07.01.2022
4445 Clouds 19 1020 65 10000 4.63 330 17:26 07.01.2022
4446 Clouds 19 1020 63 10000 2.57 360 16:30 07.01.2022
4447 Clouds 21 1019 50 10000 4.63 340 13:56 07.01.2022
4448 Clouds 21 1019 50 10000 4.63 340 13:38 07.01.2022
4449 Clouds 21 1019 48 10000 4.12 340 12:49 07.01.2022
4450 Clear 20 1021 52 10000 4.12 300 09:37 07.01.2022
4451 Clear 15 1019 72 10000 5.14 310 02:56 07.01.2022
4452 Clear 15 1019 65 10000 5.66 300 01:54 07.01.2022
4453 Clear 15 1019 65 10000 5.66 310 01:28 07.01.2022
4454 Clear 15 1019 63 10000 5.66 300 00:58 07.01.2022
4455 Clear 15 1019 63 10000 5.66 300 23:53 06.01.2022
4456 Clear 16 1019 70 10000 4.63 290 21:28 06.01.2022
4457 Clear 16 1020 73 10000 5.66 290 20:22 06.01.2022
4458 Clear 16 1020 75 10000 5.14 300 19:45 06.01.2022
4459 Clear 17 1020 72 10000 5.66 300 18:29 06.01.2022
4460 Clear 17 1020 70 10000 6.17 300 17:40 06.01.2022
4461 Clouds 17 1020 68 10000 4.63 300 16:44 06.01.2022
4462 Clouds 18 1019 61 10000 6.17 310 15:47 06.01.2022
4463 Clouds 18 1019 61 10000 6.17 310 15:26 06.01.2022
4464 Clouds 19 1018 55 10000 6.17 310 14:51 06.01.2022
4465 Clouds 19 1018 55 10000 6.17 310 14:18 06.01.2022
4466 Clouds 20 1017 49 10000 7.72 320 12:50 06.01.2022
4467 Clouds 21 1018 47 10000 7.72 310 11:43 06.01.2022
4468 Clouds 21 1018 47 10000 7.72 310 11:22 06.01.2022
4469 Clear 20 1020 52 10000 6.69 300 08:59 06.01.2022
4470 Clear 15 1018 53 10000 4.63 290 01:37 06.01.2022
4471 Clear 15 1019 49 10000 4.12 290 23:38 05.01.2022
4472 Clear 15 1019 47 10000 3.6 290 22:59 05.01.2022
4473 Clear 15 1019 46 10000 3.6 280 22:33 05.01.2022
4474 Clear 15 1019 44 10000 3.6 290 21:52 05.01.2022
4475 Clear 16 1020 40 10000 3.6 290 21:21 05.01.2022
4476 Clear 15 1020 39 10000 3.09 290 20:19 05.01.2022
4477 Clear 16 1019 39 10000 4.63 310 18:50 05.01.2022
4478 Clear 16 1020 38 10000 5.14 310 17:45 05.01.2022
4479 Clear 16 1019 39 10000 5.66 300 16:51 05.01.2022
4480 Clear 17 1019 41 10000 4.63 300 15:43 05.01.2022
4481 Clear 18 1018 45 10000 5.66 300 14:24 05.01.2022
4482 Clear 19 1018 28 10000 5.66 310 13:25 05.01.2022
4483 Clear 19 1018 38 10000 6.17 300 11:45 05.01.2022
4484 Clear 17 1020 48 10000 5.14 290 08:20 05.01.2022
4485 Clear 15 1020 42 10000 4.63 290 06:25 05.01.2022
4486 Clear 15 1019 51 10000 5.66 300 00:59 05.01.2022
4487 Clear 15 1019 49 10000 4.63 290 23:29 04.01.2022
4488 Clear 15 1019 55 10000 5.14 300 22:58 04.01.2022
4489 Clear 16 1019 59 10000 5.14 290 21:31 04.01.2022
4490 Clear 17 1019 67 10000 5.14 310 19:22 04.01.2022
4491 Clear 18 1019 56 10000 4.12 300 17:54 04.01.2022
4492 Clear 18 1019 52 10000 4.12 300 16:53 04.01.2022
4493 Clear 18 1019 50 10000 5.14 290 16:25 04.01.2022
4494 Clear 20 1018 42 10000 5.66 300 14:54 04.01.2022
4495 Clear 20 1018 46 10000 5.14 310 14:36 04.01.2022
4496 Clouds 21 1017 46 10000 5.66 300 13:40 04.01.2022
4497 Clouds 21 1017 49 10000 5.66 320 10:52 04.01.2022
4498 Clear 20 1017 50 10000 5.14 310 09:47 04.01.2022
4499 Clear 20 1019 52 10000 4.12 310 08:34 04.01.2022
4500 Clear 16 1017 57 10000 3.6 290 03:39 04.01.2022
4501 Clear 16 1017 61 10000 3.09 300 00:42 04.01.2022
4502 Clear 17 1016 57 8000 5.66 310 23:41 03.01.2022
4503 Clear 17 1016 61 8000 6.17 300 22:21 03.01.2022
4504 Clear 18 1016 63 8000 6.17 300 21:34 03.01.2022
4505 Clear 18 1017 70 8000 4.63 310 20:28 03.01.2022
4506 Clouds 18 1016 75 6000 4.63 310 18:54 03.01.2022
4507 Clear 19 1016 70 7000 4.63 310 18:28 03.01.2022
4508 Clear 19 1015 72 8000 4.63 310 17:18 03.01.2022
4509 Clear 20 1014 64 8000 4.63 300 15:50 03.01.2022
4510 Clear 21 1013 58 7000 4.63 310 14:31 03.01.2022
4511 Haze 22 1012 60 6000 5.66 320 12:48 03.01.2022
4512 Clear 22 1012 56 9000 4.12 310 11:39 03.01.2022
4513 Clouds 22 1012 56 9000 4.63 310 10:37 03.01.2022
4514 Clouds 21 1014 64 9000 4.12 320 08:48 03.01.2022
4515 Haze 20 1014 75 5000 5.14 320 07:36 03.01.2022
4516 Clear 21 1010 81 10000 3.09 330 01:55 03.01.2022
4517 Dust 22 1009 78 9000 0 0 23:22 02.01.2022
4518 Dust 22 1010 78 9000 1.54 330 22:55 02.01.2022
4519 Clear 23 1010 68 7000 1.54 320 21:52 02.01.2022
4520 Haze 24 1010 62 5000 1.54 230 20:41 02.01.2022
4521 Haze 24 1010 62 5000 1.54 230 20:22 02.01.2022
4522 Haze 25 1010 57 5000 2.06 220 19:31 02.01.2022
4523 Haze 25 1009 57 4500 2.57 240 18:51 02.01.2022
4524 Haze 26 1009 55 4000 4.12 180 17:56 02.01.2022
4525 Haze 26 1009 55 4000 4.12 180 17:37 02.01.2022
4526 Haze 26 1009 55 4000 5.14 190 17:18 02.01.2022
4527 Haze 26 1008 52 3000 6.17 180 16:27 02.01.2022
4528 Haze 28 1007 51 1900 8.23 170 14:34 02.01.2022
4529 Dust 26 1007 57 1500 7.72 160 12:57 02.01.2022
4530 Dust 26 1007 57 2000 7.72 160 12:25 02.01.2022
4531 Dust 27 1008 53 3000 9.26 170 11:33 02.01.2022
4532 Dust 26 1009 55 6000 10.8 170 10:49 02.01.2022
4533 Clouds 26 1010 57 9000 9.77 180 09:52 02.01.2022
4534 Clear 24 1012 76 10000 5.14 100 07:26 02.01.2022
4535 Clouds 22 1012 86 10000 5.66 110 02:19 02.01.2022
4536 Clouds 21 1013 81 10000 6.17 70 23:40 01.01.2022
4537 Clouds 21 1014 83 10000 5.66 60 22:58 01.01.2022
4538 Clouds 21 1014 83 10000 5.66 60 22:23 01.01.2022
4539 Clouds 21 1015 81 10000 6.17 70 21:44 01.01.2022
4540 Clouds 21 1015 81 10000 6.17 70 20:56 01.01.2022
4541 Clouds 21 1016 83 10000 5.14 40 19:59 01.01.2022
4542 Clouds 21 1016 81 10000 5.14 40 19:30 01.01.2022
4543 Clouds 22 1016 76 10000 3.6 60 18:20 01.01.2022
4544 Clouds 22 1016 73 10000 6.69 50 16:43 01.01.2022
4545 Clouds 22 1016 76 10000 5.14 40 16:20 01.01.2022
4546 Clouds 22 1016 76 10000 5.66 50 15:27 01.01.2022
4547 Clouds 22 1016 79 10000 5.14 40 14:21 01.01.2022
4548 Clouds 22 1017 74 10000 5.14 40 12:50 01.01.2022
4549 Clouds 23 1017 71 10000 5.66 70 11:58 01.01.2022
4550 Clouds 23 1017 71 10000 5.66 60 11:23 01.01.2022
4551 Clouds 23 1017 76 10000 6.17 80 10:40 01.01.2022
4552 Clouds 23 1018 74 10000 5.14 80 09:46 01.01.2022
4553 Clouds 23 1020 71 10000 4.12 70 08:26 01.01.2022
4554 Clouds 23 1020 68 10000 4.63 70 07:55 01.01.2022
4555 Clouds 23 1020 68 10000 4.63 70 07:34 01.01.2022
4556 Clouds 22 1019 76 10000 4.12 70 06:41 01.01.2022
4557 Clear 20 1018 77 10000 4.12 80 04:38 01.01.2022
4558 Clear 20 1017 77 10000 4.63 70 02:54 01.01.2022
4559 Clear 20 1018 80 10000 4.63 10 23:44 31.12.2021
4560 Thunderstorm 19 1019 88 10000 5.66 10 21:54 31.12.2021
4561 Rain 20 1019 82 3000 8.23 340 20:41 31.12.2021
4562 Clouds 22 1018 64 10000 5.66 20 19:31 31.12.2021
4563 Clouds 22 1018 70 10000 5.66 10 18:44 31.12.2021
4564 Clouds 21 1018 71 10000 6.17 360 17:45 31.12.2021
4565 Clouds 21 1018 71 10000 6.69 350 17:19 31.12.2021
4566 Clouds 22 1018 76 8000 6.17 360 16:44 31.12.2021
4567 Clouds 22 1017 78 8000 5.14 360 15:58 31.12.2021
4568 Clouds 22 1017 81 8000 5.14 360 15:31 31.12.2021
4569 Clouds 22 1017 83 8000 5.14 360 14:57 31.12.2021
4570 Clouds 23 1017 78 8000 4.63 10 14:33 31.12.2021
4571 Clouds 24 1016 69 8000 5.14 20 13:43 31.12.2021
4572 Clouds 24 1016 66 9000 4.63 40 12:49 31.12.2021
4573 Clouds 24 1016 66 9000 4.63 40 12:19 31.12.2021
4574 Clear 24 1017 62 10000 5.66 360 11:33 31.12.2021
4575 Clear 24 1017 60 10000 5.66 360 10:41 31.12.2021
4576 Clear 24 1017 62 10000 6.17 350 10:23 31.12.2021
4577 Clear 24 1018 58 10000 5.14 340 09:33 31.12.2021
4578 Clear 24 1019 54 10000 4.12 330 08:49 31.12.2021
4579 Clear 23 1019 60 10000 4.12 320 07:49 31.12.2021
4580 Clouds 20 1015 75 10000 1.03 0 01:38 31.12.2021
4581 Clouds 21 1016 79 10000 0.51 0 22:54 30.12.2021
4582 Clouds 21 1016 79 10000 1.54 140 22:27 30.12.2021
4583 Clouds 22 1017 76 10000 2.06 200 21:37 30.12.2021
4584 Clouds 22 1017 78 10000 2.06 140 20:58 30.12.2021
4585 Clouds 22 1017 74 10000 2.06 140 20:35 30.12.2021
4586 Clouds 22 1017 71 10000 2.57 140 19:50 30.12.2021
4587 Clouds 22 1017 71 10000 2.57 130 19:24 30.12.2021
4588 Clouds 22 1016 72 10000 1.54 120 18:26 30.12.2021
4589 Clouds 22 1015 76 10000 3.09 90 16:39 30.12.2021
4590 Clouds 22 1015 76 10000 3.09 110 15:53 30.12.2021
4591 Clouds 23 1015 69 10000 4.63 110 14:51 30.12.2021
4592 Clouds 23 1014 69 10000 5.66 100 14:31 30.12.2021
4593 Clouds 24 1015 62 10000 4.12 100 13:24 30.12.2021
4594 Clouds 24 1015 62 10000 3.6 70 11:45 30.12.2021
4595 Clouds 24 1016 62 10000 3.6 70 10:28 30.12.2021
4596 Clouds 22 1017 75 10000 3.09 50 09:27 30.12.2021
4597 Clouds 21 1018 73 10000 1.54 360 06:56 30.12.2021
4598 Clear 18 1017 82 10000 2.57 330 04:56 30.12.2021
4599 Clear 18 1016 80 10000 2.06 330 03:40 30.12.2021
4600 Clear 18 1016 80 10000 1.54 360 02:19 30.12.2021
4601 Clear 19 1017 77 10000 3.09 340 23:37 29.12.2021
4602 Clouds 19 1017 75 10000 3.6 330 22:35 29.12.2021
4603 Clouds 19 1018 75 10000 3.09 330 21:55 29.12.2021
4604 Rain 19 1018 70 10000 3.6 330 20:57 29.12.2021
4605 Rain 19 1018 70 10000 3.6 330 20:26 29.12.2021
4606 Clear 20 1018 64 10000 3.6 340 19:31 29.12.2021
4607 Clear 20 1018 62 10000 3.6 330 18:36 29.12.2021
4608 Clear 20 1018 64 10000 4.63 330 17:42 29.12.2021
4609 Clear 20 1018 64 10000 4.63 330 17:23 29.12.2021
4610 Clear 21 1017 66 10000 4.63 340 16:21 29.12.2021
4611 Clear 21 1017 71 10000 4.12 340 15:21 29.12.2021
4612 Clear 21 1016 68 10000 5.66 10 12:57 29.12.2021
4613 Clear 21 1016 66 10000 6.69 350 12:33 29.12.2021
4614 Clear 21 1017 62 10000 8.23 330 11:23 29.12.2021
4615 Clouds 22 1019 64 9000 5.66 320 09:30 29.12.2021
4616 Clouds 22 1020 60 9000 5.14 290 07:45 29.12.2021
4617 Clouds 20 1020 66 7000 4.12 290 06:33 29.12.2021
4618 Clouds 19 1019 72 8000 2.57 300 05:56 29.12.2021
4619 Clear 18 1018 77 8000 2.57 280 04:58 29.12.2021
4620 Clear 18 1016 75 10000 1.03 0 00:45 29.12.2021
4621 Clear 19 1017 68 10000 2.06 290 23:58 28.12.2021
4622 Clear 19 1017 68 10000 2.57 300 22:57 28.12.2021
4623 Clear 19 1017 68 10000 2.57 300 22:57 28.12.2021
4624 Clear 19 1017 66 10000 2.57 300 22:25 28.12.2021
4625 Clear 19 1018 66 10000 2.57 300 21:54 28.12.2021
4626 Clear 19 1018 66 10000 2.57 300 21:35 28.12.2021
4627 Clear 20 1018 64 10000 3.09 330 20:32 28.12.2021
4628 Clear 20 1019 64 10000 3.09 330 18:54 28.12.2021
4629 Clear 20 1019 64 10000 3.6 330 18:28 28.12.2021
4630 Clear 20 1019 71 10000 3.09 340 17:39 28.12.2021
4631 Clear 21 1018 64 10000 3.09 360 16:21 28.12.2021
4632 Clear 21 1018 64 10000 3.6 360 15:41 28.12.2021
4633 Clear 22 1017 60 10000 5.14 10 14:56 28.12.2021
4634 Clear 22 1017 60 10000 5.14 10 14:56 28.12.2021
4635 Clear 22 1017 60 10000 5.14 10 14:38 28.12.2021
4636 Clear 22 1017 60 10000 5.14 10 14:38 28.12.2021
4637 Clear 22 1017 60 10000 5.14 10 14:19 28.12.2021
4638 Clear 22 1017 62 10000 5.14 10 13:37 28.12.2021
4639 Clear 23 1017 53 10000 4.12 10 12:56 28.12.2021
4640 Clear 23 1017 56 10000 5.66 360 12:21 28.12.2021
4641 Clear 23 1018 53 10000 4.63 350 10:51 28.12.2021
4642 Clear 20 1021 59 10000 4.63 310 07:39 28.12.2021
4643 Clear 17 1019 72 10000 5.14 290 03:37 28.12.2021
4644 Clear 18 1019 68 10000 4.63 310 23:41 27.12.2021
4645 Clear 18 1019 70 10000 4.12 300 22:27 27.12.2021
4646 Clear 18 1019 70 10000 4.12 300 21:31 27.12.2021
4647 Clear 18 1020 68 10000 3.6 320 20:39 27.12.2021
4648 Clear 19 1020 68 10000 5.14 310 19:55 27.12.2021
4649 Clear 19 1020 68 10000 4.63 310 19:37 27.12.2021
4650 Clear 19 1020 66 10000 4.12 310 17:55 27.12.2021
4651 Clear 19 1020 66 10000 3.6 320 17:29 27.12.2021
4652 Clear 20 1019 62 10000 5.66 320 16:26 27.12.2021
4653 Clear 20 1019 62 10000 4.63 320 15:49 27.12.2021
4654 Clear 21 1018 49 10000 6.69 330 14:26 27.12.2021
4655 Clear 22 1018 43 10000 7.2 330 13:31 27.12.2021
4656 Clear 23 1019 42 10000 5.14 320 11:20 27.12.2021
4657 Clear 23 1019 46 10000 5.14 310 10:27 27.12.2021
4658 Clear 22 1020 49 10000 5.66 320 09:38 27.12.2021
4659 Clear 20 1021 52 10000 3.09 300 07:35 27.12.2021
4660 Clear 18 1021 55 10000 4.63 290 06:30 27.12.2021
4661 Clear 17 1020 59 10000 6.17 300 01:59 27.12.2021
4662 Clear 17 1020 63 10000 4.63 310 23:50 26.12.2021
4663 Clear 17 1020 65 10000 4.63 310 23:32 26.12.2021
4664 Clear 18 1020 61 10000 4.63 300 21:48 26.12.2021
4665 Clear 18 1020 61 10000 4.63 320 20:31 26.12.2021
4666 Clear 19 1021 59 10000 5.14 310 19:27 26.12.2021
4667 Clouds 19 1021 59 10000 5.14 310 18:23 26.12.2021
4668 Clouds 20 1020 53 10000 6.69 320 15:55 26.12.2021
4669 Clear 21 1018 46 10000 7.72 330 13:52 26.12.2021
4670 Clouds 22 1018 43 9000 9.26 330 13:32 26.12.2021
4671 Clouds 22 1018 43 9000 9.26 330 12:37 26.12.2021
4672 Clouds 22 1018 43 9000 7.72 320 11:57 26.12.2021
4673 Clear 22 1019 45 10000 7.2 330 09:44 26.12.2021
4674 Clear 22 1020 46 10000 8.23 330 08:59 26.12.2021
4675 Clear 22 1020 46 10000 8.23 330 08:38 26.12.2021
4676 Clear 21 1021 52 10000 5.14 320 06:47 26.12.2021
4677 Clear 20 1018 64 10000 5.14 320 00:58 26.12.2021
4678 Clear 20 1018 62 10000 5.14 310 23:50 25.12.2021
4679 Clear 20 1018 62 10000 5.14 310 23:26 25.12.2021
4680 Clear 20 1018 58 10000 4.63 320 22:22 25.12.2021
4681 Clear 21 1018 58 10000 4.63 320 20:48 25.12.2021
4682 Clear 21 1019 60 10000 5.66 330 19:21 25.12.2021
4683 Clear 21 1019 58 10000 6.69 330 18:54 25.12.2021
4684 Clear 22 1018 58 10000 6.17 330 17:28 25.12.2021
4685 Clear 23 1017 54 10000 7.2 340 16:18 25.12.2021
4686 Clear 23 1016 62 10000 6.17 10 14:38 25.12.2021
4687 Clouds 24 1015 59 10000 7.2 10 12:48 25.12.2021
4688 Clouds 25 1016 50 10000 5.14 360 11:37 25.12.2021
4689 Clear 25 1017 48 10000 3.6 340 09:49 25.12.2021
4690 Clear 23 1018 60 10000 3.09 310 07:54 25.12.2021
4691 Clear 19 1015 68 10000 0 0 02:18 25.12.2021
4692 Clear 19 1015 66 10000 1.54 310 00:30 25.12.2021
4693 Clear 20 1015 66 10000 2.57 330 22:40 24.12.2021
4694 Clear 20 1016 64 10000 1.03 0 19:39 24.12.2021
4695 Clear 20 1016 66 10000 0.51 0 19:20 24.12.2021
4696 Clear 22 1015 52 10000 3.6 340 16:50 24.12.2021
4697 Clear 22 1015 60 10000 2.57 20 16:19 24.12.2021
4698 Clear 22 1014 66 10000 2.57 20 15:45 24.12.2021
4699 Clear 24 1014 36 10000 3.6 350 14:46 24.12.2021
4700 Clear 25 1014 34 10000 3.09 310 14:22 24.12.2021
4701 Clear 26 1014 30 10000 3.09 300 13:37 24.12.2021
4702 Clear 26 1014 31 10000 3.09 280 12:48 24.12.2021
4703 Clear 26 1014 31 10000 3.6 300 11:52 24.12.2021
4704 Clear 26 1014 31 10000 3.6 290 11:26 24.12.2021
4705 Clear 25 1015 35 10000 3.6 290 10:46 24.12.2021
4706 Clear 25 1016 41 10000 2.06 0 10:18 24.12.2021
4707 Clear 23 1017 54 10000 3.09 300 08:24 24.12.2021
4708 Clear 21 1017 62 10000 3.6 310 07:48 24.12.2021
4709 Clear 19 1015 72 10000 3.09 290 02:52 24.12.2021
4710 Clear 19 1015 68 10000 3.09 310 23:56 23.12.2021
4711 Clear 19 1015 66 10000 3.09 310 23:22 23.12.2021
4712 Clear 20 1015 64 10000 3.09 300 22:37 23.12.2021
4713 Clear 20 1015 64 10000 3.09 300 22:37 23.12.2021
4714 Clear 20 1015 64 10000 3.09 300 22:19 23.12.2021
4715 Clear 20 1015 64 10000 3.09 320 20:59 23.12.2021
4716 Clear 20 1015 62 10000 3.6 330 20:19 23.12.2021
4717 Clear 21 1016 58 10000 3.6 330 18:36 23.12.2021
4718 Clear 21 1016 60 10000 4.12 320 17:57 23.12.2021
4719 Clear 21 1016 54 10000 5.66 330 16:47 23.12.2021
4720 Clear 22 1016 53 10000 4.12 320 16:24 23.12.2021
4721 Clear 23 1016 47 10000 5.14 320 15:31 23.12.2021
4722 Clear 24 1015 44 10000 6.17 340 14:52 23.12.2021
4723 Clear 24 1015 44 10000 6.17 340 14:31 23.12.2021
4724 Clear 25 1015 38 10000 6.17 330 12:57 23.12.2021
4725 Clear 25 1016 44 10000 4.63 310 10:52 23.12.2021
4726 Clear 25 1016 44 10000 5.66 300 09:47 23.12.2021
4727 Clear 23 1017 56 10000 4.63 300 08:59 23.12.2021
4728 Clear 23 1017 56 10000 4.63 300 08:59 23.12.2021
4729 Clear 21 1018 64 10000 3.6 300 06:58 23.12.2021
4730 Clear 18 1017 73 10000 3.09 280 04:33 23.12.2021
4731 Clear 19 1016 61 10000 4.12 310 23:26 22.12.2021
4732 Clear 19 1017 59 10000 4.63 310 22:47 22.12.2021
4733 Clear 19 1017 63 10000 4.63 310 21:56 22.12.2021
4734 Clear 19 1017 61 10000 4.12 310 21:29 22.12.2021
4735 Clear 20 1017 60 10000 4.12 310 20:47 22.12.2021
4736 Clear 20 1018 60 10000 4.12 310 20:26 22.12.2021
4737 Clear 20 1018 60 10000 5.14 310 19:28 22.12.2021
4738 Clear 20 1018 58 10000 5.66 320 17:50 22.12.2021
4739 Clear 21 1018 54 10000 5.66 320 16:40 22.12.2021
4740 Clear 21 1017 51 10000 5.66 310 15:40 22.12.2021
4741 Clear 24 1016 38 10000 6.17 310 13:33 22.12.2021
4742 Clear 24 1016 35 10000 6.69 320 12:41 22.12.2021
4743 Dust 24 1018 40 6000 7.2 320 10:36 22.12.2021
4744 Dust 24 1019 43 4000 9.77 330 09:39 22.12.2021
4745 Dust 22 1020 55 4000 7.2 330 07:30 22.12.2021
4746 Dust 21 1019 60 5000 7.2 320 05:50 22.12.2021
4747 Dust 21 1019 62 5000 6.69 320 05:26 22.12.2021
4748 Clouds 21 1018 64 8000 9.26 330 04:50 22.12.2021
4749 Clouds 21 1018 64 8000 9.26 330 04:29 22.12.2021
4750 Clouds 21 1017 73 9000 8.75 330 03:33 22.12.2021
4751 Clouds 22 1016 78 9000 6.17 310 00:50 22.12.2021
4752 Clouds 22 1017 81 10000 5.14 310 23:25 21.12.2021
4753 Clear 22 1017 76 10000 4.63 300 22:28 21.12.2021
4754 Clear 23 1017 71 10000 4.63 300 21:44 21.12.2021
4755 Clear 23 1017 68 10000 4.63 290 21:22 21.12.2021
4756 Clear 24 1017 50 10000 3.6 250 20:21 21.12.2021
4757 Clear 24 1017 53 10000 2.57 210 19:43 21.12.2021
4758 Clear 23 1017 66 10000 3.09 140 18:48 21.12.2021
4759 Clear 24 1017 64 10000 3.6 130 18:21 21.12.2021
4760 Clear 24 1017 64 10000 3.09 130 17:42 21.12.2021
4761 Clear 24 1016 64 10000 4.12 140 16:26 21.12.2021
4762 Clear 25 1016 62 10000 4.12 120 15:24 21.12.2021
4763 Clear 27 1015 48 10000 5.66 130 13:51 21.12.2021
4764 Clear 27 1015 48 10000 6.69 130 13:31 21.12.2021
4765 Clear 29 1015 32 10000 5.14 180 11:57 21.12.2021
4766 Clear 28 1017 42 10000 6.17 170 10:25 21.12.2021
4767 Clear 27 1018 52 10000 5.14 160 09:27 21.12.2021
4768 Clear 25 1019 61 10000 6.17 160 07:59 21.12.2021
4769 Clear 25 1019 63 10000 6.69 150 07:29 21.12.2021
4770 Clear 24 1019 73 10000 6.17 160 06:50 21.12.2021
4771 Clear 21 1016 83 10000 3.09 150 03:18 21.12.2021
4772 Clear 21 1017 83 10000 0 0 23:59 20.12.2021
4773 Clear 21 1017 79 10000 1.03 150 23:32 20.12.2021
4774 Clear 22 1017 76 10000 0.51 130 22:33 20.12.2021
4775 Clear 22 1017 74 10000 1.03 130 21:48 20.12.2021
4776 Clear 22 1018 76 10000 0.51 120 21:24 20.12.2021
4777 Clear 23 1018 74 10000 1.03 100 20:45 20.12.2021
4778 Clear 23 1017 74 10000 2.57 120 19:54 20.12.2021
4779 Clear 23 1017 74 10000 2.57 120 19:31 20.12.2021
4780 Clear 23 1017 76 10000 2.57 100 18:54 20.12.2021
4781 Clear 23 1018 72 10000 3.09 100 17:55 20.12.2021
4782 Clear 24 1018 67 10000 2.57 100 17:25 20.12.2021
4783 Clear 24 1017 64 10000 3.6 110 16:42 20.12.2021
4784 Clear 24 1017 65 10000 3.6 110 15:51 20.12.2021
4785 Clear 25 1017 57 10000 4.63 110 14:53 20.12.2021
4786 Clear 26 1017 57 10000 5.14 110 13:18 20.12.2021
4787 Clouds 26 1018 53 10000 5.66 130 11:23 20.12.2021
4788 Clouds 26 1019 57 10000 6.17 130 09:51 20.12.2021
4789 Clouds 26 1020 55 10000 6.69 130 09:31 20.12.2021
4790 Clear 26 1020 61 10000 6.69 140 08:42 20.12.2021
4791 Clear 25 1020 61 10000 6.69 140 07:50 20.12.2021
4792 Clear 25 1020 63 10000 6.69 140 07:30 20.12.2021
4793 Clear 22 1019 76 10000 2.57 140 04:36 20.12.2021
4794 Clear 22 1018 76 10000 2.06 110 00:18 20.12.2021
4795 Clear 22 1019 74 10000 2.57 120 22:53 19.12.2021
4796 Clear 23 1019 71 10000 2.57 100 21:55 19.12.2021
4797 Clear 23 1019 71 10000 3.09 100 21:30 19.12.2021
4798 Clear 23 1019 71 10000 3.6 100 20:34 19.12.2021
4799 Clear 23 1019 64 10000 3.09 90 19:52 19.12.2021
4800 Clear 23 1019 64 10000 3.09 90 19:27 19.12.2021
4801 Clear 24 1019 62 10000 3.09 90 18:30 19.12.2021
4802 Clear 24 1019 62 10000 3.6 80 17:53 19.12.2021
4803 Clear 24 1019 62 10000 4.12 90 17:20 19.12.2021
4804 Clear 24 1018 62 10000 4.12 90 16:26 19.12.2021
4805 Clear 24 1018 61 10000 4.63 100 15:43 19.12.2021
4806 Clear 24 1018 61 10000 5.14 100 15:20 19.12.2021
4807 Clear 25 1017 57 10000 6.17 110 14:42 19.12.2021
4808 Clear 25 1018 57 10000 5.66 110 13:22 19.12.2021
4809 Clouds 25 1017 55 10000 7.2 120 12:42 19.12.2021
4810 Clouds 25 1017 55 10000 7.2 120 12:18 19.12.2021
4811 Clouds 26 1018 53 10000 7.2 130 11:19 19.12.2021
4812 Clouds 26 1018 55 10000 7.72 130 10:25 19.12.2021
4813 Clouds 26 1019 53 10000 7.2 130 09:41 19.12.2021
4814 Clear 25 1020 59 10000 8.23 140 08:25 19.12.2021
4815 Clear 22 1019 72 10000 2.57 140 04:45 19.12.2021
4816 Clear 23 1017 67 10000 4.63 130 01:22 19.12.2021
4817 Clear 23 1017 67 10000 3.6 130 00:52 19.12.2021
4818 Clear 23 1017 63 10000 4.63 120 22:36 18.12.2021
4819 Clear 23 1017 68 10000 5.14 120 21:57 18.12.2021
4820 Clear 23 1018 66 10000 4.63 120 21:35 18.12.2021
4821 Clear 23 1018 63 10000 4.12 110 20:44 18.12.2021
4822 Clear 23 1018 63 10000 4.12 110 20:18 18.12.2021
4823 Clear 23 1018 66 10000 4.12 100 19:20 18.12.2021
4824 Clear 23 1018 62 10000 4.12 100 18:21 18.12.2021
4825 Clear 24 1018 57 10000 4.12 100 17:48 18.12.2021
4826 Clear 24 1017 55 10000 4.12 100 16:26 18.12.2021
4827 Clear 24 1017 62 10000 5.14 100 15:27 18.12.2021
4828 Clear 24 1017 62 10000 6.17 110 14:38 18.12.2021
4829 Clear 25 1017 54 10000 6.69 120 13:21 18.12.2021
4830 Clear 27 1017 43 10000 6.17 120 11:22 18.12.2021
4831 Clear 26 1019 45 10000 5.66 150 09:40 18.12.2021
4832 Clear 26 1020 48 10000 6.17 150 08:47 18.12.2021
4833 Clear 26 1020 48 10000 6.17 150 08:23 18.12.2021
4834 Clear 21 1018 71 10000 3.09 140 03:42 18.12.2021
4835 Clear 22 1017 64 10000 3.6 130 00:28 18.12.2021
4836 Clear 22 1017 64 10000 3.09 130 23:44 17.12.2021
4837 Clear 23 1017 60 10000 4.12 120 21:56 17.12.2021
4838 Clear 23 1017 60 10000 4.12 120 21:18 17.12.2021
4839 Clear 23 1019 66 10000 2.57 100 20:38 17.12.2021
4840 Clear 23 1019 64 10000 2.57 80 19:19 17.12.2021
4841 Clouds 23 1019 62 10000 3.09 80 18:38 17.12.2021
4842 Clouds 23 1018 60 10000 3.6 90 17:31 17.12.2021
4843 Clouds 23 1018 57 10000 2.06 120 16:46 17.12.2021
4844 Clouds 23 1018 57 10000 2.06 120 16:22 17.12.2021
4845 Clouds 24 1018 54 10000 4.12 120 15:21 17.12.2021
4846 Clouds 24 1018 54 10000 4.12 120 15:21 17.12.2021
4847 Clouds 24 1017 53 10000 4.12 150 14:39 17.12.2021
4848 Clouds 25 1017 57 10000 5.14 150 12:46 17.12.2021
4849 Clouds 26 1018 55 10000 6.17 130 11:34 17.12.2021
4850 Clouds 26 1019 55 10000 5.66 120 10:37 17.12.2021
4851 Clouds 27 1020 45 10000 4.63 140 09:31 17.12.2021
4852 Clear 26 1021 55 10000 4.63 160 08:30 17.12.2021
4853 Clear 22 1021 73 10000 2.57 150 05:58 17.12.2021
4854 Clear 22 1019 67 10000 2.06 160 02:53 17.12.2021
4855 Clear 22 1018 72 10000 2.06 120 23:23 16.12.2021
4856 Clear 22 1019 70 10000 1.03 120 22:24 16.12.2021
4857 Clear 22 1019 70 10000 1.03 120 22:24 16.12.2021
4858 Clear 22 1018 69 10000 3.09 110 21:50 16.12.2021
4859 Clear 22 1018 69 10000 3.09 110 21:25 16.12.2021
4860 Clear 22 1020 64 10000 1.54 150 20:28 16.12.2021
4861 Clear 23 1019 63 10000 2.06 120 19:42 16.12.2021
4862 Clear 23 1019 66 10000 2.57 130 18:38 16.12.2021
4863 Clouds 23 1019 63 10000 2.57 130 17:55 16.12.2021
4864 Clouds 23 1019 63 10000 3.6 110 17:28 16.12.2021
4865 Clouds 23 1019 59 10000 4.12 110 16:21 16.12.2021
4866 Clouds 24 1018 57 10000 4.63 110 14:50 16.12.2021
4867 Clouds 26 1018 50 10000 5.14 120 13:25 16.12.2021
4868 Clouds 27 1018 43 10000 5.14 120 11:20 16.12.2021
4869 Clouds 26 1018 47 10000 5.66 130 10:58 16.12.2021
4870 Clouds 26 1019 53 10000 5.66 130 10:20 16.12.2021
4871 Clear 25 1021 63 10000 4.12 140 07:31 16.12.2021
4872 Clear 24 1021 67 10000 1.03 120 06:19 16.12.2021
4873 Clear 22 1018 74 10000 1.03 150 00:54 16.12.2021
4874 Clear 22 1018 74 10000 2.06 120 23:25 15.12.2021
4875 Clear 22 1018 74 10000 2.06 120 22:41 15.12.2021
4876 Clear 22 1019 74 10000 1.54 130 21:55 15.12.2021
4877 Clear 22 1019 74 10000 1.54 130 21:26 15.12.2021
4878 Clear 22 1019 72 10000 1.03 110 20:18 15.12.2021
4879 Clear 22 1019 75 10000 1.03 100 19:45 15.12.2021
4880 Clear 22 1019 74 10000 0.51 70 18:37 15.12.2021
4881 Clear 22 1018 74 10000 2.06 100 17:53 15.12.2021
4882 Clear 22 1018 74 10000 2.06 100 17:34 15.12.2021
4883 Clear 23 1019 71 10000 1.54 90 16:28 15.12.2021
4884 Clear 23 1018 69 10000 2.06 100 15:46 15.12.2021
4885 Clear 23 1018 69 10000 2.57 110 15:27 15.12.2021
4886 Clear 24 1018 64 10000 4.63 130 14:18 15.12.2021
4887 Clear 25 1017 53 10000 5.66 130 12:37 15.12.2021
4888 Clear 25 1019 53 10000 4.63 130 10:27 15.12.2021
4889 Clear 25 1020 55 10000 3.09 160 08:55 15.12.2021
4890 Clouds 24 1020 61 8000 2.57 160 07:25 15.12.2021
4891 Clouds 18 1018 80 8000 0.51 0 01:20 15.12.2021
4892 Clouds 19 1018 80 9000 0 0 23:42 14.12.2021
4893 Clear 20 1018 73 10000 0.51 260 22:49 14.12.2021
4894 Clear 20 1018 73 10000 0.51 260 22:19 14.12.2021
4895 Clear 22 1018 73 10000 0 0 20:28 14.12.2021
4896 Clear 21 1018 73 10000 1.03 0 19:43 14.12.2021
4897 Clear 22 1018 73 10000 1.54 330 18:53 14.12.2021
4898 Clear 22 1018 73 10000 1.54 340 18:22 14.12.2021
4899 Clear 22 1018 73 10000 2.57 350 17:30 14.12.2021
4900 Clear 23 1017 70 9000 3.09 350 16:39 14.12.2021
4901 Clouds 23 1017 68 9000 4.12 350 15:35 14.12.2021
4902 Clouds 25 1017 58 9000 4.63 10 13:31 14.12.2021
4903 Clear 25 1017 57 10000 5.14 10 11:59 14.12.2021
4904 Clear 25 1017 58 10000 5.66 350 11:24 14.12.2021
4905 Clear 24 1018 59 10000 5.66 350 09:57 14.12.2021
4906 Clear 24 1018 59 10000 5.66 350 09:35 14.12.2021
4907 Clear 24 1020 60 10000 5.14 340 08:27 14.12.2021
4908 Clear 23 1020 62 10000 5.66 340 07:43 14.12.2021
4909 Clear 20 1018 77 10000 2.57 300 02:37 14.12.2021
4910 Clouds 20 1018 77 10000 3.09 310 22:56 13.12.2021
4911 Clouds 21 1018 73 10000 3.09 300 21:53 13.12.2021
4912 Clouds 21 1019 73 10000 3.6 310 21:18 13.12.2021
4913 Clear 21 1019 71 10000 3.09 300 20:42 13.12.2021
4914 Clear 21 1019 71 10000 3.09 300 19:52 13.12.2021
4915 Clear 22 1019 66 10000 3.09 320 18:24 13.12.2021
4916 Clouds 22 1019 64 10000 5.14 330 17:26 13.12.2021
4917 Clear 24 1018 53 10000 1.54 20 15:54 13.12.2021
4918 Clouds 24 1018 53 10000 1.54 350 15:25 13.12.2021
4919 Clouds 25 1018 49 10000 3.09 20 13:39 13.12.2021
4920 Clouds 25 1018 49 10000 3.09 350 12:49 13.12.2021
4921 Clouds 25 1018 51 10000 4.12 360 11:56 13.12.2021
4922 Clouds 25 1018 51 10000 3.09 340 11:35 13.12.2021
4923 Clouds 25 1018 48 10000 3.09 300 10:44 13.12.2021
4924 Clear 24 1020 51 10000 3.6 300 09:32 13.12.2021
4925 Clear 21 1021 62 9000 3.09 280 07:48 13.12.2021
4926 Clear 18 1020 75 8000 3.09 280 05:35 13.12.2021
4927 Clear 18 1019 75 10000 2.57 290 03:28 13.12.2021
4928 Clear 19 1019 72 10000 4.12 290 23:22 12.12.2021
4929 Clear 19 1020 75 10000 4.63 300 21:40 12.12.2021
4930 Clear 20 1020 73 10000 4.63 310 19:57 12.12.2021
4931 Clear 20 1020 71 10000 4.12 300 18:43 12.12.2021
4932 Clear 21 1020 68 10000 4.12 310 17:38 12.12.2021
4933 Clear 21 1020 62 10000 5.14 320 16:28 12.12.2021
4934 Clouds 22 1019 58 10000 5.14 320 15:50 12.12.2021
4935 Clouds 22 1019 58 10000 5.14 320 15:25 12.12.2021
4936 Clear 24 1019 50 10000 5.14 320 14:36 12.12.2021
4937 Clear 25 1019 44 10000 5.14 320 13:26 12.12.2021
4938 Clear 25 1018 44 10000 5.14 310 12:32 12.12.2021
4939 Clear 25 1019 44 10000 5.14 320 11:44 12.12.2021
4940 Clear 25 1019 44 10000 4.63 320 11:24 12.12.2021
4941 Clear 25 1020 47 10000 4.12 300 10:28 12.12.2021
4942 Clear 24 1021 50 10000 4.63 310 09:38 12.12.2021
4943 Clear 23 1022 49 10000 4.63 290 08:34 12.12.2021
4944 Clear 20 1022 60 10000 3.6 290 06:20 12.12.2021
4945 Clear 18 1021 63 10000 2.57 260 04:56 12.12.2021
4946 Clear 18 1021 59 10000 2.06 270 03:57 12.12.2021
4947 Clear 19 1020 68 10000 3.6 290 23:47 11.12.2021
4948 Clear 20 1021 66 10000 4.12 300 22:23 11.12.2021
4949 Clear 20 1021 66 10000 3.6 300 21:52 11.12.2021
4950 Clear 20 1021 69 10000 4.12 300 21:18 11.12.2021
4951 Clear 21 1022 64 10000 4.12 310 19:30 11.12.2021
4952 Clear 21 1022 64 10000 4.63 320 18:53 11.12.2021
4953 Clear 21 1022 64 10000 5.14 320 18:26 11.12.2021
4954 Clear 21 1021 66 10000 5.66 320 17:24 11.12.2021
4955 Clear 23 1020 48 10000 4.12 310 15:55 11.12.2021
4956 Clear 24 1020 46 10000 4.12 310 15:30 11.12.2021
4957 Clear 26 1019 44 10000 4.12 310 13:21 11.12.2021
4958 Clear 26 1020 46 10000 3.6 310 11:46 11.12.2021
4959 Clear 25 1021 52 10000 4.12 320 09:47 11.12.2021
4960 Clear 25 1022 50 10000 3.6 300 09:18 11.12.2021
4961 Clouds 20 1020 79 7000 4.12 300 02:40 11.12.2021
4962 Clear 21 1020 76 8000 2.06 290 00:42 11.12.2021
4963 Clear 21 1020 71 9000 3.09 300 23:24 10.12.2021
4964 Clear 21 1021 62 10000 1.54 300 21:57 10.12.2021
4965 Clear 21 1021 64 10000 2.06 330 21:37 10.12.2021
4966 Clear 21 1022 60 10000 2.57 330 19:22 10.12.2021
4967 Clear 23 1022 53 10000 3.09 330 18:39 10.12.2021
4968 Clouds 23 1022 54 10000 3.09 320 17:21 10.12.2021
4969 Clear 23 1021 66 10000 3.09 360 16:30 10.12.2021
4970 Clear 24 1021 59 10000 3.6 360 15:42 10.12.2021
4971 Clear 24 1021 59 10000 3.6 360 15:22 10.12.2021
4972 Clear 26 1020 40 10000 3.09 10 13:52 10.12.2021
4973 Clear 26 1020 40 10000 3.6 10 13:27 10.12.2021
4974 Clear 26 1020 43 10000 4.12 10 12:47 10.12.2021
4975 Clear 26 1020 45 10000 3.6 360 11:34 10.12.2021
4976 Clouds 25 1022 49 10000 4.12 10 10:38 10.12.2021
4977 Clouds 25 1022 50 10000 3.6 350 09:30 10.12.2021
4978 Clear 24 1023 62 10000 2.57 360 07:21 10.12.2021
4979 Clouds 20 1020 77 8000 2.06 330 02:51 10.12.2021
4980 Clouds 20 1020 77 8000 2.06 330 01:32 10.12.2021
4981 Clouds 21 1020 76 8000 3.09 330 23:38 09.12.2021
4982 Clouds 22 1020 78 8000 3.09 330 22:41 09.12.2021
4983 Clouds 22 1020 78 8000 3.09 330 22:20 09.12.2021
4984 Clouds 22 1020 73 9000 2.57 330 21:20 09.12.2021
4985 Clear 22 1021 78 10000 2.57 330 20:34 09.12.2021
4986 Clear 23 1021 71 10000 2.57 20 19:22 09.12.2021
4987 Clear 23 1020 73 10000 3.09 20 18:53 09.12.2021
4988 Clear 24 1021 69 10000 3.6 20 17:57 09.12.2021
4989 Clear 23 1020 76 10000 3.6 20 17:28 09.12.2021
4990 Clear 23 1020 74 10000 4.12 20 16:57 09.12.2021
4991 Clear 24 1020 69 10000 3.09 20 16:20 09.12.2021
4992 Clouds 24 1020 71 10000 4.63 20 14:52 09.12.2021
4993 Clouds 25 1020 61 10000 5.66 350 13:51 09.12.2021
4994 Clouds 26 1019 61 10000 5.66 350 12:47 09.12.2021
4995 Clouds 26 1019 57 10000 4.12 360 11:25 09.12.2021
4996 Clouds 26 1020 57 10000 4.12 350 10:19 09.12.2021
4997 Clear 23 1021 68 10000 2.57 330 06:51 09.12.2021
4998 Clouds 19 1020 77 8000 0.51 0 03:50 09.12.2021
4999 Clear 21 1019 75 10000 1.54 290 00:24 09.12.2021
5000 Clear 21 1019 76 10000 1.54 310 23:32 08.12.2021
5001 Clear 22 1019 73 10000 1.54 300 22:56 08.12.2021
5002 Clear 22 1020 73 10000 2.57 330 21:50 08.12.2021
5003 Clear 22 1020 73 10000 2.57 330 21:31 08.12.2021
5004 Clear 22 1020 78 10000 3.09 330 20:30 08.12.2021
5005 Clear 22 1020 76 10000 3.09 330 19:48 08.12.2021
5006 Clear 22 1020 81 10000 2.57 330 18:54 08.12.2021
5007 Clear 23 1020 78 10000 3.09 330 18:22 08.12.2021
5008 Clear 23 1020 76 10000 2.57 350 16:44 08.12.2021
5009 Clear 24 1019 71 10000 3.6 350 15:40 08.12.2021
5010 Clear 24 1019 71 10000 3.6 350 15:21 08.12.2021
5011 Clear 25 1019 62 10000 3.6 20 13:21 08.12.2021
5012 Clouds 26 1019 55 10000 3.6 20 10:42 08.12.2021
5013 Clear 25 1020 57 10000 3.09 350 09:32 08.12.2021
5014 Clear 24 1021 60 10000 2.57 330 07:50 08.12.2021
5015 Clear 20 1020 70 10000 1.03 0 05:22 08.12.2021
5016 Clear 19 1019 63 10000 1.54 250 00:21 08.12.2021
5017 Clear 19 1019 61 10000 0.51 0 22:52 07.12.2021
5018 Clear 20 1019 66 10000 1.03 330 21:25 07.12.2021
5019 Clear 20 1020 57 10000 1.03 340 20:25 07.12.2021
5020 Clear 21 1020 52 10000 1.03 340 18:59 07.12.2021
5021 Clear 21 1020 49 10000 1.03 360 18:20 07.12.2021
5022 Clear 22 1019 48 10000 1.54 60 17:23 07.12.2021
5023 Clear 22 1019 48 10000 1.03 0 16:41 07.12.2021
5024 Clear 23 1019 49 10000 1.54 70 15:59 07.12.2021
5025 Clear 24 1018 41 10000 3.6 80 14:37 07.12.2021
5026 Clear 24 1018 37 10000 3.6 90 13:38 07.12.2021
5027 Clear 25 1018 31 10000 4.12 80 12:22 07.12.2021
5028 Clear 28 1018 16 10000 2.06 150 10:56 07.12.2021
5029 Clear 26 1019 16 10000 2.57 190 09:20 07.12.2021
5030 Clear 21 1020 32 10000 2.57 200 06:50 07.12.2021
5031 Clear 19 1020 45 10000 2.06 220 05:50 07.12.2021
5032 Clear 18 1018 66 10000 2.06 200 03:25 07.12.2021
5033 Clear 19 1018 68 10000 1.03 190 23:23 06.12.2021
5034 Clear 20 1018 60 10000 1.54 180 22:40 06.12.2021
5035 Clear 19 1018 59 10000 1.03 130 21:59 06.12.2021
5036 Clear 19 1018 59 10000 1.03 130 21:27 06.12.2021
5037 Clear 20 1018 56 10000 1.54 160 20:32 06.12.2021
5038 Clear 20 1018 56 10000 1.54 160 20:32 06.12.2021
5039 Clear 20 1018 52 10000 2.06 160 19:24 06.12.2021
5040 Clear 21 1018 49 10000 4.63 150 18:40 06.12.2021
5041 Clear 22 1018 48 10000 2.06 180 17:54 06.12.2021
5042 Clear 22 1018 46 10000 2.06 170 17:33 06.12.2021
5043 Clear 22 1018 49 10000 3.6 140 15:51 06.12.2021
5044 Clear 25 1017 29 10000 3.09 190 14:38 06.12.2021
5045 Clear 26 1017 25 10000 2.57 230 13:23 06.12.2021
5046 Clear 26 1017 20 10000 2.57 180 12:37 06.12.2021
5047 Clear 24 1019 34 10000 3.6 200 09:56 06.12.2021
5048 Clear 22 1020 43 10000 3.09 180 07:38 06.12.2021
5049 Clear 17 1018 72 10000 1.54 250 02:20 06.12.2021
5050 Clear 19 1018 66 10000 1.03 0 22:25 05.12.2021
5051 Clear 20 1018 62 10000 2.06 280 21:25 05.12.2021
5052 Clear 20 1018 62 10000 2.06 290 20:43 05.12.2021
5053 Clear 20 1018 62 10000 2.06 290 20:18 05.12.2021
5054 Clear 21 1018 56 10000 2.57 310 19:23 05.12.2021
5055 Clear 21 1018 52 10000 2.57 310 18:28 05.12.2021
5056 Clear 22 1018 50 10000 1.54 300 17:49 05.12.2021
5057 Clear 22 1018 53 10000 1.03 0 17:18 05.12.2021
5058 Clear 23 1018 55 10000 1.54 140 16:28 05.12.2021
5059 Clear 23 1017 56 10000 2.06 140 15:59 05.12.2021
5060 Clear 23 1017 50 10000 2.57 110 14:48 05.12.2021
5061 Clear 23 1017 50 10000 3.09 110 14:29 05.12.2021
5062 Clear 24 1017 47 10000 2.57 90 13:32 05.12.2021
5063 Clear 25 1017 45 10000 1.54 0 12:42 05.12.2021
5064 Clear 25 1017 45 10000 1.03 0 12:23 05.12.2021
5065 Clear 25 1018 47 10000 4.12 10 11:43 05.12.2021
5066 Clear 24 1018 46 10000 3.6 10 10:24 05.12.2021
5067 Clear 24 1020 50 10000 2.57 300 09:35 05.12.2021
5068 Clear 18 1019 68 10000 2.06 270 04:57 05.12.2021
5069 Clear 18 1018 70 10000 2.57 280 01:24 05.12.2021
5070 Clear 18 1018 70 10000 2.57 280 01:24 05.12.2021
5071 Clear 19 1019 68 10000 4.12 300 22:44 04.12.2021
5072 Clear 19 1019 70 10000 3.6 300 21:37 04.12.2021
5073 Clear 20 1019 66 10000 3.09 290 20:47 04.12.2021
5074 Clear 20 1019 66 10000 4.63 300 19:54 04.12.2021
5075 Clear 20 1019 66 10000 4.63 300 19:24 04.12.2021
5076 Clear 20 1018 64 10000 5.14 320 17:52 04.12.2021
5077 Clear 20 1018 64 10000 5.14 320 17:32 04.12.2021
5078 Clear 21 1019 62 10000 5.66 310 16:47 04.12.2021
5079 Clear 21 1019 62 10000 5.66 310 16:27 04.12.2021
5080 Clear 24 1018 43 10000 5.66 310 12:57 04.12.2021
5081 Clear 25 1018 41 10000 5.66 300 11:40 04.12.2021
5082 Clear 25 1018 41 10000 5.66 300 11:18 04.12.2021
5083 Clear 24 1019 41 10000 6.17 300 09:44 04.12.2021
5084 Clear 23 1020 41 10000 6.17 300 08:35 04.12.2021
5085 Clear 18 1020 54 10000 4.63 290 04:43 04.12.2021
5086 Clear 19 1019 52 10000 4.63 290 03:36 04.12.2021
5087 Clear 19 1019 61 10000 4.63 300 23:47 03.12.2021
5088 Clear 20 1019 58 10000 4.63 300 22:54 03.12.2021
5089 Clear 20 1019 60 10000 4.63 300 21:58 03.12.2021
5090 Clear 21 1020 56 10000 4.12 300 21:24 03.12.2021
5091 Clear 21 1020 56 10000 5.14 300 20:42 03.12.2021
5092 Clear 21 1020 54 10000 6.69 310 19:29 03.12.2021
5093 Clear 22 1020 56 10000 6.17 310 18:24 03.12.2021
5094 Clear 22 1020 58 10000 6.69 310 17:32 03.12.2021
5095 Clouds 26 1017 46 10000 6.69 310 13:45 03.12.2021
5096 Clouds 27 1017 46 10000 7.2 310 12:49 03.12.2021
5097 Clear 27 1017 47 10000 6.69 310 11:23 03.12.2021
5098 Clear 27 1018 54 10000 6.17 300 09:25 03.12.2021
5099 Clear 25 1019 59 10000 5.14 290 08:21 03.12.2021
5100 Clear 24 1019 55 10000 3.6 270 07:23 03.12.2021
5101 Clouds 23 1015 83 9000 2.57 190 01:43 03.12.2021
5102 Clear 23 1015 81 10000 2.06 170 00:34 03.12.2021
5103 Clear 22 1015 81 10000 2.06 150 23:40 02.12.2021
5104 Clear 23 1016 79 10000 2.57 150 21:42 02.12.2021
5105 Clear 23 1016 83 10000 1.03 0 20:56 02.12.2021
5106 Clear 23 1016 74 10000 1.54 140 20:35 02.12.2021
5107 Clear 23 1016 72 10000 2.06 130 19:24 02.12.2021
5108 Clear 24 1016 69 10000 1.54 130 17:36 02.12.2021
5109 Clear 25 1015 65 10000 3.6 120 15:42 02.12.2021
5110 Clear 25 1015 69 10000 4.12 120 14:57 02.12.2021
5111 Clouds 27 1014 51 10000 4.63 130 13:54 02.12.2021
5112 Clouds 27 1014 55 10000 6.69 130 12:52 02.12.2021
5113 Clouds 27 1014 57 10000 6.69 120 11:55 02.12.2021
5114 Clouds 27 1017 55 10000 4.12 140 09:29 02.12.2021
5115 Clear 27 1017 59 10000 4.12 140 08:35 02.12.2021
5116 Clouds 21 1015 86 6000 0 0 03:39 02.12.2021
5117 Clear 22 1015 79 10000 2.06 340 00:51 02.12.2021
5118 Clear 23 1015 76 10000 1.03 20 22:52 01.12.2021
5119 Clear 23 1015 76 10000 1.03 20 22:23 01.12.2021
5120 Clear 23 1016 74 10000 0.51 0 20:36 01.12.2021
5121 Clear 23 1016 78 10000 0.51 0 19:53 01.12.2021
5122 Clear 24 1016 73 10000 0.51 0 19:25 01.12.2021
5123 Clear 25 1016 71 10000 1.54 360 17:45 01.12.2021
5124 Clear 25 1016 71 10000 1.54 360 17:45 01.12.2021
5125 Clear 25 1015 69 10000 2.06 40 16:40 01.12.2021
5126 Clear 26 1014 65 10000 3.6 30 14:52 01.12.2021
5127 Clouds 26 1014 65 10000 3.6 10 13:44 01.12.2021
5128 Clouds 27 1015 57 10000 3.09 10 12:30 01.12.2021
5129 Clouds 27 1015 59 10000 3.09 20 10:42 01.12.2021
5130 Clouds 27 1017 59 10000 2.57 10 09:19 01.12.2021
5131 Clear 26 1018 61 10000 3.09 350 08:26 01.12.2021
5132 Clear 25 1018 62 10000 2.57 350 07:33 01.12.2021
5133 Clear 22 1018 77 10000 1.03 0 05:51 01.12.2021
5134 Clear 20 1016 75 10000 0 0 03:41 01.12.2021
5135 Clear 21 1016 78 10000 2.06 330 00:56 01.12.2021
5136 Clear 22 1016 73 10000 1.03 350 23:53 30.11.2021
5137 Clear 22 1016 73 10000 2.57 330 23:23 30.11.2021
5138 Clear 23 1016 73 10000 3.09 330 21:30 30.11.2021
5139 Clear 23 1017 73 10000 3.09 340 20:44 30.11.2021
5140 Clear 24 1017 71 10000 3.09 340 19:53 30.11.2021
5141 Clear 24 1017 71 10000 3.09 340 19:30 30.11.2021
5142 Clear 24 1017 71 10000 3.09 350 18:36 30.11.2021
5143 Clear 25 1016 67 10000 4.63 350 16:49 30.11.2021
5144 Clear 25 1016 67 10000 5.66 360 15:18 30.11.2021
5145 Clouds 26 1015 61 10000 6.17 360 14:20 30.11.2021
5146 Clouds 27 1015 57 10000 5.66 360 13:25 30.11.2021
5147 Clouds 27 1015 57 10000 5.66 360 12:45 30.11.2021
5148 Clouds 27 1015 54 10000 5.66 360 11:49 30.11.2021
5149 Clouds 27 1015 54 10000 5.14 360 11:19 30.11.2021
5150 Clouds 27 1016 52 10000 4.63 350 10:32 30.11.2021
5151 Clouds 26 1017 59 10000 4.12 330 08:52 30.11.2021
5152 Clear 26 1018 59 7000 4.12 320 08:22 30.11.2021
5153 Clear 25 1018 62 7000 4.63 330 07:47 30.11.2021
5154 Clear 21 1016 80 10000 4.12 300 02:41 30.11.2021
5155 Clear 22 1016 78 10000 3.6 300 01:41 30.11.2021
5156 Clear 22 1016 76 10000 3.6 290 00:20 30.11.2021
5157 Clear 22 1016 76 10000 4.63 290 23:24 29.11.2021
5158 Clear 22 1016 74 10000 4.63 290 22:55 29.11.2021
5159 Clear 22 1017 74 10000 4.12 300 22:33 29.11.2021
5160 Clear 23 1017 73 10000 4.12 290 21:29 29.11.2021
5161 Clear 23 1017 73 10000 3.09 300 20:59 29.11.2021
5162 Clear 23 1017 73 10000 3.6 290 20:32 29.11.2021
5163 Clear 23 1017 73 10000 3.6 290 20:32 29.11.2021
5164 Clear 23 1017 73 10000 4.63 300 19:56 29.11.2021
5165 Clear 23 1017 73 10000 4.63 300 19:35 29.11.2021
5166 Clear 23 1017 69 10000 4.12 300 18:51 29.11.2021
5167 Clear 22 1017 65 10000 5.4 323 17:49 29.11.2021
5168 Clear 22 1017 63 10000 5.52 321 17:18 29.11.2021
5169 Clear 23 1016 59 10000 6.19 322 16:29 29.11.2021
5170 Clear 23 1016 59 10000 6.19 322 15:50 29.11.2021
5171 Clear 24 1016 54 10000 7.04 324 14:43 29.11.2021
5172 Clear 25 1015 48 10000 8.02 328 13:33 29.11.2021
5173 Clear 26 1015 41 10000 8.28 324 12:28 29.11.2021
5174 Clear 26 1015 41 10000 8.28 324 11:36 29.11.2021
5175 Clear 27 1015 41 10000 8.31 321 10:41 29.11.2021
5176 Clear 27 1017 43 10000 4.63 310 09:25 29.11.2021
5177 Clear 23 1018 53 10000 3.09 280 06:20 29.11.2021
5178 Clear 20 1016 56 10000 2.06 270 01:43 29.11.2021
5179 Clear 21 1016 52 10000 2.57 280 00:40 29.11.2021
5180 Clear 21 1017 51 10000 2.06 260 23:44 28.11.2021
5181 Clear 21 1017 51 10000 2.06 270 22:49 28.11.2021
5182 Clear 22 1017 48 10000 3.6 290 21:47 28.11.2021
5183 Clear 22 1017 48 10000 3.6 290 21:20 28.11.2021
5184 Clear 22 1018 48 10000 4.12 310 20:33 28.11.2021
5185 Clear 23 1018 53 10000 5.14 300 18:53 28.11.2021
5186 Clear 23 1017 55 10000 5.14 310 18:32 28.11.2021
5187 Clear 23 1017 55 10000 5.66 320 17:54 28.11.2021
5188 Clear 23 1017 55 10000 5.14 320 17:31 28.11.2021
5189 Clear 24 1017 57 10000 5.14 320 16:37 28.11.2021
5190 Clear 24 1017 57 10000 5.14 320 16:18 28.11.2021
5191 Clear 25 1016 45 10000 6.17 310 15:31 28.11.2021
5192 Clear 27 1016 34 10000 6.17 320 14:44 28.11.2021
5193 Clear 28 1016 28 8000 8.23 330 12:58 28.11.2021
5194 Clear 29 1015 30 10000 6.69 320 12:37 28.11.2021
5195 Clear 29 1016 32 10000 6.17 320 10:54 28.11.2021
5196 Clear 29 1016 34 10000 6.17 320 10:20 28.11.2021
5197 Clear 28 1017 38 10000 8.23 330 09:37 28.11.2021
5198 Clear 24 1018 66 9000 5.14 310 06:30 28.11.2021
5199 Clear 23 1016 73 10000 5.14 310 23:56 27.11.2021
5200 Clear 24 1017 74 10000 4.63 310 20:51 27.11.2021
5201 Clear 25 1017 57 10000 4.12 310 19:18 27.11.2021
5202 Clear 25 1017 57 10000 4.12 310 19:18 27.11.2021
5203 Clear 28 1016 34 10000 3.09 310 16:56 27.11.2021
5204 Clear 29 1016 31 10000 3.6 310 15:56 27.11.2021
5205 Clear 32 1015 23 10000 3.09 300 13:47 27.11.2021
5206 Clear 33 1014 22 10000 4.12 290 12:55 27.11.2021
5207 Clear 32 1015 33 10000 3.6 290 10:48 27.11.2021
5208 Clear 31 1017 36 10000 3.6 300 09:53 27.11.2021
5209 Clear 29 1017 45 10000 2.57 270 08:43 27.11.2021
5210 Clear 27 1018 47 10000 1.54 0 06:34 27.11.2021
5211 Clear 21 1016 86 10000 1.03 220 01:57 27.11.2021
5212 Clear 22 1016 81 10000 0.51 0 23:36 26.11.2021
5213 Clear 23 1017 76 10000 1.54 310 22:25 26.11.2021
5214 Clear 23 1017 70 10000 0 0 21:37 26.11.2021
5215 Clear 23 1017 68 10000 0 0 20:59 26.11.2021
5216 Clear 23 1017 68 10000 1.03 350 20:19 26.11.2021
5217 Clear 23 1017 73 10000 1.03 340 19:47 26.11.2021
5218 Clear 24 1017 69 10000 1.54 340 18:41 26.11.2021
5219 Clear 25 1017 71 10000 2.06 340 17:23 26.11.2021
5220 Clear 26 1016 69 10000 2.06 360 15:59 26.11.2021
5221 Clear 28 1016 61 10000 5.14 350 13:36 26.11.2021
5222 Clear 29 1016 58 10000 4.12 360 12:51 26.11.2021
5223 Clear 29 1016 48 10000 4.63 360 10:39 26.11.2021
5224 Clear 30 1018 35 10000 3.6 310 08:59 26.11.2021
5225 Clear 27 1019 50 10000 3.6 320 08:39 26.11.2021
5226 Clear 27 1019 50 10000 3.6 320 08:19 26.11.2021
5227 Clear 25 1019 62 10000 2.57 300 06:29 26.11.2021
5228 Clear 22 1017 76 10000 2.06 290 04:52 26.11.2021
5229 Clear 22 1017 73 10000 1.54 240 03:28 26.11.2021
5230 Clear 23 1016 62 10000 2.57 290 23:28 25.11.2021
5231 Clear 24 1016 60 10000 3.09 320 21:58 25.11.2021
5232 Clear 24 1017 57 10000 3.6 320 20:41 25.11.2021
5233 Clear 24 1017 55 10000 3.6 320 18:50 25.11.2021
5234 Clear 25 1017 53 10000 5.14 330 18:00 25.11.2021
5235 Clear 25 1017 53 10000 5.66 340 17:26 25.11.2021
5236 Clear 26 1016 50 10000 6.17 340 16:41 25.11.2021
5237 Clear 26 1016 48 10000 6.69 340 15:58 25.11.2021
5238 Clear 27 1015 54 10000 5.66 360 14:21 25.11.2021
5239 Clear 28 1015 55 10000 5.66 10 12:55 25.11.2021
5240 Clear 29 1015 43 10000 6.17 360 11:55 25.11.2021
5241 Clear 29 1016 43 10000 5.14 330 10:31 25.11.2021
5242 Clear 24 1018 62 10000 4.12 310 06:36 25.11.2021
5243 Clear 22 1016 71 10000 3.09 290 02:54 25.11.2021
5244 Clear 22 1015 66 10000 3.6 310 23:40 24.11.2021
5245 Clear 23 1015 64 10000 3.6 320 22:29 24.11.2021
5246 Clear 23 1015 64 10000 3.6 310 21:48 24.11.2021
5247 Clear 23 1015 64 10000 3.6 310 21:19 24.11.2021
5248 Clear 23 1016 58 10000 4.12 310 20:26 24.11.2021
5249 Clear 24 1016 57 10000 3.6 310 19:20 24.11.2021
5250 Clear 24 1016 57 10000 4.63 310 18:18 24.11.2021
5251 Clear 25 1016 53 10000 5.14 320 16:20 24.11.2021
5252 Clear 27 1015 41 10000 5.14 310 14:57 24.11.2021
5253 Clear 28 1015 36 10000 6.17 330 14:21 24.11.2021
5254 Clear 29 1015 37 10000 6.17 320 12:51 24.11.2021
5255 Clear 29 1015 39 10000 6.69 330 11:24 24.11.2021
5256 Clear 29 1015 39 10000 7.72 340 10:55 24.11.2021
5257 Clear 29 1016 40 10000 6.69 330 10:34 24.11.2021
5258 Clear 28 1017 44 10000 7.2 360 09:29 24.11.2021
5259 Clear 27 1018 51 10000 6.69 330 07:39 24.11.2021
5260 Clear 25 1016 61 10000 5.14 320 05:23 24.11.2021
5261 Clear 24 1015 67 10000 5.66 320 02:44 24.11.2021
5262 Clear 24 1015 73 10000 5.66 320 23:33 23.11.2021
5263 Clear 25 1016 73 10000 5.66 320 22:38 23.11.2021
5264 Clear 25 1016 73 10000 5.66 320 21:45 23.11.2021
5265 Clear 25 1016 76 10000 4.63 320 20:22 23.11.2021
5266 Clear 26 1016 71 10000 6.17 330 19:33 23.11.2021
5267 Clear 26 1016 71 10000 6.17 330 18:34 23.11.2021
5268 Clear 27 1016 65 10000 4.63 340 17:31 23.11.2021
5269 Clear 27 1015 69 10000 4.63 340 16:35 23.11.2021
5270 Clear 30 1014 41 10000 2.57 280 15:27 23.11.2021
5271 Clear 31 1014 34 10000 1.54 280 14:45 23.11.2021
5272 Clear 33 1014 24 10000 2.06 250 13:20 23.11.2021
5273 Clear 31 1015 44 10000 3.09 260 10:28 23.11.2021
5274 Clouds 29 1016 61 8000 3.09 250 09:47 23.11.2021
5275 Haze 26 1017 86 4000 3.09 200 07:58 23.11.2021
5276 Mist 24 1015 91 3000 1.54 210 04:53 23.11.2021
5277 Clear 23 1015 95 10000 1.54 150 03:35 23.11.2021
5278 Clear 25 1015 86 10000 0.51 50 23:41 22.11.2021
5279 Clear 25 1015 86 10000 1.03 40 23:19 22.11.2021
5280 Clear 25 1015 86 10000 1.03 50 22:30 22.11.2021
5281 Clear 25 1016 86 10000 1.54 40 21:45 22.11.2021
5282 Clear 25 1016 86 10000 1.54 40 21:19 22.11.2021
5283 Clear 25 1016 84 10000 1.54 40 20:27 22.11.2021
5284 Clear 26 1016 81 10000 2.06 40 19:20 22.11.2021
5285 Clear 26 1016 81 10000 2.06 30 18:41 22.11.2021
5286 Clear 26 1016 81 10000 2.06 30 18:21 22.11.2021
5287 Clear 27 1015 78 10000 2.57 60 16:41 22.11.2021
5288 Clear 28 1015 67 10000 2.57 90 15:29 22.11.2021
5289 Clear 30 1015 49 10000 4.12 120 12:51 22.11.2021
5290 Clouds 30 1015 61 10000 5.14 130 11:34 22.11.2021
5291 Clear 29 1015 65 10000 7.2 120 10:22 22.11.2021
5292 Clear 29 1016 68 10000 6.69 120 08:43 22.11.2021
5293 Clear 29 1017 68 10000 6.17 120 08:23 22.11.2021
5294 Clear 25 1015 79 10000 2.57 110 01:39 22.11.2021
5295 Clear 26 1015 76 10000 4.12 110 23:21 21.11.2021
5296 Clear 26 1015 74 10000 3.6 100 22:43 21.11.2021
5297 Clear 26 1015 74 10000 3.6 100 20:55 21.11.2021
5298 Clear 26 1015 74 10000 4.63 100 20:34 21.11.2021
5299 Clear 26 1015 71 10000 4.12 100 19:35 21.11.2021
5300 Clear 26 1015 78 10000 4.12 90 17:57 21.11.2021
5301 Clear 26 1015 76 10000 4.12 90 17:36 21.11.2021
5302 Clear 27 1013 65 10000 5.14 100 14:56 21.11.2021
5303 Clear 27 1013 63 10000 5.14 100 14:38 21.11.2021
5304 Clear 28 1013 61 10000 5.66 110 12:59 21.11.2021
5305 Clear 29 1012 58 10000 6.17 120 12:27 21.11.2021
5306 Clear 28 1013 61 10000 7.2 110 11:38 21.11.2021
5307 Clear 29 1013 61 10000 7.2 120 10:19 21.11.2021
5308 Clear 29 1013 56 10000 6.69 120 09:47 21.11.2021
5309 Clear 29 1014 59 10000 6.69 110 08:33 21.11.2021
5310 Clear 28 1015 63 10000 6.17 120 07:53 21.11.2021
5311 Clear 28 1015 63 10000 6.17 120 06:37 21.11.2021
5312 Clear 27 1014 69 10000 4.63 120 05:43 21.11.2021
5313 Clear 25 1013 74 10000 3.6 120 04:35 21.11.2021
5314 Clear 25 1012 72 10000 3.6 110 02:57 21.11.2021
5315 Clear 25 1012 72 10000 3.6 110 02:32 21.11.2021
5316 Clear 25 1011 65 10000 3.09 120 00:50 21.11.2021
5317 Clear 26 1012 64 10000 4.12 120 22:55 20.11.2021
5318 Clear 26 1012 61 10000 4.63 110 21:34 20.11.2021
5319 Clear 26 1011 61 10000 4.63 110 20:33 20.11.2021
5320 Clear 26 1012 59 10000 4.63 110 18:45 20.11.2021
5321 Clear 26 1012 61 10000 3.6 110 18:24 20.11.2021
5322 Clear 26 1012 59 10000 3.6 110 17:22 20.11.2021
5323 Clear 26 1010 61 10000 4.63 100 15:40 20.11.2021
5324 Clear 27 1010 59 10000 5.14 120 14:39 20.11.2021
5325 Clear 27 1010 59 10000 5.14 120 14:20 20.11.2021
5326 Clear 28 1010 57 10000 6.17 110 11:56 20.11.2021
5327 Clear 27 1012 66 10000 3.6 90 10:28 20.11.2021
5328 Clear 27 1013 56 10000 3.6 100 08:55 20.11.2021
5329 Clear 26 1013 57 10000 2.57 360 07:19 20.11.2021
5330 Clear 24 1013 64 10000 1.03 320 05:24 20.11.2021
5331 Clear 22 1012 66 10000 1.03 290 04:50 20.11.2021
5332 Clear 22 1011 68 10000 1.54 330 01:34 20.11.2021
5333 Clear 23 1011 66 10000 1.54 300 00:37 20.11.2021
5334 Clear 23 1012 66 10000 1.54 310 22:55 19.11.2021
5335 Clear 24 1012 64 10000 1.03 320 21:57 19.11.2021
5336 Clear 25 1012 62 10000 2.06 300 20:54 19.11.2021
5337 Clear 25 1012 65 10000 2.57 300 20:36 19.11.2021
5338 Clear 24 1012 67 10000 2.57 330 19:49 19.11.2021
5339 Clear 25 1012 61 10000 3.6 340 18:51 19.11.2021
5340 Clear 25 1012 63 10000 5.66 340 18:19 19.11.2021
5341 Clear 25 1012 61 10000 4.63 360 16:47 19.11.2021
5342 Clouds 26 1011 63 10000 3.6 360 15:31 19.11.2021
5343 Clouds 30 1011 38 10000 2.57 330 12:53 19.11.2021
5344 Clouds 28 1013 45 10000 5.66 340 10:27 19.11.2021
5345 Clear 27 1014 48 10000 3.6 320 08:47 19.11.2021
5346 Clear 26 1015 53 10000 3.6 310 07:34 19.11.2021
5347 Clear 22 1015 68 10000 2.57 290 04:24 19.11.2021
5348 Clear 23 1014 66 10000 2.06 280 01:32 19.11.2021
5349 Clear 23 1014 66 10000 3.09 300 23:50 18.11.2021
5350 Clear 24 1015 64 10000 3.09 310 21:48 18.11.2021
5351 Clear 24 1015 64 10000 2.57 320 20:48 18.11.2021
5352 Clear 24 1015 64 10000 2.57 320 20:29 18.11.2021
5353 Clear 24 1015 60 10000 3.09 320 19:43 18.11.2021
5354 Clear 25 1015 58 10000 4.63 330 18:41 18.11.2021
5355 Clear 25 1015 58 10000 4.63 330 18:20 18.11.2021
5356 Clear 25 1015 57 10000 5.14 330 17:44 18.11.2021
5357 Clear 26 1015 50 10000 5.66 330 16:44 18.11.2021
5358 Clouds 27 1014 48 10000 5.66 310 15:25 18.11.2021
5359 Clouds 30 1013 37 10000 4.63 300 13:25 18.11.2021
5360 Clouds 29 1013 39 10000 3.6 300 12:33 18.11.2021
5361 Clouds 29 1014 43 10000 4.63 330 11:41 18.11.2021
5362 Clouds 29 1014 43 10000 2.57 310 11:23 18.11.2021
5363 Clouds 29 1016 46 10000 2.57 310 09:33 18.11.2021
5364 Clear 26 1017 59 10000 4.63 310 07:34 18.11.2021
5365 Clear 25 1016 69 10000 5.14 300 05:47 18.11.2021
5366 Clear 23 1015 76 8000 3.6 290 04:31 18.11.2021
5367 Clear 24 1015 73 10000 1.54 270 01:22 18.11.2021
5368 Clear 24 1014 64 10000 3.09 310 22:48 17.11.2021
5369 Clear 24 1014 64 10000 3.09 310 22:20 17.11.2021
5370 Clear 24 1015 59 10000 3.6 300 21:37 17.11.2021
5371 Clear 26 1015 47 10000 1.54 270 20:18 17.11.2021
5372 Clear 26 1014 53 10000 1.54 130 17:53 17.11.2021
5373 Clear 27 1014 51 10000 1.54 160 17:25 17.11.2021
5374 Clear 29 1012 36 10000 2.57 230 14:47 17.11.2021
5375 Clouds 31 1012 25 10000 3.09 230 12:40 17.11.2021
5376 Clear 31 1012 30 10000 4.12 200 11:42 17.11.2021
5377 Clear 30 1013 45 10000 4.63 190 10:28 17.11.2021
5378 Clear 28 1013 50 10000 5.14 180 09:24 17.11.2021
5379 Clear 27 1014 59 9000 3.09 190 07:43 17.11.2021
5380 Clear 23 1012 76 10000 1.54 310 03:43 17.11.2021
5381 Clear 23 1011 76 10000 1.54 170 01:18 17.11.2021
5382 Clear 23 1011 74 10000 2.06 160 23:18 16.11.2021
5383 Clear 25 1012 67 10000 2.06 200 21:23 16.11.2021
5384 Clear 25 1012 67 10000 2.06 170 20:18 16.11.2021
5385 Clear 25 1011 68 10000 1.54 140 18:53 16.11.2021
5386 Clear 25 1011 65 10000 1.54 80 18:34 16.11.2021
5387 Clear 25 1011 65 10000 2.06 150 17:38 16.11.2021
5388 Clear 26 1011 61 10000 2.06 140 16:37 16.11.2021
5389 Clear 26 1011 61 10000 2.57 130 15:50 16.11.2021
5390 Clear 27 1011 59 10000 2.57 120 15:26 16.11.2021
5391 Clear 28 1010 48 10000 3.09 90 11:50 16.11.2021
5392 Clear 28 1012 49 10000 2.57 100 09:49 16.11.2021
5393 Clear 27 1013 54 10000 2.06 360 08:45 16.11.2021
5394 Clear 27 1014 54 10000 2.06 320 07:32 16.11.2021
5395 Clear 23 1011 64 10000 2.06 300 02:20 16.11.2021
5396 Clear 24 1012 64 10000 2.57 300 23:22 15.11.2021
5397 Clear 24 1012 62 10000 2.57 310 22:37 15.11.2021
5398 Clear 25 1013 61 10000 3.09 300 21:53 15.11.2021
5399 Clear 25 1013 61 10000 3.09 300 21:29 15.11.2021
5400 Clear 25 1013 59 10000 3.6 310 19:49 15.11.2021
5401 Clear 25 1013 59 10000 4.12 320 18:47 15.11.2021
5402 Clouds 26 1013 65 10000 5.14 340 16:54 15.11.2021
5403 Clouds 27 1012 61 10000 3.09 10 15:42 15.11.2021
5404 Clouds 27 1012 61 10000 3.09 10 15:24 15.11.2021
5405 Clouds 29 1012 49 10000 3.09 20 13:32 15.11.2021
5406 Clouds 28 1013 51 10000 3.6 350 11:21 15.11.2021
5407 Clouds 28 1015 47 10000 4.12 330 09:28 15.11.2021
5408 Clear 26 1016 48 10000 3.6 310 07:55 15.11.2021
5409 Clear 23 1016 56 10000 3.09 300 05:23 15.11.2021
5410 Clear 23 1015 56 10000 3.6 300 23:57 14.11.2021
5411 Clear 23 1016 58 10000 4.12 310 22:37 14.11.2021
5412 Clear 24 1017 57 10000 4.63 320 19:59 14.11.2021
5413 Clear 24 1017 55 10000 5.66 320 19:18 14.11.2021
5414 Clear 24 1017 55 10000 5.66 320 18:54 14.11.2021
5415 Clear 24 1017 55 10000 5.66 320 18:36 14.11.2021
5416 Clear 24 1017 55 10000 5.66 320 18:18 14.11.2021
5417 Clear 24 1017 53 10000 5.14 320 17:57 14.11.2021
5418 Clear 24 1017 52 10000 5.14 320 17:39 14.11.2021
5419 Clear 25 1017 52 10000 5.14 330 17:21 14.11.2021
5420 Clear 25 1016 47 10000 4.63 320 16:47 14.11.2021
5421 Clear 25 1016 47 10000 5.66 330 16:20 14.11.2021
5422 Clear 26 1015 44 10000 6.69 330 15:23 14.11.2021
5423 Clear 27 1015 39 10000 6.17 320 14:49 14.11.2021
5424 Clear 28 1015 37 10000 7.2 330 14:29 14.11.2021
5425 Clear 28 1014 36 10000 6.17 320 13:57 14.11.2021
5426 Clear 29 1014 37 10000 8.23 330 13:39 14.11.2021
5427 Clear 30 1015 36 10000 7.2 320 12:28 14.11.2021
5428 Clear 30 1015 34 10000 7.72 330 11:52 14.11.2021
5429 Clear 30 1015 34 10000 6.69 330 10:42 14.11.2021
5430 Clear 29 1017 38 10000 7.72 330 09:52 14.11.2021
5431 Clear 28 1017 45 10000 6.17 330 08:55 14.11.2021
5432 Clear 26 1018 55 10000 4.63 310 07:23 14.11.2021
5433 Clear 23 1016 58 10000 4.63 310 01:24 14.11.2021
5434 Clear 24 1017 57 10000 5.14 310 22:26 13.11.2021
5435 Clear 25 1017 57 10000 4.12 310 21:57 13.11.2021
5436 Clear 24 1018 57 10000 4.12 310 21:23 13.11.2021
5437 Clear 25 1018 58 10000 3.6 320 19:47 13.11.2021
5438 Clear 25 1018 59 10000 4.12 320 18:33 13.11.2021
5439 Clear 26 1018 57 10000 4.63 330 17:56 13.11.2021
5440 Clear 26 1017 61 10000 4.63 330 16:38 13.11.2021
5441 Clear 27 1017 63 10000 7.2 340 15:34 13.11.2021
5442 Clear 28 1016 59 10000 5.66 10 14:30 13.11.2021
5443 Clear 28 1016 63 10000 6.17 10 13:38 13.11.2021
5444 Clear 29 1016 60 10000 5.66 10 12:28 13.11.2021
5445 Clear 30 1016 48 10000 4.63 360 11:38 13.11.2021
5446 Clear 29 1017 52 10000 4.63 360 10:45 13.11.2021
5447 Clear 29 1017 54 10000 4.63 360 10:22 13.11.2021
5448 Clear 29 1018 51 10000 3.6 360 09:38 13.11.2021
5449 Clear 29 1019 51 10000 3.6 360 08:56 13.11.2021
5450 Clear 28 1019 59 10000 3.6 350 08:30 13.11.2021
5451 Clear 24 1018 73 10000 2.57 310 04:48 13.11.2021
5452 Clear 23 1018 76 10000 3.6 320 04:30 13.11.2021
5453 Clear 25 1016 76 10000 1.54 180 01:36 13.11.2021
5454 Clear 25 1016 73 10000 1.03 100 22:58 12.11.2021
5455 Clear 26 1016 68 10000 1.54 130 21:46 12.11.2021
5456 Clear 26 1016 61 10000 2.57 100 19:55 12.11.2021
5457 Clear 26 1016 61 10000 3.09 110 19:28 12.11.2021
5458 Clear 27 1017 58 10000 2.57 110 18:46 12.11.2021
5459 Clear 27 1016 56 10000 3.6 100 16:35 12.11.2021
5460 Clear 27 1015 56 10000 4.63 120 15:33 12.11.2021
5461 Clear 27 1015 56 10000 4.63 120 15:33 12.11.2021
5462 Clear 30 1014 42 10000 4.63 110 11:58 12.11.2021
5463 Clear 30 1014 44 10000 4.63 110 10:51 12.11.2021
5464 Clear 30 1015 47 10000 5.66 130 09:45 12.11.2021
5465 Clear 29 1016 43 10000 6.69 150 08:39 12.11.2021
5466 Clear 25 1014 56 10000 2.57 140 03:18 12.11.2021
5467 Clear 25 1014 57 10000 2.06 130 23:42 11.11.2021
5468 Clear 25 1014 60 10000 3.09 120 22:39 11.11.2021
5469 Clear 25 1014 61 10000 2.57 120 21:28 11.11.2021
5470 Clear 25 1015 60 10000 2.06 130 20:42 11.11.2021
5471 Clear 26 1015 57 10000 2.57 130 19:24 11.11.2021
5472 Clear 26 1014 56 10000 3.09 110 17:58 11.11.2021
5473 Clear 26 1014 54 10000 3.09 120 17:36 11.11.2021
5474 Clear 27 1013 47 10000 4.12 110 15:18 11.11.2021
5475 Clear 28 1013 42 10000 4.63 110 14:30 11.11.2021
5476 Clear 28 1013 44 10000 5.14 110 13:40 11.11.2021
5477 Clear 29 1012 40 10000 5.14 110 12:51 11.11.2021
5478 Clear 29 1013 36 10000 5.66 110 10:58 11.11.2021
5479 Clear 29 1015 33 10000 3.09 150 09:39 11.11.2021
5480 Clear 29 1016 34 10000 1.54 0 07:59 11.11.2021
5481 Clear 25 1016 43 10000 0.51 0 05:55 11.11.2021
5482 Clear 24 1014 50 10000 1.54 300 00:34 11.11.2021
5483 Clear 25 1015 51 10000 2.57 320 22:32 10.11.2021
5484 Clear 26 1015 51 10000 2.57 330 21:33 10.11.2021
5485 Clear 25 1015 53 10000 3.09 330 20:47 10.11.2021
5486 Clear 26 1016 50 10000 3.6 330 19:47 10.11.2021
5487 Clouds 26 1016 50 10000 3.09 320 19:28 10.11.2021
5488 Clouds 27 1015 49 10000 4.12 360 16:38 10.11.2021
5489 Clouds 27 1015 50 10000 3.6 10 15:44 10.11.2021
5490 Clouds 29 1014 44 10000 5.66 10 13:52 10.11.2021
5491 Clouds 29 1014 44 10000 5.66 10 13:26 10.11.2021
5492 Clouds 29 1015 45 10000 5.66 20 11:38 10.11.2021
5493 Clear 29 1017 42 10000 6.17 340 08:59 10.11.2021
5494 Clear 29 1018 41 10000 6.17 330 08:39 10.11.2021
5495 Clear 27 1018 45 10000 4.63 310 06:41 10.11.2021
5496 Clear 26 1018 50 10000 3.6 300 05:52 10.11.2021
5497 Clear 25 1017 52 10000 3.6 310 01:24 10.11.2021
5498 Clear 26 1017 50 10000 3.6 310 21:55 09.11.2021
5499 Clear 26 1018 50 10000 3.6 300 20:32 09.11.2021
5500 Clear 26 1018 49 10000 3.09 310 19:26 09.11.2021
5501 Clear 27 1018 44 10000 3.6 320 18:38 09.11.2021
5502 Clear 28 1017 41 10000 6.17 330 16:27 09.11.2021
5503 Clouds 28 1016 51 10000 5.14 20 14:58 09.11.2021
5504 Clouds 29 1016 44 10000 5.14 10 13:21 09.11.2021
5505 Clear 29 1016 45 10000 5.14 20 12:22 09.11.2021
5506 Clear 30 1016 37 10000 4.63 360 10:46 09.11.2021
5507 Clear 30 1017 33 10000 5.66 350 09:42 09.11.2021
5508 Clear 30 1018 33 10000 4.63 340 08:37 09.11.2021
5509 Clear 28 1018 49 10000 3.6 310 06:51 09.11.2021
5510 Clear 25 1016 62 10000 2.06 320 02:30 09.11.2021
5511 Clear 24 1015 62 10000 2.06 320 01:50 09.11.2021
5512 Clear 25 1015 65 10000 1.03 320 00:19 09.11.2021
5513 Clear 25 1015 67 10000 1.03 340 23:20 08.11.2021
5514 Clear 25 1015 65 10000 1.54 340 22:34 08.11.2021
5515 Clear 26 1015 67 10000 1.54 330 21:21 08.11.2021
5516 Clouds 26 1015 65 10000 2.57 330 20:31 08.11.2021
5517 Clear 27 1015 61 10000 1.03 350 18:57 08.11.2021
5518 Clear 27 1014 65 10000 3.09 100 17:23 08.11.2021
5519 Clear 27 1013 63 10000 5.66 80 15:38 08.11.2021
5520 Haze 29 1013 49 5000 5.14 70 14:55 08.11.2021
5521 Clouds 30 1012 42 10000 4.12 90 13:59 08.11.2021
5522 Clouds 30 1012 40 10000 4.63 100 12:44 08.11.2021
5523 Clear 32 1012 35 10000 5.66 110 11:28 08.11.2021
5524 Clear 32 1012 32 10000 2.06 0 10:18 08.11.2021
5525 Clear 32 1013 37 10000 4.63 180 08:56 08.11.2021
5526 Clear 30 1014 45 10000 4.12 180 07:47 08.11.2021
5527 Clear 29 1014 54 10000 4.12 180 06:50 08.11.2021
5528 Clear 26 1012 65 10000 1.54 170 03:34 08.11.2021
5529 Clear 26 1011 61 10000 1.03 170 23:51 07.11.2021
5530 Clear 27 1011 60 10000 1.54 140 22:30 07.11.2021
5531 Clear 28 1011 56 10000 2.06 120 21:22 07.11.2021
5532 Clear 28 1011 58 10000 3.6 110 19:55 07.11.2021
5533 Clear 29 1011 53 10000 4.12 100 18:26 07.11.2021
5534 Clear 29 1010 48 10000 4.12 90 17:38 07.11.2021
5535 Clear 29 1010 51 10000 4.63 90 16:20 07.11.2021
5536 Clear 29 1009 50 10000 5.14 100 14:42 07.11.2021
5537 Clear 29 1009 48 10000 5.66 110 13:57 07.11.2021
5538 Clouds 32 1009 29 10000 2.06 0 11:55 07.11.2021
5539 Clear 32 1010 32 10000 4.12 210 10:22 07.11.2021
5540 Clouds 31 1012 42 10000 5.14 180 08:48 07.11.2021
5541 Clear 25 1010 58 10000 1.03 190 02:49 07.11.2021
5542 Clear 26 1010 59 10000 2.57 150 00:18 07.11.2021
5543 Clear 26 1010 56 10000 1.03 130 22:54 06.11.2021
5544 Clear 27 1011 54 10000 1.03 130 21:43 06.11.2021
5545 Clear 27 1011 54 10000 1.54 130 20:52 06.11.2021
5546 Clear 27 1011 54 10000 2.06 120 19:39 06.11.2021
5547 Clear 28 1012 49 10000 1.54 80 17:30 06.11.2021
5548 Clear 29 1011 45 10000 2.06 50 15:46 06.11.2021
5549 Clouds 31 1010 37 10000 4.12 90 13:39 06.11.2021
5550 Clouds 31 1010 37 10000 4.12 90 13:39 06.11.2021
5551 Clouds 31 1010 32 10000 4.12 80 12:38 06.11.2021
5552 Clear 32 1013 24 10000 3.6 20 09:55 06.11.2021
5553 Clear 31 1014 29 10000 2.06 20 08:33 06.11.2021
5554 Clear 25 1012 71 10000 1.54 280 03:22 06.11.2021
5555 Clear 26 1012 71 10000 2.57 340 23:40 05.11.2021
5556 Clear 27 1012 69 10000 2.57 320 22:52 05.11.2021
5557 Clear 27 1012 74 10000 3.09 330 21:55 05.11.2021
5558 Clouds 27 1013 72 10000 3.09 330 20:25 05.11.2021
5559 Clear 27 1013 70 10000 2.57 340 19:50 05.11.2021
5560 Clouds 28 1013 67 10000 1.54 20 18:42 05.11.2021
5561 Clouds 28 1013 67 8000 1.54 40 17:42 05.11.2021
5562 Clear 28 1012 61 10000 2.57 360 16:35 05.11.2021
5563 Clear 30 1011 51 10000 3.09 80 13:59 05.11.2021
5564 Clear 31 1012 39 10000 3.6 100 11:45 05.11.2021
5565 Clear 31 1014 42 9000 1.54 30 09:22 05.11.2021
5566 Haze 29 1015 59 5000 2.06 290 07:46 05.11.2021
5567 Haze 25 1014 78 3000 1.54 260 05:33 05.11.2021
5568 Haze 25 1014 78 3000 1.54 260 05:33 05.11.2021
5569 Clear 25 1012 78 9000 0 0 02:27 05.11.2021
5570 Clear 26 1012 74 9000 1.03 0 00:54 05.11.2021
5571 Clear 25 1012 76 10000 1.54 10 23:26 04.11.2021
5572 Clear 25 1013 77 10000 1.54 350 22:21 04.11.2021
5573 Clear 26 1013 76 10000 1.54 10 21:52 04.11.2021
5574 Clear 26 1013 76 10000 1.03 0 21:19 04.11.2021
5575 Clear 26 1013 74 10000 1.54 360 20:25 04.11.2021
5576 Clear 27 1013 72 10000 2.06 10 19:48 04.11.2021
5577 Clear 27 1013 72 10000 2.06 10 19:20 04.11.2021
5578 Clear 27 1014 72 8000 2.06 10 18:21 04.11.2021
5579 Clear 28 1013 65 8000 2.06 20 17:26 04.11.2021
5580 Clear 28 1013 65 8000 2.06 20 17:26 04.11.2021
5581 Clear 28 1012 67 7000 4.12 20 15:35 04.11.2021
5582 Clear 30 1012 50 7000 4.12 50 13:45 04.11.2021
5583 Clear 32 1013 35 10000 2.57 280 09:50 04.11.2021
5584 Clear 31 1015 41 9000 2.06 0 08:31 04.11.2021
5585 Dust 31 1015 42 9000 2.06 0 07:35 04.11.2021
5586 Clear 28 1015 65 7000 2.06 270 06:22 04.11.2021
5587 Clear 26 1013 71 10000 1.03 160 22:54 03.11.2021
5588 Clear 26 1013 71 10000 1.03 160 22:54 03.11.2021
5589 Clear 26 1014 73 10000 0 0 21:57 03.11.2021
5590 Clear 26 1014 69 10000 0 0 21:33 03.11.2021
5591 Clear 27 1014 67 10000 0.51 0 20:38 03.11.2021
5592 Clear 27 1014 67 10000 0.51 0 20:19 03.11.2021
5593 Clear 28 1015 61 10000 1.03 0 19:19 03.11.2021
5594 Clear 28 1014 61 10000 2.06 60 18:26 03.11.2021
5595 Clear 29 1014 58 10000 2.57 60 17:41 03.11.2021
5596 Clear 29 1014 56 10000 3.09 40 16:31 03.11.2021
5597 Clear 30 1013 53 10000 4.12 30 15:47 03.11.2021
5598 Clear 30 1013 54 10000 4.12 30 15:29 03.11.2021
5599 Clear 34 1012 27 10000 2.06 20 12:42 03.11.2021
5600 Clear 35 1013 21 10000 2.06 0 11:28 03.11.2021
5601 Clear 36 1014 17 10000 2.57 290 10:49 03.11.2021
5602 Clear 32 1014 23 10000 3.09 350 09:34 03.11.2021
5603 Clear 33 1015 25 9000 1.54 260 08:37 03.11.2021
5604 Clear 30 1016 36 9000 3.09 360 07:39 03.11.2021
5605 Clear 28 1015 47 7000 1.54 220 05:44 03.11.2021
5606 Clear 24 1014 62 9000 2.06 220 04:21 03.11.2021
5607 Clear 24 1013 60 10000 1.03 0 00:54 03.11.2021
5608 Clear 25 1014 65 10000 0.51 0 22:52 02.11.2021
5609 Clear 25 1014 63 10000 0.51 0 21:47 02.11.2021
5610 Clear 26 1014 57 10000 1.54 340 20:34 02.11.2021
5611 Clear 27 1014 55 10000 1.03 0 19:55 02.11.2021
5612 Clear 28 1014 54 10000 1.54 10 19:20 02.11.2021
5613 Clear 28 1014 52 10000 1.03 0 18:27 02.11.2021
5614 Clear 29 1014 57 10000 2.06 330 17:43 02.11.2021
5615 Clear 29 1013 72 10000 1.54 360 16:33 02.11.2021
5616 Clear 30 1013 68 10000 2.06 10 15:48 02.11.2021
5617 Clear 31 1013 62 10000 3.09 10 14:50 02.11.2021
5618 Clear 33 1012 40 10000 3.6 20 13:29 02.11.2021
5619 Clear 34 1012 34 10000 4.12 10 12:45 02.11.2021
5620 Clear 35 1013 28 10000 4.63 360 11:38 02.11.2021
5621 Clear 35 1013 25 10000 4.12 320 10:54 02.11.2021
5622 Clear 35 1014 26 10000 4.63 310 10:32 02.11.2021
5623 Clear 35 1015 26 10000 4.12 310 09:23 02.11.2021
5624 Clear 32 1016 40 10000 4.12 300 07:45 02.11.2021
5625 Clear 26 1014 73 9000 3.09 290 04:39 02.11.2021
5626 Clear 26 1014 78 10000 3.09 300 02:49 02.11.2021
5627 Clear 26 1014 81 9000 3.09 300 23:39 01.11.2021
5628 Clear 27 1015 83 9000 3.09 300 21:28 01.11.2021
5629 Clear 27 1015 78 10000 3.6 330 20:42 01.11.2021
5630 Clear 28 1015 69 10000 3.09 330 19:58 01.11.2021
5631 Clear 28 1015 71 10000 3.09 330 19:58 01.11.2021
5632 Clear 28 1015 71 10000 3.09 330 19:38 01.11.2021
5633 Clear 28 1015 69 10000 4.12 330 18:23 01.11.2021
5634 Clear 29 1015 63 10000 4.63 340 17:35 01.11.2021
5635 Clear 31 1015 56 10000 5.14 340 16:51 01.11.2021
5636 Clear 31 1014 51 10000 6.17 340 15:57 01.11.2021
5637 Clear 31 1014 62 10000 4.63 360 15:27 01.11.2021
5638 Clear 31 1014 60 10000 5.14 360 14:44 01.11.2021
5639 Clear 31 1014 64 10000 4.63 10 14:23 01.11.2021
5640 Clear 32 1014 58 10000 4.63 360 13:49 01.11.2021
5641 Clear 34 1014 34 10000 5.14 350 12:34 01.11.2021
5642 Clear 35 1015 31 10000 5.14 340 11:26 01.11.2021
5643 Clear 34 1016 34 10000 5.14 340 09:43 01.11.2021
5644 Clear 31 1019 52 10000 3.6 300 07:50 01.11.2021
5645 Clear 30 1019 54 10000 3.6 310 07:30 01.11.2021
5646 Clear 26 1018 80 10000 2.06 310 03:45 01.11.2021
5647 Clear 26 1017 76 10000 2.06 320 00:41 01.11.2021
5648 Clear 27 1018 78 10000 4.63 330 22:32 31.10.2021
5649 Clear 27 1019 72 10000 4.12 330 20:50 31.10.2021
5650 Clear 27 1019 69 10000 3.6 330 19:20 31.10.2021
5651 Clear 28 1019 65 10000 4.12 330 18:38 31.10.2021
5652 Clear 29 1019 70 10000 4.63 350 17:31 31.10.2021
5653 Clear 29 1018 60 10000 5.14 360 15:50 31.10.2021
5654 Clear 32 1018 40 10000 4.63 360 13:58 31.10.2021
5655 Clear 33 1018 42 10000 4.63 20 12:49 31.10.2021
5656 Clear 33 1018 37 10000 4.63 10 11:40 31.10.2021
5657 Clear 33 1019 31 10000 4.63 10 10:42 31.10.2021
5658 Clear 33 1020 35 10000 3.6 360 09:21 31.10.2021
5659 Clear 33 1020 35 10000 3.6 360 09:21 31.10.2021
5660 Clear 30 1022 54 10000 3.09 350 07:20 31.10.2021
5661 Clear 26 1019 79 10000 2.06 340 00:58 31.10.2021
5662 Clear 27 1020 72 10000 0.51 40 22:45 30.10.2021
5663 Clear 28 1020 72 10000 1.54 40 21:35 30.10.2021
5664 Clear 28 1019 63 10000 3.2 63 20:33 30.10.2021
5665 Clear 29 1019 68 10000 2.06 70 18:43 30.10.2021
5666 Clouds 30 1019 64 10000 4.12 80 16:53 30.10.2021
5667 Clouds 30 1019 64 10000 4.12 80 16:53 30.10.2021
5668 Clouds 31 1018 55 10000 5.14 110 14:50 30.10.2021
5669 Clouds 32 1018 55 10000 5.66 110 13:39 30.10.2021
5670 Clouds 32 1018 55 10000 5.66 110 13:21 30.10.2021
5671 Clouds 32 1019 55 10000 5.66 110 11:58 30.10.2021
5672 Clouds 32 1019 55 10000 5.66 110 11:39 30.10.2021
5673 Clouds 32 1020 55 10000 5.14 100 10:32 30.10.2021
5674 Clouds 32 1021 55 10000 5.14 110 08:52 30.10.2021
5675 Clear 29 1020 68 10000 2.57 100 06:26 30.10.2021
5676 Clear 28 1020 68 10000 2.06 90 05:39 30.10.2021
5677 Clear 28 1017 70 10000 2.06 60 00:43 30.10.2021
5678 Clear 29 1018 66 10000 3.09 80 22:37 29.10.2021
5679 Clear 29 1018 63 10000 4.12 80 21:52 29.10.2021
5680 Clear 29 1018 63 10000 4.12 70 20:44 29.10.2021
5681 Clear 29 1018 68 10000 4.12 70 19:49 29.10.2021
5682 Clear 29 1017 63 10000 3.6 50 18:32 29.10.2021
5683 Clear 30 1016 64 10000 4.12 60 16:51 29.10.2021
5684 Clouds 31 1015 58 10000 3.6 100 14:32 29.10.2021
5685 Clouds 31 1016 61 10000 5.14 100 11:43 29.10.2021
5686 Clouds 31 1017 62 10000 5.66 110 10:35 29.10.2021
5687 Clear 31 1018 57 10000 5.66 120 08:19 29.10.2021
5688 Clear 27 1014 78 10000 1.54 90 00:36 29.10.2021
5689 Clear 27 1014 78 10000 1.54 90 00:36 29.10.2021
5690 Clear 27 1014 70 10000 1.54 110 22:58 28.10.2021
5691 Clear 27 1015 74 10000 1.54 120 21:55 28.10.2021
5692 Clear 28 1015 68 10000 1.54 90 20:29 28.10.2021
5693 Clear 28 1015 65 10000 2.06 90 19:46 28.10.2021
5694 Clear 29 1015 63 10000 2.57 100 18:20 28.10.2021
5695 Clear 29 1014 70 10000 2.06 80 16:58 28.10.2021
5696 Clear 30 1014 62 10000 3.09 80 15:20 28.10.2021
5697 Clear 31 1014 55 10000 4.12 80 13:45 28.10.2021
5698 Clear 31 1014 53 10000 4.63 100 13:21 28.10.2021
5699 Clear 31 1014 53 10000 4.12 110 12:39 28.10.2021
5700 Clear 32 1015 45 10000 3.09 90 10:54 28.10.2021
5701 Clear 31 1016 51 10000 3.09 60 09:38 28.10.2021
5702 Clear 31 1016 49 10000 3.6 100 08:55 28.10.2021
5703 Clear 30 1016 62 10000 3.6 90 08:28 28.10.2021
5704 Clear 24 1013 71 10000 1.54 40 04:42 28.10.2021
5705 Clear 26 1013 53 10000 0.51 0 23:50 27.10.2021
5706 Clear 26 1014 63 10000 0.51 0 22:31 27.10.2021
5707 Clear 27 1014 63 10000 1.54 340 21:33 27.10.2021
5708 Clear 27 1014 65 10000 1.54 350 20:53 27.10.2021
5709 Clear 27 1014 65 10000 2.06 350 19:57 27.10.2021
5710 Clear 28 1014 59 10000 1.03 350 19:38 27.10.2021
5711 Clear 28 1014 61 10000 0.51 0 18:39 27.10.2021
5712 Clear 30 1013 46 10000 3.09 20 16:27 27.10.2021
5713 Clear 31 1013 44 10000 3.6 30 15:30 27.10.2021
5714 Clear 32 1013 42 10000 4.63 360 14:39 27.10.2021
5715 Clear 32 1014 39 10000 5.14 360 11:28 27.10.2021
5716 Clear 32 1015 40 10000 5.14 350 10:58 27.10.2021
5717 Clear 31 1015 51 10000 5.14 10 09:45 27.10.2021
5718 Clear 30 1016 56 10000 4.63 350 08:22 27.10.2021
5719 Clear 28 1015 65 10000 3.6 340 06:53 27.10.2021
5720 Clear 27 1013 57 10000 3.09 310 01:45 27.10.2021
5721 Clear 27 1014 57 10000 3.09 310 00:56 27.10.2021
5722 Clear 27 1014 57 10000 3.09 300 00:26 27.10.2021
5723 Clear 27 1014 56 10000 3.09 300 23:41 26.10.2021
5724 Clear 28 1014 51 10000 3.09 310 22:37 26.10.2021
5725 Clear 28 1014 47 10000 4.12 300 21:57 26.10.2021
5726 Clear 29 1014 40 10000 3.09 300 20:36 26.10.2021
5727 Clear 29 1014 37 10000 3.09 320 19:26 26.10.2021
5728 Clear 30 1014 31 10000 4.12 330 18:40 26.10.2021
5729 Clear 31 1013 31 10000 6.17 330 16:22 26.10.2021
5730 Clear 32 1012 36 10000 6.17 350 14:19 26.10.2021
5731 Clear 32 1013 32 10000 7.2 360 11:34 26.10.2021
5732 Clear 32 1014 34 10000 5.66 360 10:20 26.10.2021
5733 Clear 30 1015 43 10000 3.6 330 07:25 26.10.2021
5734 Clear 26 1013 53 10000 2.57 330 03:39 26.10.2021
5735 Clear 26 1013 53 10000 2.57 330 03:39 26.10.2021
5736 Clear 28 1013 55 10000 4.12 330 23:50 25.10.2021
5737 Clear 27 1013 59 10000 2.57 350 22:53 25.10.2021
5738 Clear 28 1013 61 10000 3.09 350 22:18 25.10.2021
5739 Clear 28 1013 61 10000 3.09 350 21:38 25.10.2021
5740 Clear 29 1013 61 10000 4.63 340 19:50 25.10.2021
5741 Clear 29 1013 66 10000 4.12 350 19:25 25.10.2021
5742 Clear 29 1013 63 10000 4.63 360 18:53 25.10.2021
5743 Clear 29 1012 63 10000 4.12 360 17:48 25.10.2021
5744 Clear 30 1011 57 10000 4.12 20 15:45 25.10.2021
5745 Clear 31 1011 59 10000 3.09 60 14:20 25.10.2021
5746 Clear 31 1011 59 10000 4.63 90 12:24 25.10.2021
5747 Clouds 32 1013 58 10000 4.12 90 10:20 25.10.2021
5748 Clear 31 1013 57 10000 1.54 120 08:28 25.10.2021
5749 Clear 27 1013 83 8000 1.03 0 05:59 25.10.2021
5750 Clear 27 1010 72 10000 1.03 70 00:54 25.10.2021
5751 Clear 27 1010 72 10000 1.03 70 00:35 25.10.2021
5752 Clear 28 1011 70 10000 0.51 0 23:46 24.10.2021
5753 Clear 28 1011 70 10000 1.03 0 22:43 24.10.2021
5754 Clear 28 1011 67 10000 0.51 0 22:21 24.10.2021
5755 Clear 28 1011 68 10000 1.03 0 21:38 24.10.2021
5756 Clear 28 1011 70 10000 1.54 140 20:42 24.10.2021
5757 Clear 28 1011 68 10000 2.06 130 19:54 24.10.2021
5758 Clear 28 1011 69 10000 2.57 130 18:49 24.10.2021
5759 Clear 29 1011 68 10000 3.09 130 17:54 24.10.2021
5760 Clear 29 1011 68 10000 3.09 130 16:40 24.10.2021
5761 Clear 30 1011 64 10000 4.12 110 15:25 24.10.2021
5762 Clear 32 1011 48 10000 4.63 110 13:44 24.10.2021
5763 Clear 33 1011 42 10000 2.57 70 12:40 24.10.2021
5764 Clear 33 1012 39 10000 2.57 40 11:37 24.10.2021
5765 Clear 32 1013 44 10000 3.09 10 10:43 24.10.2021
5766 Clear 30 1014 54 10000 3.09 330 08:51 24.10.2021
5767 Clear 24 1012 67 10000 1.54 0 03:30 24.10.2021
5768 Clear 27 1013 57 10000 3.09 310 23:56 23.10.2021
5769 Clear 27 1013 55 10000 3.09 310 22:55 23.10.2021
5770 Clear 28 1014 55 10000 3.6 320 21:20 23.10.2021
5771 Clear 28 1014 53 10000 4.63 340 19:37 23.10.2021
5772 Clear 29 1014 47 10000 5.66 330 18:45 23.10.2021
5773 Clear 30 1013 42 10000 6.69 330 17:46 23.10.2021
5774 Clear 30 1013 42 10000 7.72 330 17:18 23.10.2021
5775 Clear 32 1013 35 10000 6.17 330 15:57 23.10.2021
5776 Clear 32 1013 48 10000 6.69 10 13:35 23.10.2021
5777 Clear 27 1013 57 10000 3.6 310 00:45 23.10.2021
5778 Clear 27 1014 56 10000 4.12 320 23:36 22.10.2021
5779 Clear 28 1014 54 10000 5.14 330 21:37 22.10.2021
5780 Clear 28 1015 49 10000 5.14 320 19:33 22.10.2021
5781 Clear 29 1014 46 10000 5.14 320 18:25 22.10.2021
5782 Clear 31 1013 38 10000 7.2 330 16:30 22.10.2021
5783 Clear 33 1013 35 10000 8.23 330 14:44 22.10.2021
5784 Clear 33 1013 39 10000 10.29 360 12:41 22.10.2021
5785 Clear 33 1014 38 10000 9.77 360 10:56 22.10.2021
5786 Clear 33 1014 35 10000 8.75 340 09:57 22.10.2021
5787 Clear 32 1015 36 10000 8.75 340 09:34 22.10.2021
5788 Clear 30 1014 42 10000 7.2 320 07:31 22.10.2021
5789 Clear 29 1014 48 10000 6.17 320 06:46 22.10.2021
5790 Clear 28 1012 51 10000 6.69 310 00:53 22.10.2021
5791 Clear 29 1012 45 10000 6.17 300 23:49 21.10.2021
5792 Clear 29 1012 49 10000 6.69 300 22:43 21.10.2021
5793 Clear 29 1013 51 10000 6.17 310 21:28 21.10.2021
5794 Clear 30 1013 48 10000 6.69 320 20:23 21.10.2021
5795 Clear 30 1013 48 10000 5.66 320 19:51 21.10.2021
5796 Clear 30 1013 48 10000 5.14 320 19:24 21.10.2021
5797 Clear 30 1013 45 10000 5.14 320 18:32 21.10.2021
5798 Clear 31 1013 40 10000 6.17 320 17:51 21.10.2021
5799 Clear 32 1012 36 10000 5.14 320 16:47 21.10.2021
5800 Clear 34 1012 32 10000 9.26 330 15:29 21.10.2021
5801 Clear 34 1012 37 10000 8.23 340 14:53 21.10.2021
5802 Clear 34 1012 38 10000 10.29 350 13:57 21.10.2021
5803 Clear 35 1013 38 10000 7.72 360 11:56 21.10.2021
5804 Clear 34 1014 39 10000 8.75 340 09:39 21.10.2021
5805 Clear 31 1014 54 10000 8.23 330 07:48 21.10.2021
5806 Clear 30 1014 59 10000 6.17 330 06:35 21.10.2021
5807 Clear 29 1012 59 10000 5.66 330 00:39 21.10.2021
5808 Clear 29 1013 61 10000 4.12 320 22:29 20.10.2021
5809 Clear 30 1013 59 10000 5.14 320 21:47 20.10.2021
5810 Clear 30 1013 54 10000 4.63 330 20:58 20.10.2021
5811 Clear 30 1013 56 10000 4.63 330 20:39 20.10.2021
5812 Clear 30 1012 54 10000 4.63 330 20:18 20.10.2021
5813 Clear 30 1012 47 10000 4.63 340 19:23 20.10.2021
5814 Clear 31 1012 54 10000 4.63 330 18:29 20.10.2021
5815 Clear 31 1011 64 10000 5.14 350 16:37 20.10.2021
5816 Clear 34 1011 50 10000 6.69 10 13:54 20.10.2021
5817 Clear 35 1012 37 10000 7.72 340 09:53 20.10.2021
5818 Clear 28 1012 74 10000 5.14 310 05:34 20.10.2021
5819 Clear 28 1010 67 10000 4.12 300 02:35 20.10.2021
5820 Clear 29 1011 60 10000 4.63 300 00:33 20.10.2021
5821 Clear 29 1011 58 10000 4.12 300 22:37 19.10.2021
5822 Clear 30 1011 54 10000 5.66 300 21:37 19.10.2021
5823 Clear 30 1012 52 10000 4.12 310 20:26 19.10.2021
5824 Clear 30 1012 51 10000 4.63 310 19:58 19.10.2021
5825 Clear 30 1012 51 10000 5.14 310 19:34 19.10.2021
5826 Clear 30 1011 51 10000 5.66 310 18:40 19.10.2021
5827 Clear 31 1011 45 10000 5.66 320 17:47 19.10.2021
5828 Clear 34 1010 37 10000 7.72 320 15:29 19.10.2021
5829 Clear 35 1010 31 10000 7.72 330 14:37 19.10.2021
5830 Clear 36 1010 29 10000 7.2 320 13:52 19.10.2021
5831 Clear 36 1010 30 10000 7.2 330 12:23 19.10.2021
5832 Clear 36 1010 31 10000 6.69 330 11:24 19.10.2021
5833 Clear 35 1012 33 10000 6.17 310 09:55 19.10.2021
5834 Clear 34 1012 38 10000 6.17 320 08:56 19.10.2021
5835 Clear 29 1010 53 10000 4.63 310 02:18 19.10.2021
5836 Clear 30 1010 52 10000 5.14 310 23:59 18.10.2021
5837 Clear 30 1010 52 10000 5.14 310 23:40 18.10.2021
5838 Clear 30 1010 51 10000 5.14 310 22:56 18.10.2021
5839 Clear 30 1011 52 10000 4.63 320 22:30 18.10.2021
5840 Clear 31 1011 51 10000 5.66 320 20:50 18.10.2021
5841 Clear 31 1010 49 10000 5.14 320 20:30 18.10.2021
5842 Clear 31 1010 48 10000 5.14 320 19:32 18.10.2021
5843 Clear 31 1010 48 10000 5.66 320 18:59 18.10.2021
5844 Clear 33 1009 38 10000 6.69 320 16:48 18.10.2021
5845 Clear 37 1008 28 10000 8.23 340 14:47 18.10.2021
5846 Clear 37 1008 29 10000 7.2 360 12:28 18.10.2021
5847 Clear 36 1010 40 10000 6.17 350 10:25 18.10.2021
5848 Clear 35 1010 46 10000 4.12 320 09:25 18.10.2021
5849 Clear 28 1008 83 10000 0.51 100 01:23 18.10.2021
5850 Clear 28 1009 84 10000 0.51 360 23:20 17.10.2021
5851 Clear 29 1009 80 10000 1.03 0 21:45 17.10.2021
5852 Clear 29 1009 79 10000 1.03 330 20:58 17.10.2021
5853 Clear 30 1009 75 10000 1.54 40 20:26 17.10.2021
5854 Clear 30 1009 75 10000 1.54 50 19:38 17.10.2021
5855 Clear 30 1009 65 10000 1.96 110 18:35 17.10.2021
5856 Clear 32 1007 62 10000 1.54 100 16:57 17.10.2021
5857 Clear 34 1007 52 10000 3.09 110 14:42 17.10.2021
5858 Clear 34 1007 47 10000 3.09 90 14:23 17.10.2021
5859 Clear 34 1007 53 10000 3.6 110 13:34 17.10.2021
5860 Clear 34 1007 56 10000 3.6 100 11:54 17.10.2021
5861 Clouds 33 1008 64 8000 4.12 100 10:20 17.10.2021
5862 Clouds 32 1009 68 7000 4.12 90 09:22 17.10.2021
5863 Mist 28 1009 89 4000 3.09 340 06:56 17.10.2021
5864 Clear 29 1006 82 8000 2.06 30 00:50 17.10.2021
5865 Clear 29 1006 77 8000 1.54 340 23:43 16.10.2021
5866 Clear 29 1006 70 10000 0.51 0 21:29 16.10.2021
5867 Clear 30 1007 66 10000 0 0 20:30 16.10.2021
5868 Clear 31 1007 62 10000 1.03 90 19:43 16.10.2021
5869 Clear 31 1007 60 10000 0.51 70 19:21 16.10.2021
5870 Clear 32 1007 60 10000 1.54 120 18:51 16.10.2021
5871 Clear 32 1006 62 10000 2.06 110 18:29 16.10.2021
5872 Clear 32 1006 52 10000 1.03 120 17:53 16.10.2021
5873 Clear 32 1006 52 10000 0.51 0 17:21 16.10.2021
5874 Clear 35 1005 43 10000 3.6 100 13:59 16.10.2021
5875 Clear 35 1006 41 10000 3.09 20 11:31 16.10.2021
5876 Clear 34 1007 49 10000 1.54 350 10:25 16.10.2021
5877 Clouds 30 1008 71 6000 1.03 0 06:51 16.10.2021
5878 Clouds 28 1007 86 7000 4.12 330 01:25 16.10.2021
5879 Clear 29 1007 74 9000 3.09 290 23:50 15.10.2021
5880 Clear 29 1007 78 10000 1.54 320 22:24 15.10.2021
5881 Clear 30 1007 74 10000 1.03 0 21:56 15.10.2021
5882 Clear 30 1008 72 10000 1.54 360 21:24 15.10.2021
5883 Clear 30 1008 77 10000 1.54 10 20:45 15.10.2021
5884 Clear 31 1008 72 9000 1.54 360 19:26 15.10.2021
5885 Clear 31 1008 72 9000 1.54 360 18:40 15.10.2021
5886 Clear 32 1007 66 8000 2.57 10 16:28 15.10.2021
5887 Clear 33 1007 55 8000 4.12 360 15:28 15.10.2021
5888 Clear 35 1008 42 10000 4.12 40 12:41 15.10.2021
5889 Clear 36 1009 34 10000 2.57 20 11:26 15.10.2021
5890 Clear 37 1009 31 10000 3.6 360 10:43 15.10.2021
5891 Clear 34 1011 46 10000 1.54 0 08:59 15.10.2021
5892 Clear 27 1010 78 9000 1.54 250 05:31 15.10.2021
5893 Clear 28 1010 76 10000 3.09 310 00:44 15.10.2021
5894 Clear 28 1010 76 10000 2.06 320 00:21 15.10.2021
5895 Clear 28 1010 74 10000 1.54 330 22:50 14.10.2021
5896 Clear 29 1011 72 10000 2.57 330 21:43 14.10.2021
5897 Clear 30 1011 66 10000 3.09 350 20:38 14.10.2021
5898 Clear 30 1011 68 10000 3.09 360 20:18 14.10.2021
5899 Clear 30 1011 68 10000 3.09 360 19:32 14.10.2021
5900 Clear 31 1010 60 10000 3.6 10 17:26 14.10.2021
5901 Clear 31 1010 62 10000 4.63 10 16:48 14.10.2021
5902 Clear 32 1010 60 8000 6.17 10 15:33 14.10.2021
5903 Clear 33 1010 57 8000 6.17 10 14:41 14.10.2021
5904 Clear 35 1010 49 10000 5.14 30 13:35 14.10.2021
5905 Clear 35 1011 45 10000 4.12 360 11:43 14.10.2021
5906 Clear 33 1013 47 10000 4.12 350 09:55 14.10.2021
5907 Clear 31 1012 44 10000 2.56 328 06:54 14.10.2021
5908 Clear 29 1010 57 10000 2.87 353 00:57 14.10.2021
5909 Clear 29 1010 59 10000 2.81 8 00:22 14.10.2021
5910 Clear 31 1011 60 10000 3.6 360 21:53 13.10.2021
5911 Clear 31 1011 60 10000 3.6 360 21:32 13.10.2021
5912 Clear 31 1011 64 10000 3.6 360 19:48 13.10.2021
5913 Clear 31 1011 68 9000 4.12 10 18:49 13.10.2021
5914 Clear 32 1010 60 9000 3.6 30 17:55 13.10.2021
5915 Clear 33 1009 55 6000 4.63 30 15:32 13.10.2021
5916 Clear 33 1009 54 9000 4.12 20 14:45 13.10.2021
5917 Clear 34 1009 55 10000 5.14 50 12:58 13.10.2021
5918 Clear 34 1010 55 10000 4.63 80 11:59 13.10.2021
5919 Clear 34 1011 54 10000 4.63 90 10:47 13.10.2021
5920 Clear 33 1012 52 10000 4.12 60 08:29 13.10.2021
5921 Clear 32 1011 59 10000 3.6 50 06:41 13.10.2021
5922 Clear 30 1009 64 10000 2.57 20 02:26 13.10.2021
5923 Clear 30 1009 74 10000 3.09 350 00:18 13.10.2021
5924 Clear 30 1009 70 10000 2.57 360 23:29 12.10.2021
5925 Clear 30 1009 70 10000 2.57 360 22:44 12.10.2021
5926 Clear 31 1009 66 10000 2.06 10 21:30 12.10.2021
5927 Clear 31 1009 66 10000 3.09 10 20:34 12.10.2021
5928 Clear 31 1009 70 10000 3.09 20 19:57 12.10.2021
5929 Clear 32 1009 62 10000 3.09 40 18:27 12.10.2021
5930 Clear 32 1008 64 10000 3.09 40 17:44 12.10.2021
5931 Clear 33 1008 60 10000 3.6 30 16:38 12.10.2021
5932 Clear 33 1008 55 10000 4.12 40 15:46 12.10.2021
5933 Clear 34 1008 49 10000 4.63 30 14:39 12.10.2021
5934 Clouds 34 1007 48 10000 4.63 50 13:43 12.10.2021
5935 Clear 34 1008 46 10000 4.63 50 11:37 12.10.2021
5936 Clear 33 1010 52 10000 4.63 100 09:42 12.10.2021
5937 Clear 33 1010 54 10000 4.12 90 08:42 12.10.2021
5938 Clear 33 1010 54 10000 4.12 90 08:42 12.10.2021
5939 Clear 32 1010 58 10000 2.57 80 06:56 12.10.2021
5940 Clear 30 1009 68 10000 2.06 50 05:29 12.10.2021
5941 Clear 30 1008 70 10000 2.57 30 04:31 12.10.2021
5942 Clear 30 1007 74 10000 4.63 340 00:28 12.10.2021
5943 Clear 30 1008 72 10000 4.12 340 23:40 11.10.2021
5944 Clear 30 1008 74 10000 4.63 360 22:57 11.10.2021
5945 Clear 30 1008 70 10000 3.6 360 21:45 11.10.2021
5946 Clear 31 1008 68 10000 3.6 360 20:35 11.10.2021
5947 Clear 31 1009 66 10000 5.14 360 19:38 11.10.2021
5948 Clear 31 1008 68 10000 5.66 350 18:25 11.10.2021
5949 Clear 32 1007 60 10000 4.63 360 16:51 11.10.2021
5950 Clear 32 1007 58 10000 5.66 360 16:31 11.10.2021
5951 Clear 32 1007 58 10000 5.14 360 15:47 11.10.2021
5952 Clear 33 1007 52 10000 6.17 360 14:54 11.10.2021
5953 Clear 34 1007 51 10000 5.66 10 14:22 11.10.2021
5954 Clear 33 1006 54 10000 5.66 10 13:36 11.10.2021
5955 Clear 33 1006 54 10000 5.66 10 13:36 11.10.2021
5956 Clear 34 1007 52 10000 5.14 10 11:37 11.10.2021
5957 Clear 34 1009 46 10000 5.66 350 10:30 11.10.2021
5958 Clear 33 1010 46 10000 4.63 330 08:42 11.10.2021
5959 Clear 28 1008 57 10000 1.54 270 03:49 11.10.2021
5960 Clear 28 1008 54 10000 1.54 250 01:36 11.10.2021
5961 Clear 29 1008 51 10000 1.54 290 00:44 11.10.2021
5962 Clear 30 1008 45 10000 2.57 330 23:57 10.10.2021
5963 Clear 30 1009 49 10000 3.6 340 21:51 10.10.2021
5964 Clear 31 1009 48 10000 4.12 320 21:29 10.10.2021
5965 Clear 31 1009 49 10000 4.63 310 20:42 10.10.2021
5966 Clear 31 1009 49 10000 5.66 310 20:20 10.10.2021
5967 Clear 31 1009 48 10000 4.63 310 19:52 10.10.2021
5968 Clear 31 1009 48 10000 4.63 310 19:33 10.10.2021
5969 Clear 33 1009 36 10000 4.12 310 18:32 10.10.2021
5970 Clear 37 1008 18 10000 6.17 330 15:59 10.10.2021
5971 Clear 37 1008 19 10000 6.17 330 15:40 10.10.2021
5972 Clear 38 1008 23 10000 8.75 350 13:42 10.10.2021
5973 Clear 38 1008 20 10000 8.75 340 12:48 10.10.2021
5974 Clear 39 1008 19 10000 8.23 340 12:30 10.10.2021
5975 Clear 37 1009 29 10000 8.75 350 10:37 10.10.2021
5976 Clear 36 1010 34 10000 6.69 340 09:29 10.10.2021
5977 Clear 35 1010 35 10000 7.2 340 08:52 10.10.2021
5978 Clear 32 1010 47 10000 4.63 320 06:36 10.10.2021
5979 Clear 31 1008 56 10000 4.63 310 02:29 10.10.2021
5980 Clear 31 1008 53 10000 4.63 320 00:55 10.10.2021
5981 Clear 32 1008 46 10000 4.63 310 23:52 09.10.2021
5982 Clear 32 1008 46 10000 4.63 310 23:52 09.10.2021
5983 Clear 33 1008 41 10000 5.14 310 22:39 09.10.2021
5984 Clear 33 1008 42 10000 5.66 310 21:31 09.10.2021
5985 Clear 33 1008 40 10000 5.66 320 20:59 09.10.2021
5986 Clear 33 1008 40 10000 5.66 320 20:59 09.10.2021
5987 Clear 33 1008 39 10000 5.66 320 19:43 09.10.2021
5988 Clear 34 1008 33 10000 6.69 320 18:57 09.10.2021
5989 Clear 34 1008 34 10000 6.17 320 18:32 09.10.2021
5990 Clear 36 1007 27 10000 8.23 330 16:28 09.10.2021
5991 Clear 36 1007 27 10000 8.23 330 16:28 09.10.2021
5992 Clear 38 1007 27 10000 7.72 350 14:57 09.10.2021
5993 Clear 38 1007 28 10000 8.75 350 13:41 09.10.2021
5994 Clear 38 1008 26 10000 9.77 340 12:38 09.10.2021
5995 Clear 39 1008 25 10000 10.29 340 11:33 09.10.2021
5996 Clear 38 1008 30 10000 9.77 340 10:38 09.10.2021
5997 Clear 37 1009 35 10000 8.75 340 09:35 09.10.2021
5998 Clear 35 1009 40 10000 6.17 330 08:28 09.10.2021
5999 Clear 34 1009 46 10000 6.69 330 07:37 09.10.2021
6000 Clear 31 1007 60 10000 3.6 310 05:28 09.10.2021
6001 Clear 31 1007 62 10000 4.12 310 02:49 09.10.2021
6002 Clear 31 1007 62 10000 4.12 310 02:21 09.10.2021
6003 Clear 31 1007 60 10000 3.6 310 23:36 08.10.2021
6004 Clear 32 1007 60 10000 3.6 300 22:53 08.10.2021
6005 Clear 32 1007 58 10000 4.12 320 21:50 08.10.2021
6006 Clear 32 1007 58 10000 3.6 320 20:36 08.10.2021
6007 Clear 34 1007 49 10000 4.63 320 18:51 08.10.2021
6008 Clear 35 1006 45 10000 5.14 330 17:28 08.10.2021
6009 Clear 35 1006 55 10000 3.6 360 16:50 08.10.2021
6010 Clear 35 1006 55 10000 4.12 10 16:22 08.10.2021
6011 Clear 36 1007 54 10000 4.63 10 13:56 08.10.2021
6012 Clear 36 1007 47 10000 5.14 20 12:48 08.10.2021
6013 Clear 37 1008 41 10000 6.17 360 11:31 08.10.2021
6014 Clear 37 1009 38 10000 4.63 340 10:35 08.10.2021
6015 Clear 32 1009 63 7000 4.12 290 07:34 08.10.2021
6016 Clear 31 1008 72 10000 2.06 10 23:33 07.10.2021
6017 Clear 31 1008 74 10000 2.06 360 22:58 07.10.2021
6018 Clear 31 1008 70 10000 3.6 350 21:33 07.10.2021
6019 Clear 32 1008 68 10000 3.09 360 20:56 07.10.2021
6020 Clear 32 1008 68 10000 2.57 10 19:40 07.10.2021
6021 Clear 32 1008 68 10000 1.54 30 19:22 07.10.2021
6022 Clouds 33 1007 66 10000 2.57 80 17:38 07.10.2021
6023 Clouds 33 1007 62 10000 2.57 90 16:43 07.10.2021
6024 Clear 34 1007 61 10000 4.12 110 15:23 07.10.2021
6025 Clear 35 1007 59 10000 3.6 110 13:45 07.10.2021
6026 Clear 35 1007 59 10000 4.12 90 13:21 07.10.2021
6027 Clear 35 1008 59 10000 4.12 100 12:36 07.10.2021
6028 Clouds 35 1009 57 10000 4.12 110 10:48 07.10.2021
6029 Clear 35 1009 59 10000 2.57 100 10:19 07.10.2021
6030 Clear 34 1010 61 10000 3.09 120 08:56 07.10.2021
6031 Clear 34 1010 61 10000 2.57 0 08:25 07.10.2021
6032 Clear 33 1010 64 10000 2.57 100 07:41 07.10.2021
6033 Clear 32 1009 68 10000 2.57 100 06:54 07.10.2021
6034 Clear 30 1007 75 10000 1.54 60 02:22 07.10.2021
6035 Clear 31 1007 70 10000 2.06 20 23:37 06.10.2021
6036 Clear 31 1007 70 10000 1.54 50 22:41 06.10.2021
6037 Clear 31 1007 68 10000 1.54 20 21:45 06.10.2021
6038 Clear 32 1007 64 10000 2.57 90 20:34 06.10.2021
6039 Clear 32 1007 66 10000 3.09 100 19:46 06.10.2021
6040 Clear 32 1007 64 10000 3.6 100 18:33 06.10.2021
6041 Clear 32 1006 62 10000 4.12 100 16:52 06.10.2021
6042 Clear 33 1006 58 10000 4.63 110 15:25 06.10.2021
6043 Clear 34 1006 57 10000 4.12 100 13:32 06.10.2021
6044 Clear 34 1006 56 10000 4.12 110 12:54 06.10.2021
6045 Clear 34 1006 56 10000 4.12 110 12:30 06.10.2021
6046 Clear 34 1007 56 10000 4.12 110 11:49 06.10.2021
6047 Clouds 34 1009 62 9000 3.09 100 09:57 06.10.2021
6048 Clouds 34 1009 60 9000 3.09 100 09:38 06.10.2021
6049 Clouds 33 1009 66 8000 2.06 100 08:40 06.10.2021
6050 Clouds 32 1008 70 7000 1.54 140 06:47 06.10.2021
6051 Clouds 30 1007 74 8000 2.06 140 05:19 06.10.2021
6052 Clear 31 1006 68 10000 1.54 360 00:26 06.10.2021
6053 Clear 31 1006 68 10000 1.03 20 23:52 05.10.2021
6054 Clear 31 1006 68 10000 1.03 20 23:52 05.10.2021
6055 Clear 31 1006 68 10000 1.03 20 23:52 05.10.2021
6056 Clear 32 1006 66 10000 1.54 30 23:32 05.10.2021
6057 Clear 32 1007 64 10000 1.54 30 22:44 05.10.2021
6058 Clear 32 1007 70 10000 2.06 70 21:58 05.10.2021
6059 Clear 32 1007 68 10000 2.06 60 21:35 05.10.2021
6060 Clear 32 1007 68 10000 1.54 80 20:38 05.10.2021
6061 Clear 32 1007 68 10000 2.06 80 20:19 05.10.2021
6062 Clear 32 1007 66 10000 2.06 60 19:26 05.10.2021
6063 Clear 32 1007 66 10000 2.57 40 18:45 05.10.2021
6064 Clear 33 1006 60 10000 2.57 60 16:35 05.10.2021
6065 Clear 35 1005 59 10000 4.12 90 14:29 05.10.2021
6066 Clear 36 1005 56 10000 2.57 130 13:29 05.10.2021
6067 Clear 35 1006 57 10000 3.09 110 12:36 05.10.2021
6068 Clear 35 1006 59 10000 3.09 80 11:58 05.10.2021
6069 Clear 34 1007 57 10000 3.09 100 10:39 05.10.2021
6070 Clear 35 1008 52 10000 2.57 100 08:39 05.10.2021
6071 Clear 30 1006 72 10000 0.51 60 03:38 05.10.2021
6072 Clear 30 1006 70 10000 1.03 110 23:52 04.10.2021
6073 Clear 31 1006 68 10000 1.03 0 21:54 04.10.2021
6074 Clear 32 1007 64 10000 2.57 20 18:55 04.10.2021
6075 Clear 33 1006 62 10000 2.06 40 17:58 04.10.2021
6076 Clear 33 1005 57 10000 3.09 80 16:22 04.10.2021
6077 Clear 34 1005 59 10000 3.6 80 15:31 04.10.2021
6078 Clear 34 1005 57 10000 4.63 90 14:42 04.10.2021
6079 Clear 35 1006 54 10000 5.66 100 13:48 04.10.2021
6080 Clear 35 1006 56 10000 5.66 90 13:23 04.10.2021
6081 Clear 35 1006 56 10000 5.66 100 11:35 04.10.2021
6082 Clear 35 1007 54 10000 6.17 100 10:48 04.10.2021
6083 Clear 34 1008 56 10000 6.69 110 09:51 04.10.2021
6084 Clear 35 1008 52 10000 6.69 120 08:33 04.10.2021
6085 Clear 33 1008 66 10000 5.14 110 06:51 04.10.2021
6086 Clear 32 1006 82 7000 2.06 70 23:43 03.10.2021
6087 Clear 32 1006 82 10000 2.06 60 22:33 03.10.2021
6088 Clear 32 1006 80 10000 2.57 80 21:37 03.10.2021
6089 Clouds 32 1006 77 7000 3.09 70 20:54 03.10.2021
6090 Clouds 32 1006 79 8000 3.09 80 19:56 03.10.2021
6091 Clear 33 1005 73 9000 3.6 70 18:33 03.10.2021
6092 Clouds 33 1005 68 10000 3.6 70 17:43 03.10.2021
6093 Clouds 33 1004 71 8000 4.12 80 15:51 03.10.2021
6094 Clouds 33 1004 69 8000 3.09 90 14:42 03.10.2021
6095 Haze 34 1004 66 8000 3.6 120 13:57 03.10.2021
6096 Clear 34 1004 63 10000 5.14 80 13:20 03.10.2021
6097 Clear 34 1004 63 10000 4.12 110 12:24 03.10.2021
6098 Clear 35 1005 59 10000 5.14 110 10:35 03.10.2021
6099 Clear 34 1006 64 10000 5.14 120 08:36 03.10.2021
6100 Clear 30 1003 77 10000 2.57 330 00:41 03.10.2021
6101 Clear 31 1003 77 10000 3.09 340 22:33 02.10.2021
6102 Clear 33 1004 64 10000 1.54 0 20:55 02.10.2021
6103 Clear 33 1003 68 10000 1.54 210 19:32 02.10.2021
6104 Clear 33 1003 68 10000 2.06 170 18:50 02.10.2021
6105 Clear 32 1003 69 10000 2.57 120 17:39 02.10.2021
6106 Clear 33 1002 60 10000 2.57 100 16:54 02.10.2021
6107 Clear 36 1002 49 10000 2.57 40 14:42 02.10.2021
6108 Clear 34 1004 56 10000 4.12 30 15:41 30.09.2021
6109 Clear 35 1004 48 10000 6.17 20 14:46 30.09.2021
6110 Clear 40 1004 22 10000 4.12 350 12:27 30.09.2021
6111 Clear 40 1005 19 10000 2.57 330 11:31 30.09.2021
6112 Clear 40 1005 16 10000 2.06 280 10:40 30.09.2021
6113 Clear 36 1007 34 10000 2.57 0 08:56 30.09.2021
6114 Clear 35 1007 40 10000 2.57 250 08:27 30.09.2021
6115 Clouds 29 1006 79 7000 1.03 0 05:53 30.09.2021
6116 Clear 30 1004 79 10000 0.51 0 02:59 30.09.2021
6117 Clear 31 1004 72 10000 1.03 0 00:40 30.09.2021
6118 Clear 31 1004 72 10000 1.03 0 23:29 29.09.2021
6119 Clear 31 1005 68 10000 1.03 90 21:55 29.09.2021
6120 Clear 32 1005 66 10000 1.54 90 20:57 29.09.2021
6121 Clear 32 1006 64 10000 1.54 80 20:23 29.09.2021
6122 Clear 32 1006 64 10000 1.54 40 19:38 29.09.2021
6123 Clear 32 1005 69 10000 2.57 20 18:22 29.09.2021
6124 Clear 33 1004 60 10000 3.6 30 17:26 29.09.2021
6125 Clear 33 1004 51 10000 3.6 20 16:43 29.09.2021
6126 Clear 34 1004 41 10000 3.6 40 15:45 29.09.2021
6127 Clear 35 1004 41 10000 4.12 90 14:38 29.09.2021
6128 Clear 35 1004 39 10000 3.6 100 13:40 29.09.2021
6129 Clear 36 1004 34 10000 3.6 60 12:46 29.09.2021
6130 Clear 35 1005 41 10000 3.6 70 11:26 29.09.2021
6131 Clear 36 1005 41 10000 2.57 60 10:38 29.09.2021
6132 Clear 35 1006 40 10000 2.06 30 09:47 29.09.2021
6133 Clear 34 1006 43 10000 2.06 20 08:44 29.09.2021
6134 Clear 31 1006 52 10000 2.06 360 06:53 29.09.2021
6135 Clear 29 1004 72 10000 1.03 60 00:51 29.09.2021
6136 Clear 29 1004 70 10000 0.51 60 23:20 28.09.2021
6137 Clear 29 1005 72 10000 0.51 70 22:22 28.09.2021
6138 Clear 29 1005 70 10000 0.51 100 21:25 28.09.2021
6139 Clear 30 1005 68 10000 0.51 90 20:26 28.09.2021
6140 Clear 31 1005 64 10000 0.51 120 19:41 28.09.2021
6141 Clear 31 1004 64 10000 2.06 120 18:44 28.09.2021
6142 Clear 32 1004 58 10000 3.6 130 17:30 28.09.2021
6143 Clear 33 1003 54 10000 4.12 100 15:21 28.09.2021
6144 Clear 33 1003 52 10000 4.63 80 13:28 28.09.2021
6145 Clear 34 1004 48 10000 4.12 110 12:28 28.09.2021
6146 Clear 34 1004 49 10000 4.12 100 11:57 28.09.2021
6147 Clear 34 1004 46 10000 4.12 100 11:39 28.09.2021
6148 Clear 34 1005 47 10000 4.12 110 10:47 28.09.2021
6149 Clear 34 1005 46 10000 2.57 100 09:45 28.09.2021
6150 Clear 32 1006 53 10000 3.09 120 08:44 28.09.2021
6151 Clear 32 1006 52 10000 1.54 0 08:25 28.09.2021
6152 Clear 30 1005 66 10000 1.54 350 06:47 28.09.2021
6153 Clear 28 1004 65 10000 2.06 340 04:48 28.09.2021
6154 Clear 30 1003 54 10000 1.54 220 01:22 28.09.2021
6155 Clear 31 1003 55 10000 2.06 220 00:20 28.09.2021
6156 Clear 31 1004 56 10000 1.54 200 23:30 27.09.2021
6157 Clear 31 1004 55 10000 1.54 160 22:45 27.09.2021
6158 Clear 31 1004 57 10000 1.54 170 21:41 27.09.2021
6159 Clear 32 1004 53 10000 2.57 170 20:38 27.09.2021
6160 Clear 32 1004 51 10000 3.09 150 19:43 27.09.2021
6161 Clear 32 1004 51 10000 3.09 130 19:23 27.09.2021
6162 Clear 32 1003 53 10000 3.09 130 18:31 27.09.2021
6163 Clear 33 1003 49 10000 2.57 110 17:28 27.09.2021
6164 Clear 33 1003 49 10000 3.09 100 16:41 27.09.2021
6165 Clear 34 1002 43 10000 4.12 110 15:43 27.09.2021
6166 Clear 35 1002 38 10000 3.09 350 14:43 27.09.2021
6167 Clear 36 1002 36 10000 3.6 360 13:31 27.09.2021
6168 Clear 36 1004 34 10000 3.6 310 11:23 27.09.2021
6169 Clouds 35 1005 38 9000 4.63 310 09:54 27.09.2021
6170 Clouds 34 1005 39 7000 3.6 290 08:40 27.09.2021
6171 Dust 31 1004 33 5000 4.63 290 05:21 27.09.2021
6172 Dust 31 1003 32 5000 3.09 280 02:59 27.09.2021
6173 Dust 32 1004 36 5000 5.14 300 22:32 26.09.2021
6174 Clouds 32 1004 39 6000 5.66 310 21:50 26.09.2021
6175 Clear 32 1005 44 7000 5.66 310 20:52 26.09.2021
6176 Clear 32 1005 44 8000 6.17 310 20:21 26.09.2021
6177 Clear 32 1005 45 10000 4.63 310 19:42 26.09.2021
6178 Clear 32 1005 45 10000 6.17 320 18:45 26.09.2021
6179 Clear 33 1005 41 10000 5.66 310 17:54 26.09.2021
6180 Clear 34 1005 38 10000 5.14 320 17:22 26.09.2021
6181 Clear 35 1004 36 10000 7.2 330 16:37 26.09.2021
6182 Clear 36 1004 28 8000 9.26 330 15:58 26.09.2021
6183 Clear 38 1004 28 6000 8.75 330 14:46 26.09.2021
6184 Clear 38 1004 31 6000 11.32 340 13:54 26.09.2021
6185 Dust 39 1005 27 5000 10.8 340 12:59 26.09.2021
6186 Dust 38 1005 30 5000 10.8 340 12:20 26.09.2021
6187 Dust 38 1005 27 5000 10.8 340 11:37 26.09.2021
6188 Dust 38 1006 29 3000 10.8 350 10:23 26.09.2021
6189 Clear 37 1006 39 8000 8.75 340 08:56 26.09.2021
6190 Clear 32 1006 66 10000 5.14 300 06:32 26.09.2021
6191 Clear 31 1005 72 10000 3.09 290 00:22 26.09.2021
6192 Clear 31 1005 68 10000 2.06 270 23:24 25.09.2021
6193 Clear 31 1006 68 10000 2.57 310 22:38 25.09.2021
6194 Clear 31 1006 68 10000 2.06 330 21:55 25.09.2021
6195 Clear 31 1006 70 10000 2.06 340 21:31 25.09.2021
6196 Clear 32 1006 70 10000 2.57 340 20:45 25.09.2021
6197 Clear 32 1006 64 10000 1.03 0 18:55 25.09.2021
6198 Clear 33 1005 58 10000 2.06 40 17:55 25.09.2021
6199 Clear 34 1005 56 10000 3.6 100 15:48 25.09.2021
6200 Clear 34 1005 56 10000 3.6 100 15:48 25.09.2021
6201 Clear 35 1005 51 10000 4.63 100 13:57 25.09.2021
6202 Clear 35 1005 49 10000 5.66 100 13:31 25.09.2021
6203 Clear 37 1005 29 10000 4.12 50 12:27 25.09.2021
6204 Clear 35 1007 40 10000 4.12 20 10:34 25.09.2021
6205 Clear 34 1008 39 10000 2.57 10 09:32 25.09.2021
6206 Clear 32 1008 50 10000 2.06 340 07:56 25.09.2021
6207 Clear 29 1007 57 10000 1.03 0 05:51 25.09.2021
6208 Clear 30 1006 53 10000 1.03 30 23:51 24.09.2021
6209 Clear 31 1006 51 10000 1.54 30 21:42 24.09.2021
6210 Clear 32 1006 47 10000 2.06 30 20:34 24.09.2021
6211 Clear 32 1006 44 10000 1.54 40 19:47 24.09.2021
6212 Clear 32 1005 44 10000 3.09 70 18:34 24.09.2021
6213 Clear 33 1005 41 10000 3.09 60 17:54 24.09.2021
6214 Clear 33 1005 40 10000 3.09 60 17:36 24.09.2021
6215 Clear 33 1005 40 10000 3.09 60 17:18 24.09.2021
6216 Clear 34 1004 40 10000 4.63 40 13:57 24.09.2021
6217 Clear 35 1005 36 10000 4.63 60 12:58 24.09.2021
6218 Clear 35 1005 39 10000 4.63 60 12:39 24.09.2021
6219 Clear 35 1005 42 10000 5.14 50 12:20 24.09.2021
6220 Clear 35 1006 37 10000 3.09 50 10:27 24.09.2021
6221 Clear 34 1006 40 10000 2.06 360 08:54 24.09.2021
6222 Clear 33 1006 41 10000 1.54 80 07:34 24.09.2021
6223 Clear 32 1006 50 10000 1.54 40 06:45 24.09.2021
6224 Clear 28 1004 67 10000 0 0 04:54 24.09.2021
6225 Clear 29 1003 66 10000 0.51 340 00:26 24.09.2021
6226 Clear 30 1004 62 10000 0 0 22:30 23.09.2021
6227 Clear 31 1004 54 10000 2.57 340 21:52 23.09.2021
6228 Clear 32 1004 41 10000 2.06 350 20:34 23.09.2021
6229 Clear 32 1004 34 10000 2.57 350 19:46 23.09.2021
6230 Clear 33 1003 54 10000 1.54 20 17:46 23.09.2021
6231 Clear 37 1002 29 10000 3.6 30 15:30 23.09.2021
6232 Clear 37 1002 22 10000 4.12 10 14:59 23.09.2021
6233 Clear 38 1002 30 10000 4.63 20 13:45 23.09.2021
6234 Clear 39 1002 22 10000 4.12 20 13:20 23.09.2021
6235 Clear 39 1002 18 10000 5.14 10 12:52 23.09.2021
6236 Clear 39 1003 17 10000 5.66 20 12:22 23.09.2021
6237 Clear 39 1003 17 10000 2.57 10 11:32 23.09.2021
6238 Clear 38 1004 18 10000 4.63 360 10:25 23.09.2021
6239 Clear 37 1004 23 10000 3.6 320 09:52 23.09.2021
6240 Clear 36 1005 27 10000 3.6 300 08:21 23.09.2021
6241 Clear 29 1002 57 10000 2.57 250 03:50 23.09.2021
6242 Clear 30 1003 56 10000 2.06 280 23:27 22.09.2021
6243 Clear 31 1003 48 10000 2.06 290 22:29 22.09.2021
6244 Clear 32 1003 41 10000 2.57 300 21:55 22.09.2021
6245 Clear 31 1003 45 10000 2.06 340 21:33 22.09.2021
6246 Clear 31 1003 46 10000 2.57 350 20:52 22.09.2021
6247 Clear 33 1003 42 10000 4.63 330 19:29 22.09.2021
6248 Clear 34 1003 39 10000 5.14 330 18:39 22.09.2021
6249 Clear 35 1002 34 10000 5.66 340 17:47 22.09.2021
6250 Clear 34 1003 33 10000 5.5 339 16:37 22.09.2021
6251 Clear 39 1001 25 10000 7.2 340 15:19 22.09.2021
6252 Clear 37 1002 49 10000 4.63 20 13:48 22.09.2021
6253 Clear 38 1003 31 10000 6.17 10 11:57 22.09.2021
6254 Clear 39 1003 22 10000 5.14 310 10:45 22.09.2021
6255 Clear 38 1004 25 10000 3.6 300 09:24 22.09.2021
6256 Clear 36 1005 32 10000 3.09 280 08:28 22.09.2021
6257 Clear 34 1005 37 10000 3.6 270 07:19 22.09.2021
6258 Clear 31 1004 51 10000 2.06 260 05:56 22.09.2021
6259 Clear 30 1004 51 10000 2.06 260 05:34 22.09.2021
6260 Clear 29 1003 59 10000 2.57 240 03:50 22.09.2021
6261 Clear 30 1003 56 10000 1.54 250 00:22 22.09.2021
6262 Clear 31 1004 56 10000 1.54 330 22:54 21.09.2021
6263 Clear 32 1004 49 10000 3.09 330 21:36 21.09.2021
6264 Clear 31 1005 45 10000 4.15 339 20:26 21.09.2021
6265 Clear 34 1004 38 10000 4.63 320 19:20 21.09.2021
6266 Clear 33 1004 36 10000 4.83 339 17:36 21.09.2021
6267 Clear 37 1003 25 10000 5.14 320 16:35 21.09.2021
6268 Clear 38 1003 24 10000 5.66 320 15:39 21.09.2021
6269 Clear 39 1003 19 10000 6.17 320 14:57 21.09.2021
6270 Clear 39 1003 28 10000 5.66 320 13:56 21.09.2021
6271 Clear 39 1003 28 10000 5.66 320 13:36 21.09.2021
6272 Clear 38 1004 35 10000 6.69 10 12:35 21.09.2021
6273 Clear 39 1005 28 10000 6.17 330 10:26 21.09.2021
6274 Clear 36 1006 33 10000 5.14 310 08:28 21.09.2021
6275 Clear 33 1006 42 10000 3.09 280 06:53 21.09.2021
6276 Clear 33 1005 46 10000 4.12 300 23:59 20.09.2021
6277 Clear 33 1006 55 10000 4.63 330 22:27 20.09.2021
6278 Clear 33 1006 52 10000 5.14 330 21:40 20.09.2021
6279 Clear 34 1006 50 10000 4.12 320 20:34 20.09.2021
6280 Clear 34 1006 49 10000 5.66 330 19:31 20.09.2021
6281 Clear 35 1005 51 10000 7.2 340 17:47 20.09.2021
6282 Clear 34 1004 67 10000 6.69 10 16:43 20.09.2021
6283 Clear 35 1004 65 10000 6.69 10 15:50 20.09.2021
6284 Clear 35 1004 65 10000 5.66 20 15:32 20.09.2021
6285 Clear 36 1004 59 10000 5.66 10 14:24 20.09.2021
6286 Clear 37 1004 45 10000 4.12 360 12:35 20.09.2021
6287 Clear 38 1005 39 10000 3.09 20 11:44 20.09.2021
6288 Clear 37 1006 40 10000 3.09 50 10:24 20.09.2021
6289 Clear 37 1007 44 10000 3.6 360 09:37 20.09.2021
6290 Clear 37 1007 44 10000 3.09 10 09:18 20.09.2021
6291 Clear 36 1007 45 10000 4.63 350 08:27 20.09.2021
6292 Clear 31 1004 64 10000 1.03 350 01:43 20.09.2021
6293 Clear 32 1005 68 10000 0.51 0 22:26 19.09.2021
6294 Clear 32 1005 69 10000 1.03 350 21:45 19.09.2021
6295 Clear 33 1005 65 10000 2.57 10 20:53 19.09.2021
6296 Clear 34 1005 61 10000 3.6 360 19:32 19.09.2021
6297 Clear 34 1005 59 10000 2.57 10 18:32 19.09.2021
6298 Clear 35 1005 51 10000 3.09 10 17:23 19.09.2021
6299 Clear 36 1004 48 10000 3.09 20 16:32 19.09.2021
6300 Clear 38 1004 36 10000 4.12 360 15:31 19.09.2021
6301 Clear 38 1004 34 10000 4.12 40 14:48 19.09.2021
6302 Clear 38 1004 35 10000 3.6 50 13:29 19.09.2021
6303 Clear 38 1005 35 10000 4.12 80 12:52 19.09.2021
6304 Clear 38 1005 40 10000 3.6 110 11:39 19.09.2021
6305 Clear 38 1006 37 10000 4.12 110 11:20 19.09.2021
6306 Clear 38 1006 37 10000 4.12 70 09:49 19.09.2021
6307 Clear 37 1006 42 10000 2.06 0 08:41 19.09.2021
6308 Clear 33 1005 79 10000 3.6 360 06:43 19.09.2021
6309 Clear 33 1003 66 10000 2.06 40 23:57 18.09.2021
6310 Clear 33 1003 64 10000 3.09 60 22:51 18.09.2021
6311 Clear 34 1003 62 10000 3.6 40 21:25 18.09.2021
6312 Clear 34 1004 59 10000 3.09 40 20:45 18.09.2021
6313 Clear 34 1004 54 10000 3.6 40 19:41 18.09.2021
6314 Clear 34 1004 54 10000 4.12 20 19:21 18.09.2021
6315 Clear 34 1002 59 10000 3.6 70 18:37 18.09.2021
6316 Clear 34 1002 62 10000 4.12 70 17:46 18.09.2021
6317 Clear 35 1002 59 10000 5.66 70 16:34 18.09.2021
6318 Clear 37 1002 48 10000 5.66 80 13:50 18.09.2021
6319 Clear 37 1002 51 10000 6.17 80 13:30 18.09.2021
6320 Clear 37 1002 51 10000 6.17 80 12:50 18.09.2021
6321 Clear 39 1003 26 10000 4.63 110 11:42 18.09.2021
6322 Clear 39 1003 27 10000 3.09 100 10:35 18.09.2021
6323 Clear 37 1004 39 10000 4.12 90 09:52 18.09.2021
6324 Clear 37 1004 36 10000 3.6 100 09:20 18.09.2021
6325 Clear 34 1003 44 10000 1.54 210 06:54 18.09.2021
6326 Clouds 32 1001 44 10000 1.07 293 00:42 18.09.2021
6327 Clouds 32 1002 45 10000 1.06 279 23:52 17.09.2021
6328 Clear 32 1002 47 10000 1.01 224 22:40 17.09.2021
6329 Clear 33 1002 58 10000 0.51 0 22:20 17.09.2021
6330 Clear 33 1002 60 10000 1.03 350 21:24 17.09.2021
6331 Clear 34 1002 51 10000 0.51 20 19:26 17.09.2021
6332 Clear 36 1001 39 10000 1.54 40 17:29 17.09.2021
6333 Clear 37 1001 36 10000 2.57 50 16:27 17.09.2021
6334 Clear 39 1000 31 10000 5.66 50 14:24 17.09.2021
6335 Clear 40 1002 23 10000 5.14 10 11:30 17.09.2021
6336 Clear 37 1003 29 10000 5.14 330 08:55 17.09.2021
6337 Clear 35 1003 42 10000 4.12 320 07:35 17.09.2021
6338 Clear 32 1002 58 10000 2.06 290 03:58 17.09.2021
6339 Clear 32 1002 60 10000 2.06 340 23:36 16.09.2021
6340 Clear 33 1002 52 10000 3.6 310 22:33 16.09.2021
6341 Clear 33 1002 58 10000 3.09 330 21:52 16.09.2021
6342 Clear 33 1002 64 10000 1.54 350 21:27 16.09.2021
6343 Clear 33 1003 66 10000 2.06 340 20:24 16.09.2021
6344 Clear 34 1002 61 10000 3.6 40 18:24 16.09.2021
6345 Clear 35 1002 55 10000 4.12 10 17:58 16.09.2021
6346 Clear 38 1001 41 10000 5.14 30 15:24 16.09.2021
6347 Clear 39 1001 33 10000 6.69 10 14:33 16.09.2021
6348 Clear 38 1002 41 10000 5.66 10 12:52 16.09.2021
6349 Clear 38 1002 41 10000 5.66 10 12:33 16.09.2021
6350 Clear 39 1003 36 10000 5.66 10 11:43 16.09.2021
6351 Clear 39 1003 36 10000 5.66 10 11:43 16.09.2021
6352 Clear 39 1004 37 10000 5.14 350 10:34 16.09.2021
6353 Clear 38 1004 34 10000 5.14 350 09:59 16.09.2021
6354 Clear 37 1004 39 10000 4.63 330 08:43 16.09.2021
6355 Clear 35 1005 50 10000 3.6 310 07:43 16.09.2021
6356 Clear 33 1004 58 10000 4.63 310 06:54 16.09.2021
6357 Clear 32 1004 62 10000 4.12 300 05:57 16.09.2021
6358 Clear 32 1002 66 10000 3.6 300 01:57 16.09.2021
6359 Clear 32 1003 64 10000 3.6 330 00:37 16.09.2021
6360 Clear 33 1003 62 10000 3.09 320 22:47 15.09.2021
6361 Clear 33 1003 62 10000 3.09 320 22:47 15.09.2021
6362 Clear 33 1003 58 10000 3.6 330 21:48 15.09.2021
6363 Clear 33 1004 58 10000 4.12 340 21:29 15.09.2021
6364 Clear 34 1004 62 10000 4.63 340 20:23 15.09.2021
6365 Clear 33 1003 73 10000 4.63 340 19:28 15.09.2021
6366 Clear 33 1003 75 10000 4.63 10 18:23 15.09.2021
6367 Clear 34 1002 68 10000 5.14 360 17:23 15.09.2021
6368 Clear 35 1002 66 10000 5.14 20 15:59 15.09.2021
6369 Clear 36 1002 59 10000 6.17 50 14:45 15.09.2021
6370 Clear 37 1002 53 10000 5.14 50 13:55 15.09.2021
6371 Clear 37 1002 53 10000 5.14 50 13:37 15.09.2021
6372 Clear 37 1002 51 10000 4.63 50 13:18 15.09.2021
6373 Clear 37 1002 47 10000 5.66 20 11:52 15.09.2021
6374 Clear 37 1003 53 10000 5.66 10 11:32 15.09.2021
6375 Clear 38 1003 42 10000 5.66 360 10:55 15.09.2021
6376 Clear 37 1004 48 10000 4.12 340 09:30 15.09.2021
6377 Clear 35 1004 57 10000 4.63 340 08:26 15.09.2021
6378 Clear 32 1003 62 10000 3.6 320 05:37 15.09.2021
6379 Clear 33 1002 48 10000 4.12 330 23:54 14.09.2021
6380 Clear 33 1003 52 10000 4.63 330 21:42 14.09.2021
6381 Clear 34 1004 50 10000 4.12 330 20:55 14.09.2021
6382 Clear 34 1003 51 10000 4.12 330 19:42 14.09.2021
6383 Clear 35 1002 57 10000 6.17 350 17:45 14.09.2021
6384 Clear 35 1002 57 10000 6.69 360 17:27 14.09.2021
6385 Clear 36 1001 52 10000 5.66 20 15:37 14.09.2021
6386 Clear 38 1001 45 10000 4.12 50 14:31 14.09.2021
6387 Clear 40 1001 28 10000 3.6 30 12:45 14.09.2021
6388 Clear 39 1002 27 10000 3.09 350 10:55 14.09.2021
6389 Clear 38 1003 26 10000 3.09 360 09:51 14.09.2021
6390 Clear 37 1003 27 10000 3.6 320 08:48 14.09.2021
6391 Clear 33 1003 42 10000 3.6 320 06:38 14.09.2021
6392 Clear 33 1001 50 10000 4.12 310 00:33 14.09.2021
6393 Clear 33 1002 52 10000 4.63 310 22:53 13.09.2021
6394 Clear 33 1002 50 10000 3.6 310 22:24 13.09.2021
6395 Clear 33 1002 50 10000 3.6 310 21:51 13.09.2021
6396 Clear 34 1002 50 10000 4.12 320 20:51 13.09.2021
6397 Clear 34 1002 52 10000 4.63 330 19:22 13.09.2021
6398 Clear 35 1001 45 10000 5.66 330 18:39 13.09.2021
6399 Clear 38 1000 33 10000 7.2 330 16:51 13.09.2021
6400 Clear 40 1000 33 10000 6.69 350 15:31 13.09.2021
6401 Clear 38 1001 40 10000 5.66 10 12:26 13.09.2021
6402 Clear 40 1001 33 10000 5.66 340 10:58 13.09.2021
6403 Clear 38 1002 40 10000 5.14 320 09:40 13.09.2021
6404 Clear 32 1001 66 10000 3.6 310 04:59 13.09.2021
6405 Clear 33 1001 60 10000 2.06 300 23:41 12.09.2021
6406 Clear 33 1001 62 10000 3.09 320 22:25 12.09.2021
6407 Clear 33 1001 60 10000 3.09 320 21:37 12.09.2021
6408 Clear 34 1001 60 10000 5.14 330 20:29 12.09.2021
6409 Clear 34 1001 62 10000 5.66 330 19:51 12.09.2021
6410 Clear 34 1001 62 10000 6.17 340 19:19 12.09.2021
6411 Clear 35 1001 66 10000 6.69 350 18:20 12.09.2021
6412 Clear 35 1000 61 10000 7.2 350 16:31 12.09.2021
6413 Clear 37 1000 53 10000 5.14 360 14:54 12.09.2021
6414 Clear 37 1000 52 10000 3.6 10 13:20 12.09.2021
6415 Clear 38 1001 43 10000 3.6 50 11:31 12.09.2021
6416 Clear 35 1002 59 10000 6.17 340 09:00 12.09.2021
6417 Clear 35 1002 60 10000 6.17 340 08:37 12.09.2021
6418 Clear 32 1000 74 9000 3.09 340 01:49 12.09.2021
6419 Clear 33 1000 66 10000 3.6 350 23:20 11.09.2021
6420 Clear 33 1000 68 10000 4.12 330 21:41 11.09.2021
6421 Clear 34 1000 66 10000 5.14 340 20:21 11.09.2021
6422 Clear 34 1000 73 10000 4.63 360 19:20 11.09.2021
6423 Clear 34 999 68 10000 5.14 20 17:29 11.09.2021
6424 Clear 36 999 57 10000 4.63 20 15:44 11.09.2021
6425 Clear 37 999 53 10000 4.63 40 13:30 11.09.2021
6426 Clear 38 999 51 10000 4.63 40 12:48 11.09.2021
6427 Clear 38 1001 39 10000 4.63 10 11:18 11.09.2021
6428 Clear 37 1001 40 10000 4.12 360 09:35 11.09.2021
6429 Clear 36 1002 41 10000 2.57 320 07:44 11.09.2021
6430 Clear 34 1001 52 10000 3.09 310 06:47 11.09.2021
6431 Clear 33 1001 50 10000 3.09 310 23:23 10.09.2021
6432 Clear 33 1001 50 10000 2.57 310 22:23 10.09.2021
6433 Clear 34 1001 49 10000 3.6 330 21:48 10.09.2021
6434 Clear 35 1002 40 10000 5.14 330 19:49 10.09.2021
6435 Clear 36 1001 44 10000 7.2 340 18:20 10.09.2021
6436 Clear 38 1000 37 10000 6.69 330 16:40 10.09.2021
6437 Clear 38 1000 46 10000 7.2 20 13:54 10.09.2021
6438 Clear 39 1001 30 10000 6.17 20 11:54 10.09.2021
6439 Clouds 39 1003 30 9000 6.17 320 08:36 10.09.2021
6440 Clouds 37 1003 38 9000 7.2 330 07:48 10.09.2021
6441 Clear 34 1002 50 10000 4.12 310 00:42 10.09.2021
6442 Clear 35 1002 49 10000 4.12 320 22:24 09.09.2021
6443 Clear 35 1002 50 10000 4.63 320 21:39 09.09.2021
6444 Clear 35 1002 52 10000 5.14 320 20:46 09.09.2021
6445 Clear 37 1001 36 10000 4.63 330 18:58 09.09.2021
6446 Clear 37 1001 36 10000 5.14 310 18:26 09.09.2021
6447 Clear 40 1000 24 10000 4.12 320 16:40 09.09.2021
6448 Clear 41 1000 23 10000 7.72 330 15:27 09.09.2021
6449 Clear 39 1001 44 8000 6.69 20 12:48 09.09.2021
6450 Clear 39 1001 44 8000 5.66 360 11:33 09.09.2021
6451 Clear 40 1002 38 8000 6.69 360 09:50 09.09.2021
6452 Clear 38 1002 47 8000 5.14 340 08:32 09.09.2021
6453 Clouds 34 1002 61 8000 4.12 310 06:25 09.09.2021
6454 Clear 33 1000 70 10000 2.06 270 02:18 09.09.2021
6455 Clear 34 1001 70 10000 2.57 10 22:40 08.09.2021
6456 Clear 34 1001 68 10000 2.57 10 21:23 08.09.2021
6457 Clear 35 1001 61 10000 3.6 10 19:56 08.09.2021
6458 Clear 35 1001 61 10000 4.12 10 18:55 08.09.2021
6459 Clear 35 1001 61 10000 3.6 20 18:28 08.09.2021
6460 Clear 35 1000 57 10000 2.57 70 17:55 08.09.2021
6461 Clear 36 1000 56 10000 3.6 70 16:28 08.09.2021
6462 Clear 37 1000 56 10000 4.12 100 14:23 08.09.2021
6463 Clear 37 1001 45 10000 4.63 90 12:43 08.09.2021
6464 Clear 38 1001 44 10000 4.12 70 12:25 08.09.2021
6465 Clear 38 1002 46 10000 4.12 100 11:29 08.09.2021
6466 Clear 38 1002 42 10000 2.57 70 10:33 08.09.2021
6467 Clear 37 1002 44 10000 4.63 100 09:59 08.09.2021
6468 Clear 36 1003 50 10000 1.54 40 07:55 08.09.2021
6469 Clear 35 1003 57 10000 1.54 40 07:32 08.09.2021
6470 Clear 32 1001 70 10000 1.54 220 04:19 08.09.2021
6471 Clear 33 1001 68 10000 1.54 70 22:38 07.09.2021
6472 Clear 33 1001 65 10000 1.03 0 21:51 07.09.2021
6473 Clear 34 1001 63 10000 1.54 90 19:47 07.09.2021
6474 Clear 35 1001 57 10000 1.54 70 18:40 07.09.2021
6475 Clear 35 1001 57 10000 2.57 80 17:47 07.09.2021
6476 Clear 35 1001 55 10000 3.6 80 16:33 07.09.2021
6477 Clear 38 1000 34 10000 3.09 80 15:35 07.09.2021
6478 Clear 38 1000 33 10000 3.6 60 14:41 07.09.2021
6479 Clear 38 1001 49 10000 5.66 90 12:38 07.09.2021
6480 Clear 38 1001 49 10000 5.14 100 11:36 07.09.2021
6481 Clear 39 1002 38 10000 3.09 130 10:40 07.09.2021
6482 Clear 38 1003 31 10000 1.54 190 08:23 07.09.2021
6483 Clear 34 1003 45 8000 2.06 180 06:44 07.09.2021
6484 Clear 30 1003 51 9000 1.03 110 04:47 07.09.2021
6485 Clear 32 1001 35 10000 1.03 0 02:28 07.09.2021
6486 Clear 33 1001 51 10000 1.03 0 00:23 07.09.2021
6487 Clear 32 1002 62 10000 0.51 0 23:31 06.09.2021
6488 Clear 33 1002 60 10000 1.03 0 22:53 06.09.2021
6489 Clear 33 1002 60 10000 0.51 0 22:32 06.09.2021
6490 Clear 35 1002 54 10000 2.06 10 20:55 06.09.2021
6491 Clear 36 1002 56 10000 3.6 350 19:22 06.09.2021
6492 Clear 36 1002 56 10000 3.6 350 19:22 06.09.2021
6493 Clear 36 1002 56 10000 3.6 350 19:22 06.09.2021
6494 Clear 36 1002 56 10000 3.6 350 19:22 06.09.2021
6495 Clear 36 1002 53 10000 3.6 360 18:46 06.09.2021
6496 Clear 36 1002 51 10000 4.63 350 18:23 06.09.2021
6497 Clear 37 1001 50 10000 4.12 360 17:35 06.09.2021
6498 Clear 38 1001 47 10000 5.66 360 15:43 06.09.2021
6499 Clear 40 1001 35 10000 4.63 30 13:47 06.09.2021
6500 Clear 40 1001 38 10000 4.63 100 12:46 06.09.2021
6501 Clear 41 1002 28 10000 2.57 10 10:44 06.09.2021
6502 Clouds 39 1003 37 9000 2.06 300 07:58 06.09.2021
6503 Clear 33 1002 64 10000 2.57 280 04:43 06.09.2021
6504 Clear 34 1001 66 10000 1.03 0 23:27 05.09.2021
6505 Clear 34 1001 64 10000 0 0 22:46 05.09.2021
6506 Clear 35 1002 66 10000 3.09 10 21:57 05.09.2021
6507 Clear 35 1002 65 10000 2.06 30 21:29 05.09.2021
6508 Clear 35 1001 67 10000 2.57 100 19:50 05.09.2021
6509 Clouds 35 1001 65 9000 2.06 50 18:38 05.09.2021
6510 Clouds 36 1000 63 8000 3.6 40 17:29 05.09.2021
6511 Clear 38 1000 50 9000 5.14 100 15:27 05.09.2021
6512 Clear 39 1000 45 10000 5.14 100 13:54 05.09.2021
6513 Clear 38 1001 50 9000 5.14 100 11:57 05.09.2021
6514 Clear 39 1002 51 9000 3.6 100 10:47 05.09.2021
6515 Clear 38 1001 53 8000 4.12 90 10:22 05.09.2021
6516 Clear 37 1002 56 9000 3.6 20 09:21 05.09.2021
6517 Clear 37 1002 49 10000 1.03 0 07:31 05.09.2021
6518 Clear 34 1000 66 10000 1.54 40 00:46 05.09.2021
6519 Clear 34 1000 66 10000 1.54 40 00:21 05.09.2021
6520 Clear 34 1000 68 10000 1.03 0 23:29 04.09.2021
6521 Clear 35 1001 67 10000 1.54 70 22:35 04.09.2021
6522 Clear 35 1001 69 10000 3.6 50 21:55 04.09.2021
6523 Clear 35 1000 66 10000 3.09 130 19:41 04.09.2021
6524 Clear 36 1000 61 10000 2.57 100 18:19 04.09.2021
6525 Clear 38 999 41 10000 4.63 110 15:53 04.09.2021
6526 Clear 43 1000 21 10000 2.57 0 12:22 04.09.2021
6527 Clear 43 1001 13 10000 3.6 220 11:18 04.09.2021
6528 Clear 39 1002 32 10000 4.63 190 08:58 04.09.2021
6529 Clear 35 999 52 10000 2.06 210 02:32 04.09.2021
6530 Clear 35 999 57 10000 3.6 160 00:23 04.09.2021
6531 Clear 35 999 59 10000 4.12 170 23:23 03.09.2021
6532 Clear 35 1000 61 10000 2.57 140 21:53 03.09.2021
6533 Clear 35 1000 61 10000 3.6 150 21:30 03.09.2021
6534 Clear 35 1000 60 10000 3.09 130 20:35 03.09.2021
6535 Clear 36 1000 55 10000 2.06 120 19:45 03.09.2021
6536 Clear 36 1000 56 10000 3.09 120 18:52 03.09.2021
6537 Clear 37 999 51 10000 3.09 100 17:32 03.09.2021
6538 Clear 39 999 40 10000 3.6 120 16:23 03.09.2021
6539 Clear 40 999 33 10000 4.63 110 14:47 03.09.2021
6540 Clear 40 999 33 10000 4.63 110 14:47 03.09.2021
6541 Clear 40 1000 38 10000 5.14 100 11:56 03.09.2021
6542 Clear 41 1001 25 10000 3.6 190 10:22 03.09.2021
6543 Clear 38 1002 42 10000 5.66 180 08:38 03.09.2021
6544 Clear 36 1002 56 10000 4.63 150 07:34 03.09.2021
6545 Clear 34 1000 59 10000 1.03 0 00:24 03.09.2021
6546 Clear 34 1000 59 10000 1.03 0 00:24 03.09.2021
6547 Clear 34 1001 59 10000 0.51 0 22:43 02.09.2021
6548 Clear 35 1002 61 10000 2.57 120 21:18 02.09.2021
6549 Clear 36 1001 56 10000 4.12 90 18:57 02.09.2021
6550 Clear 36 1001 53 10000 4.63 110 17:22 02.09.2021
6551 Clear 37 1000 49 10000 5.14 100 15:43 02.09.2021
6552 Clear 38 1001 43 10000 6.17 110 13:43 02.09.2021
6553 Clear 38 1003 53 10000 6.17 110 11:46 02.09.2021
6554 Clear 38 1003 53 10000 6.69 110 11:27 02.09.2021
6555 Clear 38 1004 43 10000 3.6 120 09:30 02.09.2021
6556 Clear 37 1004 56 10000 3.6 180 07:45 02.09.2021
6557 Clear 36 1003 59 10000 4.63 150 06:47 02.09.2021
6558 Clear 33 1002 64 10000 0.51 360 02:38 02.09.2021
6559 Clear 33 1002 63 10000 0.51 0 01:53 02.09.2021
6560 Clear 33 1002 63 10000 0.51 0 01:18 02.09.2021
6561 Clear 34 1002 64 10000 1.54 40 23:34 01.09.2021
6562 Clear 34 1003 64 10000 2.57 60 22:31 01.09.2021
6563 Clear 35 1003 63 10000 2.06 60 21:33 01.09.2021
6564 Clear 35 1004 61 10000 3.09 50 19:55 01.09.2021
6565 Clear 36 1003 54 10000 3.6 40 17:58 01.09.2021
6566 Clear 36 1002 56 10000 4.12 40 17:18 01.09.2021
6567 Clear 37 1002 50 10000 4.63 70 16:46 01.09.2021
6568 Clear 38 1002 41 10000 5.14 80 15:23 01.09.2021
6569 Clear 39 1003 37 10000 5.14 100 11:48 01.09.2021
6570 Clear 39 1004 43 10000 4.63 110 10:55 01.09.2021
6571 Clear 38 1005 46 10000 4.12 110 08:46 01.09.2021
6572 Clear 37 1005 48 10000 4.12 130 07:50 01.09.2021
6573 Clear 34 1003 71 10000 2.57 50 23:43 31.08.2021
6574 Clear 35 1003 71 10000 2.57 60 22:29 31.08.2021
6575 Clear 35 1003 67 10000 2.06 90 20:56 31.08.2021
6576 Clear 35 1003 66 10000 3.6 60 19:44 31.08.2021
6577 Clear 36 1002 61 10000 3.09 80 18:23 31.08.2021
6578 Clear 37 1002 57 10000 2.57 70 17:33 31.08.2021
6579 Clouds 37 1002 49 10000 4.12 50 16:49 31.08.2021
6580 Clouds 40 1001 31 10000 3.6 100 15:59 31.08.2021
6581 Clouds 39 1002 43 10000 5.66 110 12:55 31.08.2021
6582 Clear 39 1003 46 10000 6.17 110 11:25 31.08.2021
6583 Clear 39 1003 45 10000 5.66 110 10:45 31.08.2021
6584 Clear 39 1004 41 10000 4.12 160 09:43 31.08.2021
6585 Clear 38 1004 43 10000 4.12 140 08:36 31.08.2021
6586 Clouds 33 1003 79 8000 2.57 140 05:58 31.08.2021
6587 Clear 34 1002 68 10000 1.54 70 00:23 31.08.2021
6588 Clear 34 1002 68 10000 1.54 40 23:25 30.08.2021
6589 Clear 35 1002 63 10000 1.03 30 21:43 30.08.2021
6590 Clear 35 1002 66 10000 1.03 40 20:42 30.08.2021
6591 Clear 35 1002 66 10000 4.12 80 19:58 30.08.2021
6592 Clear 35 1002 63 10000 2.57 40 19:29 30.08.2021
6593 Clear 37 1001 49 10000 2.06 80 18:23 30.08.2021
6594 Clear 38 1001 39 10000 2.57 70 16:49 30.08.2021
6595 Clear 40 1000 33 10000 3.6 90 15:50 30.08.2021
6596 Clear 40 1000 40 10000 3.6 90 14:39 30.08.2021
6597 Clear 40 1000 42 10000 3.09 100 13:27 30.08.2021
6598 Clear 40 1001 39 10000 4.12 110 11:56 30.08.2021
6599 Clear 38 1002 50 10000 4.12 90 08:23 30.08.2021
6600 Clear 35 998 71 10000 1.54 20 22:20 29.08.2021
6601 Clear 35 998 71 10000 1.54 50 21:25 29.08.2021
6602 Clear 35 998 69 10000 3.6 70 19:32 29.08.2021
6603 Clear 36 998 69 10000 4.63 80 18:30 29.08.2021
6604 Clouds 38 996 54 9000 4.12 60 16:33 29.08.2021
6605 Clear 38 996 49 10000 4.63 100 15:25 29.08.2021
6606 Clouds 41 996 36 9000 4.63 100 13:57 29.08.2021
6607 Clouds 40 997 39 8000 4.63 100 12:58 29.08.2021
6608 Clouds 40 997 39 8000 5.14 110 12:19 29.08.2021
6609 Clear 40 997 37 8000 5.66 110 11:41 29.08.2021
6610 Clear 41 998 25 10000 4.63 110 10:49 29.08.2021
6611 Clear 42 998 18 10000 4.12 100 10:30 29.08.2021
6612 Clear 41 998 27 10000 4.12 120 09:44 29.08.2021
6613 Clear 34 998 68 7000 2.06 80 04:39 29.08.2021
6614 Clear 36 996 44 10000 1.54 220 22:58 28.08.2021
6615 Clear 36 997 41 9000 1.54 140 20:34 28.08.2021
6616 Clear 36 997 45 10000 2.06 130 19:30 28.08.2021
6617 Clear 36 996 45 10000 1.54 130 18:26 28.08.2021
6618 Clouds 37 996 47 9000 2.57 100 17:46 28.08.2021
6619 Clouds 38 996 37 9000 2.06 90 16:44 28.08.2021
6620 Clear 39 996 33 8000 3.09 110 15:20 28.08.2021
6621 Clear 41 997 27 8000 3.6 100 13:59 28.08.2021
6622 Clear 41 997 21 8000 2.57 80 13:40 28.08.2021
6623 Clear 41 997 26 8000 4.63 100 12:35 28.08.2021
6624 Clear 41 998 24 8000 3.6 100 11:34 28.08.2021
6625 Clear 38 999 53 7000 3.09 90 09:48 28.08.2021
6626 Haze 37 1000 63 6000 1.03 0 07:56 28.08.2021
6627 Clear 33 997 79 6000 2.06 10 00:59 28.08.2021
6628 Haze 34 998 77 5000 2.57 360 21:29 27.08.2021
6629 Haze 34 998 75 5000 2.57 10 20:52 27.08.2021
6630 Clouds 35 998 71 6000 1.54 80 19:34 27.08.2021
6631 Clouds 35 997 71 6000 2.06 100 18:39 27.08.2021
6632 Haze 36 997 61 5000 2.06 70 17:54 27.08.2021
6633 Haze 37 997 55 6000 3.6 40 16:41 27.08.2021
6634 Clouds 39 997 44 6000 3.6 40 14:49 27.08.2021
6635 Clouds 39 997 44 6000 3.6 40 14:31 27.08.2021
6636 Clear 40 998 31 8000 4.12 30 12:27 27.08.2021
6637 Clear 40 999 31 8000 2.57 360 10:58 27.08.2021
6638 Clear 39 999 35 8000 2.57 360 10:36 27.08.2021
6639 Clear 39 1000 35 8000 2.06 20 08:57 27.08.2021
6640 Clear 39 999 36 8000 2.06 20 08:35 27.08.2021
6641 Clear 33 1000 41 8000 2.06 150 05:37 27.08.2021
6642 Clear 34 998 68 10000 2.06 230 00:47 27.08.2021
6643 Clear 34 998 68 10000 0.51 0 00:28 27.08.2021
6644 Clear 34 998 65 10000 1.03 70 22:27 26.08.2021
6645 Clear 35 999 57 9000 1.54 90 21:48 26.08.2021
6646 Clear 36 999 59 10000 2.57 10 19:42 26.08.2021
6647 Clear 38 998 53 10000 3.6 360 18:26 26.08.2021
6648 Clear 39 998 44 10000 5.66 350 17:25 26.08.2021
6649 Clear 39 998 48 10000 5.66 360 16:27 26.08.2021
6650 Clear 40 998 41 10000 6.69 10 14:47 26.08.2021
6651 Clear 43 998 26 10000 7.72 10 13:21 26.08.2021
6652 Clear 44 999 25 10000 8.75 350 12:33 26.08.2021
6653 Clear 43 999 28 10000 8.23 340 11:38 26.08.2021
6654 Clear 41 1001 26 10000 5.66 310 08:50 26.08.2021
6655 Clear 41 1001 26 10000 5.14 320 08:19 26.08.2021
6656 Clear 35 1000 34 9000 1.54 10 23:43 25.08.2021
6657 Clear 37 1000 32 10000 1.54 260 22:40 25.08.2021
6658 Clear 37 1000 32 10000 1.03 0 22:22 25.08.2021
6659 Clear 39 1001 27 10000 3.09 310 20:57 25.08.2021
6660 Clear 38 1001 31 10000 2.57 310 20:29 25.08.2021
6661 Clear 38 1001 41 10000 4.12 340 18:58 25.08.2021
6662 Clear 38 1001 50 10000 3.6 360 17:53 25.08.2021
6663 Clear 40 1000 34 9000 5.14 10 15:53 25.08.2021
6664 Clear 41 1000 28 10000 6.17 20 15:32 25.08.2021
6665 Clear 43 1000 18 10000 6.17 10 14:46 25.08.2021
6666 Clear 44 1001 18 10000 5.14 10 13:53 25.08.2021
66